<?xml version='1.0' encoding='UTF-8'?>
<gpx version="1.1" creator="https://www.komoot.de" xmlns="http://www.topografix.com/GPX/1/1" xmlns:xsi="http://www.w3.org/2001/XMLSchema-instance" xsi:schemaLocation="http://www.topografix.com/GPX/1/1 http://www.topografix.com/GPX/1/1/gpx.xsd">
  <metadata>
    <name>Étape 21 TDF 2023 depuis Neuilly</name>
    <author>
      <link href="https://www.komoot.de">
        <text>komoot</text>
        <type>text/html</type>
      </link>
    </author>
  </metadata>
  <trk>
    <name>Étape 21 TDF 2023 depuis Neuilly</name>
    <trkseg>
      <trkpt lat="48.884369" lon="2.269340">
        <ele>42.793728</ele>
        <time>2023-07-19T08:35:59.714Z</time>
      </trkpt>
      <trkpt lat="48.884439" lon="2.269026">
        <ele>42.793728</ele>
        <time>2023-07-19T08:36:04.621Z</time>
      </trkpt>
      <trkpt lat="48.884462" lon="2.268923">
        <ele>42.793728</ele>
        <time>2023-07-19T08:36:06.321Z</time>
      </trkpt>
      <trkpt lat="48.884560" lon="2.268487">
        <ele>42.793728</ele>
        <time>2023-07-19T08:36:12.919Z</time>
      </trkpt>
      <trkpt lat="48.884586" lon="2.268373">
        <ele>42.793728</ele>
        <time>2023-07-19T08:36:14.729Z</time>
      </trkpt>
      <trkpt lat="48.884663" lon="2.268043">
        <ele>42.797077</ele>
        <time>2023-07-19T08:36:19.491Z</time>
      </trkpt>
      <trkpt lat="48.884795" lon="2.267467">
        <ele>43.272783</ele>
        <time>2023-07-19T08:36:28.189Z</time>
      </trkpt>
      <trkpt lat="48.884959" lon="2.266741">
        <ele>43.871449</ele>
        <time>2023-07-19T08:36:38.902Z</time>
      </trkpt>
      <trkpt lat="48.884904" lon="2.266710">
        <ele>43.941015</ele>
        <time>2023-07-19T08:36:39.904Z</time>
      </trkpt>
      <trkpt lat="48.884850" lon="2.266678">
        <ele>44.009748</ele>
        <time>2023-07-19T08:36:40.934Z</time>
      </trkpt>
      <trkpt lat="48.883946" lon="2.265544">
        <ele>44.720357</ele>
        <time>2023-07-19T08:37:02.373Z</time>
      </trkpt>
      <trkpt lat="48.883520" lon="2.265191">
        <ele>44.468945</ele>
        <time>2023-07-19T08:37:08.362Z</time>
      </trkpt>
      <trkpt lat="48.883709" lon="2.264575">
        <ele>44.237298</ele>
        <time>2023-07-19T08:37:13.727Z</time>
      </trkpt>
      <trkpt lat="48.883719" lon="2.264545">
        <ele>44.225837</ele>
        <time>2023-07-19T08:37:14.028Z</time>
      </trkpt>
      <trkpt lat="48.884330" lon="2.262609">
        <ele>43.411296</ele>
        <time>2023-07-19T08:37:31.503Z</time>
      </trkpt>
      <trkpt lat="48.884387" lon="2.262421">
        <ele>43.329091</ele>
        <time>2023-07-19T08:37:33.217Z</time>
      </trkpt>
      <trkpt lat="48.884424" lon="2.262302">
        <ele>43.276822</ele>
        <time>2023-07-19T08:37:34.348Z</time>
      </trkpt>
      <trkpt lat="48.884460" lon="2.262181">
        <ele>43.224085</ele>
        <time>2023-07-19T08:37:35.473Z</time>
      </trkpt>
      <trkpt lat="48.884854" lon="2.260948">
        <ele>42.933564</ele>
        <time>2023-07-19T08:37:48.350Z</time>
      </trkpt>
      <trkpt lat="48.884959" lon="2.260633">
        <ele>42.948817</ele>
        <time>2023-07-19T08:37:52.437Z</time>
      </trkpt>
      <trkpt lat="48.884944" lon="2.260441">
        <ele>42.957168</ele>
        <time>2023-07-19T08:37:54.630Z</time>
      </trkpt>
      <trkpt lat="48.884868" lon="2.260282">
        <ele>42.965658</ele>
        <time>2023-07-19T08:37:57.559Z</time>
      </trkpt>
      <trkpt lat="48.884746" lon="2.260215">
        <ele>42.974178</ele>
        <time>2023-07-19T08:38:00.431Z</time>
      </trkpt>
      <trkpt lat="48.884621" lon="2.260264">
        <ele>42.982657</ele>
        <time>2023-07-19T08:38:02.954Z</time>
      </trkpt>
      <trkpt lat="48.884539" lon="2.260417">
        <ele>42.991182</ele>
        <time>2023-07-19T08:38:05.431Z</time>
      </trkpt>
      <trkpt lat="48.884434" lon="2.260368">
        <ele>42.998396</ele>
        <time>2023-07-19T08:38:07.056Z</time>
      </trkpt>
      <trkpt lat="48.883753" lon="2.260045">
        <ele>43.030915</ele>
        <time>2023-07-19T08:38:17.311Z</time>
      </trkpt>
      <trkpt lat="48.883262" lon="2.259812">
        <ele>43.038447</ele>
        <time>2023-07-19T08:38:24.618Z</time>
      </trkpt>
      <trkpt lat="48.883001" lon="2.259688">
        <ele>43.042452</ele>
        <time>2023-07-19T08:38:28.908Z</time>
      </trkpt>
      <trkpt lat="48.882898" lon="2.259639">
        <ele>43.044032</ele>
        <time>2023-07-19T08:38:30.475Z</time>
      </trkpt>
      <trkpt lat="48.882179" lon="2.259298">
        <ele>43.118046</ele>
        <time>2023-07-19T08:38:41.592Z</time>
      </trkpt>
      <trkpt lat="48.881527" lon="2.258989">
        <ele>43.456142</ele>
        <time>2023-07-19T08:38:53.360Z</time>
      </trkpt>
      <trkpt lat="48.881478" lon="2.258965">
        <ele>43.481628</ele>
        <time>2023-07-19T08:38:54.480Z</time>
      </trkpt>
      <trkpt lat="48.881450" lon="2.258952">
        <ele>43.496121</ele>
        <time>2023-07-19T08:38:55.131Z</time>
      </trkpt>
      <trkpt lat="48.881049" lon="2.258653">
        <ele>43.717225</ele>
        <time>2023-07-19T08:39:03.733Z</time>
      </trkpt>
      <trkpt lat="48.881163" lon="2.257093">
        <ele>43.295609</ele>
        <time>2023-07-19T08:39:24.863Z</time>
      </trkpt>
      <trkpt lat="48.881251" lon="2.255839">
        <ele>42.360955</ele>
        <time>2023-07-19T08:39:38.644Z</time>
      </trkpt>
      <trkpt lat="48.881348" lon="2.254596">
        <ele>40.989178</ele>
        <time>2023-07-19T08:39:51.360Z</time>
      </trkpt>
      <trkpt lat="48.880757" lon="2.254090">
        <ele>39.522424</ele>
        <time>2023-07-19T08:39:58.493Z</time>
      </trkpt>
      <trkpt lat="48.879461" lon="2.253111">
        <ele>37.448041</ele>
        <time>2023-07-19T08:40:14.557Z</time>
      </trkpt>
      <trkpt lat="48.878659" lon="2.252425">
        <ele>36.743127</ele>
        <time>2023-07-19T08:40:27.710Z</time>
      </trkpt>
      <trkpt lat="48.877823" lon="2.251711">
        <ele>37.240745</ele>
        <time>2023-07-19T08:40:44.341Z</time>
      </trkpt>
      <trkpt lat="48.877137" lon="2.251124">
        <ele>37.798018</ele>
        <time>2023-07-19T08:40:59.937Z</time>
      </trkpt>
      <trkpt lat="48.877046" lon="2.251046">
        <ele>37.871973</ele>
        <time>2023-07-19T08:41:01.888Z</time>
      </trkpt>
      <trkpt lat="48.876727" lon="2.250762">
        <ele>37.717393</ele>
        <time>2023-07-19T08:41:07.937Z</time>
      </trkpt>
      <trkpt lat="48.876100" lon="2.250211">
        <ele>37.220376</ele>
        <time>2023-07-19T08:41:17.461Z</time>
      </trkpt>
      <trkpt lat="48.875444" lon="2.249646">
        <ele>36.702944</ele>
        <time>2023-07-19T08:41:26.226Z</time>
      </trkpt>
      <trkpt lat="48.874965" lon="2.249211">
        <ele>35.927580</ele>
        <time>2023-07-19T08:41:32.495Z</time>
      </trkpt>
      <trkpt lat="48.874518" lon="2.248804">
        <ele>35.188508</ele>
        <time>2023-07-19T08:41:38.297Z</time>
      </trkpt>
      <trkpt lat="48.874392" lon="2.248684">
        <ele>34.977608</ele>
        <time>2023-07-19T08:41:40.029Z</time>
      </trkpt>
      <trkpt lat="48.874261" lon="2.248559">
        <ele>34.758220</ele>
        <time>2023-07-19T08:41:41.809Z</time>
      </trkpt>
      <trkpt lat="48.874238" lon="2.248537">
        <ele>34.719675</ele>
        <time>2023-07-19T08:41:42.117Z</time>
      </trkpt>
      <trkpt lat="48.873298" lon="2.247574">
        <ele>34.007805</ele>
        <time>2023-07-19T08:41:56.309Z</time>
      </trkpt>
      <trkpt lat="48.872487" lon="2.246832">
        <ele>33.839169</ele>
        <time>2023-07-19T08:42:11.356Z</time>
      </trkpt>
      <trkpt lat="48.871281" lon="2.245856">
        <ele>34.484884</ele>
        <time>2023-07-19T08:42:34.407Z</time>
      </trkpt>
      <trkpt lat="48.870498" lon="2.245273">
        <ele>34.880572</ele>
        <time>2023-07-19T08:42:49.782Z</time>
      </trkpt>
      <trkpt lat="48.869950" lon="2.244855">
        <ele>35.061896</ele>
        <time>2023-07-19T08:43:00.170Z</time>
      </trkpt>
      <trkpt lat="48.869051" lon="2.244123">
        <ele>35.227125</ele>
        <time>2023-07-19T08:43:15.361Z</time>
      </trkpt>
      <trkpt lat="48.868019" lon="2.243177">
        <ele>34.441866</ele>
        <time>2023-07-19T08:43:31.323Z</time>
      </trkpt>
      <trkpt lat="48.867419" lon="2.242602">
        <ele>33.995432</ele>
        <time>2023-07-19T08:43:39.662Z</time>
      </trkpt>
      <trkpt lat="48.867338" lon="2.242393">
        <ele>33.901125</ele>
        <time>2023-07-19T08:43:41.550Z</time>
      </trkpt>
      <trkpt lat="48.867179" lon="2.241672">
        <ele>33.605488</ele>
        <time>2023-07-19T08:43:47.607Z</time>
      </trkpt>
      <trkpt lat="48.867077" lon="2.241036">
        <ele>33.350986</ele>
        <time>2023-07-19T08:43:53.630Z</time>
      </trkpt>
      <trkpt lat="48.867016" lon="2.240387">
        <ele>33.096109</ele>
        <time>2023-07-19T08:43:59.891Z</time>
      </trkpt>
      <trkpt lat="48.866953" lon="2.239768">
        <ele>33.287782</ele>
        <time>2023-07-19T08:44:06.314Z</time>
      </trkpt>
      <trkpt lat="48.866889" lon="2.238885">
        <ele>33.586687</ele>
        <time>2023-07-19T08:44:17.136Z</time>
      </trkpt>
      <trkpt lat="48.866812" lon="2.238460">
        <ele>33.735014</ele>
        <time>2023-07-19T08:44:22.402Z</time>
      </trkpt>
      <trkpt lat="48.866758" lon="2.238169">
        <ele>33.836750</ele>
        <time>2023-07-19T08:44:25.698Z</time>
      </trkpt>
      <trkpt lat="48.866682" lon="2.237821">
        <ele>33.960128</ele>
        <time>2023-07-19T08:44:30.094Z</time>
      </trkpt>
      <trkpt lat="48.866441" lon="2.237024">
        <ele>33.627750</ele>
        <time>2023-07-19T08:44:39.497Z</time>
      </trkpt>
      <trkpt lat="48.866151" lon="2.236304">
        <ele>33.196994</ele>
        <time>2023-07-19T08:44:46.357Z</time>
      </trkpt>
      <trkpt lat="48.866023" lon="2.236007">
        <ele>33.015830</ele>
        <time>2023-07-19T08:44:49.091Z</time>
      </trkpt>
      <trkpt lat="48.865764" lon="2.235526">
        <ele>32.698674</ele>
        <time>2023-07-19T08:44:53.708Z</time>
      </trkpt>
      <trkpt lat="48.865174" lon="2.234598">
        <ele>32.220288</ele>
        <time>2023-07-19T08:45:03.382Z</time>
      </trkpt>
      <trkpt lat="48.865238" lon="2.234466">
        <ele>32.163028</ele>
        <time>2023-07-19T08:45:05.269Z</time>
      </trkpt>
      <trkpt lat="48.865434" lon="2.234052">
        <ele>31.984919</ele>
        <time>2023-07-19T08:45:11.534Z</time>
      </trkpt>
      <trkpt lat="48.865990" lon="2.232857">
        <ele>32.004904</ele>
        <time>2023-07-19T08:45:33.254Z</time>
      </trkpt>
      <trkpt lat="48.866202" lon="2.232298">
        <ele>32.436184</ele>
        <time>2023-07-19T08:45:43.972Z</time>
      </trkpt>
      <trkpt lat="48.866358" lon="2.231799">
        <ele>32.805463</ele>
        <time>2023-07-19T08:45:53.681Z</time>
      </trkpt>
      <trkpt lat="48.866467" lon="2.231441">
        <ele>33.069135</ele>
        <time>2023-07-19T08:45:59.026Z</time>
      </trkpt>
      <trkpt lat="48.866558" lon="2.231121">
        <ele>33.302151</ele>
        <time>2023-07-19T08:46:03.407Z</time>
      </trkpt>
      <trkpt lat="48.866596" lon="2.230979">
        <ele>33.404615</ele>
        <time>2023-07-19T08:46:05.295Z</time>
      </trkpt>
      <trkpt lat="48.867306" lon="2.228323">
        <ele>34.604321</ele>
        <time>2023-07-19T08:46:36.314Z</time>
      </trkpt>
      <trkpt lat="48.867418" lon="2.227900">
        <ele>35.224023</ele>
        <time>2023-07-19T08:46:42.166Z</time>
      </trkpt>
      <trkpt lat="48.867433" lon="2.227842">
        <ele>35.308721</ele>
        <time>2023-07-19T08:46:43.042Z</time>
      </trkpt>
      <trkpt lat="48.867467" lon="2.227721">
        <ele>35.487541</ele>
        <time>2023-07-19T08:46:45.006Z</time>
      </trkpt>
      <trkpt lat="48.867543" lon="2.227529">
        <ele>35.792078</ele>
        <time>2023-07-19T08:46:48.107Z</time>
      </trkpt>
      <trkpt lat="48.867580" lon="2.227496">
        <ele>35.880707</ele>
        <time>2023-07-19T08:46:48.846Z</time>
      </trkpt>
      <trkpt lat="48.867584" lon="2.227381">
        <ele>36.037216</ele>
        <time>2023-07-19T08:46:50.346Z</time>
      </trkpt>
      <trkpt lat="48.867606" lon="2.227306">
        <ele>36.148819</ele>
        <time>2023-07-19T08:46:51.598Z</time>
      </trkpt>
      <trkpt lat="48.867823" lon="2.226571">
        <ele>37.243714</ele>
        <time>2023-07-19T08:47:04.015Z</time>
      </trkpt>
      <trkpt lat="48.867836" lon="2.226529">
        <ele>37.306797</ele>
        <time>2023-07-19T08:47:04.779Z</time>
      </trkpt>
      <trkpt lat="48.867791" lon="2.226493">
        <ele>37.411856</ele>
        <time>2023-07-19T08:47:05.835Z</time>
      </trkpt>
      <trkpt lat="48.867805" lon="2.226459">
        <ele>37.466370</ele>
        <time>2023-07-19T08:47:06.511Z</time>
      </trkpt>
      <trkpt lat="48.867820" lon="2.226425">
        <ele>37.522007</ele>
        <time>2023-07-19T08:47:07.231Z</time>
      </trkpt>
      <trkpt lat="48.867841" lon="2.226349">
        <ele>37.634037</ele>
        <time>2023-07-19T08:47:08.755Z</time>
      </trkpt>
      <trkpt lat="48.867859" lon="2.226303">
        <ele>37.706778</ele>
        <time>2023-07-19T08:47:09.757Z</time>
      </trkpt>
      <trkpt lat="48.867924" lon="2.226120">
        <ele>37.989423</ele>
        <time>2023-07-19T08:47:13.493Z</time>
      </trkpt>
      <trkpt lat="48.867897" lon="2.226099">
        <ele>38.052083</ele>
        <time>2023-07-19T08:47:14.280Z</time>
      </trkpt>
      <trkpt lat="48.867875" lon="2.226081">
        <ele>38.103700</ele>
        <time>2023-07-19T08:47:14.844Z</time>
      </trkpt>
      <trkpt lat="48.867798" lon="2.226025">
        <ele>38.280053</ele>
        <time>2023-07-19T08:47:17.124Z</time>
      </trkpt>
      <trkpt lat="48.867804" lon="2.226006">
        <ele>38.313550</ele>
        <time>2023-07-19T08:47:17.563Z</time>
      </trkpt>
      <trkpt lat="48.867838" lon="2.225904">
        <ele>38.564120</ele>
        <time>2023-07-19T08:47:19.943Z</time>
      </trkpt>
      <trkpt lat="48.868021" lon="2.225367">
        <ele>39.889368</ele>
        <time>2023-07-19T08:47:32.379Z</time>
      </trkpt>
      <trkpt lat="48.868067" lon="2.225220">
        <ele>40.246076</ele>
        <time>2023-07-19T08:47:35.835Z</time>
      </trkpt>
      <trkpt lat="48.868223" lon="2.224771">
        <ele>41.358763</ele>
        <time>2023-07-19T08:47:46.075Z</time>
      </trkpt>
      <trkpt lat="48.868371" lon="2.224274">
        <ele>42.554217</ele>
        <time>2023-07-19T08:47:56.114Z</time>
      </trkpt>
      <trkpt lat="48.868443" lon="2.223942">
        <ele>43.320231</ele>
        <time>2023-07-19T08:48:02.152Z</time>
      </trkpt>
      <trkpt lat="48.868460" lon="2.223720">
        <ele>43.809974</ele>
        <time>2023-07-19T08:48:05.718Z</time>
      </trkpt>
      <trkpt lat="48.868462" lon="2.223528">
        <ele>44.230746</ele>
        <time>2023-07-19T08:48:09.093Z</time>
      </trkpt>
      <trkpt lat="48.868439" lon="2.223346">
        <ele>44.490418</ele>
        <time>2023-07-19T08:48:12.087Z</time>
      </trkpt>
      <trkpt lat="48.868371" lon="2.223114">
        <ele>44.810331</ele>
        <time>2023-07-19T08:48:16.308Z</time>
      </trkpt>
      <trkpt lat="48.868321" lon="2.222962">
        <ele>45.024387</ele>
        <time>2023-07-19T08:48:19.243Z</time>
      </trkpt>
      <trkpt lat="48.868305" lon="2.222914">
        <ele>45.092165</ele>
        <time>2023-07-19T08:48:20.152Z</time>
      </trkpt>
      <trkpt lat="48.868259" lon="2.222790">
        <ele>45.271475</ele>
        <time>2023-07-19T08:48:22.360Z</time>
      </trkpt>
      <trkpt lat="48.868094" lon="2.222403">
        <ele>45.852361</ele>
        <time>2023-07-19T08:48:29.711Z</time>
      </trkpt>
      <trkpt lat="48.867944" lon="2.222125">
        <ele>46.305249</ele>
        <time>2023-07-19T08:48:35.122Z</time>
      </trkpt>
      <trkpt lat="48.867798" lon="2.221885">
        <ele>46.717000</ele>
        <time>2023-07-19T08:48:39.637Z</time>
      </trkpt>
      <trkpt lat="48.867706" lon="2.221761">
        <ele>46.952431</ele>
        <time>2023-07-19T08:48:42.277Z</time>
      </trkpt>
      <trkpt lat="48.867671" lon="2.221722">
        <ele>47.035524</ele>
        <time>2023-07-19T08:48:43.203Z</time>
      </trkpt>
      <trkpt lat="48.867588" lon="2.221615">
        <ele>47.243906</ele>
        <time>2023-07-19T08:48:45.310Z</time>
      </trkpt>
      <trkpt lat="48.867549" lon="2.221556">
        <ele>47.349260</ele>
        <time>2023-07-19T08:48:46.346Z</time>
      </trkpt>
      <trkpt lat="48.867282" lon="2.221327">
        <ele>47.883088</ele>
        <time>2023-07-19T08:48:51.962Z</time>
      </trkpt>
      <trkpt lat="48.867207" lon="2.221268">
        <ele>48.001731</ele>
        <time>2023-07-19T08:48:53.474Z</time>
      </trkpt>
      <trkpt lat="48.866696" lon="2.220898">
        <ele>48.796932</ele>
        <time>2023-07-19T08:49:03.651Z</time>
      </trkpt>
      <trkpt lat="48.866407" lon="2.220647">
        <ele>49.264554</ele>
        <time>2023-07-19T08:49:10.156Z</time>
      </trkpt>
      <trkpt lat="48.866139" lon="2.220350">
        <ele>49.730508</ele>
        <time>2023-07-19T08:49:17.404Z</time>
      </trkpt>
      <trkpt lat="48.865792" lon="2.219882">
        <ele>50.500749</ele>
        <time>2023-07-19T08:49:28.182Z</time>
      </trkpt>
      <trkpt lat="48.865568" lon="2.219615">
        <ele>51.299930</ele>
        <time>2023-07-19T08:49:34.884Z</time>
      </trkpt>
      <trkpt lat="48.865070" lon="2.219150">
        <ele>52.940812</ele>
        <time>2023-07-19T08:49:49.393Z</time>
      </trkpt>
      <trkpt lat="48.865036" lon="2.219126">
        <ele>53.046060</ele>
        <time>2023-07-19T08:49:50.317Z</time>
      </trkpt>
      <trkpt lat="48.864818" lon="2.218973">
        <ele>53.720201</ele>
        <time>2023-07-19T08:49:56.672Z</time>
      </trkpt>
      <trkpt lat="48.864456" lon="2.218777">
        <ele>54.799096</ele>
        <time>2023-07-19T08:50:07.184Z</time>
      </trkpt>
      <trkpt lat="48.864028" lon="2.218620">
        <ele>56.594921</ele>
        <time>2023-07-19T08:50:20.292Z</time>
      </trkpt>
      <trkpt lat="48.863926" lon="2.218595">
        <ele>57.109904</ele>
        <time>2023-07-19T08:50:23.505Z</time>
      </trkpt>
      <trkpt lat="48.863254" lon="2.218462">
        <ele>60.487744</ele>
        <time>2023-07-19T08:50:47.199Z</time>
      </trkpt>
      <trkpt lat="48.863036" lon="2.218290">
        <ele>61.712013</ele>
        <time>2023-07-19T08:50:56.625Z</time>
      </trkpt>
      <trkpt lat="48.862858" lon="2.218033">
        <ele>62.935688</ele>
        <time>2023-07-19T08:51:05.764Z</time>
      </trkpt>
      <trkpt lat="48.862746" lon="2.217766">
        <ele>63.974049</ele>
        <time>2023-07-19T08:51:13.587Z</time>
      </trkpt>
      <trkpt lat="48.862725" lon="2.217689">
        <ele>64.247378</ele>
        <time>2023-07-19T08:51:15.612Z</time>
      </trkpt>
      <trkpt lat="48.862664" lon="2.217364">
        <ele>65.451325</ele>
        <time>2023-07-19T08:51:24.123Z</time>
      </trkpt>
      <trkpt lat="48.862622" lon="2.217145">
        <ele>66.265823</ele>
        <time>2023-07-19T08:51:29.764Z</time>
      </trkpt>
      <trkpt lat="48.862574" lon="2.216915">
        <ele>67.127380</ele>
        <time>2023-07-19T08:51:35.833Z</time>
      </trkpt>
      <trkpt lat="48.862514" lon="2.216714">
        <ele>67.915486</ele>
        <time>2023-07-19T08:51:41.195Z</time>
      </trkpt>
      <trkpt lat="48.862475" lon="2.216636">
        <ele>68.265299</ele>
        <time>2023-07-19T08:51:43.618Z</time>
      </trkpt>
      <trkpt lat="48.862342" lon="2.216439">
        <ele>69.273189</ele>
        <time>2023-07-19T08:51:50.674Z</time>
      </trkpt>
      <trkpt lat="48.861149" lon="2.215631">
        <ele>76.023998</ele>
        <time>2023-07-19T08:52:37.362Z</time>
      </trkpt>
      <trkpt lat="48.860651" lon="2.215293">
        <ele>78.553262</ele>
        <time>2023-07-19T08:52:53.614Z</time>
      </trkpt>
      <trkpt lat="48.860088" lon="2.214858">
        <ele>81.482149</ele>
        <time>2023-07-19T08:53:14.447Z</time>
      </trkpt>
      <trkpt lat="48.859917" lon="2.214614">
        <ele>82.578100</ele>
        <time>2023-07-19T08:53:22.644Z</time>
      </trkpt>
      <trkpt lat="48.859759" lon="2.214288">
        <ele>83.867780</ele>
        <time>2023-07-19T08:53:32.243Z</time>
      </trkpt>
      <trkpt lat="48.859612" lon="2.213796">
        <ele>85.588889</ele>
        <time>2023-07-19T08:53:45.026Z</time>
      </trkpt>
      <trkpt lat="48.859577" lon="2.213668">
        <ele>86.030395</ele>
        <time>2023-07-19T08:53:48.249Z</time>
      </trkpt>
      <trkpt lat="48.859539" lon="2.213538">
        <ele>86.483491</ele>
        <time>2023-07-19T08:53:51.681Z</time>
      </trkpt>
      <trkpt lat="48.859501" lon="2.213401">
        <ele>86.957050</ele>
        <time>2023-07-19T08:53:55.207Z</time>
      </trkpt>
      <trkpt lat="48.859397" lon="2.213061">
        <ele>88.151319</ele>
        <time>2023-07-19T08:54:03.350Z</time>
      </trkpt>
      <trkpt lat="48.859349" lon="2.212904">
        <ele>88.702743</ele>
        <time>2023-07-19T08:54:07.223Z</time>
      </trkpt>
      <trkpt lat="48.859268" lon="2.212627">
        <ele>89.668251</ele>
        <time>2023-07-19T08:54:13.446Z</time>
      </trkpt>
      <trkpt lat="48.859225" lon="2.212494">
        <ele>90.140263</ele>
        <time>2023-07-19T08:54:16.650Z</time>
      </trkpt>
      <trkpt lat="48.859170" lon="2.212354">
        <ele>90.659634</ele>
        <time>2023-07-19T08:54:20.106Z</time>
      </trkpt>
      <trkpt lat="48.859042" lon="2.211893">
        <ele>92.028525</ele>
        <time>2023-07-19T08:54:30.971Z</time>
      </trkpt>
      <trkpt lat="48.859006" lon="2.211732">
        <ele>92.465473</ele>
        <time>2023-07-19T08:54:34.560Z</time>
      </trkpt>
      <trkpt lat="48.858978" lon="2.211612">
        <ele>92.792644</ele>
        <time>2023-07-19T08:54:37.486Z</time>
      </trkpt>
      <trkpt lat="48.858943" lon="2.211562">
        <ele>92.980245</ele>
        <time>2023-07-19T08:54:39.258Z</time>
      </trkpt>
      <trkpt lat="48.858897" lon="2.211496">
        <ele>93.227309</ele>
        <time>2023-07-19T08:54:41.583Z</time>
      </trkpt>
      <trkpt lat="48.858814" lon="2.211381">
        <ele>93.665957</ele>
        <time>2023-07-19T08:54:45.509Z</time>
      </trkpt>
      <trkpt lat="48.858589" lon="2.211198">
        <ele>94.662642</ele>
        <time>2023-07-19T08:54:53.987Z</time>
      </trkpt>
      <trkpt lat="48.858098" lon="2.210915">
        <ele>96.713590</ele>
        <time>2023-07-19T08:55:09.354Z</time>
      </trkpt>
      <trkpt lat="48.857925" lon="2.210863">
        <ele>97.402361</ele>
        <time>2023-07-19T08:55:14.046Z</time>
      </trkpt>
      <trkpt lat="48.857841" lon="2.210849">
        <ele>97.732406</ele>
        <time>2023-07-19T08:55:16.240Z</time>
      </trkpt>
      <trkpt lat="48.857549" lon="2.210872">
        <ele>98.528576</ele>
        <time>2023-07-19T08:55:23.434Z</time>
      </trkpt>
      <trkpt lat="48.856954" lon="2.211099">
        <ele>99.833821</ele>
        <time>2023-07-19T08:55:38.352Z</time>
      </trkpt>
      <trkpt lat="48.856781" lon="2.211238">
        <ele>100.250178</ele>
        <time>2023-07-19T08:55:42.911Z</time>
      </trkpt>
      <trkpt lat="48.855857" lon="2.211550">
        <ele>102.219369</ele>
        <time>2023-07-19T08:56:03.439Z</time>
      </trkpt>
      <trkpt lat="48.854293" lon="2.212091">
        <ele>105.158760</ele>
        <time>2023-07-19T08:56:37.710Z</time>
      </trkpt>
      <trkpt lat="48.853993" lon="2.212194">
        <ele>105.934452</ele>
        <time>2023-07-19T08:56:45.767Z</time>
      </trkpt>
      <trkpt lat="48.852964" lon="2.212530">
        <ele>108.707233</ele>
        <time>2023-07-19T08:57:13.826Z</time>
      </trkpt>
      <trkpt lat="48.852509" lon="2.212677">
        <ele>109.932724</ele>
        <time>2023-07-19T08:57:25.657Z</time>
      </trkpt>
      <trkpt lat="48.851824" lon="2.212932">
        <ele>111.261409</ele>
        <time>2023-07-19T08:57:42.341Z</time>
      </trkpt>
      <trkpt lat="48.850517" lon="2.213382">
        <ele>113.768016</ele>
        <time>2023-07-19T08:58:10.418Z</time>
      </trkpt>
      <trkpt lat="48.850217" lon="2.213483">
        <ele>114.349389</ele>
        <time>2023-07-19T08:58:16.775Z</time>
      </trkpt>
      <trkpt lat="48.849397" lon="2.213765">
        <ele>115.940089</ele>
        <time>2023-07-19T08:58:35.832Z</time>
      </trkpt>
      <trkpt lat="48.848201" lon="2.214175">
        <ele>117.729660</ele>
        <time>2023-07-19T08:59:04.763Z</time>
      </trkpt>
      <trkpt lat="48.847797" lon="2.214277">
        <ele>118.235001</ele>
        <time>2023-07-19T08:59:13.485Z</time>
      </trkpt>
      <trkpt lat="48.847517" lon="2.214280">
        <ele>118.580511</ele>
        <time>2023-07-19T08:59:18.670Z</time>
      </trkpt>
      <trkpt lat="48.847251" lon="2.214274">
        <ele>118.908772</ele>
        <time>2023-07-19T08:59:22.677Z</time>
      </trkpt>
      <trkpt lat="48.846899" lon="2.214200">
        <ele>118.254135</ele>
        <time>2023-07-19T08:59:27.069Z</time>
      </trkpt>
      <trkpt lat="48.846485" lon="2.214068">
        <ele>117.321455</ele>
        <time>2023-07-19T08:59:31.720Z</time>
      </trkpt>
      <trkpt lat="48.846245" lon="2.213952">
        <ele>116.766171</ele>
        <time>2023-07-19T08:59:34.360Z</time>
      </trkpt>
      <trkpt lat="48.845710" lon="2.213574">
        <ele>115.465308</ele>
        <time>2023-07-19T08:59:40.301Z</time>
      </trkpt>
      <trkpt lat="48.845646" lon="2.213497">
        <ele>115.285323</ele>
        <time>2023-07-19T08:59:41.140Z</time>
      </trkpt>
      <trkpt lat="48.845493" lon="2.213316">
        <ele>114.845390</ele>
        <time>2023-07-19T08:59:43.118Z</time>
      </trkpt>
      <trkpt lat="48.845233" lon="2.213028">
        <ele>114.069007</ele>
        <time>2023-07-19T08:59:46.423Z</time>
      </trkpt>
      <trkpt lat="48.844901" lon="2.212529">
        <ele>112.942194</ele>
        <time>2023-07-19T08:59:51.152Z</time>
      </trkpt>
      <trkpt lat="48.844635" lon="2.211947">
        <ele>111.816952</ele>
        <time>2023-07-19T08:59:56.045Z</time>
      </trkpt>
      <trkpt lat="48.844557" lon="2.211698">
        <ele>111.379027</ele>
        <time>2023-07-19T08:59:58.128Z</time>
      </trkpt>
      <trkpt lat="48.844479" lon="2.211329">
        <ele>110.763565</ele>
        <time>2023-07-19T09:00:01.147Z</time>
      </trkpt>
      <trkpt lat="48.844457" lon="2.211021">
        <ele>110.480292</ele>
        <time>2023-07-19T09:00:03.639Z</time>
      </trkpt>
      <trkpt lat="48.844444" lon="2.210390">
        <ele>110.031941</ele>
        <time>2023-07-19T09:00:09.054Z</time>
      </trkpt>
      <trkpt lat="48.844443" lon="2.210362">
        <ele>110.012027</ele>
        <time>2023-07-19T09:00:09.321Z</time>
      </trkpt>
      <trkpt lat="48.844433" lon="2.209881">
        <ele>109.670254</ele>
        <time>2023-07-19T09:00:13.466Z</time>
      </trkpt>
      <trkpt lat="48.844419" lon="2.209188">
        <ele>109.177860</ele>
        <time>2023-07-19T09:00:19.216Z</time>
      </trkpt>
      <trkpt lat="48.844409" lon="2.208631">
        <ele>108.782136</ele>
        <time>2023-07-19T09:00:23.423Z</time>
      </trkpt>
      <trkpt lat="48.844399" lon="2.208165">
        <ele>108.069223</ele>
        <time>2023-07-19T09:00:26.863Z</time>
      </trkpt>
      <trkpt lat="48.844374" lon="2.207921">
        <ele>107.633458</ele>
        <time>2023-07-19T09:00:28.698Z</time>
      </trkpt>
      <trkpt lat="48.844295" lon="2.207540">
        <ele>106.928541</ele>
        <time>2023-07-19T09:00:31.605Z</time>
      </trkpt>
      <trkpt lat="48.844046" lon="2.207163">
        <ele>105.985999</ele>
        <time>2023-07-19T09:00:35.340Z</time>
      </trkpt>
      <trkpt lat="48.843827" lon="2.206996">
        <ele>105.328968</ele>
        <time>2023-07-19T09:00:37.841Z</time>
      </trkpt>
      <trkpt lat="48.843695" lon="2.206936">
        <ele>104.959523</ele>
        <time>2023-07-19T09:00:39.230Z</time>
      </trkpt>
      <trkpt lat="48.842765" lon="2.206998">
        <ele>101.761430</ele>
        <time>2023-07-19T09:00:48.324Z</time>
      </trkpt>
      <trkpt lat="48.842345" lon="2.206948">
        <ele>100.074061</ele>
        <time>2023-07-19T09:00:52.396Z</time>
      </trkpt>
      <trkpt lat="48.842286" lon="2.206932">
        <ele>99.834015</ele>
        <time>2023-07-19T09:00:52.975Z</time>
      </trkpt>
      <trkpt lat="48.842251" lon="2.206966">
        <ele>99.667630</ele>
        <time>2023-07-19T09:00:53.367Z</time>
      </trkpt>
      <trkpt lat="48.842064" lon="2.206995">
        <ele>98.914753</ele>
        <time>2023-07-19T09:00:55.182Z</time>
      </trkpt>
      <trkpt lat="48.841847" lon="2.207070">
        <ele>98.023407</ele>
        <time>2023-07-19T09:00:57.308Z</time>
      </trkpt>
      <trkpt lat="48.840670" lon="2.207189">
        <ele>94.418756</ele>
        <time>2023-07-19T09:01:09.046Z</time>
      </trkpt>
      <trkpt lat="48.840389" lon="2.207184">
        <ele>93.665892</ele>
        <time>2023-07-19T09:01:11.930Z</time>
      </trkpt>
      <trkpt lat="48.840283" lon="2.207159">
        <ele>93.378512</ele>
        <time>2023-07-19T09:01:13.078Z</time>
      </trkpt>
      <trkpt lat="48.840162" lon="2.207102">
        <ele>93.039125</ele>
        <time>2023-07-19T09:01:14.462Z</time>
      </trkpt>
      <trkpt lat="48.840115" lon="2.207076">
        <ele>92.905124</ele>
        <time>2023-07-19T09:01:15.003Z</time>
      </trkpt>
      <trkpt lat="48.840072" lon="2.207043">
        <ele>92.776063</ele>
        <time>2023-07-19T09:01:15.522Z</time>
      </trkpt>
      <trkpt lat="48.839879" lon="2.206892">
        <ele>92.194482</ele>
        <time>2023-07-19T09:01:18.015Z</time>
      </trkpt>
      <trkpt lat="48.839776" lon="2.206784">
        <ele>91.863329</ele>
        <time>2023-07-19T09:01:19.504Z</time>
      </trkpt>
      <trkpt lat="48.839639" lon="2.206576">
        <ele>91.989248</ele>
        <time>2023-07-19T09:01:21.942Z</time>
      </trkpt>
      <trkpt lat="48.839298" lon="2.205903">
        <ele>92.352687</ele>
        <time>2023-07-19T09:01:30.259Z</time>
      </trkpt>
      <trkpt lat="48.839193" lon="2.205668">
        <ele>92.474230</ele>
        <time>2023-07-19T09:01:33.642Z</time>
      </trkpt>
      <trkpt lat="48.838999" lon="2.205395">
        <ele>92.646149</ele>
        <time>2023-07-19T09:01:38.551Z</time>
      </trkpt>
      <trkpt lat="48.838587" lon="2.204706">
        <ele>93.092711</ele>
        <time>2023-07-19T09:01:51.867Z</time>
      </trkpt>
      <trkpt lat="48.837933" lon="2.203860">
        <ele>95.792765</ele>
        <time>2023-07-19T09:02:14.294Z</time>
      </trkpt>
      <trkpt lat="48.837516" lon="2.203384">
        <ele>97.432345</ele>
        <time>2023-07-19T09:02:29.371Z</time>
      </trkpt>
      <trkpt lat="48.837004" lon="2.202907">
        <ele>99.602375</ele>
        <time>2023-07-19T09:02:47.311Z</time>
      </trkpt>
      <trkpt lat="48.836500" lon="2.202442">
        <ele>102.280098</ele>
        <time>2023-07-19T09:03:06.642Z</time>
      </trkpt>
      <trkpt lat="48.836107" lon="2.202071">
        <ele>104.381249</ele>
        <time>2023-07-19T09:03:22.071Z</time>
      </trkpt>
      <trkpt lat="48.835840" lon="2.201831">
        <ele>105.790069</ele>
        <time>2023-07-19T09:03:32.551Z</time>
      </trkpt>
      <trkpt lat="48.834368" lon="2.200289">
        <ele>114.558159</ele>
        <time>2023-07-19T09:04:35.844Z</time>
      </trkpt>
      <trkpt lat="48.832174" lon="2.197424">
        <ele>124.682768</ele>
        <time>2023-07-19T09:06:09.066Z</time>
      </trkpt>
      <trkpt lat="48.832009" lon="2.197209">
        <ele>124.934779</ele>
        <time>2023-07-19T09:06:13.807Z</time>
      </trkpt>
      <trkpt lat="48.830597" lon="2.195365">
        <ele>121.424035</ele>
        <time>2023-07-19T09:06:33.403Z</time>
      </trkpt>
      <trkpt lat="48.830526" lon="2.195273">
        <ele>121.064173</ele>
        <time>2023-07-19T09:06:34.252Z</time>
      </trkpt>
      <trkpt lat="48.830328" lon="2.195020">
        <ele>120.066460</ele>
        <time>2023-07-19T09:06:36.624Z</time>
      </trkpt>
      <trkpt lat="48.829573" lon="2.194042">
        <ele>115.729409</ele>
        <time>2023-07-19T09:06:45.730Z</time>
      </trkpt>
      <trkpt lat="48.829453" lon="2.193886">
        <ele>115.000999</ele>
        <time>2023-07-19T09:06:47.211Z</time>
      </trkpt>
      <trkpt lat="48.829420" lon="2.193843">
        <ele>114.800489</ele>
        <time>2023-07-19T09:06:47.607Z</time>
      </trkpt>
      <trkpt lat="48.829259" lon="2.193664">
        <ele>113.880358</ele>
        <time>2023-07-19T09:06:49.467Z</time>
      </trkpt>
      <trkpt lat="48.829051" lon="2.193431">
        <ele>112.688479</ele>
        <time>2023-07-19T09:06:51.945Z</time>
      </trkpt>
      <trkpt lat="48.828831" lon="2.193106">
        <ele>111.273205</ele>
        <time>2023-07-19T09:06:55.018Z</time>
      </trkpt>
      <trkpt lat="48.828743" lon="2.192935">
        <ele>110.614242</ele>
        <time>2023-07-19T09:06:56.503Z</time>
      </trkpt>
      <trkpt lat="48.828648" lon="2.192658">
        <ele>110.431830</ele>
        <time>2023-07-19T09:06:58.754Z</time>
      </trkpt>
      <trkpt lat="48.828465" lon="2.191373">
        <ele>109.890127</ele>
        <time>2023-07-19T09:07:10.024Z</time>
      </trkpt>
      <trkpt lat="48.828279" lon="2.190010">
        <ele>109.673973</ele>
        <time>2023-07-19T09:07:24.873Z</time>
      </trkpt>
      <trkpt lat="48.828065" lon="2.189501">
        <ele>110.235423</ele>
        <time>2023-07-19T09:07:31.937Z</time>
      </trkpt>
      <trkpt lat="48.827950" lon="2.189313">
        <ele>110.473997</ele>
        <time>2023-07-19T09:07:35.154Z</time>
      </trkpt>
      <trkpt lat="48.827810" lon="2.189109">
        <ele>110.747951</ele>
        <time>2023-07-19T09:07:39.145Z</time>
      </trkpt>
      <trkpt lat="48.827737" lon="2.189004">
        <ele>110.889919</ele>
        <time>2023-07-19T09:07:41.215Z</time>
      </trkpt>
      <trkpt lat="48.827661" lon="2.188919">
        <ele>111.023194</ele>
        <time>2023-07-19T09:07:43.453Z</time>
      </trkpt>
      <trkpt lat="48.827520" lon="2.188849">
        <ele>111.232669</ele>
        <time>2023-07-19T09:07:46.842Z</time>
      </trkpt>
      <trkpt lat="48.827401" lon="2.188820">
        <ele>111.402862</ele>
        <time>2023-07-19T09:07:49.512Z</time>
      </trkpt>
      <trkpt lat="48.827077" lon="2.188746">
        <ele>111.865537</ele>
        <time>2023-07-19T09:07:57.221Z</time>
      </trkpt>
      <trkpt lat="48.826972" lon="2.188502">
        <ele>112.278919</ele>
        <time>2023-07-19T09:08:02.105Z</time>
      </trkpt>
      <trkpt lat="48.826907" lon="2.188495">
        <ele>112.447889</ele>
        <time>2023-07-19T09:08:03.540Z</time>
      </trkpt>
      <trkpt lat="48.826876" lon="2.188555">
        <ele>112.578092</ele>
        <time>2023-07-19T09:08:04.497Z</time>
      </trkpt>
      <trkpt lat="48.826682" lon="2.188461">
        <ele>113.106115</ele>
        <time>2023-07-19T09:08:09.282Z</time>
      </trkpt>
      <trkpt lat="48.826649" lon="2.188445">
        <ele>113.195939</ele>
        <time>2023-07-19T09:08:10.141Z</time>
      </trkpt>
      <trkpt lat="48.826492" lon="2.188337">
        <ele>113.642848</ele>
        <time>2023-07-19T09:08:13.817Z</time>
      </trkpt>
      <trkpt lat="48.826347" lon="2.188147">
        <ele>114.139408</ele>
        <time>2023-07-19T09:08:18.694Z</time>
      </trkpt>
      <trkpt lat="48.826075" lon="2.187738">
        <ele>115.131858</ele>
        <time>2023-07-19T09:08:28.131Z</time>
      </trkpt>
      <trkpt lat="48.825505" lon="2.187459">
        <ele>116.689385</ele>
        <time>2023-07-19T09:08:44.664Z</time>
      </trkpt>
      <trkpt lat="48.825359" lon="2.187347">
        <ele>117.149676</ele>
        <time>2023-07-19T09:08:49.377Z</time>
      </trkpt>
      <trkpt lat="48.825042" lon="2.186934">
        <ele>118.324966</ele>
        <time>2023-07-19T09:09:01.398Z</time>
      </trkpt>
      <trkpt lat="48.824934" lon="2.186784">
        <ele>118.736798</ele>
        <time>2023-07-19T09:09:05.360Z</time>
      </trkpt>
      <trkpt lat="48.824587" lon="2.186311">
        <ele>120.048876</ele>
        <time>2023-07-19T09:09:17.057Z</time>
      </trkpt>
      <trkpt lat="48.824202" lon="2.185914">
        <ele>121.358410</ele>
        <time>2023-07-19T09:09:28.731Z</time>
      </trkpt>
      <trkpt lat="48.823881" lon="2.185582">
        <ele>122.048927</ele>
        <time>2023-07-19T09:09:38.346Z</time>
      </trkpt>
      <trkpt lat="48.822974" lon="2.184648">
        <ele>123.498795</ele>
        <time>2023-07-19T09:10:01.719Z</time>
      </trkpt>
      <trkpt lat="48.822560" lon="2.184067">
        <ele>124.096659</ele>
        <time>2023-07-19T09:10:09.902Z</time>
      </trkpt>
      <trkpt lat="48.822357" lon="2.183742">
        <ele>124.153038</ele>
        <time>2023-07-19T09:10:13.978Z</time>
      </trkpt>
      <trkpt lat="48.822282" lon="2.183610">
        <ele>124.174982</ele>
        <time>2023-07-19T09:10:15.699Z</time>
      </trkpt>
      <trkpt lat="48.822166" lon="2.183339">
        <ele>124.215662</ele>
        <time>2023-07-19T09:10:18.753Z</time>
      </trkpt>
      <trkpt lat="48.821991" lon="2.182696">
        <ele>124.303227</ele>
        <time>2023-07-19T09:10:25.689Z</time>
      </trkpt>
      <trkpt lat="48.821987" lon="2.182507">
        <ele>124.327025</ele>
        <time>2023-07-19T09:10:28.372Z</time>
      </trkpt>
      <trkpt lat="48.821952" lon="2.182383">
        <ele>124.344005</ele>
        <time>2023-07-19T09:10:30.199Z</time>
      </trkpt>
      <trkpt lat="48.821914" lon="2.182230">
        <ele>124.364585</ele>
        <time>2023-07-19T09:10:31.833Z</time>
      </trkpt>
      <trkpt lat="48.821556" lon="2.180619">
        <ele>125.165154</ele>
        <time>2023-07-19T09:10:51.245Z</time>
      </trkpt>
      <trkpt lat="48.821399" lon="2.179934">
        <ele>125.584772</ele>
        <time>2023-07-19T09:10:59.939Z</time>
      </trkpt>
      <trkpt lat="48.821373" lon="2.179692">
        <ele>125.726628</ele>
        <time>2023-07-19T09:11:03.222Z</time>
      </trkpt>
      <trkpt lat="48.821396" lon="2.178742">
        <ele>126.535973</ele>
        <time>2023-07-19T09:11:16.150Z</time>
      </trkpt>
      <trkpt lat="48.821341" lon="2.177984">
        <ele>127.384836</ele>
        <time>2023-07-19T09:11:26.737Z</time>
      </trkpt>
      <trkpt lat="48.821269" lon="2.177270">
        <ele>128.188881</ele>
        <time>2023-07-19T09:11:37.569Z</time>
      </trkpt>
      <trkpt lat="48.821241" lon="2.176188">
        <ele>129.308952</ele>
        <time>2023-07-19T09:11:53.627Z</time>
      </trkpt>
      <trkpt lat="48.821241" lon="2.175950">
        <ele>129.510678</ele>
        <time>2023-07-19T09:11:56.976Z</time>
      </trkpt>
      <trkpt lat="48.821239" lon="2.175845">
        <ele>129.599712</ele>
        <time>2023-07-19T09:11:58.417Z</time>
      </trkpt>
      <trkpt lat="48.821126" lon="2.174583">
        <ele>130.679214</ele>
        <time>2023-07-19T09:12:15.435Z</time>
      </trkpt>
      <trkpt lat="48.821052" lon="2.174399">
        <ele>130.861964</ele>
        <time>2023-07-19T09:12:18.812Z</time>
      </trkpt>
      <trkpt lat="48.821008" lon="2.174101">
        <ele>131.120819</ele>
        <time>2023-07-19T09:12:22.331Z</time>
      </trkpt>
      <trkpt lat="48.820601" lon="2.172379">
        <ele>131.848181</ele>
        <time>2023-07-19T09:12:42.902Z</time>
      </trkpt>
      <trkpt lat="48.820389" lon="2.171799">
        <ele>132.059551</ele>
        <time>2023-07-19T09:12:49.285Z</time>
      </trkpt>
      <trkpt lat="48.820341" lon="2.171578">
        <ele>132.133700</ele>
        <time>2023-07-19T09:12:51.630Z</time>
      </trkpt>
      <trkpt lat="48.820251" lon="2.171434">
        <ele>132.196962</ele>
        <time>2023-07-19T09:12:53.724Z</time>
      </trkpt>
      <trkpt lat="48.819741" lon="2.170051">
        <ele>133.136363</ele>
        <time>2023-07-19T09:13:13.306Z</time>
      </trkpt>
      <trkpt lat="48.819695" lon="2.169875">
        <ele>133.251361</ele>
        <time>2023-07-19T09:13:15.694Z</time>
      </trkpt>
      <trkpt lat="48.819589" lon="2.169469">
        <ele>133.516602</ele>
        <time>2023-07-19T09:13:21.598Z</time>
      </trkpt>
      <trkpt lat="48.819603" lon="2.169375">
        <ele>133.575131</ele>
        <time>2023-07-19T09:13:22.805Z</time>
      </trkpt>
      <trkpt lat="48.819553" lon="2.169128">
        <ele>133.732064</ele>
        <time>2023-07-19T09:13:25.920Z</time>
      </trkpt>
      <trkpt lat="48.819380" lon="2.168621">
        <ele>134.126182</ele>
        <time>2023-07-19T09:13:32.584Z</time>
      </trkpt>
      <trkpt lat="48.819094" lon="2.167800">
        <ele>134.825591</ele>
        <time>2023-07-19T09:13:43.916Z</time>
      </trkpt>
      <trkpt lat="48.818870" lon="2.167155">
        <ele>135.374700</ele>
        <time>2023-07-19T09:13:53.712Z</time>
      </trkpt>
      <trkpt lat="48.818780" lon="2.166882">
        <ele>135.604600</ele>
        <time>2023-07-19T09:13:57.816Z</time>
      </trkpt>
      <trkpt lat="48.818558" lon="2.166244">
        <ele>136.365083</ele>
        <time>2023-07-19T09:14:07.005Z</time>
      </trkpt>
      <trkpt lat="48.818529" lon="2.166159">
        <ele>136.511910</ele>
        <time>2023-07-19T09:14:08.256Z</time>
      </trkpt>
      <trkpt lat="48.818437" lon="2.165874">
        <ele>136.998721</ele>
        <time>2023-07-19T09:14:12.416Z</time>
      </trkpt>
      <trkpt lat="48.818405" lon="2.165784">
        <ele>137.155594</ele>
        <time>2023-07-19T09:14:13.735Z</time>
      </trkpt>
      <trkpt lat="48.817935" lon="2.164382">
        <ele>139.568515</ele>
        <time>2023-07-19T09:14:38.769Z</time>
      </trkpt>
      <trkpt lat="48.817758" lon="2.163862">
        <ele>140.833985</ele>
        <time>2023-07-19T09:14:49.989Z</time>
      </trkpt>
      <trkpt lat="48.817193" lon="2.162284">
        <ele>146.583982</ele>
        <time>2023-07-19T09:15:29.258Z</time>
      </trkpt>
      <trkpt lat="48.817084" lon="2.162029">
        <ele>147.557210</ele>
        <time>2023-07-19T09:15:36.853Z</time>
      </trkpt>
      <trkpt lat="48.816672" lon="2.161058">
        <ele>152.172398</ele>
        <time>2023-07-19T09:16:07.958Z</time>
      </trkpt>
      <trkpt lat="48.816345" lon="2.160412">
        <ele>155.785139</ele>
        <time>2023-07-19T09:16:31.552Z</time>
      </trkpt>
      <trkpt lat="48.814699" lon="2.157463">
        <ele>171.395003</ele>
        <time>2023-07-19T09:18:17.977Z</time>
      </trkpt>
      <trkpt lat="48.814653" lon="2.157372">
        <ele>171.507889</ele>
        <time>2023-07-19T09:18:19.921Z</time>
      </trkpt>
      <trkpt lat="48.814633" lon="2.157339">
        <ele>171.487913</ele>
        <time>2023-07-19T09:18:20.671Z</time>
      </trkpt>
      <trkpt lat="48.814586" lon="2.157256">
        <ele>171.439155</ele>
        <time>2023-07-19T09:18:22.524Z</time>
      </trkpt>
      <trkpt lat="48.814556" lon="2.157202">
        <ele>171.407686</ele>
        <time>2023-07-19T09:18:23.621Z</time>
      </trkpt>
      <trkpt lat="48.814509" lon="2.157246">
        <ele>171.370340</ele>
        <time>2023-07-19T09:18:25.220Z</time>
      </trkpt>
      <trkpt lat="48.813180" lon="2.154832">
        <ele>168.623119</ele>
        <time>2023-07-19T09:18:47.819Z</time>
      </trkpt>
      <trkpt lat="48.813114" lon="2.154716">
        <ele>168.297154</ele>
        <time>2023-07-19T09:18:48.797Z</time>
      </trkpt>
      <trkpt lat="48.812569" lon="2.153727">
        <ele>165.555049</ele>
        <time>2023-07-19T09:18:57.163Z</time>
      </trkpt>
      <trkpt lat="48.812316" lon="2.153271">
        <ele>164.226924</ele>
        <time>2023-07-19T09:19:01.113Z</time>
      </trkpt>
      <trkpt lat="48.811567" lon="2.151913">
        <ele>159.476016</ele>
        <time>2023-07-19T09:19:12.547Z</time>
      </trkpt>
      <trkpt lat="48.811547" lon="2.151826">
        <ele>159.228869</ele>
        <time>2023-07-19T09:19:13.147Z</time>
      </trkpt>
      <trkpt lat="48.811380" lon="2.151522">
        <ele>158.167081</ele>
        <time>2023-07-19T09:19:15.652Z</time>
      </trkpt>
      <trkpt lat="48.811286" lon="2.151358">
        <ele>157.583951</ele>
        <time>2023-07-19T09:19:17.027Z</time>
      </trkpt>
      <trkpt lat="48.811187" lon="2.151182">
        <ele>156.891500</ele>
        <time>2023-07-19T09:19:18.464Z</time>
      </trkpt>
      <trkpt lat="48.810937" lon="2.150733">
        <ele>154.821460</ele>
        <time>2023-07-19T09:19:22.138Z</time>
      </trkpt>
      <trkpt lat="48.810918" lon="2.150663">
        <ele>154.554904</ele>
        <time>2023-07-19T09:19:22.604Z</time>
      </trkpt>
      <trkpt lat="48.810911" lon="2.150489">
        <ele>153.941173</ele>
        <time>2023-07-19T09:19:23.708Z</time>
      </trkpt>
      <trkpt lat="48.810873" lon="2.150328">
        <ele>153.339046</ele>
        <time>2023-07-19T09:19:24.751Z</time>
      </trkpt>
      <trkpt lat="48.810538" lon="2.149950">
        <ele>151.107798</ele>
        <time>2023-07-19T09:19:28.608Z</time>
      </trkpt>
      <trkpt lat="48.810371" lon="2.149668">
        <ele>149.772590</ele>
        <time>2023-07-19T09:19:30.907Z</time>
      </trkpt>
      <trkpt lat="48.810269" lon="2.149477">
        <ele>148.906832</ele>
        <time>2023-07-19T09:19:32.367Z</time>
      </trkpt>
      <trkpt lat="48.810214" lon="2.149548">
        <ele>148.520905</ele>
        <time>2023-07-19T09:19:39.249Z</time>
      </trkpt>
      <trkpt lat="48.810156" lon="2.149628">
        <ele>148.102010</ele>
        <time>2023-07-19T09:19:46.718Z</time>
      </trkpt>
      <trkpt lat="48.810132" lon="2.149585">
        <ele>147.903563</ele>
        <time>2023-07-19T09:19:47.061Z</time>
      </trkpt>
      <trkpt lat="48.809415" lon="2.148230">
        <ele>142.394745</ele>
        <time>2023-07-19T09:19:57.810Z</time>
      </trkpt>
      <trkpt lat="48.809220" lon="2.147887">
        <ele>140.967652</ele>
        <time>2023-07-19T09:20:00.679Z</time>
      </trkpt>
      <trkpt lat="48.809091" lon="2.147757">
        <ele>140.227239</ele>
        <time>2023-07-19T09:20:02.170Z</time>
      </trkpt>
      <trkpt lat="48.809080" lon="2.147713">
        <ele>140.079014</ele>
        <time>2023-07-19T09:20:02.472Z</time>
      </trkpt>
      <trkpt lat="48.809063" lon="2.147679">
        <ele>139.944567</ele>
        <time>2023-07-19T09:20:02.746Z</time>
      </trkpt>
      <trkpt lat="48.808586" lon="2.146761">
        <ele>137.619905</ele>
        <time>2023-07-19T09:20:10.389Z</time>
      </trkpt>
      <trkpt lat="48.808505" lon="2.146562">
        <ele>137.251907</ele>
        <time>2023-07-19T09:20:11.971Z</time>
      </trkpt>
      <trkpt lat="48.808328" lon="2.146258">
        <ele>136.613616</ele>
        <time>2023-07-19T09:20:14.849Z</time>
      </trkpt>
      <trkpt lat="48.808286" lon="2.146187">
        <ele>136.463490</ele>
        <time>2023-07-19T09:20:15.539Z</time>
      </trkpt>
      <trkpt lat="48.808222" lon="2.146082">
        <ele>136.238436</ele>
        <time>2023-07-19T09:20:16.586Z</time>
      </trkpt>
      <trkpt lat="48.808058" lon="2.145842">
        <ele>135.694399</ele>
        <time>2023-07-19T09:20:19.160Z</time>
      </trkpt>
      <trkpt lat="48.808035" lon="2.145808">
        <ele>135.617728</ele>
        <time>2023-07-19T09:20:19.525Z</time>
      </trkpt>
      <trkpt lat="48.807967" lon="2.145688">
        <ele>135.368703</ele>
        <time>2023-07-19T09:20:20.740Z</time>
      </trkpt>
      <trkpt lat="48.807938" lon="2.145643">
        <ele>135.269663</ele>
        <time>2023-07-19T09:20:21.229Z</time>
      </trkpt>
      <trkpt lat="48.807889" lon="2.145560">
        <ele>135.094320</ele>
        <time>2023-07-19T09:20:22.107Z</time>
      </trkpt>
      <trkpt lat="48.807846" lon="2.145488">
        <ele>134.941426</ele>
        <time>2023-07-19T09:20:22.861Z</time>
      </trkpt>
      <trkpt lat="48.807729" lon="2.145285">
        <ele>134.701966</ele>
        <time>2023-07-19T09:20:25.008Z</time>
      </trkpt>
      <trkpt lat="48.807259" lon="2.144432">
        <ele>134.950969</ele>
        <time>2023-07-19T09:20:34.914Z</time>
      </trkpt>
      <trkpt lat="48.806750" lon="2.143509">
        <ele>135.220501</ele>
        <time>2023-07-19T09:20:49.198Z</time>
      </trkpt>
      <trkpt lat="48.806655" lon="2.143337">
        <ele>135.270761</ele>
        <time>2023-07-19T09:20:52.189Z</time>
      </trkpt>
      <trkpt lat="48.806553" lon="2.143157">
        <ele>135.566481</ele>
        <time>2023-07-19T09:20:55.459Z</time>
      </trkpt>
      <trkpt lat="48.806184" lon="2.142504">
        <ele>137.152367</ele>
        <time>2023-07-19T09:21:08.478Z</time>
      </trkpt>
      <trkpt lat="48.805763" lon="2.141739">
        <ele>138.989850</ele>
        <time>2023-07-19T09:21:27.325Z</time>
      </trkpt>
      <trkpt lat="48.805797" lon="2.141702">
        <ele>139.106917</ele>
        <time>2023-07-19T09:21:28.613Z</time>
      </trkpt>
      <trkpt lat="48.805839" lon="2.141656">
        <ele>139.251846</ele>
        <time>2023-07-19T09:21:30.254Z</time>
      </trkpt>
      <trkpt lat="48.805893" lon="2.141596">
        <ele>139.439112</ele>
        <time>2023-07-19T09:21:32.225Z</time>
      </trkpt>
      <trkpt lat="48.805748" lon="2.141244">
        <ele>140.204364</ele>
        <time>2023-07-19T09:21:40.325Z</time>
      </trkpt>
      <trkpt lat="48.805717" lon="2.141096">
        <ele>140.468235</ele>
        <time>2023-07-19T09:21:43.271Z</time>
      </trkpt>
      <trkpt lat="48.805686" lon="2.140871">
        <ele>140.834998</ele>
        <time>2023-07-19T09:21:47.466Z</time>
      </trkpt>
      <trkpt lat="48.805677" lon="2.140725">
        <ele>141.068963</ele>
        <time>2023-07-19T09:21:50.152Z</time>
      </trkpt>
      <trkpt lat="48.805599" lon="2.139570">
        <ele>142.921455</ele>
        <time>2023-07-19T09:22:11.379Z</time>
      </trkpt>
      <trkpt lat="48.805584" lon="2.139367">
        <ele>143.247379</ele>
        <time>2023-07-19T09:22:14.677Z</time>
      </trkpt>
      <trkpt lat="48.805526" lon="2.138581">
        <ele>144.509310</ele>
        <time>2023-07-19T09:22:25.975Z</time>
      </trkpt>
      <trkpt lat="48.805508" lon="2.138338">
        <ele>144.531241</ele>
        <time>2023-07-19T09:22:28.924Z</time>
      </trkpt>
      <trkpt lat="48.805478" lon="2.138041">
        <ele>144.201402</ele>
        <time>2023-07-19T09:22:31.486Z</time>
      </trkpt>
      <trkpt lat="48.805427" lon="2.137916">
        <ele>144.039989</ele>
        <time>2023-07-19T09:22:32.946Z</time>
      </trkpt>
      <trkpt lat="48.805390" lon="2.137362">
        <ele>143.428724</ele>
        <time>2023-07-19T09:22:37.103Z</time>
      </trkpt>
      <trkpt lat="48.805349" lon="2.136743">
        <ele>142.745797</ele>
        <time>2023-07-19T09:22:41.391Z</time>
      </trkpt>
      <trkpt lat="48.805369" lon="2.136435">
        <ele>142.406055</ele>
        <time>2023-07-19T09:22:43.474Z</time>
      </trkpt>
      <trkpt lat="48.805337" lon="2.136028">
        <ele>141.956103</ele>
        <time>2023-07-19T09:22:46.314Z</time>
      </trkpt>
      <trkpt lat="48.805326" lon="2.135877">
        <ele>141.789334</ele>
        <time>2023-07-19T09:22:47.355Z</time>
      </trkpt>
      <trkpt lat="48.805315" lon="2.135723">
        <ele>141.577166</ele>
        <time>2023-07-19T09:22:48.469Z</time>
      </trkpt>
      <trkpt lat="48.805358" lon="2.135716">
        <ele>141.457782</ele>
        <time>2023-07-19T09:22:52.838Z</time>
      </trkpt>
      <trkpt lat="48.805438" lon="2.135702">
        <ele>141.235475</ele>
        <time>2023-07-19T09:23:00.940Z</time>
      </trkpt>
      <trkpt lat="48.805434" lon="2.135626">
        <ele>141.096855</ele>
        <time>2023-07-19T09:23:01.439Z</time>
      </trkpt>
      <trkpt lat="48.805220" lon="2.132602">
        <ele>135.942943</ele>
        <time>2023-07-19T09:23:22.210Z</time>
      </trkpt>
      <trkpt lat="48.805132" lon="2.131385">
        <ele>134.443740</ele>
        <time>2023-07-19T09:23:31.132Z</time>
      </trkpt>
      <trkpt lat="48.805119" lon="2.131234">
        <ele>134.257263</ele>
        <time>2023-07-19T09:23:41.737Z</time>
      </trkpt>
      <trkpt lat="48.805186" lon="2.131182">
        <ele>134.117364</ele>
        <time>2023-07-19T09:23:42.609Z</time>
      </trkpt>
      <trkpt lat="48.805139" lon="2.131090">
        <ele>133.974790</ele>
        <time>2023-07-19T09:23:43.527Z</time>
      </trkpt>
      <trkpt lat="48.805106" lon="2.131077">
        <ele>133.911404</ele>
        <time>2023-07-19T09:23:43.988Z</time>
      </trkpt>
      <trkpt lat="48.805094" lon="2.130965">
        <ele>133.772454</ele>
        <time>2023-07-19T09:23:52.021Z</time>
      </trkpt>
      <trkpt lat="48.805079" lon="2.130830">
        <ele>133.604807</ele>
        <time>2023-07-19T09:23:53.107Z</time>
      </trkpt>
      <trkpt lat="48.805065" lon="2.130575">
        <ele>133.347284</ele>
        <time>2023-07-19T09:23:55.155Z</time>
      </trkpt>
      <trkpt lat="48.805044" lon="2.130263">
        <ele>133.222546</ele>
        <time>2023-07-19T09:23:57.792Z</time>
      </trkpt>
      <trkpt lat="48.805022" lon="2.129944">
        <ele>133.094977</ele>
        <time>2023-07-19T09:24:00.538Z</time>
      </trkpt>
      <trkpt lat="48.805002" lon="2.129649">
        <ele>132.977027</ele>
        <time>2023-07-19T09:24:03.006Z</time>
      </trkpt>
      <trkpt lat="48.804962" lon="2.129060">
        <ele>132.741522</ele>
        <time>2023-07-19T09:24:08.111Z</time>
      </trkpt>
      <trkpt lat="48.804941" lon="2.128751">
        <ele>132.617971</ele>
        <time>2023-07-19T09:24:10.761Z</time>
      </trkpt>
      <trkpt lat="48.804904" lon="2.128219">
        <ele>132.405202</ele>
        <time>2023-07-19T09:24:15.419Z</time>
      </trkpt>
      <trkpt lat="48.804880" lon="2.127871">
        <ele>132.278328</ele>
        <time>2023-07-19T09:24:18.750Z</time>
      </trkpt>
      <trkpt lat="48.804842" lon="2.127311">
        <ele>132.179905</ele>
        <time>2023-07-19T09:24:24.199Z</time>
      </trkpt>
      <trkpt lat="48.804839" lon="2.127264">
        <ele>132.171650</ele>
        <time>2023-07-19T09:24:24.660Z</time>
      </trkpt>
      <trkpt lat="48.804818" lon="2.127263">
        <ele>132.166073</ele>
        <time>2023-07-19T09:24:24.960Z</time>
      </trkpt>
      <trkpt lat="48.804791" lon="2.127232">
        <ele>132.157087</ele>
        <time>2023-07-19T09:24:25.464Z</time>
      </trkpt>
      <trkpt lat="48.804685" lon="2.127146">
        <ele>132.125185</ele>
        <time>2023-07-19T09:24:27.196Z</time>
      </trkpt>
      <trkpt lat="48.804612" lon="2.127095">
        <ele>132.103855</ele>
        <time>2023-07-19T09:24:28.354Z</time>
      </trkpt>
      <trkpt lat="48.804588" lon="2.127082">
        <ele>132.097091</ele>
        <time>2023-07-19T09:24:28.740Z</time>
      </trkpt>
      <trkpt lat="48.804517" lon="2.127042">
        <ele>132.076988</ele>
        <time>2023-07-19T09:24:29.782Z</time>
      </trkpt>
      <trkpt lat="48.804377" lon="2.126912">
        <ele>132.033427</ele>
        <time>2023-07-19T09:24:32.045Z</time>
      </trkpt>
      <trkpt lat="48.804112" lon="2.126954">
        <ele>131.962702</ele>
        <time>2023-07-19T09:24:35.609Z</time>
      </trkpt>
      <trkpt lat="48.803932" lon="2.126936">
        <ele>131.914818</ele>
        <time>2023-07-19T09:24:38.107Z</time>
      </trkpt>
      <trkpt lat="48.803500" lon="2.126720">
        <ele>131.764233</ele>
        <time>2023-07-19T09:24:44.529Z</time>
      </trkpt>
      <trkpt lat="48.803424" lon="2.126686">
        <ele>131.705011</ele>
        <time>2023-07-19T09:24:45.612Z</time>
      </trkpt>
      <trkpt lat="48.803320" lon="2.126762">
        <ele>131.618738</ele>
        <time>2023-07-19T09:24:47.243Z</time>
      </trkpt>
      <trkpt lat="48.803263" lon="2.126727">
        <ele>131.572780</ele>
        <time>2023-07-19T09:24:48.067Z</time>
      </trkpt>
      <trkpt lat="48.803184" lon="2.126676">
        <ele>131.508614</ele>
        <time>2023-07-19T09:24:49.213Z</time>
      </trkpt>
      <trkpt lat="48.803056" lon="2.126593">
        <ele>131.404577</ele>
        <time>2023-07-19T09:24:50.974Z</time>
      </trkpt>
      <trkpt lat="48.803000" lon="2.126557">
        <ele>131.359122</ele>
        <time>2023-07-19T09:24:51.732Z</time>
      </trkpt>
      <trkpt lat="48.802951" lon="2.126403">
        <ele>131.274921</ele>
        <time>2023-07-19T09:24:53.094Z</time>
      </trkpt>
      <trkpt lat="48.802830" lon="2.126304">
        <ele>131.172181</ele>
        <time>2023-07-19T09:24:54.748Z</time>
      </trkpt>
      <trkpt lat="48.802813" lon="2.126294">
        <ele>131.158553</ele>
        <time>2023-07-19T09:24:54.975Z</time>
      </trkpt>
      <trkpt lat="48.802792" lon="2.126281">
        <ele>131.141602</ele>
        <time>2023-07-19T09:24:55.267Z</time>
      </trkpt>
      <trkpt lat="48.802561" lon="2.126136">
        <ele>130.954762</ele>
        <time>2023-07-19T09:24:58.234Z</time>
      </trkpt>
      <trkpt lat="48.802417" lon="2.126001">
        <ele>130.828260</ele>
        <time>2023-07-19T09:25:00.234Z</time>
      </trkpt>
      <trkpt lat="48.802284" lon="2.125837">
        <ele>130.700189</ele>
        <time>2023-07-19T09:25:02.401Z</time>
      </trkpt>
      <trkpt lat="48.802073" lon="2.125450">
        <ele>130.456379</ele>
        <time>2023-07-19T09:25:06.632Z</time>
      </trkpt>
      <trkpt lat="48.802025" lon="2.125434">
        <ele>130.429426</ele>
        <time>2023-07-19T09:25:07.225Z</time>
      </trkpt>
      <trkpt lat="48.801910" lon="2.125552">
        <ele>130.353300</ele>
        <time>2023-07-19T09:25:08.976Z</time>
      </trkpt>
      <trkpt lat="48.801887" lon="2.125549">
        <ele>130.340639</ele>
        <time>2023-07-19T09:25:09.269Z</time>
      </trkpt>
      <trkpt lat="48.801726" lon="2.125514">
        <ele>130.251438</ele>
        <time>2023-07-19T09:25:11.557Z</time>
      </trkpt>
      <trkpt lat="48.801697" lon="2.125505">
        <ele>130.235204</ele>
        <time>2023-07-19T09:25:11.926Z</time>
      </trkpt>
      <trkpt lat="48.801643" lon="2.125489">
        <ele>130.205029</ele>
        <time>2023-07-19T09:25:12.619Z</time>
      </trkpt>
      <trkpt lat="48.801459" lon="2.125720">
        <ele>130.074080</ele>
        <time>2023-07-19T09:25:15.983Z</time>
      </trkpt>
      <trkpt lat="48.801368" lon="2.125549">
        <ele>129.994664</ele>
        <time>2023-07-19T09:25:17.810Z</time>
      </trkpt>
      <trkpt lat="48.801299" lon="2.125411">
        <ele>129.932075</ele>
        <time>2023-07-19T09:25:19.267Z</time>
      </trkpt>
      <trkpt lat="48.801338" lon="2.125351">
        <ele>129.901623</ele>
        <time>2023-07-19T09:25:20.444Z</time>
      </trkpt>
      <trkpt lat="48.801305" lon="2.125257">
        <ele>129.863143</ele>
        <time>2023-07-19T09:25:21.391Z</time>
      </trkpt>
      <trkpt lat="48.801339" lon="2.123851">
        <ele>129.472484</ele>
        <time>2023-07-19T09:25:33.226Z</time>
      </trkpt>
      <trkpt lat="48.801353" lon="2.123058">
        <ele>129.456064</ele>
        <time>2023-07-19T09:25:41.825Z</time>
      </trkpt>
      <trkpt lat="48.800860" lon="2.122753">
        <ele>129.439334</ele>
        <time>2023-07-19T09:25:50.854Z</time>
      </trkpt>
      <trkpt lat="48.800913" lon="2.122561">
        <ele>129.435025</ele>
        <time>2023-07-19T09:25:53.029Z</time>
      </trkpt>
      <trkpt lat="48.801185" lon="2.121569">
        <ele>129.060744</ele>
        <time>2023-07-19T09:26:02.540Z</time>
      </trkpt>
      <trkpt lat="48.801499" lon="2.120423">
        <ele>128.159112</ele>
        <time>2023-07-19T09:26:12.428Z</time>
      </trkpt>
      <trkpt lat="48.800876" lon="2.120034">
        <ele>127.401845</ele>
        <time>2023-07-19T09:26:20.185Z</time>
      </trkpt>
      <trkpt lat="48.801029" lon="2.119483">
        <ele>126.699644</ele>
        <time>2023-07-19T09:26:24.565Z</time>
      </trkpt>
      <trkpt lat="48.801116" lon="2.119419">
        <ele>126.527286</ele>
        <time>2023-07-19T09:26:25.635Z</time>
      </trkpt>
      <trkpt lat="48.801144" lon="2.119363">
        <ele>126.444723</ele>
        <time>2023-07-19T09:26:26.136Z</time>
      </trkpt>
      <trkpt lat="48.801210" lon="2.119115">
        <ele>126.130618</ele>
        <time>2023-07-19T09:26:28.049Z</time>
      </trkpt>
      <trkpt lat="48.801799" lon="2.116885">
        <ele>123.463298</ele>
        <time>2023-07-19T09:26:45.693Z</time>
      </trkpt>
      <trkpt lat="48.802392" lon="2.114616">
        <ele>121.170391</ele>
        <time>2023-07-19T09:27:04.500Z</time>
      </trkpt>
      <trkpt lat="48.802477" lon="2.114145">
        <ele>120.786341</ele>
        <time>2023-07-19T09:27:08.293Z</time>
      </trkpt>
      <trkpt lat="48.802800" lon="2.111364">
        <ele>119.113287</ele>
        <time>2023-07-19T09:27:30.759Z</time>
      </trkpt>
      <trkpt lat="48.803159" lon="2.108299">
        <ele>119.113560</ele>
        <time>2023-07-19T09:28:01.289Z</time>
      </trkpt>
      <trkpt lat="48.803469" lon="2.105685">
        <ele>120.314247</ele>
        <time>2023-07-19T09:28:34.093Z</time>
      </trkpt>
      <trkpt lat="48.803491" lon="2.105396">
        <ele>120.482239</ele>
        <time>2023-07-19T09:28:37.680Z</time>
      </trkpt>
      <trkpt lat="48.803517" lon="2.105127">
        <ele>120.639234</ele>
        <time>2023-07-19T09:28:41.103Z</time>
      </trkpt>
      <trkpt lat="48.803512" lon="2.104788">
        <ele>120.835036</ele>
        <time>2023-07-19T09:28:45.171Z</time>
      </trkpt>
      <trkpt lat="48.803469" lon="2.104374">
        <ele>121.077051</ele>
        <time>2023-07-19T09:28:50.148Z</time>
      </trkpt>
      <trkpt lat="48.803443" lon="2.103832">
        <ele>121.141528</ele>
        <time>2023-07-19T09:28:56.421Z</time>
      </trkpt>
      <trkpt lat="48.802861" lon="2.097245">
        <ele>121.076906</ele>
        <time>2023-07-19T09:30:02.547Z</time>
      </trkpt>
      <trkpt lat="48.802703" lon="2.095617">
        <ele>120.329098</ele>
        <time>2023-07-19T09:30:15.216Z</time>
      </trkpt>
      <trkpt lat="48.802600" lon="2.094137">
        <ele>119.322027</ele>
        <time>2023-07-19T09:30:26.615Z</time>
      </trkpt>
      <trkpt lat="48.802547" lon="2.093914">
        <ele>119.161602</ele>
        <time>2023-07-19T09:30:28.530Z</time>
      </trkpt>
      <trkpt lat="48.802330" lon="2.091638">
        <ele>119.603681</ele>
        <time>2023-07-19T09:30:51.903Z</time>
      </trkpt>
      <trkpt lat="48.802063" lon="2.088639">
        <ele>122.735311</ele>
        <time>2023-07-19T09:31:35.346Z</time>
      </trkpt>
      <trkpt lat="48.802033" lon="2.087906">
        <ele>123.766923</ele>
        <time>2023-07-19T09:31:47.514Z</time>
      </trkpt>
      <trkpt lat="48.802051" lon="2.087735">
        <ele>124.062607</ele>
        <time>2023-07-19T09:31:50.402Z</time>
      </trkpt>
      <trkpt lat="48.802090" lon="2.087633">
        <ele>124.263987</ele>
        <time>2023-07-19T09:31:52.480Z</time>
      </trkpt>
      <trkpt lat="48.802126" lon="2.087486">
        <ele>124.531774</ele>
        <time>2023-07-19T09:31:55.138Z</time>
      </trkpt>
      <trkpt lat="48.802156" lon="2.087359">
        <ele>124.762147</ele>
        <time>2023-07-19T09:31:57.409Z</time>
      </trkpt>
      <trkpt lat="48.802149" lon="2.087244">
        <ele>124.959343</ele>
        <time>2023-07-19T09:31:59.373Z</time>
      </trkpt>
      <trkpt lat="48.802119" lon="2.087059">
        <ele>125.284659</ele>
        <time>2023-07-19T09:32:02.729Z</time>
      </trkpt>
      <trkpt lat="48.801941" lon="2.086723">
        <ele>126.020912</ele>
        <time>2023-07-19T09:32:10.260Z</time>
      </trkpt>
      <trkpt lat="48.801882" lon="2.086471">
        <ele>126.477572</ele>
        <time>2023-07-19T09:32:14.801Z</time>
      </trkpt>
      <trkpt lat="48.801664" lon="2.084508">
        <ele>129.013126</ele>
        <time>2023-07-19T09:32:46.987Z</time>
      </trkpt>
      <trkpt lat="48.801388" lon="2.081453">
        <ele>131.103958</ele>
        <time>2023-07-19T09:33:22.297Z</time>
      </trkpt>
      <trkpt lat="48.801295" lon="2.080156">
        <ele>131.657642</ele>
        <time>2023-07-19T09:33:36.399Z</time>
      </trkpt>
      <trkpt lat="48.801208" lon="2.079208">
        <ele>132.758573</ele>
        <time>2023-07-19T09:33:49.252Z</time>
      </trkpt>
      <trkpt lat="48.801071" lon="2.078108">
        <ele>134.058033</ele>
        <time>2023-07-19T09:34:06.030Z</time>
      </trkpt>
      <trkpt lat="48.801046" lon="2.077832">
        <ele>134.381418</ele>
        <time>2023-07-19T09:34:11.581Z</time>
      </trkpt>
      <trkpt lat="48.800981" lon="2.076747">
        <ele>135.999814</ele>
        <time>2023-07-19T09:34:32.743Z</time>
      </trkpt>
      <trkpt lat="48.800965" lon="2.076591">
        <ele>136.262830</ele>
        <time>2023-07-19T09:34:35.926Z</time>
      </trkpt>
      <trkpt lat="48.800950" lon="2.076459">
        <ele>136.485981</ele>
        <time>2023-07-19T09:34:38.499Z</time>
      </trkpt>
      <trkpt lat="48.800799" lon="2.074566">
        <ele>139.677838</ele>
        <time>2023-07-19T09:35:17.605Z</time>
      </trkpt>
      <trkpt lat="48.800730" lon="2.074437">
        <ele>139.969701</ele>
        <time>2023-07-19T09:35:20.582Z</time>
      </trkpt>
      <trkpt lat="48.800735" lon="2.074019">
        <ele>140.703975</ele>
        <time>2023-07-19T09:35:27.356Z</time>
      </trkpt>
      <trkpt lat="48.800763" lon="2.074012">
        <ele>140.779641</ele>
        <time>2023-07-19T09:35:28.139Z</time>
      </trkpt>
      <trkpt lat="48.800789" lon="2.074005">
        <ele>140.850051</ele>
        <time>2023-07-19T09:35:28.866Z</time>
      </trkpt>
      <trkpt lat="48.800814" lon="2.073967">
        <ele>140.944381</ele>
        <time>2023-07-19T09:35:29.853Z</time>
      </trkpt>
      <trkpt lat="48.800783" lon="2.073934">
        <ele>141.045337</ele>
        <time>2023-07-19T09:35:31.031Z</time>
      </trkpt>
      <trkpt lat="48.800654" lon="2.073800">
        <ele>141.462119</ele>
        <time>2023-07-19T09:35:35.900Z</time>
      </trkpt>
      <trkpt lat="48.800526" lon="2.073668">
        <ele>141.874720</ele>
        <time>2023-07-19T09:35:40.612Z</time>
      </trkpt>
      <trkpt lat="48.800228" lon="2.072330">
        <ele>144.386919</ele>
        <time>2023-07-19T09:36:04.722Z</time>
      </trkpt>
      <trkpt lat="48.800004" lon="2.071371">
        <ele>146.491698</ele>
        <time>2023-07-19T09:36:22.932Z</time>
      </trkpt>
      <trkpt lat="48.799991" lon="2.071316">
        <ele>146.612572</ele>
        <time>2023-07-19T09:36:23.920Z</time>
      </trkpt>
      <trkpt lat="48.799957" lon="2.071182">
        <ele>146.909614</ele>
        <time>2023-07-19T09:36:26.584Z</time>
      </trkpt>
      <trkpt lat="48.799920" lon="2.071013">
        <ele>147.278006</ele>
        <time>2023-07-19T09:36:29.818Z</time>
      </trkpt>
      <trkpt lat="48.799820" lon="2.070680">
        <ele>148.035048</ele>
        <time>2023-07-19T09:36:36.512Z</time>
      </trkpt>
      <trkpt lat="48.799677" lon="2.070342">
        <ele>148.866025</ele>
        <time>2023-07-19T09:36:43.891Z</time>
      </trkpt>
      <trkpt lat="48.799423" lon="2.069949">
        <ele>149.987073</ele>
        <time>2023-07-19T09:36:54.247Z</time>
      </trkpt>
      <trkpt lat="48.799356" lon="2.069856">
        <ele>150.243558</ele>
        <time>2023-07-19T09:36:56.853Z</time>
      </trkpt>
      <trkpt lat="48.799295" lon="2.069772">
        <ele>150.476232</ele>
        <time>2023-07-19T09:36:59.165Z</time>
      </trkpt>
      <trkpt lat="48.799145" lon="2.069543">
        <ele>151.077239</ele>
        <time>2023-07-19T09:37:04.971Z</time>
      </trkpt>
      <trkpt lat="48.799052" lon="2.069355">
        <ele>151.514779</ele>
        <time>2023-07-19T09:37:09.151Z</time>
      </trkpt>
      <trkpt lat="48.799026" lon="2.069303">
        <ele>151.636271</ele>
        <time>2023-07-19T09:37:10.299Z</time>
      </trkpt>
      <trkpt lat="48.798844" lon="2.068854">
        <ele>152.617390</ele>
        <time>2023-07-19T09:37:19.473Z</time>
      </trkpt>
      <trkpt lat="48.798647" lon="2.068163">
        <ele>154.018616</ele>
        <time>2023-07-19T09:37:32.224Z</time>
      </trkpt>
      <trkpt lat="48.798528" lon="2.067726">
        <ele>154.898628</ele>
        <time>2023-07-19T09:37:39.863Z</time>
      </trkpt>
      <trkpt lat="48.798469" lon="2.067542">
        <ele>155.202459</ele>
        <time>2023-07-19T09:37:43.089Z</time>
      </trkpt>
      <trkpt lat="48.798434" lon="2.067412">
        <ele>155.409581</ele>
        <time>2023-07-19T09:37:45.202Z</time>
      </trkpt>
      <trkpt lat="48.798287" lon="2.066651">
        <ele>156.579181</ele>
        <time>2023-07-19T09:37:57.035Z</time>
      </trkpt>
      <trkpt lat="48.798235" lon="2.065707">
        <ele>157.976271</ele>
        <time>2023-07-19T09:38:11.587Z</time>
      </trkpt>
      <trkpt lat="48.798212" lon="2.064239">
        <ele>160.342488</ele>
        <time>2023-07-19T09:38:35.288Z</time>
      </trkpt>
      <trkpt lat="48.798210" lon="2.064171">
        <ele>160.459565</ele>
        <time>2023-07-19T09:38:36.422Z</time>
      </trkpt>
      <trkpt lat="48.798200" lon="2.063902">
        <ele>160.922980</ele>
        <time>2023-07-19T09:38:40.901Z</time>
      </trkpt>
      <trkpt lat="48.798194" lon="2.063769">
        <ele>161.152275</ele>
        <time>2023-07-19T09:38:43.154Z</time>
      </trkpt>
      <trkpt lat="48.798184" lon="2.063454">
        <ele>161.694703</ele>
        <time>2023-07-19T09:38:48.522Z</time>
      </trkpt>
      <trkpt lat="48.798178" lon="2.063238">
        <ele>162.066552</ele>
        <time>2023-07-19T09:38:52.368Z</time>
      </trkpt>
      <trkpt lat="48.798175" lon="2.063084">
        <ele>162.331548</ele>
        <time>2023-07-19T09:38:55.116Z</time>
      </trkpt>
      <trkpt lat="48.798161" lon="2.062295">
        <ele>163.659250</ele>
        <time>2023-07-19T09:39:09.107Z</time>
      </trkpt>
      <trkpt lat="48.798160" lon="2.062232">
        <ele>163.711009</ele>
        <time>2023-07-19T09:39:10.141Z</time>
      </trkpt>
      <trkpt lat="48.798154" lon="2.061956">
        <ele>163.937821</ele>
        <time>2023-07-19T09:39:14.663Z</time>
      </trkpt>
      <trkpt lat="48.798140" lon="2.061440">
        <ele>164.361989</ele>
        <time>2023-07-19T09:39:22.328Z</time>
      </trkpt>
      <trkpt lat="48.798074" lon="2.061088">
        <ele>164.662584</ele>
        <time>2023-07-19T09:39:27.008Z</time>
      </trkpt>
      <trkpt lat="48.798024" lon="2.060877">
        <ele>164.846758</ele>
        <time>2023-07-19T09:39:29.826Z</time>
      </trkpt>
      <trkpt lat="48.797973" lon="2.060660">
        <ele>165.035993</ele>
        <time>2023-07-19T09:39:32.414Z</time>
      </trkpt>
      <trkpt lat="48.797919" lon="2.060428">
        <ele>165.238090</ele>
        <time>2023-07-19T09:39:35.312Z</time>
      </trkpt>
      <trkpt lat="48.797808" lon="2.059936">
        <ele>165.665233</ele>
        <time>2023-07-19T09:39:40.985Z</time>
      </trkpt>
      <trkpt lat="48.797697" lon="2.059473">
        <ele>165.862421</ele>
        <time>2023-07-19T09:39:46.155Z</time>
      </trkpt>
      <trkpt lat="48.797682" lon="2.059408">
        <ele>165.858882</ele>
        <time>2023-07-19T09:39:46.918Z</time>
      </trkpt>
      <trkpt lat="48.797465" lon="2.058530">
        <ele>165.810689</ele>
        <time>2023-07-19T09:39:56.015Z</time>
      </trkpt>
      <trkpt lat="48.797323" lon="2.057955">
        <ele>165.779132</ele>
        <time>2023-07-19T09:40:01.407Z</time>
      </trkpt>
      <trkpt lat="48.797255" lon="2.057685">
        <ele>165.764277</ele>
        <time>2023-07-19T09:40:03.970Z</time>
      </trkpt>
      <trkpt lat="48.797228" lon="2.057575">
        <ele>165.758244</ele>
        <time>2023-07-19T09:40:05.004Z</time>
      </trkpt>
      <trkpt lat="48.797147" lon="2.057216">
        <ele>165.738742</ele>
        <time>2023-07-19T09:40:08.593Z</time>
      </trkpt>
      <trkpt lat="48.797137" lon="2.057171">
        <ele>165.736302</ele>
        <time>2023-07-19T09:40:09.046Z</time>
      </trkpt>
      <trkpt lat="48.797127" lon="2.057128">
        <ele>165.733574</ele>
        <time>2023-07-19T09:40:09.478Z</time>
      </trkpt>
      <trkpt lat="48.797105" lon="2.057044">
        <ele>165.723964</ele>
        <time>2023-07-19T09:40:10.352Z</time>
      </trkpt>
      <trkpt lat="48.797059" lon="2.056843">
        <ele>165.701342</ele>
        <time>2023-07-19T09:40:12.563Z</time>
      </trkpt>
      <trkpt lat="48.796917" lon="2.056253">
        <ele>165.634561</ele>
        <time>2023-07-19T09:40:18.825Z</time>
      </trkpt>
      <trkpt lat="48.796707" lon="2.055368">
        <ele>165.534555</ele>
        <time>2023-07-19T09:40:27.486Z</time>
      </trkpt>
      <trkpt lat="48.796641" lon="2.055207">
        <ele>165.514395</ele>
        <time>2023-07-19T09:40:29.297Z</time>
      </trkpt>
      <trkpt lat="48.796496" lon="2.054993">
        <ele>165.481756</ele>
        <time>2023-07-19T09:40:32.080Z</time>
      </trkpt>
      <trkpt lat="48.796318" lon="2.054852">
        <ele>165.449352</ele>
        <time>2023-07-19T09:40:35.025Z</time>
      </trkpt>
      <trkpt lat="48.795556" lon="2.054495">
        <ele>165.301156</ele>
        <time>2023-07-19T09:40:45.933Z</time>
      </trkpt>
      <trkpt lat="48.795427" lon="2.054396">
        <ele>165.274142</ele>
        <time>2023-07-19T09:40:47.778Z</time>
      </trkpt>
      <trkpt lat="48.795323" lon="2.054294">
        <ele>165.251001</ele>
        <time>2023-07-19T09:40:49.539Z</time>
      </trkpt>
      <trkpt lat="48.795308" lon="2.054253">
        <ele>165.245228</ele>
        <time>2023-07-19T09:40:49.987Z</time>
      </trkpt>
      <trkpt lat="48.795259" lon="2.054198">
        <ele>165.233838</ele>
        <time>2023-07-19T09:40:50.826Z</time>
      </trkpt>
      <trkpt lat="48.795197" lon="2.054197">
        <ele>165.222251</ele>
        <time>2023-07-19T09:40:51.659Z</time>
      </trkpt>
      <trkpt lat="48.795169" lon="2.054217">
        <ele>165.216468</ele>
        <time>2023-07-19T09:40:52.073Z</time>
      </trkpt>
      <trkpt lat="48.795105" lon="2.054223">
        <ele>165.204484</ele>
        <time>2023-07-19T09:40:52.980Z</time>
      </trkpt>
      <trkpt lat="48.794950" lon="2.054137">
        <ele>165.173642</ele>
        <time>2023-07-19T09:40:55.617Z</time>
      </trkpt>
      <trkpt lat="48.794669" lon="2.053965">
        <ele>165.117017</ele>
        <time>2023-07-19T09:40:59.939Z</time>
      </trkpt>
      <trkpt lat="48.794016" lon="2.053581">
        <ele>165.286023</ele>
        <time>2023-07-19T09:41:11.157Z</time>
      </trkpt>
      <trkpt lat="48.793819" lon="2.053367">
        <ele>165.352268</ele>
        <time>2023-07-19T09:41:15.270Z</time>
      </trkpt>
      <trkpt lat="48.793691" lon="2.053093">
        <ele>165.412780</ele>
        <time>2023-07-19T09:41:19.124Z</time>
      </trkpt>
      <trkpt lat="48.793561" lon="2.053172">
        <ele>165.451074</ele>
        <time>2023-07-19T09:41:21.980Z</time>
      </trkpt>
      <trkpt lat="48.793284" lon="2.053045">
        <ele>165.530203</ele>
        <time>2023-07-19T09:41:28.231Z</time>
      </trkpt>
      <trkpt lat="48.792289" lon="2.052461">
        <ele>165.440264</ele>
        <time>2023-07-19T09:41:50.039Z</time>
      </trkpt>
      <trkpt lat="48.791967" lon="2.052131">
        <ele>165.364001</ele>
        <time>2023-07-19T09:41:57.298Z</time>
      </trkpt>
      <trkpt lat="48.791827" lon="2.051874">
        <ele>165.320877</ele>
        <time>2023-07-19T09:42:01.360Z</time>
      </trkpt>
      <trkpt lat="48.791752" lon="2.051713">
        <ele>165.295378</ele>
        <time>2023-07-19T09:42:03.755Z</time>
      </trkpt>
      <trkpt lat="48.791599" lon="2.051584">
        <ele>165.261023</ele>
        <time>2023-07-19T09:42:07.006Z</time>
      </trkpt>
      <trkpt lat="48.791427" lon="2.051296">
        <ele>165.238648</ele>
        <time>2023-07-19T09:42:11.755Z</time>
      </trkpt>
      <trkpt lat="48.790916" lon="2.050182">
        <ele>165.199370</ele>
        <time>2023-07-19T09:42:29.529Z</time>
      </trkpt>
      <trkpt lat="48.790581" lon="2.049341">
        <ele>165.170933</ele>
        <time>2023-07-19T09:42:43.197Z</time>
      </trkpt>
      <trkpt lat="48.790515" lon="2.049044">
        <ele>165.191766</ele>
        <time>2023-07-19T09:42:47.555Z</time>
      </trkpt>
      <trkpt lat="48.790530" lon="2.048712">
        <ele>165.231552</ele>
        <time>2023-07-19T09:42:52.121Z</time>
      </trkpt>
      <trkpt lat="48.790479" lon="2.048560">
        <ele>165.251945</ele>
        <time>2023-07-19T09:42:54.441Z</time>
      </trkpt>
      <trkpt lat="48.790441" lon="2.048488">
        <ele>165.262975</ele>
        <time>2023-07-19T09:42:55.686Z</time>
      </trkpt>
      <trkpt lat="48.790368" lon="2.048370">
        <ele>165.282328</ele>
        <time>2023-07-19T09:42:57.928Z</time>
      </trkpt>
      <trkpt lat="48.790190" lon="2.048310">
        <ele>165.315417</ele>
        <time>2023-07-19T09:43:01.683Z</time>
      </trkpt>
      <trkpt lat="48.790111" lon="2.048192">
        <ele>165.335530</ele>
        <time>2023-07-19T09:43:03.975Z</time>
      </trkpt>
      <trkpt lat="48.789739" lon="2.047376">
        <ele>165.454169</ele>
        <time>2023-07-19T09:43:17.526Z</time>
      </trkpt>
      <trkpt lat="48.789673" lon="2.047163">
        <ele>165.482311</ele>
        <time>2023-07-19T09:43:20.776Z</time>
      </trkpt>
      <trkpt lat="48.789625" lon="2.047039">
        <ele>165.502754</ele>
        <time>2023-07-19T09:43:22.789Z</time>
      </trkpt>
      <trkpt lat="48.789559" lon="2.046962">
        <ele>165.526927</ele>
        <time>2023-07-19T09:43:24.569Z</time>
      </trkpt>
      <trkpt lat="48.788879" lon="2.045334">
        <ele>165.895719</ele>
        <time>2023-07-19T09:43:52.334Z</time>
      </trkpt>
      <trkpt lat="48.788851" lon="2.045259">
        <ele>165.912212</ele>
        <time>2023-07-19T09:43:53.554Z</time>
      </trkpt>
      <trkpt lat="48.788807" lon="2.045244">
        <ele>165.925307</ele>
        <time>2023-07-19T09:43:54.547Z</time>
      </trkpt>
      <trkpt lat="48.788758" lon="2.045151">
        <ele>165.948090</ele>
        <time>2023-07-19T09:43:56.179Z</time>
      </trkpt>
      <trkpt lat="48.788353" lon="2.044179">
        <ele>166.060062</ele>
        <time>2023-07-19T09:44:07.698Z</time>
      </trkpt>
      <trkpt lat="48.788360" lon="2.044049">
        <ele>166.067242</ele>
        <time>2023-07-19T09:44:08.992Z</time>
      </trkpt>
      <trkpt lat="48.788267" lon="2.043839">
        <ele>166.081171</ele>
        <time>2023-07-19T09:44:11.386Z</time>
      </trkpt>
      <trkpt lat="48.788165" lon="2.043608">
        <ele>166.096479</ele>
        <time>2023-07-19T09:44:14.090Z</time>
      </trkpt>
      <trkpt lat="48.788098" lon="2.043573">
        <ele>166.102400</ele>
        <time>2023-07-19T09:44:15.068Z</time>
      </trkpt>
      <trkpt lat="48.787888" lon="2.043092">
        <ele>166.134165</ele>
        <time>2023-07-19T09:44:20.768Z</time>
      </trkpt>
      <trkpt lat="48.787858" lon="2.043021">
        <ele>166.138808</ele>
        <time>2023-07-19T09:44:21.629Z</time>
      </trkpt>
      <trkpt lat="48.787834" lon="2.042964">
        <ele>166.142532</ele>
        <time>2023-07-19T09:44:22.312Z</time>
      </trkpt>
      <trkpt lat="48.787493" lon="2.042174">
        <ele>166.294900</ele>
        <time>2023-07-19T09:44:32.027Z</time>
      </trkpt>
      <trkpt lat="48.787453" lon="2.042085">
        <ele>166.322222</ele>
        <time>2023-07-19T09:44:33.170Z</time>
      </trkpt>
      <trkpt lat="48.787256" lon="2.041653">
        <ele>166.455462</ele>
        <time>2023-07-19T09:44:38.401Z</time>
      </trkpt>
      <trkpt lat="48.787205" lon="2.041539">
        <ele>166.490408</ele>
        <time>2023-07-19T09:44:39.773Z</time>
      </trkpt>
      <trkpt lat="48.787160" lon="2.041421">
        <ele>166.524985</ele>
        <time>2023-07-19T09:44:41.161Z</time>
      </trkpt>
      <trkpt lat="48.787165" lon="2.041074">
        <ele>166.613008</ele>
        <time>2023-07-19T09:44:44.752Z</time>
      </trkpt>
      <trkpt lat="48.787329" lon="2.040414">
        <ele>166.791896</ele>
        <time>2023-07-19T09:44:52.599Z</time>
      </trkpt>
      <trkpt lat="48.787361" lon="2.040061">
        <ele>166.911147</ele>
        <time>2023-07-19T09:44:57.036Z</time>
      </trkpt>
      <trkpt lat="48.787309" lon="2.039677">
        <ele>167.134144</ele>
        <time>2023-07-19T09:45:02.057Z</time>
      </trkpt>
      <trkpt lat="48.787150" lon="2.039166">
        <ele>167.455601</ele>
        <time>2023-07-19T09:45:09.358Z</time>
      </trkpt>
      <trkpt lat="48.787122" lon="2.039098">
        <ele>167.501215</ele>
        <time>2023-07-19T09:45:10.380Z</time>
      </trkpt>
      <trkpt lat="48.787082" lon="2.039008">
        <ele>167.562969</ele>
        <time>2023-07-19T09:45:11.697Z</time>
      </trkpt>
      <trkpt lat="48.787042" lon="2.038937">
        <ele>167.616108</ele>
        <time>2023-07-19T09:45:12.776Z</time>
      </trkpt>
      <trkpt lat="48.787308" lon="2.038643">
        <ele>167.900201</ele>
        <time>2023-07-19T09:45:18.894Z</time>
      </trkpt>
      <trkpt lat="48.787504" lon="2.038425">
        <ele>168.109992</ele>
        <time>2023-07-19T09:45:23.243Z</time>
      </trkpt>
      <trkpt lat="48.788109" lon="2.037714">
        <ele>168.655724</ele>
        <time>2023-07-19T09:45:36.622Z</time>
      </trkpt>
      <trkpt lat="48.788841" lon="2.036870">
        <ele>169.195205</ele>
        <time>2023-07-19T09:45:52.539Z</time>
      </trkpt>
      <trkpt lat="48.789187" lon="2.036425">
        <ele>169.461356</ele>
        <time>2023-07-19T09:45:59.790Z</time>
      </trkpt>
      <trkpt lat="48.789258" lon="2.035795">
        <ele>169.691276</ele>
        <time>2023-07-19T09:46:06.764Z</time>
      </trkpt>
      <trkpt lat="48.789346" lon="2.035151">
        <ele>169.927422</ele>
        <time>2023-07-19T09:46:14.512Z</time>
      </trkpt>
      <trkpt lat="48.789428" lon="2.034888">
        <ele>170.031891</ele>
        <time>2023-07-19T09:46:18.148Z</time>
      </trkpt>
      <trkpt lat="48.789563" lon="2.034746">
        <ele>170.121402</ele>
        <time>2023-07-19T09:46:21.106Z</time>
      </trkpt>
      <trkpt lat="48.789626" lon="2.035045">
        <ele>170.234112</ele>
        <time>2023-07-19T09:46:24.881Z</time>
      </trkpt>
      <trkpt lat="48.789593" lon="2.035255">
        <ele>170.311626</ele>
        <time>2023-07-19T09:46:27.200Z</time>
      </trkpt>
      <trkpt lat="48.789510" lon="2.035383">
        <ele>170.376109</ele>
        <time>2023-07-19T09:46:28.999Z</time>
      </trkpt>
      <trkpt lat="48.789454" lon="2.035539">
        <ele>170.439895</ele>
        <time>2023-07-19T09:46:30.798Z</time>
      </trkpt>
      <trkpt lat="48.789443" lon="2.035570">
        <ele>170.450024</ele>
        <time>2023-07-19T09:46:31.156Z</time>
      </trkpt>
      <trkpt lat="48.789416" lon="2.035801">
        <ele>170.490672</ele>
        <time>2023-07-19T09:46:33.413Z</time>
      </trkpt>
      <trkpt lat="48.789442" lon="2.036033">
        <ele>170.531446</ele>
        <time>2023-07-19T09:46:35.600Z</time>
      </trkpt>
      <trkpt lat="48.789517" lon="2.036238">
        <ele>170.572073</ele>
        <time>2023-07-19T09:46:38.007Z</time>
      </trkpt>
      <trkpt lat="48.789645" lon="2.036405">
        <ele>170.616461</ele>
        <time>2023-07-19T09:46:40.622Z</time>
      </trkpt>
      <trkpt lat="48.789827" lon="2.036496">
        <ele>170.666854</ele>
        <time>2023-07-19T09:46:43.783Z</time>
      </trkpt>
      <trkpt lat="48.790031" lon="2.036457">
        <ele>170.720927</ele>
        <time>2023-07-19T09:46:47.273Z</time>
      </trkpt>
      <trkpt lat="48.790165" lon="2.036341">
        <ele>170.761495</ele>
        <time>2023-07-19T09:46:50.001Z</time>
      </trkpt>
      <trkpt lat="48.790279" lon="2.036129">
        <ele>170.808907</ele>
        <time>2023-07-19T09:46:52.845Z</time>
      </trkpt>
      <trkpt lat="48.790330" lon="2.035866">
        <ele>170.856407</ele>
        <time>2023-07-19T09:46:55.792Z</time>
      </trkpt>
      <trkpt lat="48.790318" lon="2.035632">
        <ele>170.897071</ele>
        <time>2023-07-19T09:46:58.121Z</time>
      </trkpt>
      <trkpt lat="48.790320" lon="2.035512">
        <ele>170.917869</ele>
        <time>2023-07-19T09:46:59.265Z</time>
      </trkpt>
      <trkpt lat="48.790388" lon="2.035300">
        <ele>170.937699</ele>
        <time>2023-07-19T09:47:01.689Z</time>
      </trkpt>
      <trkpt lat="48.790477" lon="2.035163">
        <ele>170.952606</ele>
        <time>2023-07-19T09:47:03.508Z</time>
      </trkpt>
      <trkpt lat="48.790619" lon="2.035048">
        <ele>170.971534</ele>
        <time>2023-07-19T09:47:05.808Z</time>
      </trkpt>
      <trkpt lat="48.790790" lon="2.035020">
        <ele>170.991761</ele>
        <time>2023-07-19T09:47:08.279Z</time>
      </trkpt>
      <trkpt lat="48.791053" lon="2.035157">
        <ele>171.024462</ele>
        <time>2023-07-19T09:47:12.420Z</time>
      </trkpt>
      <trkpt lat="48.791611" lon="2.035506">
        <ele>171.095438</ele>
        <time>2023-07-19T09:47:21.735Z</time>
      </trkpt>
      <trkpt lat="48.791676" lon="2.035546">
        <ele>171.103687</ele>
        <time>2023-07-19T09:47:22.929Z</time>
      </trkpt>
      <trkpt lat="48.792237" lon="2.035903">
        <ele>170.978785</ele>
        <time>2023-07-19T09:47:32.928Z</time>
      </trkpt>
      <trkpt lat="48.792442" lon="2.036025">
        <ele>170.886392</ele>
        <time>2023-07-19T09:47:36.221Z</time>
      </trkpt>
      <trkpt lat="48.792684" lon="2.036173">
        <ele>170.776917</ele>
        <time>2023-07-19T09:47:39.785Z</time>
      </trkpt>
      <trkpt lat="48.793078" lon="2.036438">
        <ele>170.596092</ele>
        <time>2023-07-19T09:47:45.411Z</time>
      </trkpt>
      <trkpt lat="48.793205" lon="2.036523">
        <ele>170.537853</ele>
        <time>2023-07-19T09:47:47.133Z</time>
      </trkpt>
      <trkpt lat="48.793315" lon="2.036586">
        <ele>170.488520</ele>
        <time>2023-07-19T09:47:48.537Z</time>
      </trkpt>
      <trkpt lat="48.793354" lon="2.036457">
        <ele>170.449286</ele>
        <time>2023-07-19T09:47:49.721Z</time>
      </trkpt>
      <trkpt lat="48.793390" lon="2.036354">
        <ele>170.417056</ele>
        <time>2023-07-19T09:47:50.681Z</time>
      </trkpt>
      <trkpt lat="48.793529" lon="2.035885">
        <ele>170.063167</ele>
        <time>2023-07-19T09:47:54.703Z</time>
      </trkpt>
      <trkpt lat="48.793832" lon="2.035159">
        <ele>169.335404</ele>
        <time>2023-07-19T09:48:01.208Z</time>
      </trkpt>
      <trkpt lat="48.794252" lon="2.034502">
        <ele>168.560177</ele>
        <time>2023-07-19T09:48:08.176Z</time>
      </trkpt>
      <trkpt lat="48.794571" lon="2.034171">
        <ele>168.065187</ele>
        <time>2023-07-19T09:48:12.681Z</time>
      </trkpt>
      <trkpt lat="48.794891" lon="2.033910">
        <ele>167.990326</ele>
        <time>2023-07-19T09:48:17.262Z</time>
      </trkpt>
      <trkpt lat="48.795162" lon="2.033743">
        <ele>167.930052</ele>
        <time>2023-07-19T09:48:21.253Z</time>
      </trkpt>
      <trkpt lat="48.795604" lon="2.033470">
        <ele>167.831714</ele>
        <time>2023-07-19T09:48:28.519Z</time>
      </trkpt>
      <trkpt lat="48.795991" lon="2.033239">
        <ele>167.746017</ele>
        <time>2023-07-19T09:48:35.306Z</time>
      </trkpt>
      <trkpt lat="48.796520" lon="2.032932">
        <ele>167.624816</ele>
        <time>2023-07-19T09:48:44.109Z</time>
      </trkpt>
      <trkpt lat="48.796884" lon="2.032690">
        <ele>167.537314</ele>
        <time>2023-07-19T09:48:49.839Z</time>
      </trkpt>
      <trkpt lat="48.797108" lon="2.032566">
        <ele>167.484812</ele>
        <time>2023-07-19T09:48:53.210Z</time>
      </trkpt>
      <trkpt lat="48.797423" lon="2.032360">
        <ele>167.409287</ele>
        <time>2023-07-19T09:48:57.870Z</time>
      </trkpt>
      <trkpt lat="48.798422" lon="2.031803">
        <ele>167.082586</ele>
        <time>2023-07-19T09:49:11.931Z</time>
      </trkpt>
      <trkpt lat="48.798808" lon="2.031713">
        <ele>166.932466</ele>
        <time>2023-07-19T09:49:16.836Z</time>
      </trkpt>
      <trkpt lat="48.799406" lon="2.031618">
        <ele>166.701337</ele>
        <time>2023-07-19T09:49:24.980Z</time>
      </trkpt>
      <trkpt lat="48.799871" lon="2.031629">
        <ele>166.745045</ele>
        <time>2023-07-19T09:49:32.072Z</time>
      </trkpt>
      <trkpt lat="48.799919" lon="2.031636">
        <ele>166.775132</ele>
        <time>2023-07-19T09:49:32.862Z</time>
      </trkpt>
      <trkpt lat="48.800337" lon="2.031741">
        <ele>167.039484</ele>
        <time>2023-07-19T09:49:39.842Z</time>
      </trkpt>
      <trkpt lat="48.800640" lon="2.031829">
        <ele>167.231966</ele>
        <time>2023-07-19T09:49:44.948Z</time>
      </trkpt>
      <trkpt lat="48.800715" lon="2.031846">
        <ele>167.279280</ele>
        <time>2023-07-19T09:49:46.237Z</time>
      </trkpt>
      <trkpt lat="48.801032" lon="2.032005">
        <ele>167.487583</ele>
        <time>2023-07-19T09:49:51.999Z</time>
      </trkpt>
      <trkpt lat="48.801257" lon="2.032252">
        <ele>167.660824</ele>
        <time>2023-07-19T09:49:57.198Z</time>
      </trkpt>
      <trkpt lat="48.801891" lon="2.032812">
        <ele>169.034834</ele>
        <time>2023-07-19T09:50:13.123Z</time>
      </trkpt>
      <trkpt lat="48.802203" lon="2.033030">
        <ele>169.754127</ele>
        <time>2023-07-19T09:50:21.295Z</time>
      </trkpt>
      <trkpt lat="48.802890" lon="2.033468">
        <ele>171.314608</ele>
        <time>2023-07-19T09:50:39.524Z</time>
      </trkpt>
      <trkpt lat="48.803558" lon="2.033876">
        <ele>172.738076</ele>
        <time>2023-07-19T09:50:58.110Z</time>
      </trkpt>
      <trkpt lat="48.803669" lon="2.033946">
        <ele>172.973762</ele>
        <time>2023-07-19T09:51:01.283Z</time>
      </trkpt>
      <trkpt lat="48.804936" lon="2.034749">
        <ele>175.246865</ele>
        <time>2023-07-19T09:51:29.986Z</time>
      </trkpt>
      <trkpt lat="48.805308" lon="2.035035">
        <ele>175.531216</ele>
        <time>2023-07-19T09:51:37.121Z</time>
      </trkpt>
      <trkpt lat="48.805477" lon="2.035256">
        <ele>175.683317</ele>
        <time>2023-07-19T09:51:41.034Z</time>
      </trkpt>
      <trkpt lat="48.805557" lon="2.035387">
        <ele>175.763555</ele>
        <time>2023-07-19T09:51:43.207Z</time>
      </trkpt>
      <trkpt lat="48.805701" lon="2.035697">
        <ele>175.933934</ele>
        <time>2023-07-19T09:51:47.813Z</time>
      </trkpt>
      <trkpt lat="48.805768" lon="2.035949">
        <ele>176.055991</ele>
        <time>2023-07-19T09:51:50.881Z</time>
      </trkpt>
      <trkpt lat="48.805861" lon="2.036292">
        <ele>176.222589</ele>
        <time>2023-07-19T09:51:54.852Z</time>
      </trkpt>
      <trkpt lat="48.805898" lon="2.036432">
        <ele>176.054724</ele>
        <time>2023-07-19T09:51:56.397Z</time>
      </trkpt>
      <trkpt lat="48.806117" lon="2.037218">
        <ele>174.200709</ele>
        <time>2023-07-19T09:52:03.617Z</time>
      </trkpt>
      <trkpt lat="48.806248" lon="2.037612">
        <ele>173.241903</ele>
        <time>2023-07-19T09:52:06.800Z</time>
      </trkpt>
      <trkpt lat="48.806820" lon="2.038333">
        <ele>170.789776</ele>
        <time>2023-07-19T09:52:13.797Z</time>
      </trkpt>
      <trkpt lat="48.806996" lon="2.038445">
        <ele>169.885315</ele>
        <time>2023-07-19T09:52:15.519Z</time>
      </trkpt>
      <trkpt lat="48.807494" lon="2.038613">
        <ele>165.253485</ele>
        <time>2023-07-19T09:52:20.036Z</time>
      </trkpt>
      <trkpt lat="48.807599" lon="2.038651">
        <ele>164.273435</ele>
        <time>2023-07-19T09:52:20.969Z</time>
      </trkpt>
      <trkpt lat="48.807799" lon="2.038721">
        <ele>162.409924</ele>
        <time>2023-07-19T09:52:22.753Z</time>
      </trkpt>
      <trkpt lat="48.807939" lon="2.038774">
        <ele>161.099886</ele>
        <time>2023-07-19T09:52:23.997Z</time>
      </trkpt>
      <trkpt lat="48.808227" lon="2.038760">
        <ele>158.483659</ele>
        <time>2023-07-19T09:52:26.471Z</time>
      </trkpt>
      <trkpt lat="48.808360" lon="2.038696">
        <ele>157.216900</ele>
        <time>2023-07-19T09:52:27.665Z</time>
      </trkpt>
      <trkpt lat="48.808481" lon="2.038588">
        <ele>155.942536</ele>
        <time>2023-07-19T09:52:28.867Z</time>
      </trkpt>
      <trkpt lat="48.808713" lon="2.038162">
        <ele>152.625052</ele>
        <time>2023-07-19T09:52:31.971Z</time>
      </trkpt>
      <trkpt lat="48.809079" lon="2.037267">
        <ele>146.269216</ele>
        <time>2023-07-19T09:52:37.934Z</time>
      </trkpt>
      <trkpt lat="48.809125" lon="2.037245">
        <ele>145.827413</ele>
        <time>2023-07-19T09:52:38.352Z</time>
      </trkpt>
      <trkpt lat="48.809230" lon="2.037111">
        <ele>144.570929</ele>
        <time>2023-07-19T09:52:39.552Z</time>
      </trkpt>
      <trkpt lat="48.809454" lon="2.036981">
        <ele>142.374149</ele>
        <time>2023-07-19T09:52:41.656Z</time>
      </trkpt>
      <trkpt lat="48.809797" lon="2.036948">
        <ele>139.225712</ele>
        <time>2023-07-19T09:52:44.690Z</time>
      </trkpt>
      <trkpt lat="48.810092" lon="2.037079">
        <ele>136.825893</ele>
        <time>2023-07-19T09:52:47.408Z</time>
      </trkpt>
      <trkpt lat="48.810710" lon="2.037578">
        <ele>132.838739</ele>
        <time>2023-07-19T09:52:53.697Z</time>
      </trkpt>
      <trkpt lat="48.811253" lon="2.038105">
        <ele>129.167763</ele>
        <time>2023-07-19T09:52:59.711Z</time>
      </trkpt>
      <trkpt lat="48.811357" lon="2.038254">
        <ele>128.353272</ele>
        <time>2023-07-19T09:53:01.090Z</time>
      </trkpt>
      <trkpt lat="48.811397" lon="2.038383">
        <ele>127.818389</ele>
        <time>2023-07-19T09:53:02.051Z</time>
      </trkpt>
      <trkpt lat="48.811413" lon="2.038464">
        <ele>127.501157</ele>
        <time>2023-07-19T09:53:02.627Z</time>
      </trkpt>
      <trkpt lat="48.811468" lon="2.038539">
        <ele>127.226468</ele>
        <time>2023-07-19T09:53:03.378Z</time>
      </trkpt>
      <trkpt lat="48.811542" lon="2.038549">
        <ele>127.140603</ele>
        <time>2023-07-19T09:53:04.137Z</time>
      </trkpt>
      <trkpt lat="48.811592" lon="2.038511">
        <ele>127.075980</ele>
        <time>2023-07-19T09:53:04.721Z</time>
      </trkpt>
      <trkpt lat="48.811631" lon="2.038417">
        <ele>126.991419</ele>
        <time>2023-07-19T09:53:05.508Z</time>
      </trkpt>
      <trkpt lat="48.811629" lon="2.038319">
        <ele>126.916794</ele>
        <time>2023-07-19T09:53:06.234Z</time>
      </trkpt>
      <trkpt lat="48.811778" lon="2.038029">
        <ele>126.636836</ele>
        <time>2023-07-19T09:53:08.884Z</time>
      </trkpt>
      <trkpt lat="48.811923" lon="2.037748">
        <ele>126.365123</ele>
        <time>2023-07-19T09:53:11.692Z</time>
      </trkpt>
      <trkpt lat="48.812379" lon="2.036616">
        <ele>125.355129</ele>
        <time>2023-07-19T09:53:23.541Z</time>
      </trkpt>
      <trkpt lat="48.813154" lon="2.034791">
        <ele>125.889723</ele>
        <time>2023-07-19T09:53:48.714Z</time>
      </trkpt>
      <trkpt lat="48.814664" lon="2.031269">
        <ele>127.206970</ele>
        <time>2023-07-19T09:54:35.509Z</time>
      </trkpt>
      <trkpt lat="48.816238" lon="2.027567">
        <ele>127.094008</ele>
        <time>2023-07-19T09:55:19.154Z</time>
      </trkpt>
      <trkpt lat="48.816575" lon="2.026776">
        <ele>126.313199</ele>
        <time>2023-07-19T09:55:26.537Z</time>
      </trkpt>
      <trkpt lat="48.817015" lon="2.025875">
        <ele>124.893860</ele>
        <time>2023-07-19T09:55:34.822Z</time>
      </trkpt>
      <trkpt lat="48.817232" lon="2.025352">
        <ele>124.111697</ele>
        <time>2023-07-19T09:55:39.097Z</time>
      </trkpt>
      <trkpt lat="48.817436" lon="2.025009">
        <ele>123.492019</ele>
        <time>2023-07-19T09:55:42.236Z</time>
      </trkpt>
      <trkpt lat="48.817506" lon="2.025019">
        <ele>123.272766</ele>
        <time>2023-07-19T09:55:42.969Z</time>
      </trkpt>
      <trkpt lat="48.817572" lon="2.024984">
        <ele>123.054764</ele>
        <time>2023-07-19T09:55:43.705Z</time>
      </trkpt>
      <trkpt lat="48.817622" lon="2.024910">
        <ele>122.837050</ele>
        <time>2023-07-19T09:55:44.432Z</time>
      </trkpt>
      <trkpt lat="48.817648" lon="2.024801">
        <ele>122.599002</ele>
        <time>2023-07-19T09:55:45.209Z</time>
      </trkpt>
      <trkpt lat="48.817639" lon="2.024685">
        <ele>122.359166</ele>
        <time>2023-07-19T09:55:45.983Z</time>
      </trkpt>
      <trkpt lat="48.817603" lon="2.024591">
        <ele>122.135878</ele>
        <time>2023-07-19T09:55:46.726Z</time>
      </trkpt>
      <trkpt lat="48.817648" lon="2.024439">
        <ele>121.793674</ele>
        <time>2023-07-19T09:55:47.856Z</time>
      </trkpt>
      <trkpt lat="48.818990" lon="2.021245">
        <ele>114.877517</ele>
        <time>2023-07-19T09:56:13.045Z</time>
      </trkpt>
      <trkpt lat="48.819044" lon="2.021125">
        <ele>114.644160</ele>
        <time>2023-07-19T09:56:14.081Z</time>
      </trkpt>
      <trkpt lat="48.820644" lon="2.017354">
        <ele>112.873113</ele>
        <time>2023-07-19T09:56:54.235Z</time>
      </trkpt>
      <trkpt lat="48.820906" lon="2.016509">
        <ele>112.956667</ele>
        <time>2023-07-19T09:57:04.238Z</time>
      </trkpt>
      <trkpt lat="48.821053" lon="2.015852">
        <ele>113.018740</ele>
        <time>2023-07-19T09:57:12.234Z</time>
      </trkpt>
      <trkpt lat="48.821159" lon="2.015143">
        <ele>113.003507</ele>
        <time>2023-07-19T09:57:20.723Z</time>
      </trkpt>
      <trkpt lat="48.821192" lon="2.014776">
        <ele>112.995341</ele>
        <time>2023-07-19T09:57:24.616Z</time>
      </trkpt>
      <trkpt lat="48.821221" lon="2.014051">
        <ele>112.979327</ele>
        <time>2023-07-19T09:57:31.457Z</time>
      </trkpt>
      <trkpt lat="48.821190" lon="2.013176">
        <ele>112.960008</ele>
        <time>2023-07-19T09:57:39.227Z</time>
      </trkpt>
      <trkpt lat="48.821126" lon="2.012527">
        <ele>112.548859</ele>
        <time>2023-07-19T09:57:44.595Z</time>
      </trkpt>
      <trkpt lat="48.820718" lon="2.010066">
        <ele>111.122542</ele>
        <time>2023-07-19T09:58:04.411Z</time>
      </trkpt>
      <trkpt lat="48.820458" lon="2.008320">
        <ele>111.033356</ele>
        <time>2023-07-19T09:58:21.189Z</time>
      </trkpt>
      <trkpt lat="48.820177" lon="2.006389">
        <ele>112.448154</ele>
        <time>2023-07-19T09:58:46.584Z</time>
      </trkpt>
      <trkpt lat="48.820124" lon="2.005806">
        <ele>113.029139</ele>
        <time>2023-07-19T09:58:55.746Z</time>
      </trkpt>
      <trkpt lat="48.820011" lon="2.005069">
        <ele>113.756118</ele>
        <time>2023-07-19T09:59:07.427Z</time>
      </trkpt>
      <trkpt lat="48.819781" lon="2.003684">
        <ele>114.773241</ele>
        <time>2023-07-19T09:59:27.267Z</time>
      </trkpt>
      <trkpt lat="48.819702" lon="2.003320">
        <ele>115.046159</ele>
        <time>2023-07-19T09:59:31.969Z</time>
      </trkpt>
      <trkpt lat="48.819669" lon="2.003167">
        <ele>115.160805</ele>
        <time>2023-07-19T09:59:33.895Z</time>
      </trkpt>
      <trkpt lat="48.819624" lon="2.002877">
        <ele>115.372968</ele>
        <time>2023-07-19T09:59:37.180Z</time>
      </trkpt>
      <trkpt lat="48.819500" lon="2.002125">
        <ele>115.497969</ele>
        <time>2023-07-19T09:59:44.774Z</time>
      </trkpt>
      <trkpt lat="48.819495" lon="2.001571">
        <ele>115.281036</ele>
        <time>2023-07-19T09:59:49.514Z</time>
      </trkpt>
      <trkpt lat="48.819577" lon="2.001076">
        <ele>115.081185</ele>
        <time>2023-07-19T09:59:53.584Z</time>
      </trkpt>
      <trkpt lat="48.819759" lon="2.000412">
        <ele>114.799577</ele>
        <time>2023-07-19T09:59:59.276Z</time>
      </trkpt>
      <trkpt lat="48.819929" lon="2.000026">
        <ele>114.617752</ele>
        <time>2023-07-19T10:00:03.105Z</time>
      </trkpt>
      <trkpt lat="48.820255" lon="1.999534">
        <ele>114.747153</ele>
        <time>2023-07-19T10:00:09.299Z</time>
      </trkpt>
      <trkpt lat="48.820449" lon="1.999224">
        <ele>114.866108</ele>
        <time>2023-07-19T10:00:13.293Z</time>
      </trkpt>
      <trkpt lat="48.820798" lon="1.998524">
        <ele>115.110322</ele>
        <time>2023-07-19T10:00:22.891Z</time>
      </trkpt>
      <trkpt lat="48.821395" lon="1.997236">
        <ele>116.186064</ele>
        <time>2023-07-19T10:00:44.257Z</time>
      </trkpt>
      <trkpt lat="48.822217" lon="1.995311">
        <ele>118.637572</ele>
        <time>2023-07-19T10:01:18.155Z</time>
      </trkpt>
      <trkpt lat="48.822834" lon="1.993960">
        <ele>119.776904</ele>
        <time>2023-07-19T10:01:40.111Z</time>
      </trkpt>
      <trkpt lat="48.823207" lon="1.993278">
        <ele>120.296248</ele>
        <time>2023-07-19T10:01:49.472Z</time>
      </trkpt>
      <trkpt lat="48.823504" lon="1.992815">
        <ele>120.195729</ele>
        <time>2023-07-19T10:01:55.489Z</time>
      </trkpt>
      <trkpt lat="48.824248" lon="1.991779">
        <ele>119.957338</ele>
        <time>2023-07-19T10:02:08.822Z</time>
      </trkpt>
      <trkpt lat="48.824310" lon="1.991689">
        <ele>119.937082</ele>
        <time>2023-07-19T10:02:09.956Z</time>
      </trkpt>
      <trkpt lat="48.824742" lon="1.991123">
        <ele>120.050986</ele>
        <time>2023-07-19T10:02:17.950Z</time>
      </trkpt>
      <trkpt lat="48.825420" lon="1.990408">
        <ele>120.416331</ele>
        <time>2023-07-19T10:02:31.312Z</time>
      </trkpt>
      <trkpt lat="48.825592" lon="1.990228">
        <ele>120.508785</ele>
        <time>2023-07-19T10:02:35.158Z</time>
      </trkpt>
      <trkpt lat="48.825397" lon="1.990081">
        <ele>120.605144</ele>
        <time>2023-07-19T10:02:39.088Z</time>
      </trkpt>
      <trkpt lat="48.825345" lon="1.989961">
        <ele>120.647009</ele>
        <time>2023-07-19T10:02:40.976Z</time>
      </trkpt>
      <trkpt lat="48.825196" lon="1.989648">
        <ele>120.917849</ele>
        <time>2023-07-19T10:02:45.843Z</time>
      </trkpt>
      <trkpt lat="48.825183" lon="1.989569">
        <ele>120.991944</ele>
        <time>2023-07-19T10:02:46.972Z</time>
      </trkpt>
      <trkpt lat="48.825214" lon="1.989429">
        <ele>121.126345</ele>
        <time>2023-07-19T10:02:48.977Z</time>
      </trkpt>
      <trkpt lat="48.825629" lon="1.988684">
        <ele>122.014329</ele>
        <time>2023-07-19T10:03:02.271Z</time>
      </trkpt>
      <trkpt lat="48.825931" lon="1.988143">
        <ele>122.659727</ele>
        <time>2023-07-19T10:03:12.137Z</time>
      </trkpt>
      <trkpt lat="48.826002" lon="1.988014">
        <ele>122.812720</ele>
        <time>2023-07-19T10:03:14.468Z</time>
      </trkpt>
      <trkpt lat="48.826025" lon="1.987969">
        <ele>122.864557</ele>
        <time>2023-07-19T10:03:15.255Z</time>
      </trkpt>
      <trkpt lat="48.826076" lon="1.987878">
        <ele>122.973298</ele>
        <time>2023-07-19T10:03:16.897Z</time>
      </trkpt>
      <trkpt lat="48.826148" lon="1.987756">
        <ele>123.122379</ele>
        <time>2023-07-19T10:03:19.099Z</time>
      </trkpt>
      <trkpt lat="48.826194" lon="1.987689">
        <ele>123.214933</ele>
        <time>2023-07-19T10:03:20.385Z</time>
      </trkpt>
      <trkpt lat="48.825867" lon="1.987094">
        <ele>123.999873</ele>
        <time>2023-07-19T10:03:30.687Z</time>
      </trkpt>
      <trkpt lat="48.825435" lon="1.986448">
        <ele>124.932417</ele>
        <time>2023-07-19T10:03:42.867Z</time>
      </trkpt>
      <trkpt lat="48.825251" lon="1.986203">
        <ele>125.308822</ele>
        <time>2023-07-19T10:03:47.879Z</time>
      </trkpt>
      <trkpt lat="48.824659" lon="1.985476">
        <ele>126.999915</ele>
        <time>2023-07-19T10:04:04.709Z</time>
      </trkpt>
      <trkpt lat="48.824546" lon="1.985399">
        <ele>127.373173</ele>
        <time>2023-07-19T10:04:07.746Z</time>
      </trkpt>
      <trkpt lat="48.824508" lon="1.985307">
        <ele>127.588668</ele>
        <time>2023-07-19T10:04:09.561Z</time>
      </trkpt>
      <trkpt lat="48.824449" lon="1.985314">
        <ele>127.767023</ele>
        <time>2023-07-19T10:04:11.047Z</time>
      </trkpt>
      <trkpt lat="48.823895" lon="1.984662">
        <ele>129.879210</ele>
        <time>2023-07-19T10:04:30.522Z</time>
      </trkpt>
      <trkpt lat="48.823611" lon="1.984320">
        <ele>130.971496</ele>
        <time>2023-07-19T10:04:41.403Z</time>
      </trkpt>
      <trkpt lat="48.823360" lon="1.984007">
        <ele>132.004366</ele>
        <time>2023-07-19T10:04:51.484Z</time>
      </trkpt>
      <trkpt lat="48.823335" lon="1.983906">
        <ele>132.238050</ele>
        <time>2023-07-19T10:04:53.718Z</time>
      </trkpt>
      <trkpt lat="48.823264" lon="1.983895">
        <ele>132.472810</ele>
        <time>2023-07-19T10:04:55.943Z</time>
      </trkpt>
      <trkpt lat="48.823188" lon="1.983148">
        <ele>134.109792</ele>
        <time>2023-07-19T10:05:11.122Z</time>
      </trkpt>
      <trkpt lat="48.823155" lon="1.982914">
        <ele>134.628062</ele>
        <time>2023-07-19T10:05:15.718Z</time>
      </trkpt>
      <trkpt lat="48.823019" lon="1.982602">
        <ele>135.438435</ele>
        <time>2023-07-19T10:05:22.810Z</time>
      </trkpt>
      <trkpt lat="48.822893" lon="1.982402">
        <ele>136.037931</ele>
        <time>2023-07-19T10:05:27.777Z</time>
      </trkpt>
      <trkpt lat="48.822711" lon="1.982129">
        <ele>136.879345</ele>
        <time>2023-07-19T10:05:34.445Z</time>
      </trkpt>
      <trkpt lat="48.822517" lon="1.981898">
        <ele>137.337623</ele>
        <time>2023-07-19T10:05:40.213Z</time>
      </trkpt>
      <trkpt lat="48.822336" lon="1.981606">
        <ele>137.468676</ele>
        <time>2023-07-19T10:05:45.862Z</time>
      </trkpt>
      <trkpt lat="48.822062" lon="1.981163">
        <ele>137.667295</ele>
        <time>2023-07-19T10:05:53.129Z</time>
      </trkpt>
      <trkpt lat="48.821972" lon="1.980842">
        <ele>137.781306</ele>
        <time>2023-07-19T10:05:56.518Z</time>
      </trkpt>
      <trkpt lat="48.821931" lon="1.980547">
        <ele>137.879830</ele>
        <time>2023-07-19T10:05:59.386Z</time>
      </trkpt>
      <trkpt lat="48.821936" lon="1.980080">
        <ele>138.032455</ele>
        <time>2023-07-19T10:06:03.401Z</time>
      </trkpt>
      <trkpt lat="48.821839" lon="1.979491">
        <ele>138.043065</ele>
        <time>2023-07-19T10:06:08.572Z</time>
      </trkpt>
      <trkpt lat="48.821824" lon="1.979417">
        <ele>137.993168</ele>
        <time>2023-07-19T10:06:09.205Z</time>
      </trkpt>
      <trkpt lat="48.821669" lon="1.978639">
        <ele>137.469347</ele>
        <time>2023-07-19T10:06:15.865Z</time>
      </trkpt>
      <trkpt lat="48.821546" lon="1.978041">
        <ele>137.065606</ele>
        <time>2023-07-19T10:06:20.919Z</time>
      </trkpt>
      <trkpt lat="48.821432" lon="1.977348">
        <ele>136.605282</ele>
        <time>2023-07-19T10:06:26.498Z</time>
      </trkpt>
      <trkpt lat="48.821372" lon="1.976856">
        <ele>136.221090</ele>
        <time>2023-07-19T10:06:30.409Z</time>
      </trkpt>
      <trkpt lat="48.821362" lon="1.976498">
        <ele>135.875545</ele>
        <time>2023-07-19T10:06:33.166Z</time>
      </trkpt>
      <trkpt lat="48.821344" lon="1.975892">
        <ele>135.290560</ele>
        <time>2023-07-19T10:06:37.934Z</time>
      </trkpt>
      <trkpt lat="48.821463" lon="1.975716">
        <ele>135.047281</ele>
        <time>2023-07-19T10:06:39.922Z</time>
      </trkpt>
      <trkpt lat="48.821536" lon="1.975687">
        <ele>134.936764</ele>
        <time>2023-07-19T10:06:40.764Z</time>
      </trkpt>
      <trkpt lat="48.821575" lon="1.975617">
        <ele>134.848336</ele>
        <time>2023-07-19T10:06:41.452Z</time>
      </trkpt>
      <trkpt lat="48.821585" lon="1.975525">
        <ele>134.758416</ele>
        <time>2023-07-19T10:06:42.143Z</time>
      </trkpt>
      <trkpt lat="48.821552" lon="1.975421">
        <ele>134.647085</ele>
        <time>2023-07-19T10:06:43.029Z</time>
      </trkpt>
      <trkpt lat="48.821445" lon="1.975377">
        <ele>134.484725</ele>
        <time>2023-07-19T10:06:44.285Z</time>
      </trkpt>
      <trkpt lat="48.821379" lon="1.975278">
        <ele>134.348861</ele>
        <time>2023-07-19T10:06:45.285Z</time>
      </trkpt>
      <trkpt lat="48.821317" lon="1.975057">
        <ele>134.117201</ele>
        <time>2023-07-19T10:06:47.030Z</time>
      </trkpt>
      <trkpt lat="48.821306" lon="1.974504">
        <ele>133.592881</ele>
        <time>2023-07-19T10:06:51.094Z</time>
      </trkpt>
      <trkpt lat="48.821329" lon="1.973141">
        <ele>132.342042</ele>
        <time>2023-07-19T10:07:01.533Z</time>
      </trkpt>
      <trkpt lat="48.821387" lon="1.973045">
        <ele>132.222511</ele>
        <time>2023-07-19T10:07:02.515Z</time>
      </trkpt>
      <trkpt lat="48.821378" lon="1.972954">
        <ele>132.138091</ele>
        <time>2023-07-19T10:07:03.201Z</time>
      </trkpt>
      <trkpt lat="48.821367" lon="1.972929">
        <ele>132.110505</ele>
        <time>2023-07-19T10:07:03.444Z</time>
      </trkpt>
      <trkpt lat="48.821323" lon="1.972890">
        <ele>132.039521</ele>
        <time>2023-07-19T10:07:04.047Z</time>
      </trkpt>
      <trkpt lat="48.821289" lon="1.972692">
        <ele>131.851798</ele>
        <time>2023-07-19T10:07:05.664Z</time>
      </trkpt>
      <trkpt lat="48.821267" lon="1.972098">
        <ele>131.305995</ele>
        <time>2023-07-19T10:07:10.315Z</time>
      </trkpt>
      <trkpt lat="48.821322" lon="1.972057">
        <ele>131.234192</ele>
        <time>2023-07-19T10:07:11.334Z</time>
      </trkpt>
      <trkpt lat="48.821319" lon="1.971987">
        <ele>131.188820</ele>
        <time>2023-07-19T10:07:11.874Z</time>
      </trkpt>
      <trkpt lat="48.821272" lon="1.970879">
        <ele>130.470664</ele>
        <time>2023-07-19T10:07:20.906Z</time>
      </trkpt>
      <trkpt lat="48.821318" lon="1.970556">
        <ele>130.256912</ele>
        <time>2023-07-19T10:07:23.731Z</time>
      </trkpt>
      <trkpt lat="48.821382" lon="1.970317">
        <ele>130.090027</ele>
        <time>2023-07-19T10:07:25.837Z</time>
      </trkpt>
      <trkpt lat="48.821380" lon="1.970239">
        <ele>130.039538</ele>
        <time>2023-07-19T10:07:26.462Z</time>
      </trkpt>
      <trkpt lat="48.821296" lon="1.970198">
        <ele>129.952861</ele>
        <time>2023-07-19T10:07:27.579Z</time>
      </trkpt>
      <trkpt lat="48.821275" lon="1.970178">
        <ele>129.928510</ele>
        <time>2023-07-19T10:07:27.891Z</time>
      </trkpt>
      <trkpt lat="48.821162" lon="1.969831">
        <ele>129.678113</ele>
        <time>2023-07-19T10:07:30.975Z</time>
      </trkpt>
      <trkpt lat="48.821153" lon="1.969069">
        <ele>129.102393</ele>
        <time>2023-07-19T10:07:37.054Z</time>
      </trkpt>
      <trkpt lat="48.821207" lon="1.968456">
        <ele>128.597084</ele>
        <time>2023-07-19T10:07:41.884Z</time>
      </trkpt>
      <trkpt lat="48.821328" lon="1.967823">
        <ele>128.058543</ele>
        <time>2023-07-19T10:07:46.982Z</time>
      </trkpt>
      <trkpt lat="48.821696" lon="1.966284">
        <ele>126.655489</ele>
        <time>2023-07-19T10:07:59.607Z</time>
      </trkpt>
      <trkpt lat="48.821771" lon="1.965981">
        <ele>126.359443</ele>
        <time>2023-07-19T10:08:02.092Z</time>
      </trkpt>
      <trkpt lat="48.821862" lon="1.965961">
        <ele>126.231723</ele>
        <time>2023-07-19T10:08:03.174Z</time>
      </trkpt>
      <trkpt lat="48.821901" lon="1.965887">
        <ele>126.145035</ele>
        <time>2023-07-19T10:08:03.903Z</time>
      </trkpt>
      <trkpt lat="48.821908" lon="1.965838">
        <ele>126.099179</ele>
        <time>2023-07-19T10:08:04.291Z</time>
      </trkpt>
      <trkpt lat="48.821892" lon="1.965742">
        <ele>126.008613</ele>
        <time>2023-07-19T10:08:05.050Z</time>
      </trkpt>
      <trkpt lat="48.821841" lon="1.965679">
        <ele>125.917299</ele>
        <time>2023-07-19T10:08:05.812Z</time>
      </trkpt>
      <trkpt lat="48.821914" lon="1.965353">
        <ele>125.602383</ele>
        <time>2023-07-19T10:08:08.475Z</time>
      </trkpt>
      <trkpt lat="48.822060" lon="1.964728">
        <ele>124.995879</ele>
        <time>2023-07-19T10:08:13.568Z</time>
      </trkpt>
      <trkpt lat="48.822393" lon="1.963318">
        <ele>123.787204</ele>
        <time>2023-07-19T10:08:25.020Z</time>
      </trkpt>
      <trkpt lat="48.822481" lon="1.962923">
        <ele>123.459636</ele>
        <time>2023-07-19T10:08:28.277Z</time>
      </trkpt>
      <trkpt lat="48.822514" lon="1.962774">
        <ele>123.336147</ele>
        <time>2023-07-19T10:08:29.490Z</time>
      </trkpt>
      <trkpt lat="48.822589" lon="1.962781">
        <ele>123.246496</ele>
        <time>2023-07-19T10:08:30.425Z</time>
      </trkpt>
      <trkpt lat="48.822677" lon="1.962677">
        <ele>123.113463</ele>
        <time>2023-07-19T10:08:31.783Z</time>
      </trkpt>
      <trkpt lat="48.822689" lon="1.962546">
        <ele>123.009568</ele>
        <time>2023-07-19T10:08:32.855Z</time>
      </trkpt>
      <trkpt lat="48.822673" lon="1.962483">
        <ele>122.956525</ele>
        <time>2023-07-19T10:08:33.401Z</time>
      </trkpt>
      <trkpt lat="48.822606" lon="1.962398">
        <ele>122.852370</ele>
        <time>2023-07-19T10:08:34.458Z</time>
      </trkpt>
      <trkpt lat="48.822644" lon="1.962223">
        <ele>122.707619</ele>
        <time>2023-07-19T10:08:35.947Z</time>
      </trkpt>
      <trkpt lat="48.823005" lon="1.960597">
        <ele>121.649363</ele>
        <time>2023-07-19T10:08:49.950Z</time>
      </trkpt>
      <trkpt lat="48.823039" lon="1.960443">
        <ele>121.551022</ele>
        <time>2023-07-19T10:08:51.310Z</time>
      </trkpt>
      <trkpt lat="48.823156" lon="1.959917">
        <ele>121.214874</ele>
        <time>2023-07-19T10:08:55.855Z</time>
      </trkpt>
      <trkpt lat="48.823640" lon="1.957736">
        <ele>120.168601</ele>
        <time>2023-07-19T10:09:14.792Z</time>
      </trkpt>
      <trkpt lat="48.823728" lon="1.957102">
        <ele>119.894968</ele>
        <time>2023-07-19T10:09:20.510Z</time>
      </trkpt>
      <trkpt lat="48.823771" lon="1.956442">
        <ele>119.773264</ele>
        <time>2023-07-19T10:09:26.785Z</time>
      </trkpt>
      <trkpt lat="48.823775" lon="1.956346">
        <ele>119.764704</ele>
        <time>2023-07-19T10:09:27.676Z</time>
      </trkpt>
      <trkpt lat="48.823816" lon="1.954342">
        <ele>119.586287</ele>
        <time>2023-07-19T10:09:47.127Z</time>
      </trkpt>
      <trkpt lat="48.823815" lon="1.953660">
        <ele>119.216902</ele>
        <time>2023-07-19T10:09:53.337Z</time>
      </trkpt>
      <trkpt lat="48.823815" lon="1.953612">
        <ele>119.184481</ele>
        <time>2023-07-19T10:09:53.761Z</time>
      </trkpt>
      <trkpt lat="48.823817" lon="1.953300">
        <ele>118.973739</ele>
        <time>2023-07-19T10:09:56.494Z</time>
      </trkpt>
      <trkpt lat="48.823817" lon="1.953224">
        <ele>118.922406</ele>
        <time>2023-07-19T10:09:57.145Z</time>
      </trkpt>
      <trkpt lat="48.823844" lon="1.952558">
        <ele>118.471721</ele>
        <time>2023-07-19T10:10:02.530Z</time>
      </trkpt>
      <trkpt lat="48.823910" lon="1.951896">
        <ele>118.019492</ele>
        <time>2023-07-19T10:10:07.611Z</time>
      </trkpt>
      <trkpt lat="48.824177" lon="1.950989">
        <ele>116.990361</ele>
        <time>2023-07-19T10:10:14.881Z</time>
      </trkpt>
      <trkpt lat="48.825574" lon="1.946888">
        <ele>110.768568</ele>
        <time>2023-07-19T10:10:48.063Z</time>
      </trkpt>
      <trkpt lat="48.825634" lon="1.946785">
        <ele>110.579157</ele>
        <time>2023-07-19T10:10:49.038Z</time>
      </trkpt>
      <trkpt lat="48.825742" lon="1.946727">
        <ele>110.342331</ele>
        <time>2023-07-19T10:10:50.283Z</time>
      </trkpt>
      <trkpt lat="48.825994" lon="1.946753">
        <ele>109.855686</ele>
        <time>2023-07-19T10:10:53.054Z</time>
      </trkpt>
      <trkpt lat="48.826113" lon="1.946695">
        <ele>109.614896</ele>
        <time>2023-07-19T10:10:54.403Z</time>
      </trkpt>
      <trkpt lat="48.826183" lon="1.946687">
        <ele>109.479646</ele>
        <time>2023-07-19T10:10:55.169Z</time>
      </trkpt>
      <trkpt lat="48.826254" lon="1.946728">
        <ele>109.333299</ele>
        <time>2023-07-19T10:10:56.010Z</time>
      </trkpt>
      <trkpt lat="48.826281" lon="1.946719">
        <ele>109.280040</ele>
        <time>2023-07-19T10:10:56.305Z</time>
      </trkpt>
      <trkpt lat="48.826325" lon="1.946665">
        <ele>109.171053</ele>
        <time>2023-07-19T10:10:56.884Z</time>
      </trkpt>
      <trkpt lat="48.826340" lon="1.946580">
        <ele>109.059430</ele>
        <time>2023-07-19T10:10:57.502Z</time>
      </trkpt>
      <trkpt lat="48.826320" lon="1.946500">
        <ele>108.950886</ele>
        <time>2023-07-19T10:10:58.100Z</time>
      </trkpt>
      <trkpt lat="48.826273" lon="1.946454">
        <ele>108.843162</ele>
        <time>2023-07-19T10:10:58.727Z</time>
      </trkpt>
      <trkpt lat="48.826183" lon="1.946488">
        <ele>108.664477</ele>
        <time>2023-07-19T10:10:59.760Z</time>
      </trkpt>
      <trkpt lat="48.825902" lon="1.945883">
        <ele>107.725318</ele>
        <time>2023-07-19T10:11:05.161Z</time>
      </trkpt>
      <trkpt lat="48.825868" lon="1.945811">
        <ele>107.612926</ele>
        <time>2023-07-19T10:11:05.815Z</time>
      </trkpt>
      <trkpt lat="48.825610" lon="1.945254">
        <ele>106.824919</ele>
        <time>2023-07-19T10:11:10.983Z</time>
      </trkpt>
      <trkpt lat="48.825597" lon="1.945234">
        <ele>106.806112</ele>
        <time>2023-07-19T10:11:11.192Z</time>
      </trkpt>
      <trkpt lat="48.825474" lon="1.945041">
        <ele>106.626362</ele>
        <time>2023-07-19T10:11:13.172Z</time>
      </trkpt>
      <trkpt lat="48.825414" lon="1.944954">
        <ele>106.542050</ele>
        <time>2023-07-19T10:11:14.075Z</time>
      </trkpt>
      <trkpt lat="48.825446" lon="1.944828">
        <ele>106.451678</ele>
        <time>2023-07-19T10:11:15.087Z</time>
      </trkpt>
      <trkpt lat="48.825422" lon="1.944743">
        <ele>106.389788</ele>
        <time>2023-07-19T10:11:15.756Z</time>
      </trkpt>
      <trkpt lat="48.825387" lon="1.944703">
        <ele>106.345268</ele>
        <time>2023-07-19T10:11:16.246Z</time>
      </trkpt>
      <trkpt lat="48.825291" lon="1.944716">
        <ele>106.247303</ele>
        <time>2023-07-19T10:11:17.327Z</time>
      </trkpt>
      <trkpt lat="48.825255" lon="1.944781">
        <ele>106.190463</ele>
        <time>2023-07-19T10:11:17.961Z</time>
      </trkpt>
      <trkpt lat="48.825256" lon="1.944906">
        <ele>106.106810</ele>
        <time>2023-07-19T10:11:18.932Z</time>
      </trkpt>
      <trkpt lat="48.824979" lon="1.945055">
        <ele>105.808125</ele>
        <time>2023-07-19T10:11:22.411Z</time>
      </trkpt>
      <trkpt lat="48.824791" lon="1.945070">
        <ele>105.616773</ele>
        <time>2023-07-19T10:11:24.788Z</time>
      </trkpt>
      <trkpt lat="48.823296" lon="1.944829">
        <ele>105.309902</ele>
        <time>2023-07-19T10:11:47.256Z</time>
      </trkpt>
      <trkpt lat="48.823239" lon="1.944820">
        <ele>105.323307</ele>
        <time>2023-07-19T10:11:48.173Z</time>
      </trkpt>
      <trkpt lat="48.822439" lon="1.944702">
        <ele>105.537492</ele>
        <time>2023-07-19T10:12:01.571Z</time>
      </trkpt>
      <trkpt lat="48.822331" lon="1.944687">
        <ele>105.635382</ele>
        <time>2023-07-19T10:12:03.413Z</time>
      </trkpt>
      <trkpt lat="48.821984" lon="1.944641">
        <ele>105.949783</ele>
        <time>2023-07-19T10:12:09.480Z</time>
      </trkpt>
      <trkpt lat="48.821760" lon="1.944609">
        <ele>106.152862</ele>
        <time>2023-07-19T10:12:13.506Z</time>
      </trkpt>
      <trkpt lat="48.821180" lon="1.944508">
        <ele>106.679813</ele>
        <time>2023-07-19T10:12:24.267Z</time>
      </trkpt>
      <trkpt lat="48.821062" lon="1.944490">
        <ele>106.786859</ele>
        <time>2023-07-19T10:12:26.548Z</time>
      </trkpt>
      <trkpt lat="48.820757" lon="1.944442">
        <ele>107.063632</ele>
        <time>2023-07-19T10:12:32.585Z</time>
      </trkpt>
      <trkpt lat="48.820306" lon="1.944372">
        <ele>107.592603</ele>
        <time>2023-07-19T10:12:41.776Z</time>
      </trkpt>
      <trkpt lat="48.819963" lon="1.944319">
        <ele>108.011158</ele>
        <time>2023-07-19T10:12:48.791Z</time>
      </trkpt>
      <trkpt lat="48.819837" lon="1.944313">
        <ele>108.164198</ele>
        <time>2023-07-19T10:12:51.345Z</time>
      </trkpt>
      <trkpt lat="48.818873" lon="1.944057">
        <ele>109.350818</ele>
        <time>2023-07-19T10:13:10.555Z</time>
      </trkpt>
      <trkpt lat="48.818380" lon="1.944045">
        <ele>109.929355</ele>
        <time>2023-07-19T10:13:19.824Z</time>
      </trkpt>
      <trkpt lat="48.818159" lon="1.944090">
        <ele>110.190986</ele>
        <time>2023-07-19T10:13:24.015Z</time>
      </trkpt>
      <trkpt lat="48.817979" lon="1.944143">
        <ele>110.406123</ele>
        <time>2023-07-19T10:13:27.462Z</time>
      </trkpt>
      <trkpt lat="48.817701" lon="1.944278">
        <ele>110.748584</ele>
        <time>2023-07-19T10:13:32.846Z</time>
      </trkpt>
      <trkpt lat="48.817529" lon="1.944428">
        <ele>110.981308</ele>
        <time>2023-07-19T10:13:36.575Z</time>
      </trkpt>
      <trkpt lat="48.817402" lon="1.944536">
        <ele>111.152095</ele>
        <time>2023-07-19T10:13:39.515Z</time>
      </trkpt>
      <trkpt lat="48.817377" lon="1.944557">
        <ele>111.185617</ele>
        <time>2023-07-19T10:13:40.088Z</time>
      </trkpt>
      <trkpt lat="48.817188" lon="1.944718">
        <ele>111.460890</ele>
        <time>2023-07-19T10:13:44.543Z</time>
      </trkpt>
      <trkpt lat="48.816969" lon="1.944905">
        <ele>112.062064</ele>
        <time>2023-07-19T10:13:49.997Z</time>
      </trkpt>
      <trkpt lat="48.816832" lon="1.945021">
        <ele>112.437385</ele>
        <time>2023-07-19T10:13:53.576Z</time>
      </trkpt>
      <trkpt lat="48.816695" lon="1.945135">
        <ele>112.811182</ele>
        <time>2023-07-19T10:13:57.151Z</time>
      </trkpt>
      <trkpt lat="48.816380" lon="1.945380">
        <ele>113.658015</ele>
        <time>2023-07-19T10:14:05.535Z</time>
      </trkpt>
      <trkpt lat="48.816299" lon="1.945426">
        <ele>113.864940</ele>
        <time>2023-07-19T10:14:07.587Z</time>
      </trkpt>
      <trkpt lat="48.816021" lon="1.945552">
        <ele>114.559133</ele>
        <time>2023-07-19T10:14:14.994Z</time>
      </trkpt>
      <trkpt lat="48.815717" lon="1.945592">
        <ele>115.289270</ele>
        <time>2023-07-19T10:14:23.132Z</time>
      </trkpt>
      <trkpt lat="48.815469" lon="1.945575">
        <ele>116.064389</ele>
        <time>2023-07-19T10:14:29.973Z</time>
      </trkpt>
      <trkpt lat="48.814857" lon="1.945549">
        <ele>119.189427</ele>
        <time>2023-07-19T10:14:47.943Z</time>
      </trkpt>
      <trkpt lat="48.814219" lon="1.945539">
        <ele>122.446127</ele>
        <time>2023-07-19T10:15:09.772Z</time>
      </trkpt>
      <trkpt lat="48.813909" lon="1.945505">
        <ele>124.032574</ele>
        <time>2023-07-19T10:15:22.576Z</time>
      </trkpt>
      <trkpt lat="48.813847" lon="1.945502">
        <ele>124.349199</ele>
        <time>2023-07-19T10:15:25.161Z</time>
      </trkpt>
      <trkpt lat="48.813484" lon="1.945496">
        <ele>127.083307</ele>
        <time>2023-07-19T10:15:42.416Z</time>
      </trkpt>
      <trkpt lat="48.813391" lon="1.945506">
        <ele>127.882269</ele>
        <time>2023-07-19T10:15:47.218Z</time>
      </trkpt>
      <trkpt lat="48.813269" lon="1.945505">
        <ele>128.927766</ele>
        <time>2023-07-19T10:15:53.322Z</time>
      </trkpt>
      <trkpt lat="48.813197" lon="1.945487">
        <ele>129.553077</ele>
        <time>2023-07-19T10:15:56.912Z</time>
      </trkpt>
      <trkpt lat="48.813145" lon="1.945528">
        <ele>130.055177</ele>
        <time>2023-07-19T10:15:59.767Z</time>
      </trkpt>
      <trkpt lat="48.812783" lon="1.945456">
        <ele>133.183840</ele>
        <time>2023-07-19T10:16:18.350Z</time>
      </trkpt>
      <trkpt lat="48.812020" lon="1.945439">
        <ele>139.723091</ele>
        <time>2023-07-19T10:16:58.235Z</time>
      </trkpt>
      <trkpt lat="48.811798" lon="1.945402">
        <ele>141.273298</ele>
        <time>2023-07-19T10:17:09.728Z</time>
      </trkpt>
      <trkpt lat="48.810598" lon="1.945174">
        <ele>148.780060</ele>
        <time>2023-07-19T10:18:02.440Z</time>
      </trkpt>
      <trkpt lat="48.810220" lon="1.945050">
        <ele>151.180523</ele>
        <time>2023-07-19T10:18:12.684Z</time>
      </trkpt>
      <trkpt lat="48.809550" lon="1.944650">
        <ele>152.613431</ele>
        <time>2023-07-19T10:18:28.822Z</time>
      </trkpt>
      <trkpt lat="48.809227" lon="1.944508">
        <ele>153.180006</ele>
        <time>2023-07-19T10:18:35.595Z</time>
      </trkpt>
      <trkpt lat="48.809028" lon="1.944497">
        <ele>153.515524</ele>
        <time>2023-07-19T10:18:39.240Z</time>
      </trkpt>
      <trkpt lat="48.808852" lon="1.944537">
        <ele>153.815371</ele>
        <time>2023-07-19T10:18:42.646Z</time>
      </trkpt>
      <trkpt lat="48.808655" lon="1.944627">
        <ele>154.161995</ele>
        <time>2023-07-19T10:18:46.284Z</time>
      </trkpt>
      <trkpt lat="48.808420" lon="1.944823">
        <ele>154.600304</ele>
        <time>2023-07-19T10:18:51.252Z</time>
      </trkpt>
      <trkpt lat="48.807452" lon="1.945961">
        <ele>156.388047</ele>
        <time>2023-07-19T10:19:17.114Z</time>
      </trkpt>
      <trkpt lat="48.807428" lon="1.945997">
        <ele>156.437312</ele>
        <time>2023-07-19T10:19:17.806Z</time>
      </trkpt>
      <trkpt lat="48.807287" lon="1.946206">
        <ele>156.725061</ele>
        <time>2023-07-19T10:19:22.225Z</time>
      </trkpt>
      <trkpt lat="48.807166" lon="1.946505">
        <ele>157.062572</ele>
        <time>2023-07-19T10:19:27.108Z</time>
      </trkpt>
      <trkpt lat="48.807066" lon="1.946914">
        <ele>157.168092</ele>
        <time>2023-07-19T10:19:32.993Z</time>
      </trkpt>
      <trkpt lat="48.807060" lon="1.946940">
        <ele>157.170305</ele>
        <time>2023-07-19T10:19:33.315Z</time>
      </trkpt>
      <trkpt lat="48.806950" lon="1.947224">
        <ele>157.196774</ele>
        <time>2023-07-19T10:19:37.615Z</time>
      </trkpt>
      <trkpt lat="48.806905" lon="1.947253">
        <ele>157.202737</ele>
        <time>2023-07-19T10:19:38.492Z</time>
      </trkpt>
      <trkpt lat="48.806877" lon="1.947313">
        <ele>157.208644</ele>
        <time>2023-07-19T10:19:39.379Z</time>
      </trkpt>
      <trkpt lat="48.806835" lon="1.947274">
        <ele>157.214650</ele>
        <time>2023-07-19T10:19:40.176Z</time>
      </trkpt>
      <trkpt lat="48.806823" lon="1.947335">
        <ele>157.219764</ele>
        <time>2023-07-19T10:19:40.960Z</time>
      </trkpt>
      <trkpt lat="48.806843" lon="1.947609">
        <ele>157.241911</ele>
        <time>2023-07-19T10:19:44.266Z</time>
      </trkpt>
      <trkpt lat="48.805958" lon="1.951509">
        <ele>156.035141</ele>
        <time>2023-07-19T10:20:18.648Z</time>
      </trkpt>
      <trkpt lat="48.805632" lon="1.952876">
        <ele>155.828230</ele>
        <time>2023-07-19T10:20:31.054Z</time>
      </trkpt>
      <trkpt lat="48.805632" lon="1.953012">
        <ele>155.811009</ele>
        <time>2023-07-19T10:20:32.282Z</time>
      </trkpt>
      <trkpt lat="48.805669" lon="1.953058">
        <ele>155.801815</ele>
        <time>2023-07-19T10:20:32.944Z</time>
      </trkpt>
      <trkpt lat="48.805661" lon="1.953096">
        <ele>155.796763</ele>
        <time>2023-07-19T10:20:33.318Z</time>
      </trkpt>
      <trkpt lat="48.805544" lon="1.953302">
        <ele>155.762319</ele>
        <time>2023-07-19T10:20:35.879Z</time>
      </trkpt>
      <trkpt lat="48.805467" lon="1.953356">
        <ele>155.746012</ele>
        <time>2023-07-19T10:20:37.131Z</time>
      </trkpt>
      <trkpt lat="48.805339" lon="1.953305">
        <ele>155.720570</ele>
        <time>2023-07-19T10:20:39.190Z</time>
      </trkpt>
      <trkpt lat="48.805119" lon="1.952953">
        <ele>155.659123</ele>
        <time>2023-07-19T10:20:44.427Z</time>
      </trkpt>
      <trkpt lat="48.804921" lon="1.952634">
        <ele>156.118277</ele>
        <time>2023-07-19T10:20:49.501Z</time>
      </trkpt>
      <trkpt lat="48.804834" lon="1.952308">
        <ele>156.489943</ele>
        <time>2023-07-19T10:20:53.836Z</time>
      </trkpt>
      <trkpt lat="48.804814" lon="1.952223">
        <ele>156.585316</ele>
        <time>2023-07-19T10:20:54.948Z</time>
      </trkpt>
      <trkpt lat="48.804745" lon="1.951933">
        <ele>156.911123</ele>
        <time>2023-07-19T10:20:58.993Z</time>
      </trkpt>
      <trkpt lat="48.804615" lon="1.951701">
        <ele>157.232977</ele>
        <time>2023-07-19T10:21:03.081Z</time>
      </trkpt>
      <trkpt lat="48.804429" lon="1.951552">
        <ele>157.570364</ele>
        <time>2023-07-19T10:21:07.525Z</time>
      </trkpt>
      <trkpt lat="48.803187" lon="1.950759">
        <ele>160.576400</ele>
        <time>2023-07-19T10:21:41.874Z</time>
      </trkpt>
      <trkpt lat="48.803128" lon="1.950721">
        <ele>160.752326</ele>
        <time>2023-07-19T10:21:43.669Z</time>
      </trkpt>
      <trkpt lat="48.802564" lon="1.950362">
        <ele>162.431074</ele>
        <time>2023-07-19T10:21:59.717Z</time>
      </trkpt>
      <trkpt lat="48.802118" lon="1.950077">
        <ele>163.722017</ele>
        <time>2023-07-19T10:22:12.333Z</time>
      </trkpt>
      <trkpt lat="48.801672" lon="1.949797">
        <ele>164.868684</ele>
        <time>2023-07-19T10:22:24.726Z</time>
      </trkpt>
      <trkpt lat="48.801269" lon="1.949537">
        <ele>165.909033</ele>
        <time>2023-07-19T10:22:35.932Z</time>
      </trkpt>
      <trkpt lat="48.800597" lon="1.949134">
        <ele>167.625677</ele>
        <time>2023-07-19T10:22:52.733Z</time>
      </trkpt>
      <trkpt lat="48.800111" lon="1.948876">
        <ele>168.219148</ele>
        <time>2023-07-19T10:23:03.426Z</time>
      </trkpt>
      <trkpt lat="48.799767" lon="1.948736">
        <ele>168.578199</ele>
        <time>2023-07-19T10:23:10.439Z</time>
      </trkpt>
      <trkpt lat="48.799293" lon="1.948673">
        <ele>169.057894</ele>
        <time>2023-07-19T10:23:19.412Z</time>
      </trkpt>
      <trkpt lat="48.799172" lon="1.948708">
        <ele>169.182076</ele>
        <time>2023-07-19T10:23:21.449Z</time>
      </trkpt>
      <trkpt lat="48.799129" lon="1.948539">
        <ele>169.302386</ele>
        <time>2023-07-19T10:23:23.674Z</time>
      </trkpt>
      <trkpt lat="48.799095" lon="1.948504">
        <ele>169.343801</ele>
        <time>2023-07-19T10:23:24.400Z</time>
      </trkpt>
      <trkpt lat="48.799008" lon="1.948491">
        <ele>169.431934</ele>
        <time>2023-07-19T10:23:25.887Z</time>
      </trkpt>
      <trkpt lat="48.798935" lon="1.948561">
        <ele>169.518981</ele>
        <time>2023-07-19T10:23:27.209Z</time>
      </trkpt>
      <trkpt lat="48.798913" lon="1.948619">
        <ele>169.563427</ele>
        <time>2023-07-19T10:23:27.918Z</time>
      </trkpt>
      <trkpt lat="48.798911" lon="1.948751">
        <ele>169.542443</ele>
        <time>2023-07-19T10:23:29.386Z</time>
      </trkpt>
      <trkpt lat="48.798963" lon="1.948857">
        <ele>169.515091</ele>
        <time>2023-07-19T10:23:30.764Z</time>
      </trkpt>
      <trkpt lat="48.799003" lon="1.948886">
        <ele>169.501164</ele>
        <time>2023-07-19T10:23:31.461Z</time>
      </trkpt>
      <trkpt lat="48.798534" lon="1.951499">
        <ele>168.904061</ele>
        <time>2023-07-19T10:23:55.152Z</time>
      </trkpt>
      <trkpt lat="48.798316" lon="1.952710">
        <ele>168.491957</ele>
        <time>2023-07-19T10:24:06.091Z</time>
      </trkpt>
      <trkpt lat="48.798288" lon="1.952870">
        <ele>168.437612</ele>
        <time>2023-07-19T10:24:07.544Z</time>
      </trkpt>
      <trkpt lat="48.798107" lon="1.953941">
        <ele>168.066645</ele>
        <time>2023-07-19T10:24:17.280Z</time>
      </trkpt>
      <trkpt lat="48.798129" lon="1.954457">
        <ele>167.854650</ele>
        <time>2023-07-19T10:24:21.699Z</time>
      </trkpt>
      <trkpt lat="48.798250" lon="1.955570">
        <ele>167.392165</ele>
        <time>2023-07-19T10:24:30.997Z</time>
      </trkpt>
      <trkpt lat="48.798793" lon="1.957564">
        <ele>167.065704</ele>
        <time>2023-07-19T10:24:49.759Z</time>
      </trkpt>
      <trkpt lat="48.798825" lon="1.957802">
        <ele>167.081968</ele>
        <time>2023-07-19T10:24:52.085Z</time>
      </trkpt>
      <trkpt lat="48.798789" lon="1.957977">
        <ele>167.094243</ele>
        <time>2023-07-19T10:24:53.863Z</time>
      </trkpt>
      <trkpt lat="48.798522" lon="1.958257">
        <ele>167.127228</ele>
        <time>2023-07-19T10:24:58.991Z</time>
      </trkpt>
      <trkpt lat="48.797376" lon="1.953909">
        <ele>170.284390</ele>
        <time>2023-07-19T10:25:59.587Z</time>
      </trkpt>
      <trkpt lat="48.797039" lon="1.952571">
        <ele>171.395269</ele>
        <time>2023-07-19T10:26:18.024Z</time>
      </trkpt>
      <trkpt lat="48.796646" lon="1.951010">
        <ele>172.213685</ele>
        <time>2023-07-19T10:26:38.038Z</time>
      </trkpt>
      <trkpt lat="48.796658" lon="1.950962">
        <ele>172.238828</ele>
        <time>2023-07-19T10:26:38.627Z</time>
      </trkpt>
      <trkpt lat="48.796648" lon="1.950861">
        <ele>172.288848</ele>
        <time>2023-07-19T10:26:39.801Z</time>
      </trkpt>
      <trkpt lat="48.796597" lon="1.950793">
        <ele>172.339313</ele>
        <time>2023-07-19T10:26:40.973Z</time>
      </trkpt>
      <trkpt lat="48.796541" lon="1.950786">
        <ele>172.381088</ele>
        <time>2023-07-19T10:26:41.940Z</time>
      </trkpt>
      <trkpt lat="48.796492" lon="1.950825">
        <ele>172.422220</ele>
        <time>2023-07-19T10:26:42.896Z</time>
      </trkpt>
      <trkpt lat="48.796463" lon="1.950908">
        <ele>172.468233</ele>
        <time>2023-07-19T10:26:43.943Z</time>
      </trkpt>
      <trkpt lat="48.796355" lon="1.951113">
        <ele>172.596789</ele>
        <time>2023-07-19T10:26:47.802Z</time>
      </trkpt>
      <trkpt lat="48.796291" lon="1.951359">
        <ele>172.726134</ele>
        <time>2023-07-19T10:26:51.658Z</time>
      </trkpt>
      <trkpt lat="48.795807" lon="1.952845">
        <ele>173.017069</ele>
        <time>2023-07-19T10:27:15.269Z</time>
      </trkpt>
      <trkpt lat="48.795458" lon="1.953970">
        <ele>173.212773</ele>
        <time>2023-07-19T10:27:32.209Z</time>
      </trkpt>
      <trkpt lat="48.795424" lon="1.954075">
        <ele>173.217924</ele>
        <time>2023-07-19T10:27:33.869Z</time>
      </trkpt>
      <trkpt lat="48.795391" lon="1.954184">
        <ele>173.223205</ele>
        <time>2023-07-19T10:27:35.522Z</time>
      </trkpt>
      <trkpt lat="48.795249" lon="1.954647">
        <ele>173.245688</ele>
        <time>2023-07-19T10:27:42.412Z</time>
      </trkpt>
      <trkpt lat="48.795055" lon="1.955282">
        <ele>173.276502</ele>
        <time>2023-07-19T10:27:51.892Z</time>
      </trkpt>
      <trkpt lat="48.794885" lon="1.955916">
        <ele>173.306636</ele>
        <time>2023-07-19T10:28:01.156Z</time>
      </trkpt>
      <trkpt lat="48.793649" lon="1.959962">
        <ele>172.848828</ele>
        <time>2023-07-19T10:28:59.014Z</time>
      </trkpt>
      <trkpt lat="48.793181" lon="1.961410">
        <ele>172.497984</ele>
        <time>2023-07-19T10:29:13.158Z</time>
      </trkpt>
      <trkpt lat="48.793140" lon="1.961379">
        <ele>172.476479</ele>
        <time>2023-07-19T10:29:13.790Z</time>
      </trkpt>
      <trkpt lat="48.793109" lon="1.961434">
        <ele>172.454091</ele>
        <time>2023-07-19T10:29:14.409Z</time>
      </trkpt>
      <trkpt lat="48.792956" lon="1.961502">
        <ele>172.379243</ele>
        <time>2023-07-19T10:29:16.601Z</time>
      </trkpt>
      <trkpt lat="48.792831" lon="1.961499">
        <ele>172.320548</ele>
        <time>2023-07-19T10:29:18.309Z</time>
      </trkpt>
      <trkpt lat="48.792806" lon="1.961558">
        <ele>172.298851</ele>
        <time>2023-07-19T10:29:18.916Z</time>
      </trkpt>
      <trkpt lat="48.792435" lon="1.961231">
        <ele>172.097434</ele>
        <time>2023-07-19T10:29:24.667Z</time>
      </trkpt>
      <trkpt lat="48.792306" lon="1.961161">
        <ele>172.033115</ele>
        <time>2023-07-19T10:29:26.514Z</time>
      </trkpt>
      <trkpt lat="48.792178" lon="1.961091">
        <ele>171.969239</ele>
        <time>2023-07-19T10:29:28.333Z</time>
      </trkpt>
      <trkpt lat="48.791473" lon="1.960706">
        <ele>171.505159</ele>
        <time>2023-07-19T10:29:38.326Z</time>
      </trkpt>
      <trkpt lat="48.791245" lon="1.960581">
        <ele>171.254437</ele>
        <time>2023-07-19T10:29:41.496Z</time>
      </trkpt>
      <trkpt lat="48.790959" lon="1.960501">
        <ele>170.953656</ele>
        <time>2023-07-19T10:29:45.076Z</time>
      </trkpt>
      <trkpt lat="48.790183" lon="1.960176">
        <ele>170.121075</ele>
        <time>2023-07-19T10:29:54.550Z</time>
      </trkpt>
      <trkpt lat="48.790030" lon="1.960160">
        <ele>169.962457</ele>
        <time>2023-07-19T10:29:56.310Z</time>
      </trkpt>
      <trkpt lat="48.789793" lon="1.960282">
        <ele>169.745657</ele>
        <time>2023-07-19T10:29:59.231Z</time>
      </trkpt>
      <trkpt lat="48.789417" lon="1.960557">
        <ele>169.437463</ele>
        <time>2023-07-19T10:30:04.184Z</time>
      </trkpt>
      <trkpt lat="48.788793" lon="1.961264">
        <ele>168.862477</ele>
        <time>2023-07-19T10:30:14.284Z</time>
      </trkpt>
      <trkpt lat="48.788043" lon="1.962374">
        <ele>167.385717</ele>
        <time>2023-07-19T10:30:28.919Z</time>
      </trkpt>
      <trkpt lat="48.787892" lon="1.962449">
        <ele>167.078060</ele>
        <time>2023-07-19T10:30:30.991Z</time>
      </trkpt>
      <trkpt lat="48.787675" lon="1.962441">
        <ele>166.657733</ele>
        <time>2023-07-19T10:30:33.648Z</time>
      </trkpt>
      <trkpt lat="48.787583" lon="1.962356">
        <ele>166.449172</ele>
        <time>2023-07-19T10:30:34.890Z</time>
      </trkpt>
      <trkpt lat="48.787484" lon="1.962203">
        <ele>166.175577</ele>
        <time>2023-07-19T10:30:36.472Z</time>
      </trkpt>
      <trkpt lat="48.787319" lon="1.961627">
        <ele>165.374251</ele>
        <time>2023-07-19T10:30:40.707Z</time>
      </trkpt>
      <trkpt lat="48.787171" lon="1.960630">
        <ele>161.792809</ele>
        <time>2023-07-19T10:30:47.011Z</time>
      </trkpt>
      <trkpt lat="48.787111" lon="1.960484">
        <ele>161.057343</ele>
        <time>2023-07-19T10:30:48.037Z</time>
      </trkpt>
      <trkpt lat="48.787026" lon="1.960363">
        <ele>160.301351</ele>
        <time>2023-07-19T10:30:49.090Z</time>
      </trkpt>
      <trkpt lat="48.786706" lon="1.960168">
        <ele>158.064377</ele>
        <time>2023-07-19T10:30:52.190Z</time>
      </trkpt>
      <trkpt lat="48.786286" lon="1.960020">
        <ele>155.267279</ele>
        <time>2023-07-19T10:30:56.048Z</time>
      </trkpt>
      <trkpt lat="48.786153" lon="1.960034">
        <ele>154.402408</ele>
        <time>2023-07-19T10:30:57.226Z</time>
      </trkpt>
      <trkpt lat="48.785834" lon="1.960212">
        <ele>152.197827</ele>
        <time>2023-07-19T10:31:00.225Z</time>
      </trkpt>
      <trkpt lat="48.785554" lon="1.960438">
        <ele>150.140983</ele>
        <time>2023-07-19T10:31:03.019Z</time>
      </trkpt>
      <trkpt lat="48.785359" lon="1.960711">
        <ele>148.420365</ele>
        <time>2023-07-19T10:31:05.383Z</time>
      </trkpt>
      <trkpt lat="48.785046" lon="1.961147">
        <ele>145.664912</ele>
        <time>2023-07-19T10:31:09.231Z</time>
      </trkpt>
      <trkpt lat="48.784751" lon="1.961601">
        <ele>142.940070</ele>
        <time>2023-07-19T10:31:13.172Z</time>
      </trkpt>
      <trkpt lat="48.784663" lon="1.961778">
        <ele>141.992505</ele>
        <time>2023-07-19T10:31:14.559Z</time>
      </trkpt>
      <trkpt lat="48.784608" lon="1.962013">
        <ele>141.307856</ele>
        <time>2023-07-19T10:31:16.107Z</time>
      </trkpt>
      <trkpt lat="48.784557" lon="1.962853">
        <ele>139.466457</ele>
        <time>2023-07-19T10:31:21.502Z</time>
      </trkpt>
      <trkpt lat="48.784518" lon="1.963080">
        <ele>138.954371</ele>
        <time>2023-07-19T10:31:23.025Z</time>
      </trkpt>
      <trkpt lat="48.784446" lon="1.963267">
        <ele>138.481585</ele>
        <time>2023-07-19T10:31:24.437Z</time>
      </trkpt>
      <trkpt lat="48.784332" lon="1.963380">
        <ele>138.030489</ele>
        <time>2023-07-19T10:31:25.807Z</time>
      </trkpt>
      <trkpt lat="48.784185" lon="1.963453">
        <ele>137.518074</ele>
        <time>2023-07-19T10:31:27.368Z</time>
      </trkpt>
      <trkpt lat="48.784067" lon="1.963456">
        <ele>137.127088</ele>
        <time>2023-07-19T10:31:28.581Z</time>
      </trkpt>
      <trkpt lat="48.783887" lon="1.963415">
        <ele>136.524073</ele>
        <time>2023-07-19T10:31:30.536Z</time>
      </trkpt>
      <trkpt lat="48.783794" lon="1.963356">
        <ele>136.190131</ele>
        <time>2023-07-19T10:31:31.676Z</time>
      </trkpt>
      <trkpt lat="48.783241" lon="1.962562">
        <ele>135.989338</ele>
        <time>2023-07-19T10:31:41.002Z</time>
      </trkpt>
      <trkpt lat="48.783098" lon="1.962361">
        <ele>136.064644</ele>
        <time>2023-07-19T10:31:43.658Z</time>
      </trkpt>
      <trkpt lat="48.783028" lon="1.962242">
        <ele>136.105255</ele>
        <time>2023-07-19T10:31:45.235Z</time>
      </trkpt>
      <trkpt lat="48.783056" lon="1.962157">
        <ele>136.129448</ele>
        <time>2023-07-19T10:31:46.131Z</time>
      </trkpt>
      <trkpt lat="48.783039" lon="1.962097">
        <ele>136.146075</ele>
        <time>2023-07-19T10:31:46.744Z</time>
      </trkpt>
      <trkpt lat="48.783000" lon="1.962068">
        <ele>136.162854</ele>
        <time>2023-07-19T10:31:47.380Z</time>
      </trkpt>
      <trkpt lat="48.782936" lon="1.962121">
        <ele>136.191023</ele>
        <time>2023-07-19T10:31:48.599Z</time>
      </trkpt>
      <trkpt lat="48.782602" lon="1.961636">
        <ele>136.369623</ele>
        <time>2023-07-19T10:31:58.952Z</time>
      </trkpt>
      <trkpt lat="48.782540" lon="1.961492">
        <ele>136.413415</ele>
        <time>2023-07-19T10:32:01.848Z</time>
      </trkpt>
      <trkpt lat="48.782482" lon="1.961219">
        <ele>136.816672</ele>
        <time>2023-07-19T10:32:06.858Z</time>
      </trkpt>
      <trkpt lat="48.782480" lon="1.961071">
        <ele>137.133365</ele>
        <time>2023-07-19T10:32:09.723Z</time>
      </trkpt>
      <trkpt lat="48.782576" lon="1.960126">
        <ele>139.178949</ele>
        <time>2023-07-19T10:32:26.694Z</time>
      </trkpt>
      <trkpt lat="48.782695" lon="1.958924">
        <ele>141.779322</ele>
        <time>2023-07-19T10:32:49.607Z</time>
      </trkpt>
      <trkpt lat="48.782698" lon="1.958878">
        <ele>141.878213</ele>
        <time>2023-07-19T10:32:50.662Z</time>
      </trkpt>
      <trkpt lat="48.782800" lon="1.957825">
        <ele>144.215422</ele>
        <time>2023-07-19T10:33:12.323Z</time>
      </trkpt>
      <trkpt lat="48.782779" lon="1.957630">
        <ele>144.651726</ele>
        <time>2023-07-19T10:33:16.354Z</time>
      </trkpt>
      <trkpt lat="48.782720" lon="1.957485">
        <ele>145.028038</ele>
        <time>2023-07-19T10:33:19.547Z</time>
      </trkpt>
      <trkpt lat="48.782631" lon="1.957398">
        <ele>145.382811</ele>
        <time>2023-07-19T10:33:22.521Z</time>
      </trkpt>
      <trkpt lat="48.782568" lon="1.957364">
        <ele>145.606889</ele>
        <time>2023-07-19T10:33:24.459Z</time>
      </trkpt>
      <trkpt lat="48.782429" lon="1.957373">
        <ele>146.073129</ele>
        <time>2023-07-19T10:33:28.002Z</time>
      </trkpt>
      <trkpt lat="48.782374" lon="1.957396">
        <ele>146.264315</ele>
        <time>2023-07-19T10:33:29.436Z</time>
      </trkpt>
      <trkpt lat="48.782259" lon="1.957573">
        <ele>146.813210</ele>
        <time>2023-07-19T10:33:33.496Z</time>
      </trkpt>
      <trkpt lat="48.781918" lon="1.958643">
        <ele>149.596737</ele>
        <time>2023-07-19T10:33:53.737Z</time>
      </trkpt>
      <trkpt lat="48.781896" lon="1.958715">
        <ele>149.796668</ele>
        <time>2023-07-19T10:33:55.283Z</time>
      </trkpt>
      <trkpt lat="48.781770" lon="1.959121">
        <ele>150.927208</ele>
        <time>2023-07-19T10:34:04.410Z</time>
      </trkpt>
      <trkpt lat="48.781598" lon="1.959583">
        <ele>152.263979</ele>
        <time>2023-07-19T10:34:15.611Z</time>
      </trkpt>
      <trkpt lat="48.781496" lon="1.959706">
        <ele>152.762054</ele>
        <time>2023-07-19T10:34:19.587Z</time>
      </trkpt>
      <trkpt lat="48.781384" lon="1.959756">
        <ele>153.208385</ele>
        <time>2023-07-19T10:34:23.098Z</time>
      </trkpt>
      <trkpt lat="48.781239" lon="1.959745">
        <ele>153.763428</ele>
        <time>2023-07-19T10:34:27.594Z</time>
      </trkpt>
      <trkpt lat="48.781112" lon="1.959652">
        <ele>154.302532</ele>
        <time>2023-07-19T10:34:32.013Z</time>
      </trkpt>
      <trkpt lat="48.781031" lon="1.959536">
        <ele>154.728317</ele>
        <time>2023-07-19T10:34:35.501Z</time>
      </trkpt>
      <trkpt lat="48.780978" lon="1.959373">
        <ele>155.186278</ele>
        <time>2023-07-19T10:34:39.311Z</time>
      </trkpt>
      <trkpt lat="48.780926" lon="1.958721">
        <ele>157.017333</ele>
        <time>2023-07-19T10:34:53.329Z</time>
      </trkpt>
      <trkpt lat="48.780890" lon="1.958550">
        <ele>157.517826</ele>
        <time>2023-07-19T10:34:57.389Z</time>
      </trkpt>
      <trkpt lat="48.780839" lon="1.958487">
        <ele>157.796061</ele>
        <time>2023-07-19T10:34:59.600Z</time>
      </trkpt>
      <trkpt lat="48.780689" lon="1.958344">
        <ele>158.545558</ele>
        <time>2023-07-19T10:35:05.820Z</time>
      </trkpt>
      <trkpt lat="48.780239" lon="1.958017">
        <ele>160.656560</ele>
        <time>2023-07-19T10:35:22.573Z</time>
      </trkpt>
      <trkpt lat="48.779867" lon="1.957766">
        <ele>162.379079</ele>
        <time>2023-07-19T10:35:34.846Z</time>
      </trkpt>
      <trkpt lat="48.779699" lon="1.957646">
        <ele>162.960911</ele>
        <time>2023-07-19T10:35:40.176Z</time>
      </trkpt>
      <trkpt lat="48.779586" lon="1.957610">
        <ele>163.179533</ele>
        <time>2023-07-19T10:35:43.408Z</time>
      </trkpt>
      <trkpt lat="48.779455" lon="1.957683">
        <ele>163.443768</ele>
        <time>2023-07-19T10:35:47.079Z</time>
      </trkpt>
      <trkpt lat="48.779372" lon="1.957774">
        <ele>163.637647</ele>
        <time>2023-07-19T10:35:49.791Z</time>
      </trkpt>
      <trkpt lat="48.779318" lon="1.957880">
        <ele>163.804817</ele>
        <time>2023-07-19T10:35:52.154Z</time>
      </trkpt>
      <trkpt lat="48.779165" lon="1.958491">
        <ele>164.620351</ele>
        <time>2023-07-19T10:36:02.231Z</time>
      </trkpt>
      <trkpt lat="48.779094" lon="1.958673">
        <ele>164.884242</ele>
        <time>2023-07-19T10:36:05.075Z</time>
      </trkpt>
      <trkpt lat="48.779048" lon="1.958708">
        <ele>164.981675</ele>
        <time>2023-07-19T10:36:06.134Z</time>
      </trkpt>
      <trkpt lat="48.778892" lon="1.958750">
        <ele>165.281664</ele>
        <time>2023-07-19T10:36:09.291Z</time>
      </trkpt>
      <trkpt lat="48.778719" lon="1.958717">
        <ele>165.611806</ele>
        <time>2023-07-19T10:36:12.302Z</time>
      </trkpt>
      <trkpt lat="48.778428" lon="1.958546">
        <ele>166.201781</ele>
        <time>2023-07-19T10:36:17.642Z</time>
      </trkpt>
      <trkpt lat="48.778297" lon="1.958393">
        <ele>166.285240</ele>
        <time>2023-07-19T10:36:20.363Z</time>
      </trkpt>
      <trkpt lat="48.778217" lon="1.958357">
        <ele>166.327368</ele>
        <time>2023-07-19T10:36:21.695Z</time>
      </trkpt>
      <trkpt lat="48.778063" lon="1.958369">
        <ele>166.405220</ele>
        <time>2023-07-19T10:36:23.931Z</time>
      </trkpt>
      <trkpt lat="48.777959" lon="1.958439">
        <ele>166.462660</ele>
        <time>2023-07-19T10:36:25.760Z</time>
      </trkpt>
      <trkpt lat="48.777856" lon="1.958612">
        <ele>166.540229</ele>
        <time>2023-07-19T10:36:28.245Z</time>
      </trkpt>
      <trkpt lat="48.777820" lon="1.958746">
        <ele>166.588373</ele>
        <time>2023-07-19T10:36:29.700Z</time>
      </trkpt>
      <trkpt lat="48.777729" lon="1.958831">
        <ele>166.642323</ele>
        <time>2023-07-19T10:36:31.494Z</time>
      </trkpt>
      <trkpt lat="48.777653" lon="1.958839">
        <ele>166.680785</ele>
        <time>2023-07-19T10:36:32.886Z</time>
      </trkpt>
      <trkpt lat="48.777654" lon="1.959046">
        <ele>166.749656</ele>
        <time>2023-07-19T10:36:35.129Z</time>
      </trkpt>
      <trkpt lat="48.777654" lon="1.959116">
        <ele>166.772945</ele>
        <time>2023-07-19T10:36:35.874Z</time>
      </trkpt>
      <trkpt lat="48.777652" lon="1.959158">
        <ele>166.786955</ele>
        <time>2023-07-19T10:36:36.303Z</time>
      </trkpt>
      <trkpt lat="48.777516" lon="1.959124">
        <ele>166.856543</ele>
        <time>2023-07-19T10:36:38.708Z</time>
      </trkpt>
      <trkpt lat="48.777002" lon="1.959158">
        <ele>167.119042</ele>
        <time>2023-07-19T10:36:47.307Z</time>
      </trkpt>
      <trkpt lat="48.776503" lon="1.959120">
        <ele>167.474030</ele>
        <time>2023-07-19T10:36:56.471Z</time>
      </trkpt>
      <trkpt lat="48.775970" lon="1.958950">
        <ele>167.861003</ele>
        <time>2023-07-19T10:37:06.111Z</time>
      </trkpt>
      <trkpt lat="48.775820" lon="1.959049">
        <ele>167.977223</ele>
        <time>2023-07-19T10:37:09.019Z</time>
      </trkpt>
      <trkpt lat="48.775768" lon="1.959045">
        <ele>168.014217</ele>
        <time>2023-07-19T10:37:09.976Z</time>
      </trkpt>
      <trkpt lat="48.775665" lon="1.958988">
        <ele>168.092114</ele>
        <time>2023-07-19T10:37:11.784Z</time>
      </trkpt>
      <trkpt lat="48.775620" lon="1.959457">
        <ele>168.314028</ele>
        <time>2023-07-19T10:37:17.367Z</time>
      </trkpt>
      <trkpt lat="48.775471" lon="1.960072">
        <ele>168.516230</ele>
        <time>2023-07-19T10:37:24.927Z</time>
      </trkpt>
      <trkpt lat="48.775384" lon="1.960445">
        <ele>168.618446</ele>
        <time>2023-07-19T10:37:29.693Z</time>
      </trkpt>
      <trkpt lat="48.775319" lon="1.960615">
        <ele>168.669219</ele>
        <time>2023-07-19T10:37:31.897Z</time>
      </trkpt>
      <trkpt lat="48.775231" lon="1.960758">
        <ele>168.719764</ele>
        <time>2023-07-19T10:37:34.260Z</time>
      </trkpt>
      <trkpt lat="48.775127" lon="1.960852">
        <ele>168.767216</ele>
        <time>2023-07-19T10:37:36.499Z</time>
      </trkpt>
      <trkpt lat="48.775002" lon="1.960901">
        <ele>168.817825</ele>
        <time>2023-07-19T10:37:38.611Z</time>
      </trkpt>
      <trkpt lat="48.773584" lon="1.960746">
        <ele>168.856206</ele>
        <time>2023-07-19T10:37:59.208Z</time>
      </trkpt>
      <trkpt lat="48.773124" lon="1.960776">
        <ele>168.705236</ele>
        <time>2023-07-19T10:38:05.820Z</time>
      </trkpt>
      <trkpt lat="48.772815" lon="1.960884">
        <ele>168.601263</ele>
        <time>2023-07-19T10:38:10.059Z</time>
      </trkpt>
      <trkpt lat="48.772420" lon="1.961074">
        <ele>168.454664</ele>
        <time>2023-07-19T10:38:15.263Z</time>
      </trkpt>
      <trkpt lat="48.772297" lon="1.961118">
        <ele>168.401342</ele>
        <time>2023-07-19T10:38:16.836Z</time>
      </trkpt>
      <trkpt lat="48.772224" lon="1.961167">
        <ele>168.367660</ele>
        <time>2023-07-19T10:38:17.835Z</time>
      </trkpt>
      <trkpt lat="48.772212" lon="1.961174">
        <ele>168.362236</ele>
        <time>2023-07-19T10:38:17.992Z</time>
      </trkpt>
      <trkpt lat="48.771907" lon="1.961340">
        <ele>168.225513</ele>
        <time>2023-07-19T10:38:21.866Z</time>
      </trkpt>
      <trkpt lat="48.771729" lon="1.961461">
        <ele>168.143213</ele>
        <time>2023-07-19T10:38:24.247Z</time>
      </trkpt>
      <trkpt lat="48.771265" lon="1.961738">
        <ele>167.932821</ele>
        <time>2023-07-19T10:38:31.048Z</time>
      </trkpt>
      <trkpt lat="48.770719" lon="1.962122">
        <ele>167.900897</ele>
        <time>2023-07-19T10:38:40.389Z</time>
      </trkpt>
      <trkpt lat="48.770540" lon="1.962218">
        <ele>168.094513</ele>
        <time>2023-07-19T10:38:43.570Z</time>
      </trkpt>
      <trkpt lat="48.770316" lon="1.962281">
        <ele>168.326845</ele>
        <time>2023-07-19T10:38:47.398Z</time>
      </trkpt>
      <trkpt lat="48.770154" lon="1.962290">
        <ele>168.492166</ele>
        <time>2023-07-19T10:38:50.519Z</time>
      </trkpt>
      <trkpt lat="48.769560" lon="1.962227">
        <ele>169.099418</ele>
        <time>2023-07-19T10:39:02.673Z</time>
      </trkpt>
      <trkpt lat="48.769417" lon="1.962234">
        <ele>169.245328</ele>
        <time>2023-07-19T10:39:05.837Z</time>
      </trkpt>
      <trkpt lat="48.769395" lon="1.962123">
        <ele>169.323238</ele>
        <time>2023-07-19T10:39:07.391Z</time>
      </trkpt>
      <trkpt lat="48.769339" lon="1.962045">
        <ele>169.400764</ele>
        <time>2023-07-19T10:39:08.946Z</time>
      </trkpt>
      <trkpt lat="48.769261" lon="1.962023">
        <ele>169.481672</ele>
        <time>2023-07-19T10:39:10.629Z</time>
      </trkpt>
      <trkpt lat="48.769187" lon="1.962067">
        <ele>169.562727</ele>
        <time>2023-07-19T10:39:12.334Z</time>
      </trkpt>
      <trkpt lat="48.769156" lon="1.962117">
        <ele>169.610339</ele>
        <time>2023-07-19T10:39:13.346Z</time>
      </trkpt>
      <trkpt lat="48.769132" lon="1.962246">
        <ele>169.704751</ele>
        <time>2023-07-19T10:39:15.153Z</time>
      </trkpt>
      <trkpt lat="48.769162" lon="1.962373">
        <ele>169.799776</ele>
        <time>2023-07-19T10:39:16.930Z</time>
      </trkpt>
      <trkpt lat="48.769039" lon="1.962452">
        <ele>169.942514</ele>
        <time>2023-07-19T10:39:19.800Z</time>
      </trkpt>
      <trkpt lat="48.768623" lon="1.963003">
        <ele>170.532650</ele>
        <time>2023-07-19T10:39:30.751Z</time>
      </trkpt>
      <trkpt lat="48.768444" lon="1.963184">
        <ele>170.762533</ele>
        <time>2023-07-19T10:39:34.779Z</time>
      </trkpt>
      <trkpt lat="48.768320" lon="1.963261">
        <ele>170.905717</ele>
        <time>2023-07-19T10:39:37.161Z</time>
      </trkpt>
      <trkpt lat="48.768163" lon="1.963197">
        <ele>171.079448</ele>
        <time>2023-07-19T10:39:40.008Z</time>
      </trkpt>
      <trkpt lat="48.768023" lon="1.963262">
        <ele>171.235910</ele>
        <time>2023-07-19T10:39:42.733Z</time>
      </trkpt>
      <trkpt lat="48.767924" lon="1.963425">
        <ele>171.392035</ele>
        <time>2023-07-19T10:39:45.305Z</time>
      </trkpt>
      <trkpt lat="48.767901" lon="1.963518">
        <ele>171.462001</ele>
        <time>2023-07-19T10:39:46.440Z</time>
      </trkpt>
      <trkpt lat="48.767899" lon="1.963716">
        <ele>171.529606</ele>
        <time>2023-07-19T10:39:48.797Z</time>
      </trkpt>
      <trkpt lat="48.767837" lon="1.963917">
        <ele>171.574872</ele>
        <time>2023-07-19T10:39:51.369Z</time>
      </trkpt>
      <trkpt lat="48.767804" lon="1.963823">
        <ele>171.596595</ele>
        <time>2023-07-19T10:39:52.879Z</time>
      </trkpt>
      <trkpt lat="48.767746" lon="1.963968">
        <ele>171.631192</ele>
        <time>2023-07-19T10:39:55.443Z</time>
      </trkpt>
      <trkpt lat="48.767314" lon="1.964487">
        <ele>171.801719</ele>
        <time>2023-07-19T10:40:04.064Z</time>
      </trkpt>
      <trkpt lat="48.767292" lon="1.964603">
        <ele>171.826340</ele>
        <time>2023-07-19T10:40:05.230Z</time>
      </trkpt>
      <trkpt lat="48.767271" lon="1.964669">
        <ele>171.841289</ele>
        <time>2023-07-19T10:40:05.978Z</time>
      </trkpt>
      <trkpt lat="48.766922" lon="1.965141">
        <ele>171.985974</ele>
        <time>2023-07-19T10:40:13.262Z</time>
      </trkpt>
      <trkpt lat="48.766750" lon="1.965295">
        <ele>172.047779</ele>
        <time>2023-07-19T10:40:16.358Z</time>
      </trkpt>
      <trkpt lat="48.766594" lon="1.965385">
        <ele>172.094045</ele>
        <time>2023-07-19T10:40:18.976Z</time>
      </trkpt>
      <trkpt lat="48.766015" lon="1.965670">
        <ele>172.258557</ele>
        <time>2023-07-19T10:40:28.040Z</time>
      </trkpt>
      <trkpt lat="48.765933" lon="1.965695">
        <ele>172.281162</ele>
        <time>2023-07-19T10:40:29.242Z</time>
      </trkpt>
      <trkpt lat="48.765486" lon="1.965875">
        <ele>172.406153</ele>
        <time>2023-07-19T10:40:36.457Z</time>
      </trkpt>
      <trkpt lat="48.765295" lon="1.966007">
        <ele>172.462877</ele>
        <time>2023-07-19T10:40:39.950Z</time>
      </trkpt>
      <trkpt lat="48.765190" lon="1.966004">
        <ele>172.491260</ele>
        <time>2023-07-19T10:40:41.663Z</time>
      </trkpt>
      <trkpt lat="48.765148" lon="1.966052">
        <ele>172.505471</ele>
        <time>2023-07-19T10:40:42.593Z</time>
      </trkpt>
      <trkpt lat="48.765057" lon="1.966023">
        <ele>172.530602</ele>
        <time>2023-07-19T10:40:44.255Z</time>
      </trkpt>
      <trkpt lat="48.764951" lon="1.966128">
        <ele>172.597496</ele>
        <time>2023-07-19T10:40:46.431Z</time>
      </trkpt>
      <trkpt lat="48.764502" lon="1.966133">
        <ele>172.900906</ele>
        <time>2023-07-19T10:40:54.497Z</time>
      </trkpt>
      <trkpt lat="48.764288" lon="1.966107">
        <ele>173.045975</ele>
        <time>2023-07-19T10:40:58.504Z</time>
      </trkpt>
      <trkpt lat="48.763675" lon="1.966003">
        <ele>173.462779</ele>
        <time>2023-07-19T10:41:09.344Z</time>
      </trkpt>
      <trkpt lat="48.763599" lon="1.966004">
        <ele>173.514137</ele>
        <time>2023-07-19T10:41:10.671Z</time>
      </trkpt>
      <trkpt lat="48.763540" lon="1.966006">
        <ele>173.554015</ele>
        <time>2023-07-19T10:41:11.671Z</time>
      </trkpt>
      <trkpt lat="48.763353" lon="1.966059">
        <ele>173.682562</ele>
        <time>2023-07-19T10:41:14.850Z</time>
      </trkpt>
      <trkpt lat="48.763205" lon="1.966158">
        <ele>173.770982</ele>
        <time>2023-07-19T10:41:17.774Z</time>
      </trkpt>
      <trkpt lat="48.762569" lon="1.966641">
        <ele>173.951445</ele>
        <time>2023-07-19T10:41:30.046Z</time>
      </trkpt>
      <trkpt lat="48.762532" lon="1.966671">
        <ele>173.962089</ele>
        <time>2023-07-19T10:41:30.694Z</time>
      </trkpt>
      <trkpt lat="48.762373" lon="1.966787">
        <ele>174.006855</ele>
        <time>2023-07-19T10:41:33.469Z</time>
      </trkpt>
      <trkpt lat="48.762324" lon="1.966816">
        <ele>174.020201</ele>
        <time>2023-07-19T10:41:34.317Z</time>
      </trkpt>
      <trkpt lat="48.762269" lon="1.966841">
        <ele>174.034769</ele>
        <time>2023-07-19T10:41:35.230Z</time>
      </trkpt>
      <trkpt lat="48.762152" lon="1.966891">
        <ele>174.065610</ele>
        <time>2023-07-19T10:41:36.868Z</time>
      </trkpt>
      <trkpt lat="48.760812" lon="1.967183">
        <ele>174.923262</ele>
        <time>2023-07-19T10:41:56.342Z</time>
      </trkpt>
      <trkpt lat="48.760731" lon="1.967202">
        <ele>174.999090</ele>
        <time>2023-07-19T10:41:57.764Z</time>
      </trkpt>
      <trkpt lat="48.760443" lon="1.967237">
        <ele>175.266389</ele>
        <time>2023-07-19T10:42:03.551Z</time>
      </trkpt>
      <trkpt lat="48.759683" lon="1.967357">
        <ele>176.059255</ele>
        <time>2023-07-19T10:42:20.929Z</time>
      </trkpt>
      <trkpt lat="48.759334" lon="1.967418">
        <ele>176.679933</ele>
        <time>2023-07-19T10:42:28.984Z</time>
      </trkpt>
      <trkpt lat="48.759189" lon="1.967447">
        <ele>176.938329</ele>
        <time>2023-07-19T10:42:32.276Z</time>
      </trkpt>
      <trkpt lat="48.759056" lon="1.967555">
        <ele>177.204857</ele>
        <time>2023-07-19T10:42:35.806Z</time>
      </trkpt>
      <trkpt lat="48.758988" lon="1.967655">
        <ele>177.372185</ele>
        <time>2023-07-19T10:42:38.155Z</time>
      </trkpt>
      <trkpt lat="48.758952" lon="1.967800">
        <ele>177.552646</ele>
        <time>2023-07-19T10:42:40.609Z</time>
      </trkpt>
      <trkpt lat="48.758971" lon="1.967970">
        <ele>177.753470</ele>
        <time>2023-07-19T10:42:43.501Z</time>
      </trkpt>
      <trkpt lat="48.759062" lon="1.968126">
        <ele>177.996082</ele>
        <time>2023-07-19T10:42:46.930Z</time>
      </trkpt>
      <trkpt lat="48.760088" lon="1.969981">
        <ele>179.190353</ele>
        <time>2023-07-19T10:43:17.149Z</time>
      </trkpt>
      <trkpt lat="48.760286" lon="1.970389">
        <ele>179.235207</ele>
        <time>2023-07-19T10:43:21.278Z</time>
      </trkpt>
      <trkpt lat="48.760881" lon="1.971903">
        <ele>178.930316</ele>
        <time>2023-07-19T10:43:35.349Z</time>
      </trkpt>
      <trkpt lat="48.760933" lon="1.971923">
        <ele>178.901854</ele>
        <time>2023-07-19T10:43:35.985Z</time>
      </trkpt>
      <trkpt lat="48.761013" lon="1.972129">
        <ele>178.818232</ele>
        <time>2023-07-19T10:43:37.853Z</time>
      </trkpt>
      <trkpt lat="48.758001" lon="1.976302">
        <ele>178.758437</ele>
        <time>2023-07-19T10:44:39.127Z</time>
      </trkpt>
      <trkpt lat="48.757602" lon="1.976854">
        <ele>178.928137</ele>
        <time>2023-07-19T10:44:48.720Z</time>
      </trkpt>
      <trkpt lat="48.756544" lon="1.978318">
        <ele>179.742161</ele>
        <time>2023-07-19T10:45:14.130Z</time>
      </trkpt>
      <trkpt lat="48.756511" lon="1.978517">
        <ele>179.819056</ele>
        <time>2023-07-19T10:45:16.497Z</time>
      </trkpt>
      <trkpt lat="48.756615" lon="1.981441">
        <ele>179.480222</ele>
        <time>2023-07-19T10:45:44.044Z</time>
      </trkpt>
      <trkpt lat="48.756659" lon="1.982689">
        <ele>178.391129</ele>
        <time>2023-07-19T10:45:53.643Z</time>
      </trkpt>
      <trkpt lat="48.756700" lon="1.983016">
        <ele>178.101065</ele>
        <time>2023-07-19T10:45:56.171Z</time>
      </trkpt>
      <trkpt lat="48.756934" lon="1.983621">
        <ele>177.489819</ele>
        <time>2023-07-19T10:46:01.396Z</time>
      </trkpt>
      <trkpt lat="48.757196" lon="1.984237">
        <ele>176.939436</ele>
        <time>2023-07-19T10:46:06.855Z</time>
      </trkpt>
      <trkpt lat="48.757267" lon="1.984402">
        <ele>176.820232</ele>
        <time>2023-07-19T10:46:08.350Z</time>
      </trkpt>
      <trkpt lat="48.760549" lon="1.992179">
        <ele>171.584110</ele>
        <time>2023-07-19T10:47:24.322Z</time>
      </trkpt>
      <trkpt lat="48.761572" lon="1.994597">
        <ele>171.300471</ele>
        <time>2023-07-19T10:47:51.176Z</time>
      </trkpt>
      <trkpt lat="48.762469" lon="1.996726">
        <ele>172.305991</ele>
        <time>2023-07-19T10:48:20.552Z</time>
      </trkpt>
      <trkpt lat="48.763189" lon="1.998425">
        <ele>173.310822</ele>
        <time>2023-07-19T10:48:46.770Z</time>
      </trkpt>
      <trkpt lat="48.763775" lon="1.999718">
        <ele>173.850079</ele>
        <time>2023-07-19T10:49:04.118Z</time>
      </trkpt>
      <trkpt lat="48.764309" lon="2.000759">
        <ele>173.692004</ele>
        <time>2023-07-19T10:49:15.742Z</time>
      </trkpt>
      <trkpt lat="48.764679" lon="2.001454">
        <ele>173.436784</ele>
        <time>2023-07-19T10:49:23.084Z</time>
      </trkpt>
      <trkpt lat="48.766064" lon="2.004066">
        <ele>172.928734</ele>
        <time>2023-07-19T10:49:53.935Z</time>
      </trkpt>
      <trkpt lat="48.766262" lon="2.004438">
        <ele>172.831495</ele>
        <time>2023-07-19T10:49:59.213Z</time>
      </trkpt>
      <trkpt lat="48.766614" lon="2.005098">
        <ele>172.574396</ele>
        <time>2023-07-19T10:50:07.660Z</time>
      </trkpt>
      <trkpt lat="48.767036" lon="2.006165">
        <ele>172.197577</ele>
        <time>2023-07-19T10:50:18.227Z</time>
      </trkpt>
      <trkpt lat="48.767050" lon="2.006193">
        <ele>172.186935</ele>
        <time>2023-07-19T10:50:18.500Z</time>
      </trkpt>
      <trkpt lat="48.767434" lon="2.006943">
        <ele>171.624655</ele>
        <time>2023-07-19T10:50:26.120Z</time>
      </trkpt>
      <trkpt lat="48.767506" lon="2.007143">
        <ele>171.449026</ele>
        <time>2023-07-19T10:50:27.793Z</time>
      </trkpt>
      <trkpt lat="48.767548" lon="2.007327">
        <ele>171.298958</ele>
        <time>2023-07-19T10:50:29.224Z</time>
      </trkpt>
      <trkpt lat="48.767362" lon="2.008243">
        <ele>170.560273</ele>
        <time>2023-07-19T10:50:36.441Z</time>
      </trkpt>
      <trkpt lat="48.767111" lon="2.009181">
        <ele>169.959123</ele>
        <time>2023-07-19T10:50:44.566Z</time>
      </trkpt>
      <trkpt lat="48.766023" lon="2.012228">
        <ele>169.790782</ele>
        <time>2023-07-19T10:51:19.897Z</time>
      </trkpt>
      <trkpt lat="48.765950" lon="2.012517">
        <ele>169.784074</ele>
        <time>2023-07-19T10:51:22.928Z</time>
      </trkpt>
      <trkpt lat="48.765886" lon="2.012904">
        <ele>169.775426</ele>
        <time>2023-07-19T10:51:26.770Z</time>
      </trkpt>
      <trkpt lat="48.765840" lon="2.013349">
        <ele>169.765663</ele>
        <time>2023-07-19T10:51:31.034Z</time>
      </trkpt>
      <trkpt lat="48.765837" lon="2.013715">
        <ele>169.757730</ele>
        <time>2023-07-19T10:51:34.440Z</time>
      </trkpt>
      <trkpt lat="48.765900" lon="2.014430">
        <ele>169.615258</ele>
        <time>2023-07-19T10:51:41.041Z</time>
      </trkpt>
      <trkpt lat="48.765959" lon="2.014748">
        <ele>169.525254</ele>
        <time>2023-07-19T10:51:44.010Z</time>
      </trkpt>
      <trkpt lat="48.766067" lon="2.015137">
        <ele>169.410255</ele>
        <time>2023-07-19T10:51:47.766Z</time>
      </trkpt>
      <trkpt lat="48.766169" lon="2.015433">
        <ele>169.319255</ele>
        <time>2023-07-19T10:51:50.722Z</time>
      </trkpt>
      <trkpt lat="48.766370" lon="2.015877">
        <ele>169.172508</ele>
        <time>2023-07-19T10:51:55.506Z</time>
      </trkpt>
      <trkpt lat="48.767082" lon="2.017337">
        <ele>168.190568</ele>
        <time>2023-07-19T10:52:10.912Z</time>
      </trkpt>
      <trkpt lat="48.767131" lon="2.017483">
        <ele>168.080420</ele>
        <time>2023-07-19T10:52:12.229Z</time>
      </trkpt>
      <trkpt lat="48.767183" lon="2.017644">
        <ele>167.959883</ele>
        <time>2023-07-19T10:52:13.667Z</time>
      </trkpt>
      <trkpt lat="48.767297" lon="2.018066">
        <ele>167.653267</ele>
        <time>2023-07-19T10:52:17.246Z</time>
      </trkpt>
      <trkpt lat="48.767425" lon="2.018805">
        <ele>167.129088</ele>
        <time>2023-07-19T10:52:23.101Z</time>
      </trkpt>
      <trkpt lat="48.767470" lon="2.019464">
        <ele>166.551890</ele>
        <time>2023-07-19T10:52:28.070Z</time>
      </trkpt>
      <trkpt lat="48.767468" lon="2.019778">
        <ele>166.278318</ele>
        <time>2023-07-19T10:52:30.394Z</time>
      </trkpt>
      <trkpt lat="48.767406" lon="2.020442">
        <ele>165.694061</ele>
        <time>2023-07-19T10:52:35.450Z</time>
      </trkpt>
      <trkpt lat="48.767337" lon="2.020805">
        <ele>165.364924</ele>
        <time>2023-07-19T10:52:38.375Z</time>
      </trkpt>
      <trkpt lat="48.767311" lon="2.020892">
        <ele>165.281702</ele>
        <time>2023-07-19T10:52:39.138Z</time>
      </trkpt>
      <trkpt lat="48.767044" lon="2.021806">
        <ele>164.746100</ele>
        <time>2023-07-19T10:52:47.371Z</time>
      </trkpt>
      <trkpt lat="48.767032" lon="2.021835">
        <ele>164.742129</ele>
        <time>2023-07-19T10:52:47.676Z</time>
      </trkpt>
      <trkpt lat="48.766951" lon="2.022024">
        <ele>164.715989</ele>
        <time>2023-07-19T10:52:49.651Z</time>
      </trkpt>
      <trkpt lat="48.766866" lon="2.022099">
        <ele>164.698691</ele>
        <time>2023-07-19T10:52:50.981Z</time>
      </trkpt>
      <trkpt lat="48.766855" lon="2.022261">
        <ele>164.679807</ele>
        <time>2023-07-19T10:52:52.453Z</time>
      </trkpt>
      <trkpt lat="48.766816" lon="2.022417">
        <ele>164.660461</ele>
        <time>2023-07-19T10:52:54.020Z</time>
      </trkpt>
      <trkpt lat="48.766811" lon="2.022435">
        <ele>164.658196</ele>
        <time>2023-07-19T10:52:54.205Z</time>
      </trkpt>
      <trkpt lat="48.766097" lon="2.024661">
        <ele>164.378419</ele>
        <time>2023-07-19T10:53:19.772Z</time>
      </trkpt>
      <trkpt lat="48.765946" lon="2.025271">
        <ele>164.307859</ele>
        <time>2023-07-19T10:53:25.994Z</time>
      </trkpt>
      <trkpt lat="48.765882" lon="2.025694">
        <ele>164.260862</ele>
        <time>2023-07-19T10:53:29.894Z</time>
      </trkpt>
      <trkpt lat="48.765858" lon="2.026391">
        <ele>164.184207</ele>
        <time>2023-07-19T10:53:35.876Z</time>
      </trkpt>
      <trkpt lat="48.766056" lon="2.028745">
        <ele>163.232444</ele>
        <time>2023-07-19T10:53:55.945Z</time>
      </trkpt>
      <trkpt lat="48.766082" lon="2.029090">
        <ele>163.093175</ele>
        <time>2023-07-19T10:53:58.933Z</time>
      </trkpt>
      <trkpt lat="48.766103" lon="2.029319">
        <ele>163.077949</ele>
        <time>2023-07-19T10:54:00.966Z</time>
      </trkpt>
      <trkpt lat="48.766151" lon="2.030016">
        <ele>163.036753</ele>
        <time>2023-07-19T10:54:07.450Z</time>
      </trkpt>
      <trkpt lat="48.766151" lon="2.030684">
        <ele>162.997484</ele>
        <time>2023-07-19T10:54:13.915Z</time>
      </trkpt>
      <trkpt lat="48.766121" lon="2.031144">
        <ele>162.970311</ele>
        <time>2023-07-19T10:54:18.690Z</time>
      </trkpt>
      <trkpt lat="48.766003" lon="2.031950">
        <ele>162.910584</ele>
        <time>2023-07-19T10:54:27.137Z</time>
      </trkpt>
      <trkpt lat="48.765948" lon="2.032203">
        <ele>162.875601</ele>
        <time>2023-07-19T10:54:29.806Z</time>
      </trkpt>
      <trkpt lat="48.765891" lon="2.032416">
        <ele>162.845414</ele>
        <time>2023-07-19T10:54:32.002Z</time>
      </trkpt>
      <trkpt lat="48.765647" lon="2.033123">
        <ele>162.740618</ele>
        <time>2023-07-19T10:54:39.592Z</time>
      </trkpt>
      <trkpt lat="48.765410" lon="2.033681">
        <ele>162.653449</ele>
        <time>2023-07-19T10:54:45.638Z</time>
      </trkpt>
      <trkpt lat="48.765014" lon="2.034305">
        <ele>162.508417</ele>
        <time>2023-07-19T10:54:53.062Z</time>
      </trkpt>
      <trkpt lat="48.763806" lon="2.036009">
        <ele>161.877372</ele>
        <time>2023-07-19T10:55:15.082Z</time>
      </trkpt>
      <trkpt lat="48.763659" lon="2.036219">
        <ele>161.939588</ele>
        <time>2023-07-19T10:55:18.157Z</time>
      </trkpt>
      <trkpt lat="48.763547" lon="2.036389">
        <ele>161.988405</ele>
        <time>2023-07-19T10:55:20.610Z</time>
      </trkpt>
      <trkpt lat="48.763487" lon="2.036290">
        <ele>162.015720</ele>
        <time>2023-07-19T10:55:30.552Z</time>
      </trkpt>
      <trkpt lat="48.762362" lon="2.038023">
        <ele>162.454843</ele>
        <time>2023-07-19T10:55:57.465Z</time>
      </trkpt>
      <trkpt lat="48.762306" lon="2.038190">
        <ele>162.467717</ele>
        <time>2023-07-19T10:55:59.528Z</time>
      </trkpt>
      <trkpt lat="48.761920" lon="2.039392">
        <ele>162.559586</ele>
        <time>2023-07-19T10:56:13.442Z</time>
      </trkpt>
      <trkpt lat="48.761826" lon="2.040151">
        <ele>162.612650</ele>
        <time>2023-07-19T10:56:20.551Z</time>
      </trkpt>
      <trkpt lat="48.761851" lon="2.041113">
        <ele>162.313818</ele>
        <time>2023-07-19T10:56:28.873Z</time>
      </trkpt>
      <trkpt lat="48.762190" lon="2.044048">
        <ele>161.613814</ele>
        <time>2023-07-19T10:56:54.783Z</time>
      </trkpt>
      <trkpt lat="48.762245" lon="2.044032">
        <ele>161.604701</ele>
        <time>2023-07-19T10:57:00.940Z</time>
      </trkpt>
      <trkpt lat="48.762264" lon="2.044202">
        <ele>161.586205</ele>
        <time>2023-07-19T10:57:02.574Z</time>
      </trkpt>
      <trkpt lat="48.762284" lon="2.044373">
        <ele>161.567575</ele>
        <time>2023-07-19T10:57:04.228Z</time>
      </trkpt>
      <trkpt lat="48.762304" lon="2.044545">
        <ele>161.548840</ele>
        <time>2023-07-19T10:57:05.876Z</time>
      </trkpt>
      <trkpt lat="48.762834" lon="2.049020">
        <ele>161.699633</ele>
        <time>2023-07-19T10:57:53.321Z</time>
      </trkpt>
      <trkpt lat="48.762870" lon="2.049492">
        <ele>161.619846</ele>
        <time>2023-07-19T10:57:57.638Z</time>
      </trkpt>
      <trkpt lat="48.762873" lon="2.050387">
        <ele>161.469554</ele>
        <time>2023-07-19T10:58:05.491Z</time>
      </trkpt>
      <trkpt lat="48.762848" lon="2.050629">
        <ele>161.428421</ele>
        <time>2023-07-19T10:58:07.663Z</time>
      </trkpt>
      <trkpt lat="48.762826" lon="2.050861">
        <ele>161.388165</ele>
        <time>2023-07-19T10:58:09.606Z</time>
      </trkpt>
      <trkpt lat="48.762663" lon="2.051735">
        <ele>161.110418</ele>
        <time>2023-07-19T10:58:17.180Z</time>
      </trkpt>
      <trkpt lat="48.762437" lon="2.052479">
        <ele>160.859919</ele>
        <time>2023-07-19T10:58:24.085Z</time>
      </trkpt>
      <trkpt lat="48.762418" lon="2.052543">
        <ele>160.838455</ele>
        <time>2023-07-19T10:58:24.734Z</time>
      </trkpt>
      <trkpt lat="48.762286" lon="2.052870">
        <ele>160.721203</ele>
        <time>2023-07-19T10:58:28.254Z</time>
      </trkpt>
      <trkpt lat="48.761903" lon="2.053591">
        <ele>160.592422</ele>
        <time>2023-07-19T10:58:37.289Z</time>
      </trkpt>
      <trkpt lat="48.761492" lon="2.054183">
        <ele>160.674228</ele>
        <time>2023-07-19T10:58:45.839Z</time>
      </trkpt>
      <trkpt lat="48.760548" lon="2.055450">
        <ele>160.922417</ele>
        <time>2023-07-19T10:59:05.589Z</time>
      </trkpt>
      <trkpt lat="48.760237" lon="2.055795">
        <ele>161.068437</ele>
        <time>2023-07-19T10:59:12.201Z</time>
      </trkpt>
      <trkpt lat="48.759822" lon="2.056159">
        <ele>161.250117</ele>
        <time>2023-07-19T10:59:20.364Z</time>
      </trkpt>
      <trkpt lat="48.759289" lon="2.056459">
        <ele>161.465576</ele>
        <time>2023-07-19T10:59:29.575Z</time>
      </trkpt>
      <trkpt lat="48.759183" lon="2.056515">
        <ele>161.509208</ele>
        <time>2023-07-19T10:59:31.328Z</time>
      </trkpt>
      <trkpt lat="48.759071" lon="2.056574">
        <ele>161.558588</ele>
        <time>2023-07-19T10:59:33.116Z</time>
      </trkpt>
      <trkpt lat="48.758990" lon="2.056620">
        <ele>161.594610</ele>
        <time>2023-07-19T10:59:34.441Z</time>
      </trkpt>
      <trkpt lat="48.758964" lon="2.056477">
        <ele>161.635338</ele>
        <time>2023-07-19T10:59:45.526Z</time>
      </trkpt>
      <trkpt lat="48.758901" lon="2.056577">
        <ele>161.673316</ele>
        <time>2023-07-19T10:59:48.981Z</time>
      </trkpt>
      <trkpt lat="48.758639" lon="2.056744">
        <ele>161.791679</ele>
        <time>2023-07-19T10:59:53.547Z</time>
      </trkpt>
      <trkpt lat="48.757741" lon="2.057221">
        <ele>162.187956</ele>
        <time>2023-07-19T11:00:09.496Z</time>
      </trkpt>
      <trkpt lat="48.757109" lon="2.057626">
        <ele>162.546943</ele>
        <time>2023-07-19T11:00:20.886Z</time>
      </trkpt>
      <trkpt lat="48.756463" lon="2.058123">
        <ele>162.945743</ele>
        <time>2023-07-19T11:00:33.073Z</time>
      </trkpt>
      <trkpt lat="48.755709" lon="2.058800">
        <ele>163.485617</ele>
        <time>2023-07-19T11:00:48.902Z</time>
      </trkpt>
      <trkpt lat="48.754995" lon="2.059575">
        <ele>164.113938</ele>
        <time>2023-07-19T11:01:04.581Z</time>
      </trkpt>
      <trkpt lat="48.754875" lon="2.059723">
        <ele>164.224621</ele>
        <time>2023-07-19T11:01:07.379Z</time>
      </trkpt>
      <trkpt lat="48.754791" lon="2.059831">
        <ele>164.303426</ele>
        <time>2023-07-19T11:01:09.286Z</time>
      </trkpt>
      <trkpt lat="48.754818" lon="2.059882">
        <ele>164.334286</ele>
        <time>2023-07-19T11:01:09.957Z</time>
      </trkpt>
      <trkpt lat="48.754424" lon="2.060420">
        <ele>164.591576</ele>
        <time>2023-07-19T11:01:18.970Z</time>
      </trkpt>
      <trkpt lat="48.753923" lon="2.061104">
        <ele>164.764001</ele>
        <time>2023-07-19T11:01:30.117Z</time>
      </trkpt>
      <trkpt lat="48.753304" lon="2.062149">
        <ele>164.962403</ele>
        <time>2023-07-19T11:01:44.186Z</time>
      </trkpt>
      <trkpt lat="48.752665" lon="2.063494">
        <ele>164.614892</ele>
        <time>2023-07-19T11:01:58.953Z</time>
      </trkpt>
      <trkpt lat="48.752307" lon="2.064322">
        <ele>164.406956</ele>
        <time>2023-07-19T11:02:07.806Z</time>
      </trkpt>
      <trkpt lat="48.751730" lon="2.065657">
        <ele>164.044682</ele>
        <time>2023-07-19T11:02:22.600Z</time>
      </trkpt>
      <trkpt lat="48.751445" lon="2.066113">
        <ele>163.902084</ele>
        <time>2023-07-19T11:02:28.278Z</time>
      </trkpt>
      <trkpt lat="48.751022" lon="2.066603">
        <ele>163.623134</ele>
        <time>2023-07-19T11:02:35.289Z</time>
      </trkpt>
      <trkpt lat="48.751168" lon="2.066766">
        <ele>163.479883</ele>
        <time>2023-07-19T11:02:37.714Z</time>
      </trkpt>
      <trkpt lat="48.751216" lon="2.066830">
        <ele>163.429382</ele>
        <time>2023-07-19T11:02:38.565Z</time>
      </trkpt>
      <trkpt lat="48.751268" lon="2.066973">
        <ele>163.344301</ele>
        <time>2023-07-19T11:02:39.873Z</time>
      </trkpt>
      <trkpt lat="48.751291" lon="2.067339">
        <ele>163.152756</ele>
        <time>2023-07-19T11:02:43.011Z</time>
      </trkpt>
      <trkpt lat="48.751268" lon="2.067408">
        <ele>163.112475</ele>
        <time>2023-07-19T11:02:43.628Z</time>
      </trkpt>
      <trkpt lat="48.751222" lon="2.067589">
        <ele>163.011414</ele>
        <time>2023-07-19T11:02:45.118Z</time>
      </trkpt>
      <trkpt lat="48.751346" lon="2.067658">
        <ele>162.907046</ele>
        <time>2023-07-19T11:02:46.877Z</time>
      </trkpt>
      <trkpt lat="48.753783" lon="2.069555">
        <ele>160.792408</ele>
        <time>2023-07-19T11:03:20.249Z</time>
      </trkpt>
      <trkpt lat="48.755608" lon="2.070977">
        <ele>161.892453</ele>
        <time>2023-07-19T11:03:57.073Z</time>
      </trkpt>
      <trkpt lat="48.755738" lon="2.071077">
        <ele>162.026451</ele>
        <time>2023-07-19T11:03:59.952Z</time>
      </trkpt>
      <trkpt lat="48.755726" lon="2.071217">
        <ele>162.112013</ele>
        <time>2023-07-19T11:04:01.606Z</time>
      </trkpt>
      <trkpt lat="48.755772" lon="2.071451">
        <ele>162.260002</ele>
        <time>2023-07-19T11:04:04.771Z</time>
      </trkpt>
      <trkpt lat="48.755895" lon="2.071615">
        <ele>162.410550</ele>
        <time>2023-07-19T11:04:07.869Z</time>
      </trkpt>
      <trkpt lat="48.755960" lon="2.071648">
        <ele>162.473562</ele>
        <time>2023-07-19T11:04:09.091Z</time>
      </trkpt>
      <trkpt lat="48.756114" lon="2.071636">
        <ele>162.615320</ele>
        <time>2023-07-19T11:04:12.068Z</time>
      </trkpt>
      <trkpt lat="48.756223" lon="2.071537">
        <ele>162.732113</ele>
        <time>2023-07-19T11:04:14.417Z</time>
      </trkpt>
      <trkpt lat="48.756330" lon="2.071594">
        <ele>162.836367</ele>
        <time>2023-07-19T11:04:16.428Z</time>
      </trkpt>
      <trkpt lat="48.758488" lon="2.073211">
        <ele>164.533023</ele>
        <time>2023-07-19T11:04:59.268Z</time>
      </trkpt>
      <trkpt lat="48.758823" lon="2.073397">
        <ele>164.669997</ele>
        <time>2023-07-19T11:05:05.178Z</time>
      </trkpt>
      <trkpt lat="48.759156" lon="2.073521">
        <ele>164.801653</ele>
        <time>2023-07-19T11:05:10.715Z</time>
      </trkpt>
      <trkpt lat="48.759655" lon="2.073565">
        <ele>164.993574</ele>
        <time>2023-07-19T11:05:18.699Z</time>
      </trkpt>
      <trkpt lat="48.759976" lon="2.073526">
        <ele>165.081191</ele>
        <time>2023-07-19T11:05:23.671Z</time>
      </trkpt>
      <trkpt lat="48.760356" lon="2.073399">
        <ele>165.044130</ele>
        <time>2023-07-19T11:05:29.839Z</time>
      </trkpt>
      <trkpt lat="48.760921" lon="2.073113">
        <ele>164.987400</ele>
        <time>2023-07-19T11:05:38.646Z</time>
      </trkpt>
      <trkpt lat="48.761506" lon="2.072818">
        <ele>164.928684</ele>
        <time>2023-07-19T11:05:46.910Z</time>
      </trkpt>
      <trkpt lat="48.761525" lon="2.072885">
        <ele>164.924104</ele>
        <time>2023-07-19T11:05:47.627Z</time>
      </trkpt>
      <trkpt lat="48.761739" lon="2.073025">
        <ele>164.778742</ele>
        <time>2023-07-19T11:05:50.762Z</time>
      </trkpt>
      <trkpt lat="48.761939" lon="2.073034">
        <ele>164.604580</ele>
        <time>2023-07-19T11:05:53.479Z</time>
      </trkpt>
      <trkpt lat="48.762126" lon="2.073459">
        <ele>164.311394</ele>
        <time>2023-07-19T11:05:57.901Z</time>
      </trkpt>
      <trkpt lat="48.762401" lon="2.073734">
        <ele>164.024701</ele>
        <time>2023-07-19T11:06:02.065Z</time>
      </trkpt>
      <trkpt lat="48.762610" lon="2.074063">
        <ele>163.762540</ele>
        <time>2023-07-19T11:06:05.750Z</time>
      </trkpt>
      <trkpt lat="48.763434" lon="2.075680">
        <ele>162.345315</ele>
        <time>2023-07-19T11:06:21.440Z</time>
      </trkpt>
      <trkpt lat="48.765320" lon="2.079263">
        <ele>159.508218</ele>
        <time>2023-07-19T11:06:58.454Z</time>
      </trkpt>
      <trkpt lat="48.765667" lon="2.079951">
        <ele>159.372573</ele>
        <time>2023-07-19T11:07:06.795Z</time>
      </trkpt>
      <trkpt lat="48.765716" lon="2.079885">
        <ele>159.357008</ele>
        <time>2023-07-19T11:07:08.096Z</time>
      </trkpt>
      <trkpt lat="48.765803" lon="2.079787">
        <ele>159.331267</ele>
        <time>2023-07-19T11:07:10.209Z</time>
      </trkpt>
      <trkpt lat="48.765852" lon="2.079718">
        <ele>159.315386</ele>
        <time>2023-07-19T11:07:11.584Z</time>
      </trkpt>
      <trkpt lat="48.765994" lon="2.079799">
        <ele>159.279349</ele>
        <time>2023-07-19T11:07:14.693Z</time>
      </trkpt>
      <trkpt lat="48.766138" lon="2.079785">
        <ele>159.245072</ele>
        <time>2023-07-19T11:07:17.552Z</time>
      </trkpt>
      <trkpt lat="48.766183" lon="2.079728">
        <ele>159.231146</ele>
        <time>2023-07-19T11:07:18.792Z</time>
      </trkpt>
      <trkpt lat="48.766221" lon="2.079759">
        <ele>159.220897</ele>
        <time>2023-07-19T11:07:19.689Z</time>
      </trkpt>
      <trkpt lat="48.766297" lon="2.079847">
        <ele>159.198186</ele>
        <time>2023-07-19T11:07:21.687Z</time>
      </trkpt>
      <trkpt lat="48.766347" lon="2.079904">
        <ele>159.183329</ele>
        <time>2023-07-19T11:07:22.965Z</time>
      </trkpt>
      <trkpt lat="48.766333" lon="2.080006">
        <ele>159.167016</ele>
        <time>2023-07-19T11:07:24.309Z</time>
      </trkpt>
      <trkpt lat="48.766385" lon="2.080226">
        <ele>159.151491</ele>
        <time>2023-07-19T11:07:27.547Z</time>
      </trkpt>
      <trkpt lat="48.766430" lon="2.080327">
        <ele>159.150837</ele>
        <time>2023-07-19T11:07:29.233Z</time>
      </trkpt>
      <trkpt lat="48.766478" lon="2.080369">
        <ele>159.150386</ele>
        <time>2023-07-19T11:07:30.372Z</time>
      </trkpt>
      <trkpt lat="48.768901" lon="2.081406">
        <ele>159.416261</ele>
        <time>2023-07-19T11:08:07.177Z</time>
      </trkpt>
      <trkpt lat="48.770173" lon="2.081944">
        <ele>159.908908</ele>
        <time>2023-07-19T11:08:30.349Z</time>
      </trkpt>
      <trkpt lat="48.770262" lon="2.081975">
        <ele>159.956045</ele>
        <time>2023-07-19T11:08:32.246Z</time>
      </trkpt>
      <trkpt lat="48.770309" lon="2.081999">
        <ele>159.981644</ele>
        <time>2023-07-19T11:08:33.345Z</time>
      </trkpt>
      <trkpt lat="48.770502" lon="2.082082">
        <ele>160.085195</ele>
        <time>2023-07-19T11:08:38.061Z</time>
      </trkpt>
      <trkpt lat="48.770573" lon="2.082108">
        <ele>160.122898</ele>
        <time>2023-07-19T11:08:39.613Z</time>
      </trkpt>
      <trkpt lat="48.770593" lon="2.082114">
        <ele>160.133422</ele>
        <time>2023-07-19T11:08:40.045Z</time>
      </trkpt>
      <trkpt lat="48.770579" lon="2.082202">
        <ele>160.164220</ele>
        <time>2023-07-19T11:08:42.372Z</time>
      </trkpt>
      <trkpt lat="48.770528" lon="2.082471">
        <ele>160.259450</ele>
        <time>2023-07-19T11:08:49.783Z</time>
      </trkpt>
      <trkpt lat="48.770663" lon="2.082598">
        <ele>160.341445</ele>
        <time>2023-07-19T11:08:52.283Z</time>
      </trkpt>
      <trkpt lat="48.770761" lon="2.082811">
        <ele>160.429821</ele>
        <time>2023-07-19T11:08:55.254Z</time>
      </trkpt>
      <trkpt lat="48.770896" lon="2.082898">
        <ele>160.505534</ele>
        <time>2023-07-19T11:08:57.516Z</time>
      </trkpt>
      <trkpt lat="48.770969" lon="2.082900">
        <ele>160.543222</ele>
        <time>2023-07-19T11:08:58.689Z</time>
      </trkpt>
      <trkpt lat="48.771064" lon="2.082860">
        <ele>160.594115</ele>
        <time>2023-07-19T11:09:00.355Z</time>
      </trkpt>
      <trkpt lat="48.771144" lon="2.082774">
        <ele>160.648405</ele>
        <time>2023-07-19T11:09:01.976Z</time>
      </trkpt>
      <trkpt lat="48.771317" lon="2.082755">
        <ele>160.744648</ele>
        <time>2023-07-19T11:09:04.616Z</time>
      </trkpt>
      <trkpt lat="48.771300" lon="2.082852">
        <ele>160.781353</ele>
        <time>2023-07-19T11:09:06.114Z</time>
      </trkpt>
      <trkpt lat="48.772514" lon="2.083578">
        <ele>161.505392</ele>
        <time>2023-07-19T11:09:28.317Z</time>
      </trkpt>
      <trkpt lat="48.772839" lon="2.083964">
        <ele>161.673923</ele>
        <time>2023-07-19T11:09:35.933Z</time>
      </trkpt>
      <trkpt lat="48.773094" lon="2.084426">
        <ele>161.799640</ele>
        <time>2023-07-19T11:09:43.049Z</time>
      </trkpt>
      <trkpt lat="48.773317" lon="2.085027">
        <ele>161.943524</ele>
        <time>2023-07-19T11:09:50.864Z</time>
      </trkpt>
      <trkpt lat="48.774320" lon="2.089438">
        <ele>160.791005</ele>
        <time>2023-07-19T11:10:33.043Z</time>
      </trkpt>
      <trkpt lat="48.774457" lon="2.089920">
        <ele>160.335798</ele>
        <time>2023-07-19T11:10:37.167Z</time>
      </trkpt>
      <trkpt lat="48.774595" lon="2.090408">
        <ele>159.875292</ele>
        <time>2023-07-19T11:10:41.142Z</time>
      </trkpt>
      <trkpt lat="48.774596" lon="2.090595">
        <ele>159.713122</ele>
        <time>2023-07-19T11:10:42.532Z</time>
      </trkpt>
      <trkpt lat="48.774665" lon="2.090568">
        <ele>159.619356</ele>
        <time>2023-07-19T11:10:43.331Z</time>
      </trkpt>
      <trkpt lat="48.774693" lon="2.090424">
        <ele>159.489158</ele>
        <time>2023-07-19T11:10:44.431Z</time>
      </trkpt>
      <trkpt lat="48.775207" lon="2.091598">
        <ele>156.311927</ele>
        <time>2023-07-19T11:10:54.331Z</time>
      </trkpt>
      <trkpt lat="48.775237" lon="2.091675">
        <ele>156.070403</ele>
        <time>2023-07-19T11:10:54.918Z</time>
      </trkpt>
      <trkpt lat="48.775299" lon="2.091838">
        <ele>155.562238</ele>
        <time>2023-07-19T11:10:56.151Z</time>
      </trkpt>
      <trkpt lat="48.775370" lon="2.092053">
        <ele>154.912909</ele>
        <time>2023-07-19T11:10:57.691Z</time>
      </trkpt>
      <trkpt lat="48.775492" lon="2.092919">
        <ele>152.521798</ele>
        <time>2023-07-19T11:11:03.173Z</time>
      </trkpt>
      <trkpt lat="48.775601" lon="2.093312">
        <ele>150.950050</ele>
        <time>2023-07-19T11:11:05.741Z</time>
      </trkpt>
      <trkpt lat="48.775664" lon="2.093451">
        <ele>150.070743</ele>
        <time>2023-07-19T11:11:06.744Z</time>
      </trkpt>
      <trkpt lat="48.776513" lon="2.094670">
        <ele>140.826357</ele>
        <time>2023-07-19T11:11:17.061Z</time>
      </trkpt>
      <trkpt lat="48.776728" lon="2.094889">
        <ele>138.778301</ele>
        <time>2023-07-19T11:11:19.304Z</time>
      </trkpt>
      <trkpt lat="48.777354" lon="2.095387">
        <ele>133.675048</ele>
        <time>2023-07-19T11:11:25.445Z</time>
      </trkpt>
      <trkpt lat="48.777798" lon="2.095791">
        <ele>130.032784</ele>
        <time>2023-07-19T11:11:30.028Z</time>
      </trkpt>
      <trkpt lat="48.777887" lon="2.095857">
        <ele>129.335861</ele>
        <time>2023-07-19T11:11:30.912Z</time>
      </trkpt>
      <trkpt lat="48.778085" lon="2.095991">
        <ele>127.810586</ele>
        <time>2023-07-19T11:11:32.888Z</time>
      </trkpt>
      <trkpt lat="48.778408" lon="2.096171">
        <ele>125.389746</ele>
        <time>2023-07-19T11:11:36.128Z</time>
      </trkpt>
      <trkpt lat="48.778729" lon="2.096305">
        <ele>125.002504</ele>
        <time>2023-07-19T11:11:39.431Z</time>
      </trkpt>
      <trkpt lat="48.778973" lon="2.096347">
        <ele>125.057348</ele>
        <time>2023-07-19T11:11:42.076Z</time>
      </trkpt>
      <trkpt lat="48.779401" lon="2.096361">
        <ele>125.152957</ele>
        <time>2023-07-19T11:11:47.343Z</time>
      </trkpt>
      <trkpt lat="48.780490" lon="2.096240">
        <ele>126.985859</ele>
        <time>2023-07-19T11:12:16.473Z</time>
      </trkpt>
      <trkpt lat="48.780710" lon="2.096327">
        <ele>128.565667</ele>
        <time>2023-07-19T11:12:25.273Z</time>
      </trkpt>
      <trkpt lat="48.780857" lon="2.096483">
        <ele>129.812134</ele>
        <time>2023-07-19T11:12:32.644Z</time>
      </trkpt>
      <trkpt lat="48.780938" lon="2.096627">
        <ele>130.679066</ele>
        <time>2023-07-19T11:12:38.128Z</time>
      </trkpt>
      <trkpt lat="48.781022" lon="2.096979">
        <ele>132.393279</ele>
        <time>2023-07-19T11:12:49.433Z</time>
      </trkpt>
      <trkpt lat="48.781111" lon="2.098221">
        <ele>138.125530</ele>
        <time>2023-07-19T11:13:30.630Z</time>
      </trkpt>
      <trkpt lat="48.781074" lon="2.098540">
        <ele>139.672857</ele>
        <time>2023-07-19T11:13:41.378Z</time>
      </trkpt>
      <trkpt lat="48.781007" lon="2.098763">
        <ele>140.843665</ele>
        <time>2023-07-19T11:13:49.495Z</time>
      </trkpt>
      <trkpt lat="48.780692" lon="2.099326">
        <ele>144.371930</ele>
        <time>2023-07-19T11:14:12.249Z</time>
      </trkpt>
      <trkpt lat="48.780497" lon="2.099562">
        <ele>146.180129</ele>
        <time>2023-07-19T11:14:22.835Z</time>
      </trkpt>
      <trkpt lat="48.780218" lon="2.099824">
        <ele>148.558732</ele>
        <time>2023-07-19T11:14:35.731Z</time>
      </trkpt>
      <trkpt lat="48.779737" lon="2.100129">
        <ele>151.703506</ele>
        <time>2023-07-19T11:14:55.687Z</time>
      </trkpt>
      <trkpt lat="48.779526" lon="2.100319">
        <ele>152.706931</ele>
        <time>2023-07-19T11:15:04.464Z</time>
      </trkpt>
      <trkpt lat="48.779284" lon="2.100671">
        <ele>154.077870</ele>
        <time>2023-07-19T11:15:15.611Z</time>
      </trkpt>
      <trkpt lat="48.779148" lon="2.100991">
        <ele>155.104080</ele>
        <time>2023-07-19T11:15:23.115Z</time>
      </trkpt>
      <trkpt lat="48.779031" lon="2.101420">
        <ele>156.355349</ele>
        <time>2023-07-19T11:15:32.038Z</time>
      </trkpt>
      <trkpt lat="48.778998" lon="2.101584">
        <ele>156.817479</ele>
        <time>2023-07-19T11:15:35.153Z</time>
      </trkpt>
      <trkpt lat="48.778979" lon="2.101863">
        <ele>157.573394</ele>
        <time>2023-07-19T11:15:40.334Z</time>
      </trkpt>
      <trkpt lat="48.778979" lon="2.102168">
        <ele>158.295688</ele>
        <time>2023-07-19T11:15:45.233Z</time>
      </trkpt>
      <trkpt lat="48.779010" lon="2.102501">
        <ele>158.626688</ele>
        <time>2023-07-19T11:15:50.485Z</time>
      </trkpt>
      <trkpt lat="48.779096" lon="2.102840">
        <ele>158.984209</ele>
        <time>2023-07-19T11:15:56.141Z</time>
      </trkpt>
      <trkpt lat="48.779271" lon="2.103349">
        <ele>159.549263</ele>
        <time>2023-07-19T11:16:04.395Z</time>
      </trkpt>
      <trkpt lat="48.779495" lon="2.103854">
        <ele>160.148404</ele>
        <time>2023-07-19T11:16:12.506Z</time>
      </trkpt>
      <trkpt lat="48.779725" lon="2.104248">
        <ele>160.666459</ele>
        <time>2023-07-19T11:16:18.435Z</time>
      </trkpt>
      <trkpt lat="48.779980" lon="2.104626">
        <ele>161.082669</ele>
        <time>2023-07-19T11:16:24.194Z</time>
      </trkpt>
      <trkpt lat="48.780230" lon="2.104936">
        <ele>161.360447</ele>
        <time>2023-07-19T11:16:29.273Z</time>
      </trkpt>
      <trkpt lat="48.780476" lon="2.105186">
        <ele>161.615183</ele>
        <time>2023-07-19T11:16:34.070Z</time>
      </trkpt>
      <trkpt lat="48.780965" lon="2.105571">
        <ele>162.089174</ele>
        <time>2023-07-19T11:16:44.088Z</time>
      </trkpt>
      <trkpt lat="48.781426" lon="2.105869">
        <ele>162.544008</ele>
        <time>2023-07-19T11:16:54.511Z</time>
      </trkpt>
      <trkpt lat="48.782032" lon="2.106195">
        <ele>163.370517</ele>
        <time>2023-07-19T11:17:08.809Z</time>
      </trkpt>
      <trkpt lat="48.782442" lon="2.106368">
        <ele>163.917566</ele>
        <time>2023-07-19T11:17:17.828Z</time>
      </trkpt>
      <trkpt lat="48.782771" lon="2.106447">
        <ele>164.345757</ele>
        <time>2023-07-19T11:17:24.292Z</time>
      </trkpt>
      <trkpt lat="48.783197" lon="2.106461">
        <ele>164.824533</ele>
        <time>2023-07-19T11:17:31.628Z</time>
      </trkpt>
      <trkpt lat="48.783441" lon="2.106412">
        <ele>164.940738</ele>
        <time>2023-07-19T11:17:35.596Z</time>
      </trkpt>
      <trkpt lat="48.783733" lon="2.106317">
        <ele>165.081733</ele>
        <time>2023-07-19T11:17:40.149Z</time>
      </trkpt>
      <trkpt lat="48.784231" lon="2.106021">
        <ele>165.334245</ele>
        <time>2023-07-19T11:17:48.353Z</time>
      </trkpt>
      <trkpt lat="48.784442" lon="2.105869">
        <ele>165.444518</ele>
        <time>2023-07-19T11:17:52.130Z</time>
      </trkpt>
      <trkpt lat="48.784837" lon="2.105715">
        <ele>165.648328</ele>
        <time>2023-07-19T11:17:59.161Z</time>
      </trkpt>
      <trkpt lat="48.785241" lon="2.105634">
        <ele>166.483620</ele>
        <time>2023-07-19T11:18:07.141Z</time>
      </trkpt>
      <trkpt lat="48.785528" lon="2.105626">
        <ele>167.071997</ele>
        <time>2023-07-19T11:18:13.248Z</time>
      </trkpt>
      <trkpt lat="48.785930" lon="2.105691">
        <ele>167.900658</ele>
        <time>2023-07-19T11:18:22.820Z</time>
      </trkpt>
      <trkpt lat="48.786003" lon="2.105735">
        <ele>168.061657</ele>
        <time>2023-07-19T11:18:24.820Z</time>
      </trkpt>
      <trkpt lat="48.786090" lon="2.105850">
        <ele>168.298136</ele>
        <time>2023-07-19T11:18:27.747Z</time>
      </trkpt>
      <trkpt lat="48.786198" lon="2.105908">
        <ele>168.532958</ele>
        <time>2023-07-19T11:18:30.667Z</time>
      </trkpt>
      <trkpt lat="48.786334" lon="2.105895">
        <ele>168.812276</ele>
        <time>2023-07-19T11:18:34.303Z</time>
      </trkpt>
      <trkpt lat="48.786416" lon="2.105838">
        <ele>168.997145</ele>
        <time>2023-07-19T11:18:36.743Z</time>
      </trkpt>
      <trkpt lat="48.786476" lon="2.105761">
        <ele>169.158201</ele>
        <time>2023-07-19T11:18:38.852Z</time>
      </trkpt>
      <trkpt lat="48.786583" lon="2.105706">
        <ele>169.412181</ele>
        <time>2023-07-19T11:18:41.905Z</time>
      </trkpt>
      <trkpt lat="48.787164" lon="2.105617">
        <ele>170.996370</ele>
        <time>2023-07-19T11:18:57.658Z</time>
      </trkpt>
      <trkpt lat="48.787987" lon="2.105689">
        <ele>173.232775</ele>
        <time>2023-07-19T11:19:19.453Z</time>
      </trkpt>
      <trkpt lat="48.788459" lon="2.105895">
        <ele>174.389320</ele>
        <time>2023-07-19T11:19:31.629Z</time>
      </trkpt>
      <trkpt lat="48.789989" lon="2.106790">
        <ele>176.695929</ele>
        <time>2023-07-19T11:20:04.042Z</time>
      </trkpt>
      <trkpt lat="48.790045" lon="2.106823">
        <ele>176.752167</ele>
        <time>2023-07-19T11:20:05.113Z</time>
      </trkpt>
      <trkpt lat="48.790756" lon="2.107234">
        <ele>177.220527</ele>
        <time>2023-07-19T11:20:18.929Z</time>
      </trkpt>
      <trkpt lat="48.791028" lon="2.107550">
        <ele>177.431388</ele>
        <time>2023-07-19T11:20:24.966Z</time>
      </trkpt>
      <trkpt lat="48.791164" lon="2.107852">
        <ele>177.579748</ele>
        <time>2023-07-19T11:20:29.025Z</time>
      </trkpt>
      <trkpt lat="48.791238" lon="2.108278">
        <ele>177.758423</ele>
        <time>2023-07-19T11:20:33.662Z</time>
      </trkpt>
      <trkpt lat="48.791273" lon="2.109003">
        <ele>177.485992</ele>
        <time>2023-07-19T11:20:40.909Z</time>
      </trkpt>
      <trkpt lat="48.791267" lon="2.109222">
        <ele>177.341241</ele>
        <time>2023-07-19T11:20:42.912Z</time>
      </trkpt>
      <trkpt lat="48.791181" lon="2.109690">
        <ele>177.020380</ele>
        <time>2023-07-19T11:20:47.190Z</time>
      </trkpt>
      <trkpt lat="48.790970" lon="2.110602">
        <ele>176.382042</ele>
        <time>2023-07-19T11:20:54.900Z</time>
      </trkpt>
      <trkpt lat="48.790926" lon="2.110915">
        <ele>176.170686</ele>
        <time>2023-07-19T11:20:57.220Z</time>
      </trkpt>
      <trkpt lat="48.790924" lon="2.111293">
        <ele>175.644924</ele>
        <time>2023-07-19T11:20:59.863Z</time>
      </trkpt>
      <trkpt lat="48.790913" lon="2.113418">
        <ele>170.824319</ele>
        <time>2023-07-19T11:21:13.861Z</time>
      </trkpt>
      <trkpt lat="48.790936" lon="2.113807">
        <ele>169.938346</ele>
        <time>2023-07-19T11:21:16.365Z</time>
      </trkpt>
      <trkpt lat="48.791016" lon="2.114138">
        <ele>168.843452</ele>
        <time>2023-07-19T11:21:18.626Z</time>
      </trkpt>
      <trkpt lat="48.792346" lon="2.117703">
        <ele>154.737423</ele>
        <time>2023-07-19T11:21:43.992Z</time>
      </trkpt>
      <trkpt lat="48.792414" lon="2.117913">
        <ele>153.856771</ele>
        <time>2023-07-19T11:21:45.379Z</time>
      </trkpt>
      <trkpt lat="48.792455" lon="2.117965">
        <ele>153.551548</ele>
        <time>2023-07-19T11:21:45.854Z</time>
      </trkpt>
      <trkpt lat="48.792487" lon="2.118063">
        <ele>153.139904</ele>
        <time>2023-07-19T11:21:46.500Z</time>
      </trkpt>
      <trkpt lat="48.792666" lon="2.118551">
        <ele>151.037817</ele>
        <time>2023-07-19T11:21:49.821Z</time>
      </trkpt>
      <trkpt lat="48.792678" lon="2.118650">
        <ele>150.658722</ele>
        <time>2023-07-19T11:21:50.433Z</time>
      </trkpt>
      <trkpt lat="48.792781" lon="2.118927">
        <ele>149.458951</ele>
        <time>2023-07-19T11:21:52.339Z</time>
      </trkpt>
      <trkpt lat="48.792820" lon="2.119029">
        <ele>149.014108</ele>
        <time>2023-07-19T11:21:53.041Z</time>
      </trkpt>
      <trkpt lat="48.792849" lon="2.119107">
        <ele>148.676277</ele>
        <time>2023-07-19T11:21:53.583Z</time>
      </trkpt>
      <trkpt lat="48.793016" lon="2.119558">
        <ele>146.724832</ele>
        <time>2023-07-19T11:21:56.684Z</time>
      </trkpt>
      <trkpt lat="48.793182" lon="2.120016">
        <ele>144.753100</ele>
        <time>2023-07-19T11:21:59.822Z</time>
      </trkpt>
      <trkpt lat="48.793242" lon="2.120131">
        <ele>144.199772</ele>
        <time>2023-07-19T11:22:00.714Z</time>
      </trkpt>
      <trkpt lat="48.793499" lon="2.120346">
        <ele>142.519623</ele>
        <time>2023-07-19T11:22:03.448Z</time>
      </trkpt>
      <trkpt lat="48.793685" lon="2.120440">
        <ele>141.397192</ele>
        <time>2023-07-19T11:22:05.307Z</time>
      </trkpt>
      <trkpt lat="48.794132" lon="2.120749">
        <ele>139.280237</ele>
        <time>2023-07-19T11:22:10.069Z</time>
      </trkpt>
      <trkpt lat="48.794264" lon="2.120832">
        <ele>138.763343</ele>
        <time>2023-07-19T11:22:11.502Z</time>
      </trkpt>
      <trkpt lat="48.794264" lon="2.120832">
        <ele>138.763343</ele>
        <time>2023-07-19T11:22:11.512Z</time>
      </trkpt>
      <trkpt lat="48.794264" lon="2.120832">
        <ele>138.763343</ele>
        <time>2023-07-19T11:22:11.512Z</time>
      </trkpt>
      <trkpt lat="48.794835" lon="2.121216">
        <ele>136.503954</ele>
        <time>2023-07-19T11:22:23.091Z</time>
      </trkpt>
      <trkpt lat="48.795405" lon="2.121600">
        <ele>134.247877</ele>
        <time>2023-07-19T11:22:34.655Z</time>
      </trkpt>
      <trkpt lat="48.795405" lon="2.121600">
        <ele>134.247877</ele>
        <time>2023-07-19T11:22:34.657Z</time>
      </trkpt>
      <trkpt lat="48.795921" lon="2.121943">
        <ele>133.027469</ele>
        <time>2023-07-19T11:22:45.100Z</time>
      </trkpt>
      <trkpt lat="48.796436" lon="2.122286">
        <ele>131.939792</ele>
        <time>2023-07-19T11:22:55.524Z</time>
      </trkpt>
      <trkpt lat="48.796728" lon="2.122486">
        <ele>131.320231</ele>
        <time>2023-07-19T11:22:59.207Z</time>
      </trkpt>
      <trkpt lat="48.797880" lon="2.123263">
        <ele>130.209209</ele>
        <time>2023-07-19T11:23:15.578Z</time>
      </trkpt>
      <trkpt lat="48.798491" lon="2.123666">
        <ele>129.985625</ele>
        <time>2023-07-19T11:23:25.587Z</time>
      </trkpt>
      <trkpt lat="48.798814" lon="2.123893">
        <ele>129.875097</ele>
        <time>2023-07-19T11:23:30.845Z</time>
      </trkpt>
      <trkpt lat="48.799014" lon="2.124019">
        <ele>129.838461</ele>
        <time>2023-07-19T11:23:33.899Z</time>
      </trkpt>
      <trkpt lat="48.799651" lon="2.124442">
        <ele>129.720829</ele>
        <time>2023-07-19T11:23:43.795Z</time>
      </trkpt>
      <trkpt lat="48.799479" lon="2.125049">
        <ele>129.647188</ele>
        <time>2023-07-19T11:23:50.110Z</time>
      </trkpt>
      <trkpt lat="48.799438" lon="2.125199">
        <ele>129.629090</ele>
        <time>2023-07-19T11:23:51.704Z</time>
      </trkpt>
      <trkpt lat="48.799282" lon="2.125769">
        <ele>129.525037</ele>
        <time>2023-07-19T11:23:57.078Z</time>
      </trkpt>
      <trkpt lat="48.799255" lon="2.125864">
        <ele>129.492722</ele>
        <time>2023-07-19T11:23:57.951Z</time>
      </trkpt>
      <trkpt lat="48.798847" lon="2.127287">
        <ele>129.007999</ele>
        <time>2023-07-19T11:24:11.737Z</time>
      </trkpt>
      <trkpt lat="48.798781" lon="2.127522">
        <ele>128.928209</ele>
        <time>2023-07-19T11:24:13.947Z</time>
      </trkpt>
      <trkpt lat="48.798798" lon="2.127533">
        <ele>128.919446</ele>
        <time>2023-07-19T11:24:14.191Z</time>
      </trkpt>
      <trkpt lat="48.798966" lon="2.127645">
        <ele>128.832446</ele>
        <time>2023-07-19T11:24:16.671Z</time>
      </trkpt>
      <trkpt lat="48.799107" lon="2.127739">
        <ele>128.759427</ele>
        <time>2023-07-19T11:24:18.642Z</time>
      </trkpt>
      <trkpt lat="48.799115" lon="2.127744">
        <ele>128.755325</ele>
        <time>2023-07-19T11:24:18.762Z</time>
      </trkpt>
      <trkpt lat="48.799261" lon="2.127912">
        <ele>128.697422</ele>
        <time>2023-07-19T11:24:21.162Z</time>
      </trkpt>
      <trkpt lat="48.799583" lon="2.128144">
        <ele>128.612001</ele>
        <time>2023-07-19T11:24:25.682Z</time>
      </trkpt>
      <trkpt lat="48.799670" lon="2.128197">
        <ele>128.589534</ele>
        <time>2023-07-19T11:24:26.843Z</time>
      </trkpt>
      <trkpt lat="48.799683" lon="2.128041">
        <ele>128.564711</ele>
        <time>2023-07-19T11:24:28.137Z</time>
      </trkpt>
      <trkpt lat="48.799693" lon="2.127941">
        <ele>128.548744</ele>
        <time>2023-07-19T11:24:28.991Z</time>
      </trkpt>
      <trkpt lat="48.799723" lon="2.127895">
        <ele>128.538525</ele>
        <time>2023-07-19T11:24:29.560Z</time>
      </trkpt>
      <trkpt lat="48.800646" lon="2.126738">
        <ele>128.480487</ele>
        <time>2023-07-19T11:24:46.861Z</time>
      </trkpt>
      <trkpt lat="48.801295" lon="2.125925">
        <ele>129.320501</ele>
        <time>2023-07-19T11:25:03.427Z</time>
      </trkpt>
      <trkpt lat="48.801459" lon="2.125720">
        <ele>129.532584</ele>
        <time>2023-07-19T11:25:07.685Z</time>
      </trkpt>
      <trkpt lat="48.801643" lon="2.125489">
        <ele>129.770949</ele>
        <time>2023-07-19T11:25:12.296Z</time>
      </trkpt>
      <trkpt lat="48.801708" lon="2.125405">
        <ele>129.856167</ele>
        <time>2023-07-19T11:25:13.974Z</time>
      </trkpt>
      <trkpt lat="48.801887" lon="2.125284">
        <ele>130.051783</ele>
        <time>2023-07-19T11:25:17.784Z</time>
      </trkpt>
      <trkpt lat="48.801924" lon="2.125276">
        <ele>130.089095</ele>
        <time>2023-07-19T11:25:18.544Z</time>
      </trkpt>
      <trkpt lat="48.801967" lon="2.125266">
        <ele>130.142482</ele>
        <time>2023-07-19T11:25:19.428Z</time>
      </trkpt>
      <trkpt lat="48.802038" lon="2.125309">
        <ele>130.237375</ele>
        <time>2023-07-19T11:25:20.967Z</time>
      </trkpt>
      <trkpt lat="48.802110" lon="2.125423">
        <ele>130.366517</ele>
        <time>2023-07-19T11:25:23.145Z</time>
      </trkpt>
      <trkpt lat="48.802073" lon="2.125450">
        <ele>130.417478</ele>
        <time>2023-07-19T11:25:24.812Z</time>
      </trkpt>
      <trkpt lat="48.802284" lon="2.125837">
        <ele>130.828257</ele>
        <time>2023-07-19T11:25:31.799Z</time>
      </trkpt>
      <trkpt lat="48.802417" lon="2.126001">
        <ele>131.040958</ele>
        <time>2023-07-19T11:25:35.427Z</time>
      </trkpt>
      <trkpt lat="48.802561" lon="2.126136">
        <ele>131.251052</ele>
        <time>2023-07-19T11:25:39.222Z</time>
      </trkpt>
      <trkpt lat="48.802792" lon="2.126281">
        <ele>131.561357</ele>
        <time>2023-07-19T11:25:44.283Z</time>
      </trkpt>
      <trkpt lat="48.802813" lon="2.126294">
        <ele>131.589510</ele>
        <time>2023-07-19T11:25:44.761Z</time>
      </trkpt>
      <trkpt lat="48.802830" lon="2.126304">
        <ele>131.612142</ele>
        <time>2023-07-19T11:25:45.127Z</time>
      </trkpt>
      <trkpt lat="48.802951" lon="2.126403">
        <ele>131.782773</ele>
        <time>2023-07-19T11:25:47.848Z</time>
      </trkpt>
      <trkpt lat="48.803000" lon="2.126557">
        <ele>131.922613</ele>
        <time>2023-07-19T11:25:49.904Z</time>
      </trkpt>
      <trkpt lat="48.803056" lon="2.126593">
        <ele>131.998106</ele>
        <time>2023-07-19T11:25:50.996Z</time>
      </trkpt>
      <trkpt lat="48.802978" lon="2.127068">
        <ele>132.368543</ele>
        <time>2023-07-19T11:25:56.547Z</time>
      </trkpt>
      <trkpt lat="48.802814" lon="2.127659">
        <ele>132.681318</ele>
        <time>2023-07-19T11:26:03.958Z</time>
      </trkpt>
      <trkpt lat="48.802753" lon="2.127889">
        <ele>132.802244</ele>
        <time>2023-07-19T11:26:06.673Z</time>
      </trkpt>
      <trkpt lat="48.802720" lon="2.128012">
        <ele>132.867019</ele>
        <time>2023-07-19T11:26:08.194Z</time>
      </trkpt>
      <trkpt lat="48.802483" lon="2.128916">
        <ele>133.341555</ele>
        <time>2023-07-19T11:26:19.440Z</time>
      </trkpt>
      <trkpt lat="48.802356" lon="2.129221">
        <ele>133.517541</ele>
        <time>2023-07-19T11:26:23.824Z</time>
      </trkpt>
      <trkpt lat="48.802277" lon="2.129518">
        <ele>133.677186</ele>
        <time>2023-07-19T11:26:27.814Z</time>
      </trkpt>
      <trkpt lat="48.802245" lon="2.129635">
        <ele>133.751090</ele>
        <time>2023-07-19T11:26:29.378Z</time>
      </trkpt>
      <trkpt lat="48.802213" lon="2.129743">
        <ele>133.820174</ele>
        <time>2023-07-19T11:26:30.701Z</time>
      </trkpt>
      <trkpt lat="48.802089" lon="2.130206">
        <ele>134.111746</ele>
        <time>2023-07-19T11:26:36.615Z</time>
      </trkpt>
      <trkpt lat="48.802067" lon="2.130288">
        <ele>134.163398</ele>
        <time>2023-07-19T11:26:37.574Z</time>
      </trkpt>
      <trkpt lat="48.801927" lon="2.130813">
        <ele>134.493814</ele>
        <time>2023-07-19T11:26:44.366Z</time>
      </trkpt>
      <trkpt lat="48.801790" lon="2.131325">
        <ele>134.816204</ele>
        <time>2023-07-19T11:26:51.218Z</time>
      </trkpt>
      <trkpt lat="48.801733" lon="2.131545">
        <ele>134.954117</ele>
        <time>2023-07-19T11:26:54.264Z</time>
      </trkpt>
      <trkpt lat="48.801667" lon="2.131805">
        <ele>135.116668</ele>
        <time>2023-07-19T11:26:57.521Z</time>
      </trkpt>
      <trkpt lat="48.801593" lon="2.132092">
        <ele>135.278390</ele>
        <time>2023-07-19T11:27:01.192Z</time>
      </trkpt>
      <trkpt lat="48.801358" lon="2.132997">
        <ele>135.628336</ele>
        <time>2023-07-19T11:27:13.156Z</time>
      </trkpt>
      <trkpt lat="48.801194" lon="2.133615">
        <ele>135.868019</ele>
        <time>2023-07-19T11:27:21.217Z</time>
      </trkpt>
      <trkpt lat="48.801121" lon="2.133885">
        <ele>135.973013</ele>
        <time>2023-07-19T11:27:24.500Z</time>
      </trkpt>
      <trkpt lat="48.801080" lon="2.134046">
        <ele>136.035108</ele>
        <time>2023-07-19T11:27:26.356Z</time>
      </trkpt>
      <trkpt lat="48.801035" lon="2.134218">
        <ele>136.101686</ele>
        <time>2023-07-19T11:27:28.299Z</time>
      </trkpt>
      <trkpt lat="48.800945" lon="2.134540">
        <ele>136.227519</ele>
        <time>2023-07-19T11:27:31.517Z</time>
      </trkpt>
      <trkpt lat="48.800806" lon="2.135080">
        <ele>135.903204</ele>
        <time>2023-07-19T11:27:36.513Z</time>
      </trkpt>
      <trkpt lat="48.800506" lon="2.136226">
        <ele>135.190470</ele>
        <time>2023-07-19T11:27:46.827Z</time>
      </trkpt>
      <trkpt lat="48.800404" lon="2.136594">
        <ele>134.959716</ele>
        <time>2023-07-19T11:27:49.895Z</time>
      </trkpt>
      <trkpt lat="48.800253" lon="2.137139">
        <ele>134.589733</ele>
        <time>2023-07-19T11:27:54.448Z</time>
      </trkpt>
      <trkpt lat="48.800165" lon="2.137452">
        <ele>134.236167</ele>
        <time>2023-07-19T11:27:57.013Z</time>
      </trkpt>
      <trkpt lat="48.800039" lon="2.137872">
        <ele>133.756694</ele>
        <time>2023-07-19T11:28:00.424Z</time>
      </trkpt>
      <trkpt lat="48.799900" lon="2.137824">
        <ele>133.531854</ele>
        <time>2023-07-19T11:28:01.958Z</time>
      </trkpt>
      <trkpt lat="48.799890" lon="2.137862">
        <ele>133.489341</ele>
        <time>2023-07-19T11:28:04.800Z</time>
      </trkpt>
      <trkpt lat="48.799871" lon="2.137965">
        <ele>133.378214</ele>
        <time>2023-07-19T11:28:12.230Z</time>
      </trkpt>
      <trkpt lat="48.799137" lon="2.140684">
        <ele>130.493046</ele>
        <time>2023-07-19T11:28:34.554Z</time>
      </trkpt>
      <trkpt lat="48.798907" lon="2.141536">
        <ele>129.644012</ele>
        <time>2023-07-19T11:28:41.698Z</time>
      </trkpt>
      <trkpt lat="48.798811" lon="2.141897">
        <ele>129.287469</ele>
        <time>2023-07-19T11:28:44.677Z</time>
      </trkpt>
      <trkpt lat="48.798609" lon="2.142649">
        <ele>128.672400</ele>
        <time>2023-07-19T11:28:50.891Z</time>
      </trkpt>
      <trkpt lat="48.798341" lon="2.143625">
        <ele>127.871559</ele>
        <time>2023-07-19T11:28:59.301Z</time>
      </trkpt>
      <trkpt lat="48.798307" lon="2.143752">
        <ele>127.767733</ele>
        <time>2023-07-19T11:29:00.427Z</time>
      </trkpt>
      <trkpt lat="48.798283" lon="2.143808">
        <ele>127.717134</ele>
        <time>2023-07-19T11:29:00.952Z</time>
      </trkpt>
      <trkpt lat="48.798263" lon="2.143868">
        <ele>127.666205</ele>
        <time>2023-07-19T11:29:01.493Z</time>
      </trkpt>
      <trkpt lat="48.798254" lon="2.143987">
        <ele>127.575487</ele>
        <time>2023-07-19T11:29:02.505Z</time>
      </trkpt>
      <trkpt lat="48.798157" lon="2.144362">
        <ele>127.270361</ele>
        <time>2023-07-19T11:29:05.756Z</time>
      </trkpt>
      <trkpt lat="48.797971" lon="2.145061">
        <ele>126.658598</ele>
        <time>2023-07-19T11:29:11.816Z</time>
      </trkpt>
      <trkpt lat="48.797963" lon="2.145511">
        <ele>126.291473</ele>
        <time>2023-07-19T11:29:15.358Z</time>
      </trkpt>
      <trkpt lat="48.797982" lon="2.146286">
        <ele>125.658995</ele>
        <time>2023-07-19T11:29:21.431Z</time>
      </trkpt>
      <trkpt lat="48.798002" lon="2.147001">
        <ele>125.075361</ele>
        <time>2023-07-19T11:29:26.959Z</time>
      </trkpt>
      <trkpt lat="48.798027" lon="2.147721">
        <ele>124.204678</ele>
        <time>2023-07-19T11:29:32.404Z</time>
      </trkpt>
      <trkpt lat="48.798037" lon="2.148132">
        <ele>123.685668</ele>
        <time>2023-07-19T11:29:35.407Z</time>
      </trkpt>
      <trkpt lat="48.798058" lon="2.148841">
        <ele>122.790052</ele>
        <time>2023-07-19T11:29:40.461Z</time>
      </trkpt>
      <trkpt lat="48.798085" lon="2.149724">
        <ele>121.674563</ele>
        <time>2023-07-19T11:29:46.769Z</time>
      </trkpt>
      <trkpt lat="48.798096" lon="2.150193">
        <ele>121.206627</ele>
        <time>2023-07-19T11:29:50.148Z</time>
      </trkpt>
      <trkpt lat="48.798105" lon="2.150476">
        <ele>120.942501</ele>
        <time>2023-07-19T11:29:52.182Z</time>
      </trkpt>
      <trkpt lat="48.798111" lon="2.150772">
        <ele>120.666432</ele>
        <time>2023-07-19T11:29:54.406Z</time>
      </trkpt>
      <trkpt lat="48.798170" lon="2.152930">
        <ele>118.746275</ele>
        <time>2023-07-19T11:30:11.497Z</time>
      </trkpt>
      <trkpt lat="48.798180" lon="2.153362">
        <ele>118.447872</ele>
        <time>2023-07-19T11:30:15.071Z</time>
      </trkpt>
      <trkpt lat="48.798147" lon="2.153496">
        <ele>118.349116</ele>
        <time>2023-07-19T11:30:16.177Z</time>
      </trkpt>
      <trkpt lat="48.798147" lon="2.153557">
        <ele>118.307006</ele>
        <time>2023-07-19T11:30:16.646Z</time>
      </trkpt>
      <trkpt lat="48.798346" lon="2.153719">
        <ele>118.070365</ele>
        <time>2023-07-19T11:30:19.529Z</time>
      </trkpt>
      <trkpt lat="48.798350" lon="2.153823">
        <ele>117.998449</ele>
        <time>2023-07-19T11:30:20.334Z</time>
      </trkpt>
      <trkpt lat="48.798357" lon="2.153982">
        <ele>117.888443</ele>
        <time>2023-07-19T11:30:21.608Z</time>
      </trkpt>
      <trkpt lat="48.798440" lon="2.157834">
        <ele>115.082494</ele>
        <time>2023-07-19T11:30:52.308Z</time>
      </trkpt>
      <trkpt lat="48.798461" lon="2.158049">
        <ele>114.858899</ele>
        <time>2023-07-19T11:30:53.952Z</time>
      </trkpt>
      <trkpt lat="48.798619" lon="2.158530">
        <ele>114.305967</ele>
        <time>2023-07-19T11:30:59.790Z</time>
      </trkpt>
      <trkpt lat="48.798787" lon="2.158845">
        <ele>113.889018</ele>
        <time>2023-07-19T11:31:04.167Z</time>
      </trkpt>
      <trkpt lat="48.799306" lon="2.159645">
        <ele>112.733914</ele>
        <time>2023-07-19T11:31:12.560Z</time>
      </trkpt>
      <trkpt lat="48.799406" lon="2.159761">
        <ele>112.537368</ele>
        <time>2023-07-19T11:31:13.965Z</time>
      </trkpt>
      <trkpt lat="48.800117" lon="2.160958">
        <ele>110.800036</ele>
        <time>2023-07-19T11:31:25.871Z</time>
      </trkpt>
      <trkpt lat="48.800290" lon="2.161251">
        <ele>110.372606</ele>
        <time>2023-07-19T11:31:28.795Z</time>
      </trkpt>
      <trkpt lat="48.800478" lon="2.161557">
        <ele>109.918062</ele>
        <time>2023-07-19T11:31:31.914Z</time>
      </trkpt>
      <trkpt lat="48.800656" lon="2.161848">
        <ele>109.486682</ele>
        <time>2023-07-19T11:31:34.918Z</time>
      </trkpt>
      <trkpt lat="48.800750" lon="2.161998">
        <ele>109.285479</ele>
        <time>2023-07-19T11:31:36.490Z</time>
      </trkpt>
      <trkpt lat="48.800843" lon="2.162146">
        <ele>109.141320</ele>
        <time>2023-07-19T11:31:38.049Z</time>
      </trkpt>
      <trkpt lat="48.801053" lon="2.162539">
        <ele>108.784664</ele>
        <time>2023-07-19T11:31:41.957Z</time>
      </trkpt>
      <trkpt lat="48.801455" lon="2.163238">
        <ele>108.130675</ele>
        <time>2023-07-19T11:31:49.352Z</time>
      </trkpt>
      <trkpt lat="48.801646" lon="2.163572">
        <ele>107.818947</ele>
        <time>2023-07-19T11:31:52.989Z</time>
      </trkpt>
      <trkpt lat="48.801684" lon="2.163640">
        <ele>107.756099</ele>
        <time>2023-07-19T11:31:53.742Z</time>
      </trkpt>
      <trkpt lat="48.802042" lon="2.164271">
        <ele>107.320724</ele>
        <time>2023-07-19T11:32:00.756Z</time>
      </trkpt>
      <trkpt lat="48.802293" lon="2.164686">
        <ele>107.179107</ele>
        <time>2023-07-19T11:32:05.588Z</time>
      </trkpt>
      <trkpt lat="48.802401" lon="2.164868">
        <ele>107.117534</ele>
        <time>2023-07-19T11:32:07.777Z</time>
      </trkpt>
      <trkpt lat="48.802971" lon="2.165837">
        <ele>106.790985</ele>
        <time>2023-07-19T11:32:19.418Z</time>
      </trkpt>
      <trkpt lat="48.803540" lon="2.166809">
        <ele>106.629949</ele>
        <time>2023-07-19T11:32:32.637Z</time>
      </trkpt>
      <trkpt lat="48.803769" lon="2.167235">
        <ele>106.581885</ele>
        <time>2023-07-19T11:32:37.789Z</time>
      </trkpt>
      <trkpt lat="48.803834" lon="2.167447">
        <ele>106.561445</ele>
        <time>2023-07-19T11:32:39.966Z</time>
      </trkpt>
      <trkpt lat="48.804027" lon="2.168874">
        <ele>106.248448</ele>
        <time>2023-07-19T11:32:53.141Z</time>
      </trkpt>
      <trkpt lat="48.804062" lon="2.169124">
        <ele>106.135053</ele>
        <time>2023-07-19T11:32:55.373Z</time>
      </trkpt>
      <trkpt lat="48.804096" lon="2.169434">
        <ele>105.995623</ele>
        <time>2023-07-19T11:32:58.185Z</time>
      </trkpt>
      <trkpt lat="48.804117" lon="2.169608">
        <ele>105.917141</ele>
        <time>2023-07-19T11:32:59.739Z</time>
      </trkpt>
      <trkpt lat="48.804127" lon="2.169754">
        <ele>105.852016</ele>
        <time>2023-07-19T11:33:01.001Z</time>
      </trkpt>
      <trkpt lat="48.804079" lon="2.169844">
        <ele>105.800637</ele>
        <time>2023-07-19T11:33:02.049Z</time>
      </trkpt>
      <trkpt lat="48.804078" lon="2.170234">
        <ele>105.627606</ele>
        <time>2023-07-19T11:33:05.214Z</time>
      </trkpt>
      <trkpt lat="48.804108" lon="2.170340">
        <ele>105.576420</ele>
        <time>2023-07-19T11:33:06.181Z</time>
      </trkpt>
      <trkpt lat="48.804060" lon="2.172515">
        <ele>103.888730</ele>
        <time>2023-07-19T11:33:23.470Z</time>
      </trkpt>
      <trkpt lat="48.804059" lon="2.172659">
        <ele>103.754627</ele>
        <time>2023-07-19T11:33:24.553Z</time>
      </trkpt>
      <trkpt lat="48.804056" lon="2.172910">
        <ele>103.520852</ele>
        <time>2023-07-19T11:33:27.263Z</time>
      </trkpt>
      <trkpt lat="48.803994" lon="2.172979">
        <ele>103.412166</ele>
        <time>2023-07-19T11:33:28.172Z</time>
      </trkpt>
      <trkpt lat="48.803947" lon="2.175783">
        <ele>100.066027</ele>
        <time>2023-07-19T11:33:48.527Z</time>
      </trkpt>
      <trkpt lat="48.804023" lon="2.175910">
        <ele>99.845292</ele>
        <time>2023-07-19T11:33:49.773Z</time>
      </trkpt>
      <trkpt lat="48.804161" lon="2.176714">
        <ele>98.819194</ele>
        <time>2023-07-19T11:33:55.828Z</time>
      </trkpt>
      <trkpt lat="48.804134" lon="2.176734">
        <ele>98.766271</ele>
        <time>2023-07-19T11:33:56.180Z</time>
      </trkpt>
      <trkpt lat="48.804123" lon="2.176819">
        <ele>98.665760</ele>
        <time>2023-07-19T11:33:56.812Z</time>
      </trkpt>
      <trkpt lat="48.804150" lon="2.176859">
        <ele>98.599304</ele>
        <time>2023-07-19T11:33:57.232Z</time>
      </trkpt>
      <trkpt lat="48.804188" lon="2.176858">
        <ele>98.532351</ele>
        <time>2023-07-19T11:33:57.651Z</time>
      </trkpt>
      <trkpt lat="48.804214" lon="2.177026">
        <ele>98.332115</ele>
        <time>2023-07-19T11:33:58.875Z</time>
      </trkpt>
      <trkpt lat="48.804371" lon="2.177865">
        <ele>97.320109</ele>
        <time>2023-07-19T11:34:05.177Z</time>
      </trkpt>
      <trkpt lat="48.804439" lon="2.178261">
        <ele>96.845279</ele>
        <time>2023-07-19T11:34:08.155Z</time>
      </trkpt>
      <trkpt lat="48.804450" lon="2.178325">
        <ele>96.768534</ele>
        <time>2023-07-19T11:34:08.637Z</time>
      </trkpt>
      <trkpt lat="48.804520" lon="2.178768">
        <ele>96.239945</ele>
        <time>2023-07-19T11:34:12.082Z</time>
      </trkpt>
      <trkpt lat="48.804739" lon="2.180050">
        <ele>95.431476</ele>
        <time>2023-07-19T11:34:22.782Z</time>
      </trkpt>
      <trkpt lat="48.804776" lon="2.180299">
        <ele>95.296228</ele>
        <time>2023-07-19T11:34:24.917Z</time>
      </trkpt>
      <trkpt lat="48.804802" lon="2.180452">
        <ele>95.212507</ele>
        <time>2023-07-19T11:34:26.208Z</time>
      </trkpt>
      <trkpt lat="48.804969" lon="2.181407">
        <ele>94.688975</ele>
        <time>2023-07-19T11:34:34.708Z</time>
      </trkpt>
      <trkpt lat="48.805180" lon="2.182615">
        <ele>94.206018</ele>
        <time>2023-07-19T11:34:46.134Z</time>
      </trkpt>
      <trkpt lat="48.805226" lon="2.182897">
        <ele>94.100506</ele>
        <time>2023-07-19T11:34:48.482Z</time>
      </trkpt>
      <trkpt lat="48.805262" lon="2.183128">
        <ele>94.014295</ele>
        <time>2023-07-19T11:34:50.545Z</time>
      </trkpt>
      <trkpt lat="48.805303" lon="2.183647">
        <ele>93.824455</ele>
        <time>2023-07-19T11:34:54.859Z</time>
      </trkpt>
      <trkpt lat="48.805334" lon="2.183792">
        <ele>93.769089</ele>
        <time>2023-07-19T11:34:56.167Z</time>
      </trkpt>
      <trkpt lat="48.805372" lon="2.183931">
        <ele>93.714431</ele>
        <time>2023-07-19T11:34:57.371Z</time>
      </trkpt>
      <trkpt lat="48.805376" lon="2.184091">
        <ele>93.656280</ele>
        <time>2023-07-19T11:34:58.805Z</time>
      </trkpt>
      <trkpt lat="48.805433" lon="2.184364">
        <ele>93.661856</ele>
        <time>2023-07-19T11:35:01.301Z</time>
      </trkpt>
      <trkpt lat="48.805451" lon="2.184451">
        <ele>93.697902</ele>
        <time>2023-07-19T11:35:02.054Z</time>
      </trkpt>
      <trkpt lat="48.805470" lon="2.184544">
        <ele>93.736391</ele>
        <time>2023-07-19T11:35:02.916Z</time>
      </trkpt>
      <trkpt lat="48.805580" lon="2.184974">
        <ele>93.918731</ele>
        <time>2023-07-19T11:35:06.932Z</time>
      </trkpt>
      <trkpt lat="48.805675" lon="2.185390">
        <ele>94.092770</ele>
        <time>2023-07-19T11:35:11.197Z</time>
      </trkpt>
      <trkpt lat="48.805776" lon="2.185637">
        <ele>94.207690</ele>
        <time>2023-07-19T11:35:14.495Z</time>
      </trkpt>
      <trkpt lat="48.805927" lon="2.185846">
        <ele>94.330318</ele>
        <time>2023-07-19T11:35:17.986Z</time>
      </trkpt>
      <trkpt lat="48.806076" lon="2.185982">
        <ele>94.434656</ele>
        <time>2023-07-19T11:35:21.177Z</time>
      </trkpt>
      <trkpt lat="48.806406" lon="2.186167">
        <ele>94.645778</ele>
        <time>2023-07-19T11:35:28.521Z</time>
      </trkpt>
      <trkpt lat="48.806604" lon="2.186344">
        <ele>95.376731</ele>
        <time>2023-07-19T11:35:33.959Z</time>
      </trkpt>
      <trkpt lat="48.806809" lon="2.186631">
        <ele>96.542008</ele>
        <time>2023-07-19T11:35:41.314Z</time>
      </trkpt>
      <trkpt lat="48.807002" lon="2.187055">
        <ele>97.960569</ele>
        <time>2023-07-19T11:35:51.937Z</time>
      </trkpt>
      <trkpt lat="48.807197" lon="2.187702">
        <ele>99.918885</ele>
        <time>2023-07-19T11:36:07.672Z</time>
      </trkpt>
      <trkpt lat="48.807227" lon="2.187809">
        <ele>100.238952</ele>
        <time>2023-07-19T11:36:10.474Z</time>
      </trkpt>
      <trkpt lat="48.807267" lon="2.187905">
        <ele>100.551606</ele>
        <time>2023-07-19T11:36:13.084Z</time>
      </trkpt>
      <trkpt lat="48.807367" lon="2.188083">
        <ele>101.195532</ele>
        <time>2023-07-19T11:36:18.477Z</time>
      </trkpt>
      <trkpt lat="48.807402" lon="2.188167">
        <ele>101.469104</ele>
        <time>2023-07-19T11:36:20.950Z</time>
      </trkpt>
      <trkpt lat="48.807564" lon="2.188607">
        <ele>103.274323</ele>
        <time>2023-07-19T11:36:33.470Z</time>
      </trkpt>
      <trkpt lat="48.807623" lon="2.189294">
        <ele>106.396108</ele>
        <time>2023-07-19T11:36:51.473Z</time>
      </trkpt>
      <trkpt lat="48.807650" lon="2.190896">
        <ele>113.616969</ele>
        <time>2023-07-19T11:37:39.563Z</time>
      </trkpt>
      <trkpt lat="48.807724" lon="2.191390">
        <ele>115.319649</ele>
        <time>2023-07-19T11:37:54.356Z</time>
      </trkpt>
      <trkpt lat="48.807818" lon="2.191911">
        <ele>116.740151</ele>
        <time>2023-07-19T11:38:08.198Z</time>
      </trkpt>
      <trkpt lat="48.807844" lon="2.192063">
        <ele>117.153111</ele>
        <time>2023-07-19T11:38:12.026Z</time>
      </trkpt>
      <trkpt lat="48.807935" lon="2.192517">
        <ele>118.401014</ele>
        <time>2023-07-19T11:38:22.226Z</time>
      </trkpt>
      <trkpt lat="48.807944" lon="2.192649">
        <ele>118.749976</ele>
        <time>2023-07-19T11:38:24.993Z</time>
      </trkpt>
      <trkpt lat="48.807979" lon="2.193010">
        <ele>119.709489</ele>
        <time>2023-07-19T11:38:31.602Z</time>
      </trkpt>
      <trkpt lat="48.808447" lon="2.195633">
        <ele>123.601289</ele>
        <time>2023-07-19T11:39:02.502Z</time>
      </trkpt>
      <trkpt lat="48.808469" lon="2.195766">
        <ele>123.734789</ele>
        <time>2023-07-19T11:39:03.965Z</time>
      </trkpt>
      <trkpt lat="48.808496" lon="2.195916">
        <ele>123.886173</ele>
        <time>2023-07-19T11:39:05.743Z</time>
      </trkpt>
      <trkpt lat="48.808766" lon="2.197459">
        <ele>129.543779</ele>
        <time>2023-07-19T11:39:38.436Z</time>
      </trkpt>
      <trkpt lat="48.808980" lon="2.199453">
        <ele>140.003162</ele>
        <time>2023-07-19T11:40:47.256Z</time>
      </trkpt>
      <trkpt lat="48.808992" lon="2.199752">
        <ele>142.196684</ele>
        <time>2023-07-19T11:40:59.089Z</time>
      </trkpt>
      <trkpt lat="48.808965" lon="2.200207">
        <ele>145.541969</ele>
        <time>2023-07-19T11:41:17.788Z</time>
      </trkpt>
      <trkpt lat="48.808928" lon="2.200425">
        <ele>147.190459</ele>
        <time>2023-07-19T11:41:27.012Z</time>
      </trkpt>
      <trkpt lat="48.808637" lon="2.201547">
        <ele>156.020623</ele>
        <time>2023-07-19T11:42:16.945Z</time>
      </trkpt>
      <trkpt lat="48.808538" lon="2.202098">
        <ele>159.350873</ele>
        <time>2023-07-19T11:42:39.324Z</time>
      </trkpt>
      <trkpt lat="48.808523" lon="2.202755">
        <ele>162.891003</ele>
        <time>2023-07-19T11:43:02.888Z</time>
      </trkpt>
      <trkpt lat="48.808551" lon="2.203062">
        <ele>164.560004</ele>
        <time>2023-07-19T11:43:13.168Z</time>
      </trkpt>
      <trkpt lat="48.808642" lon="2.203536">
        <ele>167.218778</ele>
        <time>2023-07-19T11:43:28.281Z</time>
      </trkpt>
      <trkpt lat="48.808873" lon="2.204403">
        <ele>171.794064</ele>
        <time>2023-07-19T11:43:52.141Z</time>
      </trkpt>
      <trkpt lat="48.809140" lon="2.205448">
        <ele>172.903906</ele>
        <time>2023-07-19T11:44:11.014Z</time>
      </trkpt>
      <trkpt lat="48.809146" lon="2.205642">
        <ele>173.096206</ele>
        <time>2023-07-19T11:44:13.118Z</time>
      </trkpt>
      <trkpt lat="48.809126" lon="2.205748">
        <ele>173.205383</ele>
        <time>2023-07-19T11:44:14.311Z</time>
      </trkpt>
      <trkpt lat="48.809166" lon="2.205844">
        <ele>173.317864</ele>
        <time>2023-07-19T11:44:15.388Z</time>
      </trkpt>
      <trkpt lat="48.809224" lon="2.205867">
        <ele>173.407990</ele>
        <time>2023-07-19T11:44:16.235Z</time>
      </trkpt>
      <trkpt lat="48.809279" lon="2.206055">
        <ele>173.611677</ele>
        <time>2023-07-19T11:44:18.653Z</time>
      </trkpt>
      <trkpt lat="48.809899" lon="2.207379">
        <ele>173.849390</ele>
        <time>2023-07-19T11:44:32.320Z</time>
      </trkpt>
      <trkpt lat="48.810137" lon="2.207773">
        <ele>173.500063</ele>
        <time>2023-07-19T11:44:36.671Z</time>
      </trkpt>
      <trkpt lat="48.810274" lon="2.208070">
        <ele>173.263140</ele>
        <time>2023-07-19T11:44:39.634Z</time>
      </trkpt>
      <trkpt lat="48.810648" lon="2.208893">
        <ele>172.609757</ele>
        <time>2023-07-19T11:44:47.494Z</time>
      </trkpt>
      <trkpt lat="48.810755" lon="2.209140">
        <ele>172.229653</ele>
        <time>2023-07-19T11:44:49.707Z</time>
      </trkpt>
      <trkpt lat="48.811142" lon="2.210208">
        <ele>170.662439</ele>
        <time>2023-07-19T11:44:58.886Z</time>
      </trkpt>
      <trkpt lat="48.811374" lon="2.210830">
        <ele>169.743410</ele>
        <time>2023-07-19T11:45:03.835Z</time>
      </trkpt>
      <trkpt lat="48.811399" lon="2.210945">
        <ele>169.587714</ele>
        <time>2023-07-19T11:45:04.666Z</time>
      </trkpt>
      <trkpt lat="48.811399" lon="2.211215">
        <ele>169.240591</ele>
        <time>2023-07-19T11:45:06.541Z</time>
      </trkpt>
      <trkpt lat="48.811429" lon="2.211233">
        <ele>169.177617</ele>
        <time>2023-07-19T11:45:06.864Z</time>
      </trkpt>
      <trkpt lat="48.811480" lon="2.211258">
        <ele>169.072791</ele>
        <time>2023-07-19T11:45:07.417Z</time>
      </trkpt>
      <trkpt lat="48.811445" lon="2.211405">
        <ele>168.870235</ele>
        <time>2023-07-19T11:45:08.514Z</time>
      </trkpt>
      <trkpt lat="48.811379" lon="2.211490">
        <ele>168.699945</ele>
        <time>2023-07-19T11:45:09.466Z</time>
      </trkpt>
      <trkpt lat="48.811359" lon="2.211550">
        <ele>168.612802</ele>
        <time>2023-07-19T11:45:09.941Z</time>
      </trkpt>
      <trkpt lat="48.811373" lon="2.211749">
        <ele>168.353464</ele>
        <time>2023-07-19T11:45:11.336Z</time>
      </trkpt>
      <trkpt lat="48.811441" lon="2.211845">
        <ele>168.170763</ele>
        <time>2023-07-19T11:45:12.351Z</time>
      </trkpt>
      <trkpt lat="48.811469" lon="2.211861">
        <ele>168.111894</ele>
        <time>2023-07-19T11:45:12.684Z</time>
      </trkpt>
      <trkpt lat="48.811543" lon="2.212029">
        <ele>167.849985</ele>
        <time>2023-07-19T11:45:14.181Z</time>
      </trkpt>
      <trkpt lat="48.811640" lon="2.212360">
        <ele>167.380513</ele>
        <time>2023-07-19T11:45:16.843Z</time>
      </trkpt>
      <trkpt lat="48.811644" lon="2.212397">
        <ele>167.331926</ele>
        <time>2023-07-19T11:45:17.137Z</time>
      </trkpt>
      <trkpt lat="48.811675" lon="2.212667">
        <ele>166.976774</ele>
        <time>2023-07-19T11:45:19.143Z</time>
      </trkpt>
      <trkpt lat="48.811679" lon="2.212690">
        <ele>166.945949</ele>
        <time>2023-07-19T11:45:19.310Z</time>
      </trkpt>
      <trkpt lat="48.811838" lon="2.213734">
        <ele>165.556859</ele>
        <time>2023-07-19T11:45:27.312Z</time>
      </trkpt>
      <trkpt lat="48.811866" lon="2.213907">
        <ele>165.255902</ele>
        <time>2023-07-19T11:45:28.610Z</time>
      </trkpt>
      <trkpt lat="48.811908" lon="2.214095">
        <ele>164.920524</ele>
        <time>2023-07-19T11:45:30.080Z</time>
      </trkpt>
      <trkpt lat="48.812022" lon="2.214418">
        <ele>164.301434</ele>
        <time>2023-07-19T11:45:32.698Z</time>
      </trkpt>
      <trkpt lat="48.812045" lon="2.214574">
        <ele>164.031371</ele>
        <time>2023-07-19T11:45:33.866Z</time>
      </trkpt>
      <trkpt lat="48.812184" lon="2.214853">
        <ele>163.440354</ele>
        <time>2023-07-19T11:45:36.331Z</time>
      </trkpt>
      <trkpt lat="48.812244" lon="2.214974">
        <ele>163.184473</ele>
        <time>2023-07-19T11:45:37.421Z</time>
      </trkpt>
      <trkpt lat="48.812347" lon="2.215135">
        <ele>162.805273</ele>
        <time>2023-07-19T11:45:38.969Z</time>
      </trkpt>
      <trkpt lat="48.812497" lon="2.215303">
        <ele>162.327132</ele>
        <time>2023-07-19T11:45:40.924Z</time>
      </trkpt>
      <trkpt lat="48.812739" lon="2.215765">
        <ele>161.329864</ele>
        <time>2023-07-19T11:45:44.906Z</time>
      </trkpt>
      <trkpt lat="48.812772" lon="2.215822">
        <ele>161.201651</ele>
        <time>2023-07-19T11:45:45.403Z</time>
      </trkpt>
      <trkpt lat="48.812888" lon="2.216011">
        <ele>160.565272</ele>
        <time>2023-07-19T11:45:47.102Z</time>
      </trkpt>
      <trkpt lat="48.813273" lon="2.216839">
        <ele>156.949710</ele>
        <time>2023-07-19T11:45:53.595Z</time>
      </trkpt>
      <trkpt lat="48.813886" lon="2.218087">
        <ele>151.396118</ele>
        <time>2023-07-19T11:46:02.984Z</time>
      </trkpt>
      <trkpt lat="48.814054" lon="2.218442">
        <ele>149.420828</ele>
        <time>2023-07-19T11:46:05.524Z</time>
      </trkpt>
      <trkpt lat="48.814228" lon="2.218831">
        <ele>147.232492</ele>
        <time>2023-07-19T11:46:08.247Z</time>
      </trkpt>
      <trkpt lat="48.814264" lon="2.218913">
        <ele>146.773876</ele>
        <time>2023-07-19T11:46:08.819Z</time>
      </trkpt>
      <trkpt lat="48.814526" lon="2.219456">
        <ele>143.641320</ele>
        <time>2023-07-19T11:46:12.739Z</time>
      </trkpt>
      <trkpt lat="48.814695" lon="2.219723">
        <ele>141.917938</ele>
        <time>2023-07-19T11:46:14.919Z</time>
      </trkpt>
      <trkpt lat="48.814993" lon="2.220148">
        <ele>139.028973</ele>
        <time>2023-07-19T11:46:18.642Z</time>
      </trkpt>
      <trkpt lat="48.815068" lon="2.220301">
        <ele>138.266984</ele>
        <time>2023-07-19T11:46:19.804Z</time>
      </trkpt>
      <trkpt lat="48.815107" lon="2.220446">
        <ele>137.799479</ele>
        <time>2023-07-19T11:46:20.759Z</time>
      </trkpt>
      <trkpt lat="48.815161" lon="2.220700">
        <ele>137.002811</ele>
        <time>2023-07-19T11:46:22.431Z</time>
      </trkpt>
      <trkpt lat="48.815202" lon="2.221004">
        <ele>136.076602</ele>
        <time>2023-07-19T11:46:24.339Z</time>
      </trkpt>
      <trkpt lat="48.815227" lon="2.221575">
        <ele>134.368531</ele>
        <time>2023-07-19T11:46:27.966Z</time>
      </trkpt>
      <trkpt lat="48.815223" lon="2.221657">
        <ele>134.123109</ele>
        <time>2023-07-19T11:46:28.513Z</time>
      </trkpt>
      <trkpt lat="48.815210" lon="2.221935">
        <ele>133.291251</ele>
        <time>2023-07-19T11:46:30.280Z</time>
      </trkpt>
      <trkpt lat="48.815176" lon="2.222787">
        <ele>130.743554</ele>
        <time>2023-07-19T11:46:35.805Z</time>
      </trkpt>
      <trkpt lat="48.815221" lon="2.223446">
        <ele>128.668533</ele>
        <time>2023-07-19T11:46:40.174Z</time>
      </trkpt>
      <trkpt lat="48.815264" lon="2.223711">
        <ele>127.803404</ele>
        <time>2023-07-19T11:46:41.918Z</time>
      </trkpt>
      <trkpt lat="48.815334" lon="2.223941">
        <ele>127.000243</ele>
        <time>2023-07-19T11:46:43.565Z</time>
      </trkpt>
      <trkpt lat="48.815585" lon="2.224573">
        <ele>124.660765</ele>
        <time>2023-07-19T11:46:48.120Z</time>
      </trkpt>
      <trkpt lat="48.815664" lon="2.224793">
        <ele>123.866460</ele>
        <time>2023-07-19T11:46:49.678Z</time>
      </trkpt>
      <trkpt lat="48.815718" lon="2.224885">
        <ele>123.475802</ele>
        <time>2023-07-19T11:46:50.422Z</time>
      </trkpt>
      <trkpt lat="48.815767" lon="2.224905">
        <ele>123.231557</ele>
        <time>2023-07-19T11:46:50.883Z</time>
      </trkpt>
      <trkpt lat="48.815967" lon="2.225375">
        <ele>121.464204</ele>
        <time>2023-07-19T11:46:54.250Z</time>
      </trkpt>
      <trkpt lat="48.816056" lon="2.225584">
        <ele>120.698105</ele>
        <time>2023-07-19T11:46:55.762Z</time>
      </trkpt>
      <trkpt lat="48.816306" lon="2.226173">
        <ele>118.541180</ele>
        <time>2023-07-19T11:47:00.075Z</time>
      </trkpt>
      <trkpt lat="48.816570" lon="2.226946">
        <ele>115.860929</ele>
        <time>2023-07-19T11:47:05.699Z</time>
      </trkpt>
      <trkpt lat="48.816627" lon="2.227112">
        <ele>115.284692</ele>
        <time>2023-07-19T11:47:06.909Z</time>
      </trkpt>
      <trkpt lat="48.816660" lon="2.227203">
        <ele>114.964931</ele>
        <time>2023-07-19T11:47:07.590Z</time>
      </trkpt>
      <trkpt lat="48.816759" lon="2.227456">
        <ele>114.059086</ele>
        <time>2023-07-19T11:47:09.469Z</time>
      </trkpt>
      <trkpt lat="48.816805" lon="2.227565">
        <ele>113.660600</ele>
        <time>2023-07-19T11:47:10.303Z</time>
      </trkpt>
      <trkpt lat="48.816856" lon="2.227684">
        <ele>113.214975</ele>
        <time>2023-07-19T11:47:11.219Z</time>
      </trkpt>
      <trkpt lat="48.816985" lon="2.227990">
        <ele>111.902055</ele>
        <time>2023-07-19T11:47:13.510Z</time>
      </trkpt>
      <trkpt lat="48.817251" lon="2.228634">
        <ele>109.155053</ele>
        <time>2023-07-19T11:47:18.246Z</time>
      </trkpt>
      <trkpt lat="48.817384" lon="2.229014">
        <ele>107.600022</ele>
        <time>2023-07-19T11:47:20.874Z</time>
      </trkpt>
      <trkpt lat="48.817495" lon="2.229476">
        <ele>105.822958</ele>
        <time>2023-07-19T11:47:23.848Z</time>
      </trkpt>
      <trkpt lat="48.817511" lon="2.229586">
        <ele>105.415899</ele>
        <time>2023-07-19T11:47:24.524Z</time>
      </trkpt>
      <trkpt lat="48.817572" lon="2.229761">
        <ele>104.700412</ele>
        <time>2023-07-19T11:47:25.714Z</time>
      </trkpt>
      <trkpt lat="48.817740" lon="2.230046">
        <ele>103.301599</ele>
        <time>2023-07-19T11:47:28.001Z</time>
      </trkpt>
      <trkpt lat="48.817755" lon="2.230100">
        <ele>103.048160</ele>
        <time>2023-07-19T11:47:28.352Z</time>
      </trkpt>
      <trkpt lat="48.817827" lon="2.230168">
        <ele>102.491341</ele>
        <time>2023-07-19T11:47:29.111Z</time>
      </trkpt>
      <trkpt lat="48.817870" lon="2.230162">
        <ele>102.207758</ele>
        <time>2023-07-19T11:47:29.501Z</time>
      </trkpt>
      <trkpt lat="48.817908" lon="2.230131">
        <ele>101.924476</ele>
        <time>2023-07-19T11:47:29.893Z</time>
      </trkpt>
      <trkpt lat="48.818218" lon="2.230662">
        <ele>98.855740</ele>
        <time>2023-07-19T11:47:34.082Z</time>
      </trkpt>
      <trkpt lat="48.818257" lon="2.230732">
        <ele>98.459225</ele>
        <time>2023-07-19T11:47:34.626Z</time>
      </trkpt>
      <trkpt lat="48.818378" lon="2.230947">
        <ele>97.236190</ele>
        <time>2023-07-19T11:47:36.294Z</time>
      </trkpt>
      <trkpt lat="48.818533" lon="2.231229">
        <ele>95.647737</ele>
        <time>2023-07-19T11:47:38.465Z</time>
      </trkpt>
      <trkpt lat="48.818559" lon="2.231278">
        <ele>95.375614</ele>
        <time>2023-07-19T11:47:38.843Z</time>
      </trkpt>
      <trkpt lat="48.818593" lon="2.231341">
        <ele>95.023374</ele>
        <time>2023-07-19T11:47:39.326Z</time>
      </trkpt>
      <trkpt lat="48.818831" lon="2.231823">
        <ele>92.418158</ele>
        <time>2023-07-19T11:47:42.943Z</time>
      </trkpt>
      <trkpt lat="48.818896" lon="2.232047">
        <ele>91.385929</ele>
        <time>2023-07-19T11:47:44.442Z</time>
      </trkpt>
      <trkpt lat="48.818940" lon="2.232319">
        <ele>90.312703</ele>
        <time>2023-07-19T11:47:46.165Z</time>
      </trkpt>
      <trkpt lat="48.818946" lon="2.232369">
        <ele>90.117961</ele>
        <time>2023-07-19T11:47:46.481Z</time>
      </trkpt>
      <trkpt lat="48.818989" lon="2.232721">
        <ele>88.746173</ele>
        <time>2023-07-19T11:47:48.673Z</time>
      </trkpt>
      <trkpt lat="48.819037" lon="2.233380">
        <ele>86.205658</ele>
        <time>2023-07-19T11:47:52.697Z</time>
      </trkpt>
      <trkpt lat="48.819012" lon="2.233807">
        <ele>84.563053</ele>
        <time>2023-07-19T11:47:55.284Z</time>
      </trkpt>
      <trkpt lat="48.818859" lon="2.234418">
        <ele>82.058269</ele>
        <time>2023-07-19T11:47:59.227Z</time>
      </trkpt>
      <trkpt lat="48.818825" lon="2.234682">
        <ele>81.035628</ele>
        <time>2023-07-19T11:48:00.868Z</time>
      </trkpt>
      <trkpt lat="48.818896" lon="2.235693">
        <ele>77.469356</ele>
        <time>2023-07-19T11:48:07.092Z</time>
      </trkpt>
      <trkpt lat="48.818906" lon="2.236468">
        <ele>74.750466</ele>
        <time>2023-07-19T11:48:11.904Z</time>
      </trkpt>
      <trkpt lat="48.818907" lon="2.236619">
        <ele>74.220796</ele>
        <time>2023-07-19T11:48:12.829Z</time>
      </trkpt>
      <trkpt lat="48.818893" lon="2.236952">
        <ele>73.050395</ele>
        <time>2023-07-19T11:48:14.867Z</time>
      </trkpt>
      <trkpt lat="48.818810" lon="2.237880">
        <ele>69.815690</ele>
        <time>2023-07-19T11:48:20.619Z</time>
      </trkpt>
      <trkpt lat="48.818809" lon="2.238555">
        <ele>67.515000</ele>
        <time>2023-07-19T11:48:24.985Z</time>
      </trkpt>
      <trkpt lat="48.818790" lon="2.239374">
        <ele>64.721771</ele>
        <time>2023-07-19T11:48:30.230Z</time>
      </trkpt>
      <trkpt lat="48.818774" lon="2.239805">
        <ele>63.250408</ele>
        <time>2023-07-19T11:48:32.853Z</time>
      </trkpt>
      <trkpt lat="48.818771" lon="2.239892">
        <ele>62.953469</ele>
        <time>2023-07-19T11:48:33.380Z</time>
      </trkpt>
      <trkpt lat="48.818751" lon="2.240627">
        <ele>59.243587</ele>
        <time>2023-07-19T11:48:37.706Z</time>
      </trkpt>
      <trkpt lat="48.818798" lon="2.241114">
        <ele>56.435751</ele>
        <time>2023-07-19T11:48:40.529Z</time>
      </trkpt>
      <trkpt lat="48.818995" lon="2.242551">
        <ele>48.062429</ele>
        <time>2023-07-19T11:48:48.874Z</time>
      </trkpt>
      <trkpt lat="48.819001" lon="2.242661">
        <ele>47.432774</ele>
        <time>2023-07-19T11:48:49.776Z</time>
      </trkpt>
      <trkpt lat="48.818999" lon="2.242687">
        <ele>47.283445</ele>
        <time>2023-07-19T11:48:49.990Z</time>
      </trkpt>
      <trkpt lat="48.819099" lon="2.242702">
        <ele>46.477694</ele>
        <time>2023-07-19T11:48:50.864Z</time>
      </trkpt>
      <trkpt lat="48.819170" lon="2.242712">
        <ele>46.030230</ele>
        <time>2023-07-19T11:48:51.481Z</time>
      </trkpt>
      <trkpt lat="48.819755" lon="2.242819">
        <ele>42.332604</ele>
        <time>2023-07-19T11:48:56.672Z</time>
      </trkpt>
      <trkpt lat="48.819788" lon="2.242832">
        <ele>42.118663</ele>
        <time>2023-07-19T11:48:56.981Z</time>
      </trkpt>
      <trkpt lat="48.819891" lon="2.242915">
        <ele>41.386953</ele>
        <time>2023-07-19T11:48:58.028Z</time>
      </trkpt>
      <trkpt lat="48.819917" lon="2.242994">
        <ele>41.022027</ele>
        <time>2023-07-19T11:48:58.560Z</time>
      </trkpt>
      <trkpt lat="48.819988" lon="2.243069">
        <ele>40.479303</ele>
        <time>2023-07-19T11:48:59.342Z</time>
      </trkpt>
      <trkpt lat="48.820011" lon="2.243189">
        <ele>39.962896</ele>
        <time>2023-07-19T11:49:00.093Z</time>
      </trkpt>
      <trkpt lat="48.820087" lon="2.243714">
        <ele>37.741851</ele>
        <time>2023-07-19T11:49:03.403Z</time>
      </trkpt>
      <trkpt lat="48.820178" lon="2.244542">
        <ele>35.119004</ele>
        <time>2023-07-19T11:49:08.893Z</time>
      </trkpt>
      <trkpt lat="48.820281" lon="2.245234">
        <ele>34.467022</ele>
        <time>2023-07-19T11:49:14.120Z</time>
      </trkpt>
      <trkpt lat="48.820483" lon="2.246219">
        <ele>33.518938</ele>
        <time>2023-07-19T11:49:22.937Z</time>
      </trkpt>
      <trkpt lat="48.820592" lon="2.246798">
        <ele>32.965529</ele>
        <time>2023-07-19T11:49:28.129Z</time>
      </trkpt>
      <trkpt lat="48.820635" lon="2.246957">
        <ele>32.865048</ele>
        <time>2023-07-19T11:49:29.579Z</time>
      </trkpt>
      <trkpt lat="48.820671" lon="2.247085">
        <ele>32.908496</ele>
        <time>2023-07-19T11:49:30.758Z</time>
      </trkpt>
      <trkpt lat="48.820828" lon="2.247523">
        <ele>33.064163</ele>
        <time>2023-07-19T11:49:35.289Z</time>
      </trkpt>
      <trkpt lat="48.821099" lon="2.248538">
        <ele>33.406049</ele>
        <time>2023-07-19T11:49:47.685Z</time>
      </trkpt>
      <trkpt lat="48.821359" lon="2.249931">
        <ele>33.760049</ele>
        <time>2023-07-19T11:50:06.256Z</time>
      </trkpt>
      <trkpt lat="48.821402" lon="2.250288">
        <ele>33.801658</ele>
        <time>2023-07-19T11:50:10.650Z</time>
      </trkpt>
      <trkpt lat="48.821544" lon="2.250498">
        <ele>33.836171</ele>
        <time>2023-07-19T11:50:14.260Z</time>
      </trkpt>
      <trkpt lat="48.821682" lon="2.250466">
        <ele>33.860479</ele>
        <time>2023-07-19T11:50:16.071Z</time>
      </trkpt>
      <trkpt lat="48.821762" lon="2.250573">
        <ele>33.879041</ele>
        <time>2023-07-19T11:50:17.655Z</time>
      </trkpt>
      <trkpt lat="48.821817" lon="2.250646">
        <ele>33.891760</ele>
        <time>2023-07-19T11:50:18.871Z</time>
      </trkpt>
      <trkpt lat="48.822190" lon="2.251737">
        <ele>33.916714</ele>
        <time>2023-07-19T11:50:29.756Z</time>
      </trkpt>
      <trkpt lat="48.822301" lon="2.252074">
        <ele>33.652740</ele>
        <time>2023-07-19T11:50:32.890Z</time>
      </trkpt>
      <trkpt lat="48.822340" lon="2.252196">
        <ele>33.557734</ele>
        <time>2023-07-19T11:50:33.936Z</time>
      </trkpt>
      <trkpt lat="48.822465" lon="2.252480">
        <ele>33.318422</ele>
        <time>2023-07-19T11:50:36.463Z</time>
      </trkpt>
      <trkpt lat="48.822980" lon="2.254047">
        <ele>32.108646</ele>
        <time>2023-07-19T11:50:49.935Z</time>
      </trkpt>
      <trkpt lat="48.823191" lon="2.254613">
        <ele>32.355244</ele>
        <time>2023-07-19T11:50:55.578Z</time>
      </trkpt>
      <trkpt lat="48.823347" lon="2.255032">
        <ele>32.537739</ele>
        <time>2023-07-19T11:51:01.351Z</time>
      </trkpt>
      <trkpt lat="48.823466" lon="2.255304">
        <ele>32.661553</ele>
        <time>2023-07-19T11:51:05.994Z</time>
      </trkpt>
      <trkpt lat="48.823764" lon="2.255858">
        <ele>32.932776</ele>
        <time>2023-07-19T11:51:15.667Z</time>
      </trkpt>
      <trkpt lat="48.823785" lon="2.255895">
        <ele>32.951297</ele>
        <time>2023-07-19T11:51:16.184Z</time>
      </trkpt>
      <trkpt lat="48.824052" lon="2.256390">
        <ele>33.183613</ele>
        <time>2023-07-19T11:51:23.445Z</time>
      </trkpt>
      <trkpt lat="48.824078" lon="2.256433">
        <ele>33.201646</ele>
        <time>2023-07-19T11:51:24.118Z</time>
      </trkpt>
      <trkpt lat="48.824245" lon="2.256692">
        <ele>33.313618</ele>
        <time>2023-07-19T11:51:28.963Z</time>
      </trkpt>
      <trkpt lat="48.824497" lon="2.257082">
        <ele>33.482400</ele>
        <time>2023-07-19T11:51:35.953Z</time>
      </trkpt>
      <trkpt lat="48.824956" lon="2.257719">
        <ele>33.774084</ele>
        <time>2023-07-19T11:51:46.975Z</time>
      </trkpt>
      <trkpt lat="48.825045" lon="2.257824">
        <ele>33.826953</ele>
        <time>2023-07-19T11:51:48.906Z</time>
      </trkpt>
      <trkpt lat="48.825065" lon="2.257850">
        <ele>33.839303</ele>
        <time>2023-07-19T11:51:49.231Z</time>
      </trkpt>
      <trkpt lat="48.825109" lon="2.257900">
        <ele>33.865083</ele>
        <time>2023-07-19T11:51:49.931Z</time>
      </trkpt>
      <trkpt lat="48.825276" lon="2.258103">
        <ele>33.965429</ele>
        <time>2023-07-19T11:51:52.892Z</time>
      </trkpt>
      <trkpt lat="48.825370" lon="2.258218">
        <ele>33.934400</ele>
        <time>2023-07-19T11:51:54.388Z</time>
      </trkpt>
      <trkpt lat="48.825505" lon="2.258405">
        <ele>33.831618</ele>
        <time>2023-07-19T11:51:56.584Z</time>
      </trkpt>
      <trkpt lat="48.825795" lon="2.258759">
        <ele>33.622323</ele>
        <time>2023-07-19T11:52:00.749Z</time>
      </trkpt>
      <trkpt lat="48.826281" lon="2.259370">
        <ele>33.267421</ele>
        <time>2023-07-19T11:52:08.698Z</time>
      </trkpt>
      <trkpt lat="48.826453" lon="2.259587">
        <ele>33.141638</ele>
        <time>2023-07-19T11:52:12.106Z</time>
      </trkpt>
      <trkpt lat="48.826673" lon="2.259853">
        <ele>32.983454</ele>
        <time>2023-07-19T11:52:16.486Z</time>
      </trkpt>
      <trkpt lat="48.826721" lon="2.259921">
        <ele>32.989696</ele>
        <time>2023-07-19T11:52:17.423Z</time>
      </trkpt>
      <trkpt lat="48.826970" lon="2.260196">
        <ele>33.130263</ele>
        <time>2023-07-19T11:52:22.200Z</time>
      </trkpt>
      <trkpt lat="48.827282" lon="2.260413">
        <ele>33.286943</ele>
        <time>2023-07-19T11:52:27.832Z</time>
      </trkpt>
      <trkpt lat="48.827452" lon="2.260489">
        <ele>33.367855</ele>
        <time>2023-07-19T11:52:30.962Z</time>
      </trkpt>
      <trkpt lat="48.827821" lon="2.260600">
        <ele>33.539610</ele>
        <time>2023-07-19T11:52:37.830Z</time>
      </trkpt>
      <trkpt lat="48.827903" lon="2.260652">
        <ele>33.580182</ele>
        <time>2023-07-19T11:52:39.543Z</time>
      </trkpt>
      <trkpt lat="48.828547" lon="2.260768">
        <ele>33.731005</ele>
        <time>2023-07-19T11:52:50.797Z</time>
      </trkpt>
      <trkpt lat="48.828552" lon="2.260769">
        <ele>33.729357</ele>
        <time>2023-07-19T11:52:50.874Z</time>
      </trkpt>
      <trkpt lat="48.829024" lon="2.260920">
        <ele>33.571753</ele>
        <time>2023-07-19T11:52:57.617Z</time>
      </trkpt>
      <trkpt lat="48.829474" lon="2.261064">
        <ele>33.421493</ele>
        <time>2023-07-19T11:53:03.470Z</time>
      </trkpt>
      <trkpt lat="48.829539" lon="2.261084">
        <ele>33.399823</ele>
        <time>2023-07-19T11:53:04.300Z</time>
      </trkpt>
      <trkpt lat="48.829629" lon="2.261118">
        <ele>33.369521</ele>
        <time>2023-07-19T11:53:05.458Z</time>
      </trkpt>
      <trkpt lat="48.829761" lon="2.261172">
        <ele>33.324855</ele>
        <time>2023-07-19T11:53:07.196Z</time>
      </trkpt>
      <trkpt lat="48.829866" lon="2.261209">
        <ele>33.289636</ele>
        <time>2023-07-19T11:53:08.606Z</time>
      </trkpt>
      <trkpt lat="48.829930" lon="2.261231">
        <ele>33.268196</ele>
        <time>2023-07-19T11:53:09.494Z</time>
      </trkpt>
      <trkpt lat="48.830073" lon="2.261281">
        <ele>33.220250</ele>
        <time>2023-07-19T11:53:11.369Z</time>
      </trkpt>
      <trkpt lat="48.830373" lon="2.261401">
        <ele>33.195867</ele>
        <time>2023-07-19T11:53:15.489Z</time>
      </trkpt>
      <trkpt lat="48.830408" lon="2.261415">
        <ele>33.194748</ele>
        <time>2023-07-19T11:53:15.947Z</time>
      </trkpt>
      <trkpt lat="48.830879" lon="2.261753">
        <ele>33.178637</ele>
        <time>2023-07-19T11:53:23.087Z</time>
      </trkpt>
      <trkpt lat="48.831297" lon="2.262127">
        <ele>33.163633</ele>
        <time>2023-07-19T11:53:30.271Z</time>
      </trkpt>
      <trkpt lat="48.831376" lon="2.262203">
        <ele>33.160741</ele>
        <time>2023-07-19T11:53:31.664Z</time>
      </trkpt>
      <trkpt lat="48.831517" lon="2.262260">
        <ele>33.156229</ele>
        <time>2023-07-19T11:53:34.024Z</time>
      </trkpt>
      <trkpt lat="48.832135" lon="2.262884">
        <ele>33.377532</ele>
        <time>2023-07-19T11:53:47.345Z</time>
      </trkpt>
      <trkpt lat="48.834332" lon="2.265101">
        <ele>33.844707</ele>
        <time>2023-07-19T11:54:30.626Z</time>
      </trkpt>
      <trkpt lat="48.834473" lon="2.265423">
        <ele>33.815246</ele>
        <time>2023-07-19T11:54:33.921Z</time>
      </trkpt>
      <trkpt lat="48.834583" lon="2.265599">
        <ele>33.796758</ele>
        <time>2023-07-19T11:54:35.775Z</time>
      </trkpt>
      <trkpt lat="48.834631" lon="2.265683">
        <ele>33.770904</ele>
        <time>2023-07-19T11:54:36.637Z</time>
      </trkpt>
      <trkpt lat="48.834690" lon="2.265777">
        <ele>33.647202</ele>
        <time>2023-07-19T11:54:37.658Z</time>
      </trkpt>
      <trkpt lat="48.835108" lon="2.266296">
        <ele>32.866107</ele>
        <time>2023-07-19T11:54:43.620Z</time>
      </trkpt>
      <trkpt lat="48.835177" lon="2.266383">
        <ele>32.736367</ele>
        <time>2023-07-19T11:54:44.579Z</time>
      </trkpt>
      <trkpt lat="48.835207" lon="2.266447">
        <ele>32.661538</ele>
        <time>2023-07-19T11:54:45.143Z</time>
      </trkpt>
      <trkpt lat="48.835329" lon="2.266700">
        <ele>32.362844</ele>
        <time>2023-07-19T11:54:47.328Z</time>
      </trkpt>
      <trkpt lat="48.835352" lon="2.266757">
        <ele>32.299170</ele>
        <time>2023-07-19T11:54:47.836Z</time>
      </trkpt>
      <trkpt lat="48.835400" lon="2.266910">
        <ele>32.137751</ele>
        <time>2023-07-19T11:54:49.115Z</time>
      </trkpt>
      <trkpt lat="48.835490" lon="2.266995">
        <ele>31.984419</ele>
        <time>2023-07-19T11:54:50.320Z</time>
      </trkpt>
      <trkpt lat="48.835532" lon="2.267029">
        <ele>31.915561</ele>
        <time>2023-07-19T11:54:50.821Z</time>
      </trkpt>
      <trkpt lat="48.835757" lon="2.267211">
        <ele>31.546742</ele>
        <time>2023-07-19T11:54:53.774Z</time>
      </trkpt>
      <trkpt lat="48.836479" lon="2.267863">
        <ele>31.570614</ele>
        <time>2023-07-19T11:55:04.887Z</time>
      </trkpt>
      <trkpt lat="48.836867" lon="2.268293">
        <ele>31.881786</ele>
        <time>2023-07-19T11:55:13.358Z</time>
      </trkpt>
      <trkpt lat="48.837216" lon="2.268615">
        <ele>32.146343</ele>
        <time>2023-07-19T11:55:21.607Z</time>
      </trkpt>
      <trkpt lat="48.837937" lon="2.269135">
        <ele>32.912127</ele>
        <time>2023-07-19T11:55:40.471Z</time>
      </trkpt>
      <trkpt lat="48.838493" lon="2.269660">
        <ele>33.675715</ele>
        <time>2023-07-19T11:55:52.729Z</time>
      </trkpt>
      <trkpt lat="48.838543" lon="2.269706">
        <ele>33.743896</ele>
        <time>2023-07-19T11:55:53.796Z</time>
      </trkpt>
      <trkpt lat="48.838604" lon="2.269766">
        <ele>33.828659</ele>
        <time>2023-07-19T11:55:55.309Z</time>
      </trkpt>
      <trkpt lat="48.838551" lon="2.269880">
        <ele>33.935812</ele>
        <time>2023-07-19T11:55:56.963Z</time>
      </trkpt>
      <trkpt lat="48.838478" lon="2.270036">
        <ele>34.082763</ele>
        <time>2023-07-19T11:55:58.781Z</time>
      </trkpt>
      <trkpt lat="48.838430" lon="2.270142">
        <ele>34.181543</ele>
        <time>2023-07-19T11:56:00.345Z</time>
      </trkpt>
      <trkpt lat="48.838399" lon="2.270211">
        <ele>34.245682</ele>
        <time>2023-07-19T11:56:01.497Z</time>
      </trkpt>
      <trkpt lat="48.838313" lon="2.270402">
        <ele>34.423349</ele>
        <time>2023-07-19T11:56:04.122Z</time>
      </trkpt>
      <trkpt lat="48.838231" lon="2.270581">
        <ele>34.507051</ele>
        <time>2023-07-19T11:56:06.422Z</time>
      </trkpt>
      <trkpt lat="48.838185" lon="2.270650">
        <ele>34.537366</ele>
        <time>2023-07-19T11:56:07.749Z</time>
      </trkpt>
      <trkpt lat="48.838130" lon="2.270769">
        <ele>34.582249</ele>
        <time>2023-07-19T11:56:09.444Z</time>
      </trkpt>
      <trkpt lat="48.837835" lon="2.271524">
        <ele>34.853266</ele>
        <time>2023-07-19T11:56:18.853Z</time>
      </trkpt>
      <trkpt lat="48.837773" lon="2.271631">
        <ele>34.897269</ele>
        <time>2023-07-19T11:56:20.568Z</time>
      </trkpt>
      <trkpt lat="48.837478" lon="2.272459">
        <ele>35.187892</ele>
        <time>2023-07-19T11:56:29.861Z</time>
      </trkpt>
      <trkpt lat="48.837213" lon="2.273283">
        <ele>35.433350</ele>
        <time>2023-07-19T11:56:40.775Z</time>
      </trkpt>
      <trkpt lat="48.836965" lon="2.274072">
        <ele>35.645774</ele>
        <time>2023-07-19T11:56:51.219Z</time>
      </trkpt>
      <trkpt lat="48.836930" lon="2.274181">
        <ele>35.675239</ele>
        <time>2023-07-19T11:56:52.550Z</time>
      </trkpt>
      <trkpt lat="48.836893" lon="2.274292">
        <ele>35.705467</ele>
        <time>2023-07-19T11:56:53.888Z</time>
      </trkpt>
      <trkpt lat="48.836840" lon="2.274528">
        <ele>35.766050</ele>
        <time>2023-07-19T11:56:56.539Z</time>
      </trkpt>
      <trkpt lat="48.836107" lon="2.277756">
        <ele>35.577685</ele>
        <time>2023-07-19T11:57:28.003Z</time>
      </trkpt>
      <trkpt lat="48.836116" lon="2.277807">
        <ele>35.570029</ele>
        <time>2023-07-19T11:57:28.521Z</time>
      </trkpt>
      <trkpt lat="48.836033" lon="2.278115">
        <ele>35.569655</ele>
        <time>2023-07-19T11:57:31.609Z</time>
      </trkpt>
      <trkpt lat="48.835994" lon="2.278280">
        <ele>35.574545</ele>
        <time>2023-07-19T11:57:33.171Z</time>
      </trkpt>
      <trkpt lat="48.835957" lon="2.278439">
        <ele>35.579250</ele>
        <time>2023-07-19T11:57:34.755Z</time>
      </trkpt>
      <trkpt lat="48.835837" lon="2.278956">
        <ele>35.594543</ele>
        <time>2023-07-19T11:57:39.651Z</time>
      </trkpt>
      <trkpt lat="48.835729" lon="2.279419">
        <ele>35.608246</ele>
        <time>2023-07-19T11:57:44.238Z</time>
      </trkpt>
      <trkpt lat="48.835692" lon="2.279561">
        <ele>35.612506</ele>
        <time>2023-07-19T11:57:45.788Z</time>
      </trkpt>
      <trkpt lat="48.835482" lon="2.280284">
        <ele>35.634552</ele>
        <time>2023-07-19T11:57:54.379Z</time>
      </trkpt>
      <trkpt lat="48.835342" lon="2.280765">
        <ele>35.863310</ele>
        <time>2023-07-19T11:58:00.470Z</time>
      </trkpt>
      <trkpt lat="48.835277" lon="2.280995">
        <ele>36.005391</ele>
        <time>2023-07-19T11:58:03.452Z</time>
      </trkpt>
      <trkpt lat="48.835226" lon="2.281160">
        <ele>36.108864</ele>
        <time>2023-07-19T11:58:05.468Z</time>
      </trkpt>
      <trkpt lat="48.835006" lon="2.281872">
        <ele>36.555338</ele>
        <time>2023-07-19T11:58:14.852Z</time>
      </trkpt>
      <trkpt lat="48.834725" lon="2.282780">
        <ele>37.124880</ele>
        <time>2023-07-19T11:58:26.942Z</time>
      </trkpt>
      <trkpt lat="48.834361" lon="2.283766">
        <ele>38.194447</ele>
        <time>2023-07-19T11:58:42.560Z</time>
      </trkpt>
      <trkpt lat="48.834329" lon="2.283740">
        <ele>38.248934</ele>
        <time>2023-07-19T11:58:44.286Z</time>
      </trkpt>
      <trkpt lat="48.834313" lon="2.283774">
        <ele>38.290241</ele>
        <time>2023-07-19T11:58:44.921Z</time>
      </trkpt>
      <trkpt lat="48.834240" lon="2.283892">
        <ele>38.450286</ele>
        <time>2023-07-19T11:58:47.313Z</time>
      </trkpt>
      <trkpt lat="48.834175" lon="2.284121">
        <ele>38.696757</ele>
        <time>2023-07-19T11:58:51.035Z</time>
      </trkpt>
      <trkpt lat="48.833722" lon="2.285386">
        <ele>40.187603</ele>
        <time>2023-07-19T11:59:10.618Z</time>
      </trkpt>
      <trkpt lat="48.833409" lon="2.286229">
        <ele>41.424987</ele>
        <time>2023-07-19T11:59:22.701Z</time>
      </trkpt>
      <trkpt lat="48.833356" lon="2.286362">
        <ele>41.623756</ele>
        <time>2023-07-19T11:59:24.499Z</time>
      </trkpt>
      <trkpt lat="48.833269" lon="2.286561">
        <ele>41.929176</ele>
        <time>2023-07-19T11:59:27.898Z</time>
      </trkpt>
      <trkpt lat="48.833030" lon="2.287076">
        <ele>42.734777</ele>
        <time>2023-07-19T11:59:37.758Z</time>
      </trkpt>
      <trkpt lat="48.832907" lon="2.287182">
        <ele>43.009434</ele>
        <time>2023-07-19T11:59:41.350Z</time>
      </trkpt>
      <trkpt lat="48.832643" lon="2.287360">
        <ele>43.821865</ele>
        <time>2023-07-19T11:59:49.955Z</time>
      </trkpt>
      <trkpt lat="48.832483" lon="2.287464">
        <ele>44.613966</ele>
        <time>2023-07-19T11:59:55.017Z</time>
      </trkpt>
      <trkpt lat="48.832344" lon="2.287550">
        <ele>45.297083</ele>
        <time>2023-07-19T11:59:59.637Z</time>
      </trkpt>
      <trkpt lat="48.832297" lon="2.287530">
        <ele>45.519237</ele>
        <time>2023-07-19T12:00:00.973Z</time>
      </trkpt>
      <trkpt lat="48.832274" lon="2.287590">
        <ele>45.727263</ele>
        <time>2023-07-19T12:00:02.325Z</time>
      </trkpt>
      <trkpt lat="48.832224" lon="2.287734">
        <ele>46.215043</ele>
        <time>2023-07-19T12:00:05.458Z</time>
      </trkpt>
      <trkpt lat="48.832229" lon="2.288056">
        <ele>47.180056</ele>
        <time>2023-07-19T12:00:12.002Z</time>
      </trkpt>
      <trkpt lat="48.832239" lon="2.288408">
        <ele>48.235665</ele>
        <time>2023-07-19T12:00:19.844Z</time>
      </trkpt>
      <trkpt lat="48.832238" lon="2.288830">
        <ele>49.500027</ele>
        <time>2023-07-19T12:00:29.842Z</time>
      </trkpt>
      <trkpt lat="48.832152" lon="2.289188">
        <ele>50.641823</ele>
        <time>2023-07-19T12:00:39.503Z</time>
      </trkpt>
      <trkpt lat="48.830982" lon="2.291894">
        <ele>62.018356</ele>
        <time>2023-07-19T12:02:00.165Z</time>
      </trkpt>
      <trkpt lat="48.830912" lon="2.292032">
        <ele>62.425403</ele>
        <time>2023-07-19T12:02:03.794Z</time>
      </trkpt>
      <trkpt lat="48.830851" lon="2.292148">
        <ele>62.772290</ele>
        <time>2023-07-19T12:02:06.869Z</time>
      </trkpt>
      <trkpt lat="48.830833" lon="2.292153">
        <ele>62.837237</ele>
        <time>2023-07-19T12:02:07.413Z</time>
      </trkpt>
      <trkpt lat="48.830807" lon="2.292220">
        <ele>63.018954</ele>
        <time>2023-07-19T12:02:08.860Z</time>
      </trkpt>
      <trkpt lat="48.830742" lon="2.292388">
        <ele>63.474254</ele>
        <time>2023-07-19T12:02:12.497Z</time>
      </trkpt>
      <trkpt lat="48.830717" lon="2.292453">
        <ele>63.650145</ele>
        <time>2023-07-19T12:02:14.060Z</time>
      </trkpt>
      <trkpt lat="48.830724" lon="2.292536">
        <ele>63.845655</ele>
        <time>2023-07-19T12:02:15.841Z</time>
      </trkpt>
      <trkpt lat="48.830528" lon="2.293159">
        <ele>65.458955</ele>
        <time>2023-07-19T12:02:29.027Z</time>
      </trkpt>
      <trkpt lat="48.830457" lon="2.293277">
        <ele>65.832473</ele>
        <time>2023-07-19T12:02:32.023Z</time>
      </trkpt>
      <trkpt lat="48.830439" lon="2.293340">
        <ele>65.992936</ele>
        <time>2023-07-19T12:02:33.354Z</time>
      </trkpt>
      <trkpt lat="48.830448" lon="2.293405">
        <ele>66.148129</ele>
        <time>2023-07-19T12:02:34.642Z</time>
      </trkpt>
      <trkpt lat="48.829903" lon="2.295089">
        <ele>69.480802</ele>
        <time>2023-07-19T12:03:03.541Z</time>
      </trkpt>
      <trkpt lat="48.829811" lon="2.295311">
        <ele>69.844534</ele>
        <time>2023-07-19T12:03:07.407Z</time>
      </trkpt>
      <trkpt lat="48.829722" lon="2.295512">
        <ele>70.180413</ele>
        <time>2023-07-19T12:03:11.221Z</time>
      </trkpt>
      <trkpt lat="48.829680" lon="2.295670">
        <ele>70.416678</ele>
        <time>2023-07-19T12:03:14.066Z</time>
      </trkpt>
      <trkpt lat="48.829617" lon="2.295973">
        <ele>70.857266</ele>
        <time>2023-07-19T12:03:18.909Z</time>
      </trkpt>
      <trkpt lat="48.829379" lon="2.297121">
        <ele>72.047018</ele>
        <time>2023-07-19T12:03:36.730Z</time>
      </trkpt>
      <trkpt lat="48.829373" lon="2.297235">
        <ele>72.109669</ele>
        <time>2023-07-19T12:03:38.514Z</time>
      </trkpt>
      <trkpt lat="48.829015" lon="2.298771">
        <ele>73.002309</ele>
        <time>2023-07-19T12:03:58.584Z</time>
      </trkpt>
      <trkpt lat="48.828963" lon="2.298921">
        <ele>73.095181</ele>
        <time>2023-07-19T12:03:59.986Z</time>
      </trkpt>
      <trkpt lat="48.828946" lon="2.299082">
        <ele>73.184508</ele>
        <time>2023-07-19T12:04:01.278Z</time>
      </trkpt>
      <trkpt lat="48.828910" lon="2.299328">
        <ele>73.082775</ele>
        <time>2023-07-19T12:04:03.443Z</time>
      </trkpt>
      <trkpt lat="48.828794" lon="2.299769">
        <ele>72.662516</ele>
        <time>2023-07-19T12:04:07.181Z</time>
      </trkpt>
      <trkpt lat="48.828792" lon="2.299873">
        <ele>72.570443</ele>
        <time>2023-07-19T12:04:08.031Z</time>
      </trkpt>
      <trkpt lat="48.828682" lon="2.300280">
        <ele>72.181098</ele>
        <time>2023-07-19T12:04:11.449Z</time>
      </trkpt>
      <trkpt lat="48.828692" lon="2.300361">
        <ele>72.108168</ele>
        <time>2023-07-19T12:04:12.131Z</time>
      </trkpt>
      <trkpt lat="48.828636" lon="2.300608">
        <ele>71.876987</ele>
        <time>2023-07-19T12:04:14.079Z</time>
      </trkpt>
      <trkpt lat="48.828514" lon="2.301164">
        <ele>71.358345</ele>
        <time>2023-07-19T12:04:18.535Z</time>
      </trkpt>
      <trkpt lat="48.828478" lon="2.301362">
        <ele>71.176565</ele>
        <time>2023-07-19T12:04:20.128Z</time>
      </trkpt>
      <trkpt lat="48.828443" lon="2.301571">
        <ele>70.985721</ele>
        <time>2023-07-19T12:04:21.638Z</time>
      </trkpt>
      <trkpt lat="48.828167" lon="2.302808">
        <ele>70.366672</ele>
        <time>2023-07-19T12:04:30.874Z</time>
      </trkpt>
      <trkpt lat="48.828066" lon="2.303274">
        <ele>70.169559</ele>
        <time>2023-07-19T12:04:34.782Z</time>
      </trkpt>
      <trkpt lat="48.827929" lon="2.303688">
        <ele>69.983392</ele>
        <time>2023-07-19T12:04:39.918Z</time>
      </trkpt>
      <trkpt lat="48.827755" lon="2.304500">
        <ele>69.824535</ele>
        <time>2023-07-19T12:04:51.326Z</time>
      </trkpt>
      <trkpt lat="48.827776" lon="2.304679">
        <ele>69.930895</ele>
        <time>2023-07-19T12:04:53.829Z</time>
      </trkpt>
      <trkpt lat="48.827720" lon="2.304915">
        <ele>70.077643</ele>
        <time>2023-07-19T12:04:57.381Z</time>
      </trkpt>
      <trkpt lat="48.827706" lon="2.304979">
        <ele>70.117094</ele>
        <time>2023-07-19T12:04:58.322Z</time>
      </trkpt>
      <trkpt lat="48.827674" lon="2.305125">
        <ele>70.207109</ele>
        <time>2023-07-19T12:05:00.325Z</time>
      </trkpt>
      <trkpt lat="48.827621" lon="2.305383">
        <ele>70.365209</ele>
        <time>2023-07-19T12:05:03.767Z</time>
      </trkpt>
      <trkpt lat="48.827557" lon="2.305674">
        <ele>70.544685</ele>
        <time>2023-07-19T12:05:07.649Z</time>
      </trkpt>
      <trkpt lat="48.827416" lon="2.306195">
        <ele>70.874206</ele>
        <time>2023-07-19T12:05:14.288Z</time>
      </trkpt>
      <trkpt lat="48.827284" lon="2.306792">
        <ele>71.242608</ele>
        <time>2023-07-19T12:05:21.021Z</time>
      </trkpt>
      <trkpt lat="48.827236" lon="2.307010">
        <ele>71.279976</ele>
        <time>2023-07-19T12:05:23.910Z</time>
      </trkpt>
      <trkpt lat="48.827210" lon="2.307200">
        <ele>71.219975</ele>
        <time>2023-07-19T12:05:26.060Z</time>
      </trkpt>
      <trkpt lat="48.827153" lon="2.307323">
        <ele>71.173469</ele>
        <time>2023-07-19T12:05:27.760Z</time>
      </trkpt>
      <trkpt lat="48.826844" lon="2.308709">
        <ele>70.721033</ele>
        <time>2023-07-19T12:05:40.590Z</time>
      </trkpt>
      <trkpt lat="48.826796" lon="2.308807">
        <ele>70.683267</ele>
        <time>2023-07-19T12:05:41.508Z</time>
      </trkpt>
      <trkpt lat="48.826796" lon="2.308912">
        <ele>70.650802</ele>
        <time>2023-07-19T12:05:42.426Z</time>
      </trkpt>
      <trkpt lat="48.826730" lon="2.309212">
        <ele>70.553004</ele>
        <time>2023-07-19T12:05:44.743Z</time>
      </trkpt>
      <trkpt lat="48.826684" lon="2.309307">
        <ele>70.516542</ele>
        <time>2023-07-19T12:05:45.608Z</time>
      </trkpt>
      <trkpt lat="48.826688" lon="2.309419">
        <ele>70.481863</ele>
        <time>2023-07-19T12:05:46.585Z</time>
      </trkpt>
      <trkpt lat="48.826556" lon="2.310008">
        <ele>70.259826</ele>
        <time>2023-07-19T12:05:51.641Z</time>
      </trkpt>
      <trkpt lat="48.826512" lon="2.310087">
        <ele>70.222539</ele>
        <time>2023-07-19T12:05:52.478Z</time>
      </trkpt>
      <trkpt lat="48.826500" lon="2.310143">
        <ele>70.201319</ele>
        <time>2023-07-19T12:05:52.962Z</time>
      </trkpt>
      <trkpt lat="48.826515" lon="2.310193">
        <ele>70.181520</ele>
        <time>2023-07-19T12:05:53.430Z</time>
      </trkpt>
      <trkpt lat="48.826430" lon="2.310589">
        <ele>70.031437</ele>
        <time>2023-07-19T12:05:57.172Z</time>
      </trkpt>
      <trkpt lat="48.826391" lon="2.310618">
        <ele>70.007670</ele>
        <time>2023-07-19T12:05:57.718Z</time>
      </trkpt>
      <trkpt lat="48.826381" lon="2.310669">
        <ele>69.988496</ele>
        <time>2023-07-19T12:05:58.176Z</time>
      </trkpt>
      <trkpt lat="48.826369" lon="2.310723">
        <ele>69.967959</ele>
        <time>2023-07-19T12:05:58.673Z</time>
      </trkpt>
      <trkpt lat="48.826385" lon="2.310787">
        <ele>69.943292</ele>
        <time>2023-07-19T12:05:59.294Z</time>
      </trkpt>
      <trkpt lat="48.826269" lon="2.311314">
        <ele>69.743065</ele>
        <time>2023-07-19T12:06:04.471Z</time>
      </trkpt>
      <trkpt lat="48.826231" lon="2.311342">
        <ele>69.719948</ele>
        <time>2023-07-19T12:06:05.039Z</time>
      </trkpt>
      <trkpt lat="48.826219" lon="2.311396">
        <ele>69.699412</ele>
        <time>2023-07-19T12:06:05.583Z</time>
      </trkpt>
      <trkpt lat="48.826208" lon="2.311447">
        <ele>69.680074</ele>
        <time>2023-07-19T12:06:06.055Z</time>
      </trkpt>
      <trkpt lat="48.826227" lon="2.311508">
        <ele>69.655758</ele>
        <time>2023-07-19T12:06:06.609Z</time>
      </trkpt>
      <trkpt lat="48.826039" lon="2.312334">
        <ele>69.627128</ele>
        <time>2023-07-19T12:06:14.181Z</time>
      </trkpt>
      <trkpt lat="48.825999" lon="2.312445">
        <ele>69.672475</ele>
        <time>2023-07-19T12:06:15.385Z</time>
      </trkpt>
      <trkpt lat="48.825975" lon="2.312498">
        <ele>69.695528</ele>
        <time>2023-07-19T12:06:16.042Z</time>
      </trkpt>
      <trkpt lat="48.825956" lon="2.312538">
        <ele>69.713204</ele>
        <time>2023-07-19T12:06:16.543Z</time>
      </trkpt>
      <trkpt lat="48.825881" lon="2.312877">
        <ele>69.841365</ele>
        <time>2023-07-19T12:06:20.212Z</time>
      </trkpt>
      <trkpt lat="48.825686" lon="2.313753">
        <ele>70.172750</ele>
        <time>2023-07-19T12:06:31.099Z</time>
      </trkpt>
      <trkpt lat="48.825629" lon="2.314009">
        <ele>70.269596</ele>
        <time>2023-07-19T12:06:34.260Z</time>
      </trkpt>
      <trkpt lat="48.825618" lon="2.314060">
        <ele>70.288829</ele>
        <time>2023-07-19T12:06:34.873Z</time>
      </trkpt>
      <trkpt lat="48.825641" lon="2.314130">
        <ele>70.316865</ele>
        <time>2023-07-19T12:06:35.790Z</time>
      </trkpt>
      <trkpt lat="48.825090" lon="2.316600">
        <ele>72.397122</ele>
        <time>2023-07-19T12:07:11.450Z</time>
      </trkpt>
      <trkpt lat="48.825023" lon="2.316802">
        <ele>72.596026</ele>
        <time>2023-07-19T12:07:14.296Z</time>
      </trkpt>
      <trkpt lat="48.825022" lon="2.316910">
        <ele>72.691009</ele>
        <time>2023-07-19T12:07:15.558Z</time>
      </trkpt>
      <trkpt lat="48.824757" lon="2.318133">
        <ele>73.453617</ele>
        <time>2023-07-19T12:07:31.973Z</time>
      </trkpt>
      <trkpt lat="48.824790" lon="2.318149">
        <ele>73.482022</ele>
        <time>2023-07-19T12:07:34.406Z</time>
      </trkpt>
      <trkpt lat="48.824775" lon="2.318207">
        <ele>73.515663</ele>
        <time>2023-07-19T12:07:35.126Z</time>
      </trkpt>
      <trkpt lat="48.824737" lon="2.318327">
        <ele>73.587550</ele>
        <time>2023-07-19T12:07:37.526Z</time>
      </trkpt>
      <trkpt lat="48.824714" lon="2.318413">
        <ele>73.637662</ele>
        <time>2023-07-19T12:07:38.539Z</time>
      </trkpt>
      <trkpt lat="48.824556" lon="2.319123">
        <ele>74.042264</ele>
        <time>2023-07-19T12:07:46.744Z</time>
      </trkpt>
      <trkpt lat="48.824531" lon="2.319242">
        <ele>74.109699</ele>
        <time>2023-07-19T12:07:47.972Z</time>
      </trkpt>
      <trkpt lat="48.824531" lon="2.319242">
        <ele>74.109699</ele>
        <time>2023-07-19T12:07:48.005Z</time>
      </trkpt>
      <trkpt lat="48.824531" lon="2.319242">
        <ele>74.109699</ele>
        <time>2023-07-19T12:07:48.005Z</time>
      </trkpt>
      <trkpt lat="48.824879" lon="2.320048">
        <ele>74.344137</ele>
        <time>2023-07-19T12:07:59.765Z</time>
      </trkpt>
      <trkpt lat="48.824879" lon="2.320048">
        <ele>74.344137</ele>
        <time>2023-07-19T12:07:59.780Z</time>
      </trkpt>
      <trkpt lat="48.824879" lon="2.320048">
        <ele>74.344137</ele>
        <time>2023-07-19T12:07:59.780Z</time>
      </trkpt>
      <trkpt lat="48.825342" lon="2.321099">
        <ele>74.352049</ele>
        <time>2023-07-19T12:08:15.209Z</time>
      </trkpt>
      <trkpt lat="48.825806" lon="2.322149">
        <ele>74.308694</ele>
        <time>2023-07-19T12:08:30.639Z</time>
      </trkpt>
      <trkpt lat="48.825806" lon="2.322149">
        <ele>74.308694</ele>
        <time>2023-07-19T12:08:30.648Z</time>
      </trkpt>
      <trkpt lat="48.826299" lon="2.323241">
        <ele>74.113124</ele>
        <time>2023-07-19T12:08:46.803Z</time>
      </trkpt>
      <trkpt lat="48.826793" lon="2.324334">
        <ele>73.892564</ele>
        <time>2023-07-19T12:09:02.979Z</time>
      </trkpt>
      <trkpt lat="48.827286" lon="2.325426">
        <ele>73.566377</ele>
        <time>2023-07-19T12:09:19.134Z</time>
      </trkpt>
      <trkpt lat="48.827779" lon="2.326519">
        <ele>73.220550</ele>
        <time>2023-07-19T12:09:35.295Z</time>
      </trkpt>
      <trkpt lat="48.827807" lon="2.326480">
        <ele>73.199646</ele>
        <time>2023-07-19T12:09:35.753Z</time>
      </trkpt>
      <trkpt lat="48.827869" lon="2.326471">
        <ele>73.165376</ele>
        <time>2023-07-19T12:09:36.535Z</time>
      </trkpt>
      <trkpt lat="48.827920" lon="2.326506">
        <ele>73.134583</ele>
        <time>2023-07-19T12:09:37.261Z</time>
      </trkpt>
      <trkpt lat="48.827966" lon="2.326545">
        <ele>73.105596</ele>
        <time>2023-07-19T12:09:38.003Z</time>
      </trkpt>
      <trkpt lat="48.828068" lon="2.326664">
        <ele>73.034829</ele>
        <time>2023-07-19T12:09:39.763Z</time>
      </trkpt>
      <trkpt lat="48.828116" lon="2.326783">
        <ele>72.984275</ele>
        <time>2023-07-19T12:09:40.896Z</time>
      </trkpt>
      <trkpt lat="48.828138" lon="2.326899">
        <ele>72.940547</ele>
        <time>2023-07-19T12:09:41.906Z</time>
      </trkpt>
      <trkpt lat="48.828127" lon="2.326973">
        <ele>72.913067</ele>
        <time>2023-07-19T12:09:42.612Z</time>
      </trkpt>
      <trkpt lat="48.828044" lon="2.327045">
        <ele>72.860475</ele>
        <time>2023-07-19T12:09:43.982Z</time>
      </trkpt>
      <trkpt lat="48.828781" lon="2.327703">
        <ele>72.390092</ele>
        <time>2023-07-19T12:09:55.117Z</time>
      </trkpt>
      <trkpt lat="48.828919" lon="2.327823">
        <ele>72.302598</ele>
        <time>2023-07-19T12:09:57.212Z</time>
      </trkpt>
      <trkpt lat="48.829167" lon="2.328040">
        <ele>72.084305</ele>
        <time>2023-07-19T12:10:00.945Z</time>
      </trkpt>
      <trkpt lat="48.829558" lon="2.328376">
        <ele>71.734519</ele>
        <time>2023-07-19T12:10:06.655Z</time>
      </trkpt>
      <trkpt lat="48.829591" lon="2.328404">
        <ele>71.705088</ele>
        <time>2023-07-19T12:10:07.136Z</time>
      </trkpt>
      <trkpt lat="48.830069" lon="2.328818">
        <ele>71.276654</ele>
        <time>2023-07-19T12:10:14.298Z</time>
      </trkpt>
      <trkpt lat="48.830642" lon="2.329316">
        <ele>70.691119</ele>
        <time>2023-07-19T12:10:22.308Z</time>
      </trkpt>
      <trkpt lat="48.830787" lon="2.329443">
        <ele>70.488264</ele>
        <time>2023-07-19T12:10:24.235Z</time>
      </trkpt>
      <trkpt lat="48.830805" lon="2.329458">
        <ele>70.463381</ele>
        <time>2023-07-19T12:10:24.465Z</time>
      </trkpt>
      <trkpt lat="48.831123" lon="2.329734">
        <ele>70.019502</ele>
        <time>2023-07-19T12:10:28.736Z</time>
      </trkpt>
      <trkpt lat="48.831200" lon="2.329801">
        <ele>69.911954</ele>
        <time>2023-07-19T12:10:29.795Z</time>
      </trkpt>
      <trkpt lat="48.831372" lon="2.329949">
        <ele>69.672375</ele>
        <time>2023-07-19T12:10:33.187Z</time>
      </trkpt>
      <trkpt lat="48.831419" lon="2.329992">
        <ele>69.605879</ele>
        <time>2023-07-19T12:10:34.110Z</time>
      </trkpt>
      <trkpt lat="48.831814" lon="2.330334">
        <ele>69.054849</ele>
        <time>2023-07-19T12:10:42.068Z</time>
      </trkpt>
      <trkpt lat="48.832049" lon="2.330539">
        <ele>68.726415</ele>
        <time>2023-07-19T12:10:46.704Z</time>
      </trkpt>
      <trkpt lat="48.832122" lon="2.330602">
        <ele>68.649057</ele>
        <time>2023-07-19T12:10:48.107Z</time>
      </trkpt>
      <trkpt lat="48.832214" lon="2.330682">
        <ele>68.556796</ele>
        <time>2023-07-19T12:10:49.865Z</time>
      </trkpt>
      <trkpt lat="48.832266" lon="2.330726">
        <ele>68.504990</ele>
        <time>2023-07-19T12:10:50.829Z</time>
      </trkpt>
      <trkpt lat="48.832849" lon="2.331215">
        <ele>67.925374</ele>
        <time>2023-07-19T12:11:01.295Z</time>
      </trkpt>
      <trkpt lat="48.833149" lon="2.331466">
        <ele>67.627290</ele>
        <time>2023-07-19T12:11:07.227Z</time>
      </trkpt>
      <trkpt lat="48.833239" lon="2.331542">
        <ele>67.537670</ele>
        <time>2023-07-19T12:11:09.246Z</time>
      </trkpt>
      <trkpt lat="48.833282" lon="2.331582">
        <ele>67.493786</ele>
        <time>2023-07-19T12:11:10.245Z</time>
      </trkpt>
      <trkpt lat="48.833681" lon="2.331971">
        <ele>67.153675</ele>
        <time>2023-07-19T12:11:18.648Z</time>
      </trkpt>
      <trkpt lat="48.833769" lon="2.332049">
        <ele>67.164530</ele>
        <time>2023-07-19T12:11:22.788Z</time>
      </trkpt>
      <trkpt lat="48.834123" lon="2.332369">
        <ele>67.208416</ele>
        <time>2023-07-19T12:11:39.098Z</time>
      </trkpt>
      <trkpt lat="48.834215" lon="2.332503">
        <ele>67.221995</ele>
        <time>2023-07-19T12:11:43.937Z</time>
      </trkpt>
      <trkpt lat="48.834340" lon="2.332598">
        <ele>67.236886</ele>
        <time>2023-07-19T12:11:49.206Z</time>
      </trkpt>
      <trkpt lat="48.834457" lon="2.332689">
        <ele>67.250890</ele>
        <time>2023-07-19T12:11:54.152Z</time>
      </trkpt>
      <trkpt lat="48.834677" lon="2.332851">
        <ele>67.276937</ele>
        <time>2023-07-19T12:11:57.532Z</time>
      </trkpt>
      <trkpt lat="48.835011" lon="2.333071">
        <ele>67.315722</ele>
        <time>2023-07-19T12:12:02.825Z</time>
      </trkpt>
      <trkpt lat="48.835071" lon="2.333111">
        <ele>67.322703</ele>
        <time>2023-07-19T12:12:03.849Z</time>
      </trkpt>
      <trkpt lat="48.835101" lon="2.333139">
        <ele>67.326454</ele>
        <time>2023-07-19T12:12:04.454Z</time>
      </trkpt>
      <trkpt lat="48.836068" lon="2.334032">
        <ele>66.155104</ele>
        <time>2023-07-19T12:12:19.134Z</time>
      </trkpt>
      <trkpt lat="48.836313" lon="2.334268">
        <ele>65.821777</ele>
        <time>2023-07-19T12:12:22.420Z</time>
      </trkpt>
      <trkpt lat="48.836696" lon="2.334636">
        <ele>65.301075</ele>
        <time>2023-07-19T12:12:27.390Z</time>
      </trkpt>
      <trkpt lat="48.836840" lon="2.334780">
        <ele>65.051179</ele>
        <time>2023-07-19T12:12:29.254Z</time>
      </trkpt>
      <trkpt lat="48.837451" lon="2.335390">
        <ele>63.951589</ele>
        <time>2023-07-19T12:12:37.158Z</time>
      </trkpt>
      <trkpt lat="48.837586" lon="2.335526">
        <ele>63.707970</ele>
        <time>2023-07-19T12:12:38.978Z</time>
      </trkpt>
      <trkpt lat="48.837663" lon="2.335602">
        <ele>63.569870</ele>
        <time>2023-07-19T12:12:40.029Z</time>
      </trkpt>
      <trkpt lat="48.837730" lon="2.335671">
        <ele>63.448135</ele>
        <time>2023-07-19T12:12:40.948Z</time>
      </trkpt>
      <trkpt lat="48.838392" lon="2.336327">
        <ele>62.551709</ele>
        <time>2023-07-19T12:12:51.078Z</time>
      </trkpt>
      <trkpt lat="48.838649" lon="2.336648">
        <ele>62.529082</ele>
        <time>2023-07-19T12:12:55.854Z</time>
      </trkpt>
      <trkpt lat="48.839258" lon="2.336662">
        <ele>62.487658</ele>
        <time>2023-07-19T12:13:08.051Z</time>
      </trkpt>
      <trkpt lat="48.839479" lon="2.336713">
        <ele>62.472455</ele>
        <time>2023-07-19T12:13:12.339Z</time>
      </trkpt>
      <trkpt lat="48.839606" lon="2.336743">
        <ele>62.463714</ele>
        <time>2023-07-19T12:13:14.877Z</time>
      </trkpt>
      <trkpt lat="48.839683" lon="2.336756">
        <ele>62.458445</ele>
        <time>2023-07-19T12:13:15.959Z</time>
      </trkpt>
      <trkpt lat="48.839814" lon="2.336778">
        <ele>62.449481</ele>
        <time>2023-07-19T12:13:18.792Z</time>
      </trkpt>
      <trkpt lat="48.840061" lon="2.336843">
        <ele>62.484272</ele>
        <time>2023-07-19T12:13:24.408Z</time>
      </trkpt>
      <trkpt lat="48.840346" lon="2.336991">
        <ele>62.562191</ele>
        <time>2023-07-19T12:13:32.071Z</time>
      </trkpt>
      <trkpt lat="48.840468" lon="2.337054">
        <ele>62.595526</ele>
        <time>2023-07-19T12:13:35.407Z</time>
      </trkpt>
      <trkpt lat="48.840877" lon="2.337233">
        <ele>62.705640</ele>
        <time>2023-07-19T12:13:45.572Z</time>
      </trkpt>
      <trkpt lat="48.840905" lon="2.337245">
        <ele>62.713166</ele>
        <time>2023-07-19T12:13:46.212Z</time>
      </trkpt>
      <trkpt lat="48.841121" lon="2.337366">
        <ele>62.772724</ele>
        <time>2023-07-19T12:13:51.202Z</time>
      </trkpt>
      <trkpt lat="48.841687" lon="2.337706">
        <ele>62.825354</ele>
        <time>2023-07-19T12:14:02.434Z</time>
      </trkpt>
      <trkpt lat="48.841759" lon="2.337750">
        <ele>62.748155</ele>
        <time>2023-07-19T12:14:03.753Z</time>
      </trkpt>
      <trkpt lat="48.841813" lon="2.337778">
        <ele>62.691395</ele>
        <time>2023-07-19T12:14:04.428Z</time>
      </trkpt>
      <trkpt lat="48.842406" lon="2.338102">
        <ele>62.064515</ele>
        <time>2023-07-19T12:14:11.619Z</time>
      </trkpt>
      <trkpt lat="48.842505" lon="2.338158">
        <ele>61.959430</ele>
        <time>2023-07-19T12:14:12.897Z</time>
      </trkpt>
      <trkpt lat="48.843221" lon="2.338551">
        <ele>61.202125</ele>
        <time>2023-07-19T12:14:22.350Z</time>
      </trkpt>
      <trkpt lat="48.843369" lon="2.338631">
        <ele>61.148535</ele>
        <time>2023-07-19T12:14:24.289Z</time>
      </trkpt>
      <trkpt lat="48.843740" lon="2.338835">
        <ele>61.304755</ele>
        <time>2023-07-19T12:14:29.370Z</time>
      </trkpt>
      <trkpt lat="48.843956" lon="2.338954">
        <ele>61.395727</ele>
        <time>2023-07-19T12:14:32.639Z</time>
      </trkpt>
      <trkpt lat="48.844037" lon="2.338999">
        <ele>61.429876</ele>
        <time>2023-07-19T12:14:34.480Z</time>
      </trkpt>
      <trkpt lat="48.845800" lon="2.340000">
        <ele>62.175772</ele>
        <time>2023-07-19T12:15:20.966Z</time>
      </trkpt>
      <trkpt lat="48.846232" lon="2.340229">
        <ele>62.357300</ele>
        <time>2023-07-19T12:15:30.616Z</time>
      </trkpt>
      <trkpt lat="48.846277" lon="2.340254">
        <ele>62.376310</ele>
        <time>2023-07-19T12:15:31.522Z</time>
      </trkpt>
      <trkpt lat="48.846715" lon="2.340505">
        <ele>62.493492</ele>
        <time>2023-07-19T12:15:40.110Z</time>
      </trkpt>
      <trkpt lat="48.846929" lon="2.340617">
        <ele>62.219973</ele>
        <time>2023-07-19T12:15:44.172Z</time>
      </trkpt>
      <trkpt lat="48.847336" lon="2.340846">
        <ele>61.695497</ele>
        <time>2023-07-19T12:15:52.012Z</time>
      </trkpt>
      <trkpt lat="48.847367" lon="2.340865">
        <ele>61.655102</ele>
        <time>2023-07-19T12:15:52.413Z</time>
      </trkpt>
      <trkpt lat="48.847568" lon="2.340974">
        <ele>61.397198</ele>
        <time>2023-07-19T12:15:54.936Z</time>
      </trkpt>
      <trkpt lat="48.847670" lon="2.341030">
        <ele>61.266137</ele>
        <time>2023-07-19T12:15:56.296Z</time>
      </trkpt>
      <trkpt lat="48.847845" lon="2.341140">
        <ele>61.037279</ele>
        <time>2023-07-19T12:15:58.483Z</time>
      </trkpt>
      <trkpt lat="48.847909" lon="2.341136">
        <ele>60.959872</ele>
        <time>2023-07-19T12:15:59.200Z</time>
      </trkpt>
      <trkpt lat="48.848385" lon="2.341425">
        <ele>60.293372</ele>
        <time>2023-07-19T12:16:04.980Z</time>
      </trkpt>
      <trkpt lat="48.848683" lon="2.341605">
        <ele>59.318906</ele>
        <time>2023-07-19T12:16:08.448Z</time>
      </trkpt>
      <trkpt lat="48.848840" lon="2.341697">
        <ele>58.807579</ele>
        <time>2023-07-19T12:16:10.217Z</time>
      </trkpt>
      <trkpt lat="48.848932" lon="2.341762">
        <ele>58.499274</ele>
        <time>2023-07-19T12:16:11.284Z</time>
      </trkpt>
      <trkpt lat="48.849796" lon="2.342288">
        <ele>55.670931</ele>
        <time>2023-07-19T12:16:20.688Z</time>
      </trkpt>
      <trkpt lat="48.850001" lon="2.342409">
        <ele>55.002646</ele>
        <time>2023-07-19T12:16:22.818Z</time>
      </trkpt>
      <trkpt lat="48.850179" lon="2.342519">
        <ele>54.430543</ele>
        <time>2023-07-19T12:16:24.658Z</time>
      </trkpt>
      <trkpt lat="48.850308" lon="2.342644">
        <ele>53.976907</ele>
        <time>2023-07-19T12:16:26.141Z</time>
      </trkpt>
      <trkpt lat="48.850426" lon="2.342707">
        <ele>53.606062</ele>
        <time>2023-07-19T12:16:27.367Z</time>
      </trkpt>
      <trkpt lat="48.850626" lon="2.342803">
        <ele>52.984166</ele>
        <time>2023-07-19T12:16:29.453Z</time>
      </trkpt>
      <trkpt lat="48.851253" lon="2.343103">
        <ele>51.035088</ele>
        <time>2023-07-19T12:16:39.316Z</time>
      </trkpt>
      <trkpt lat="48.851343" lon="2.343145">
        <ele>50.755931</ele>
        <time>2023-07-19T12:16:40.889Z</time>
      </trkpt>
      <trkpt lat="48.851398" lon="2.343172">
        <ele>50.584554</ele>
        <time>2023-07-19T12:16:41.801Z</time>
      </trkpt>
      <trkpt lat="48.851763" lon="2.343341">
        <ele>49.486409</ele>
        <time>2023-07-19T12:16:47.703Z</time>
      </trkpt>
      <trkpt lat="48.851843" lon="2.343380">
        <ele>49.306553</ele>
        <time>2023-07-19T12:16:48.964Z</time>
      </trkpt>
      <trkpt lat="48.852697" lon="2.343792">
        <ele>47.388436</ele>
        <time>2023-07-19T12:17:02.791Z</time>
      </trkpt>
      <trkpt lat="48.852759" lon="2.343822">
        <ele>47.249144</ele>
        <time>2023-07-19T12:17:03.889Z</time>
      </trkpt>
      <trkpt lat="48.853328" lon="2.344089">
        <ele>45.974309</ele>
        <time>2023-07-19T12:17:10.559Z</time>
      </trkpt>
      <trkpt lat="48.853381" lon="2.344113">
        <ele>45.855920</ele>
        <time>2023-07-19T12:17:11.174Z</time>
      </trkpt>
      <trkpt lat="48.853441" lon="2.344142">
        <ele>45.721200</ele>
        <time>2023-07-19T12:17:11.865Z</time>
      </trkpt>
      <trkpt lat="48.853716" lon="2.344163">
        <ele>45.166697</ele>
        <time>2023-07-19T12:17:14.799Z</time>
      </trkpt>
      <trkpt lat="48.853841" lon="2.344175">
        <ele>44.914466</ele>
        <time>2023-07-19T12:17:16.128Z</time>
      </trkpt>
      <trkpt lat="48.853942" lon="2.343931">
        <ele>44.532493</ele>
        <time>2023-07-19T12:17:18.099Z</time>
      </trkpt>
      <trkpt lat="48.853988" lon="2.343834">
        <ele>44.374058</ele>
        <time>2023-07-19T12:17:18.923Z</time>
      </trkpt>
      <trkpt lat="48.854296" lon="2.343185">
        <ele>43.313747</ele>
        <time>2023-07-19T12:17:24.307Z</time>
      </trkpt>
      <trkpt lat="48.854442" lon="2.342895">
        <ele>42.829901</ele>
        <time>2023-07-19T12:17:26.943Z</time>
      </trkpt>
      <trkpt lat="48.854621" lon="2.342539">
        <ele>42.236218</ele>
        <time>2023-07-19T12:17:30.446Z</time>
      </trkpt>
      <trkpt lat="48.855279" lon="2.341567">
        <ele>42.839902</ele>
        <time>2023-07-19T12:17:44.972Z</time>
      </trkpt>
      <trkpt lat="48.855786" lon="2.340861">
        <ele>43.438415</ele>
        <time>2023-07-19T12:17:59.940Z</time>
      </trkpt>
      <trkpt lat="48.855969" lon="2.340606">
        <ele>43.654512</ele>
        <time>2023-07-19T12:18:05.158Z</time>
      </trkpt>
      <trkpt lat="48.856080" lon="2.340466">
        <ele>43.948469</ele>
        <time>2023-07-19T12:18:08.309Z</time>
      </trkpt>
      <trkpt lat="48.856131" lon="2.340402">
        <ele>44.090746</ele>
        <time>2023-07-19T12:18:10.066Z</time>
      </trkpt>
      <trkpt lat="48.856165" lon="2.340463">
        <ele>44.203902</ele>
        <time>2023-07-19T12:18:11.759Z</time>
      </trkpt>
      <trkpt lat="48.856225" lon="2.340543">
        <ele>44.375605</ele>
        <time>2023-07-19T12:18:15.848Z</time>
      </trkpt>
      <trkpt lat="48.856340" lon="2.340668">
        <ele>44.679752</ele>
        <time>2023-07-19T12:18:22.589Z</time>
      </trkpt>
      <trkpt lat="48.856750" lon="2.341005">
        <ele>45.682475</ele>
        <time>2023-07-19T12:18:45.545Z</time>
      </trkpt>
      <trkpt lat="48.856750" lon="2.341005">
        <ele>45.682475</ele>
        <time>2023-07-19T12:18:45.578Z</time>
      </trkpt>
      <trkpt lat="48.856750" lon="2.341005">
        <ele>45.682475</ele>
        <time>2023-07-19T12:18:45.578Z</time>
      </trkpt>
      <trkpt lat="48.857052" lon="2.341273">
        <ele>46.434779</ele>
        <time>2023-07-19T12:18:52.063Z</time>
      </trkpt>
      <trkpt lat="48.857052" lon="2.341273">
        <ele>46.434779</ele>
        <time>2023-07-19T12:18:52.074Z</time>
      </trkpt>
      <trkpt lat="48.857319" lon="2.341521">
        <ele>47.107923</ele>
        <time>2023-07-19T12:18:57.880Z</time>
      </trkpt>
      <trkpt lat="48.857762" lon="2.341878">
        <ele>47.438606</ele>
        <time>2023-07-19T12:19:19.653Z</time>
      </trkpt>
      <trkpt lat="48.858333" lon="2.342342">
        <ele>47.232737</ele>
        <time>2023-07-19T12:19:43.790Z</time>
      </trkpt>
      <trkpt lat="48.858379" lon="2.342379">
        <ele>47.216189</ele>
        <time>2023-07-19T12:19:46.427Z</time>
      </trkpt>
      <trkpt lat="48.858483" lon="2.342464">
        <ele>47.178645</ele>
        <time>2023-07-19T12:19:47.671Z</time>
      </trkpt>
      <trkpt lat="48.858483" lon="2.342464">
        <ele>47.178645</ele>
        <time>2023-07-19T12:19:47.779Z</time>
      </trkpt>
      <trkpt lat="48.858483" lon="2.342464">
        <ele>47.178645</ele>
        <time>2023-07-19T12:19:47.779Z</time>
      </trkpt>
      <trkpt lat="48.858624" lon="2.341745">
        <ele>47.021699</ele>
        <time>2023-07-19T12:19:56.928Z</time>
      </trkpt>
      <trkpt lat="48.858765" lon="2.341026">
        <ele>46.575065</ele>
        <time>2023-07-19T12:20:06.076Z</time>
      </trkpt>
      <trkpt lat="48.858765" lon="2.341026">
        <ele>46.575065</ele>
        <time>2023-07-19T12:20:06.154Z</time>
      </trkpt>
      <trkpt lat="48.858765" lon="2.341026">
        <ele>46.575065</ele>
        <time>2023-07-19T12:20:06.154Z</time>
      </trkpt>
      <trkpt lat="48.858990" lon="2.339848">
        <ele>45.562160</ele>
        <time>2023-07-19T12:20:21.111Z</time>
      </trkpt>
      <trkpt lat="48.859184" lon="2.339950">
        <ele>45.304512</ele>
        <time>2023-07-19T12:20:29.390Z</time>
      </trkpt>
      <trkpt lat="48.859502" lon="2.340115">
        <ele>44.882772</ele>
        <time>2023-07-19T12:20:40.224Z</time>
      </trkpt>
      <trkpt lat="48.859924" lon="2.340335">
        <ele>44.708632</ele>
        <time>2023-07-19T12:20:54.214Z</time>
      </trkpt>
      <trkpt lat="48.859948" lon="2.340224">
        <ele>44.709411</ele>
        <time>2023-07-19T12:20:59.566Z</time>
      </trkpt>
      <trkpt lat="48.859994" lon="2.340204">
        <ele>44.709896</ele>
        <time>2023-07-19T12:21:02.915Z</time>
      </trkpt>
      <trkpt lat="48.860124" lon="2.339628">
        <ele>44.713956</ele>
        <time>2023-07-19T12:21:30.771Z</time>
      </trkpt>
      <trkpt lat="48.860193" lon="2.339317">
        <ele>44.716144</ele>
        <time>2023-07-19T12:21:45.772Z</time>
      </trkpt>
      <trkpt lat="48.860296" lon="2.338850">
        <ele>44.719428</ele>
        <time>2023-07-19T12:22:08.290Z</time>
      </trkpt>
      <trkpt lat="48.860166" lon="2.338442">
        <ele>44.722450</ele>
        <time>2023-07-19T12:22:29.024Z</time>
      </trkpt>
      <trkpt lat="48.860436" lon="2.338242">
        <ele>44.718252</ele>
        <time>2023-07-19T12:22:49.908Z</time>
      </trkpt>
      <trkpt lat="48.860542" lon="2.337798">
        <ele>44.708179</ele>
        <time>2023-07-19T12:23:11.514Z</time>
      </trkpt>
      <trkpt lat="48.860544" lon="2.337790">
        <ele>44.707997</ele>
        <time>2023-07-19T12:23:11.903Z</time>
      </trkpt>
      <trkpt lat="48.860619" lon="2.337475">
        <ele>44.700852</ele>
        <time>2023-07-19T12:23:27.227Z</time>
      </trkpt>
      <trkpt lat="48.860641" lon="2.337378">
        <ele>44.698664</ele>
        <time>2023-07-19T12:23:29.000Z</time>
      </trkpt>
      <trkpt lat="48.860168" lon="2.337130">
        <ele>44.682445</ele>
        <time>2023-07-19T12:23:41.150Z</time>
      </trkpt>
      <trkpt lat="48.860567" lon="2.335531">
        <ele>44.589834</ele>
        <time>2023-07-19T12:24:01.390Z</time>
      </trkpt>
      <trkpt lat="48.860776" lon="2.334695">
        <ele>44.515827</ele>
        <time>2023-07-19T12:24:12.436Z</time>
      </trkpt>
      <trkpt lat="48.860777" lon="2.334695">
        <ele>44.515701</ele>
        <time>2023-07-19T12:24:12.450Z</time>
      </trkpt>
      <trkpt lat="48.860777" lon="2.334695">
        <ele>44.515701</ele>
        <time>2023-07-19T12:24:12.452Z</time>
      </trkpt>
      <trkpt lat="48.860777" lon="2.334695">
        <ele>44.515701</ele>
        <time>2023-07-19T12:24:12.452Z</time>
      </trkpt>
      <trkpt lat="48.861005" lon="2.334658">
        <ele>44.486860</ele>
        <time>2023-07-19T12:24:16.702Z</time>
      </trkpt>
      <trkpt lat="48.861395" lon="2.334558">
        <ele>44.447144</ele>
        <time>2023-07-19T12:24:24.031Z</time>
      </trkpt>
      <trkpt lat="48.861530" lon="2.334554">
        <ele>44.510777</ele>
        <time>2023-07-19T12:24:29.985Z</time>
      </trkpt>
      <trkpt lat="48.861625" lon="2.334483">
        <ele>44.560667</ele>
        <time>2023-07-19T12:24:33.687Z</time>
      </trkpt>
      <trkpt lat="48.861698" lon="2.334367">
        <ele>44.610436</ele>
        <time>2023-07-19T12:24:37.304Z</time>
      </trkpt>
      <trkpt lat="48.861832" lon="2.334525">
        <ele>44.690358</ele>
        <time>2023-07-19T12:24:44.285Z</time>
      </trkpt>
      <trkpt lat="48.862343" lon="2.335130">
        <ele>44.995606</ele>
        <time>2023-07-19T12:25:07.693Z</time>
      </trkpt>
      <trkpt lat="48.862410" lon="2.335209">
        <ele>45.035567</ele>
        <time>2023-07-19T12:25:11.205Z</time>
      </trkpt>
      <trkpt lat="48.862578" lon="2.335311">
        <ele>45.120822</ele>
        <time>2023-07-19T12:25:14.019Z</time>
      </trkpt>
      <trkpt lat="48.862603" lon="2.335321">
        <ele>45.133005</ele>
        <time>2023-07-19T12:25:14.541Z</time>
      </trkpt>
      <trkpt lat="48.862644" lon="2.335337">
        <ele>45.152954</ele>
        <time>2023-07-19T12:25:15.597Z</time>
      </trkpt>
      <trkpt lat="48.862695" lon="2.335357">
        <ele>45.177775</ele>
        <time>2023-07-19T12:25:16.861Z</time>
      </trkpt>
      <trkpt lat="48.862729" lon="2.335250">
        <ele>45.214616</ele>
        <time>2023-07-19T12:25:18.576Z</time>
      </trkpt>
      <trkpt lat="48.862751" lon="2.335183">
        <ele>45.237832</ele>
        <time>2023-07-19T12:25:19.541Z</time>
      </trkpt>
      <trkpt lat="48.862780" lon="2.335095">
        <ele>45.268346</ele>
        <time>2023-07-19T12:25:20.710Z</time>
      </trkpt>
      <trkpt lat="48.862813" lon="2.334994">
        <ele>45.271074</ele>
        <time>2023-07-19T12:25:22.145Z</time>
      </trkpt>
      <trkpt lat="48.863030" lon="2.334327">
        <ele>45.049432</ele>
        <time>2023-07-19T12:25:32.014Z</time>
      </trkpt>
      <trkpt lat="48.863174" lon="2.333882">
        <ele>44.901715</ele>
        <time>2023-07-19T12:25:36.362Z</time>
      </trkpt>
      <trkpt lat="48.863210" lon="2.333778">
        <ele>44.866711</ele>
        <time>2023-07-19T12:25:37.263Z</time>
      </trkpt>
      <trkpt lat="48.863656" lon="2.332389">
        <ele>44.377511</ele>
        <time>2023-07-19T12:25:48.836Z</time>
      </trkpt>
      <trkpt lat="48.863668" lon="2.332352">
        <ele>44.359872</ele>
        <time>2023-07-19T12:25:49.193Z</time>
      </trkpt>
      <trkpt lat="48.863718" lon="2.332196">
        <ele>44.285668</ele>
        <time>2023-07-19T12:25:50.634Z</time>
      </trkpt>
      <trkpt lat="48.863754" lon="2.332091">
        <ele>44.235037</ele>
        <time>2023-07-19T12:25:51.647Z</time>
      </trkpt>
      <trkpt lat="48.863836" lon="2.331837">
        <ele>44.114051</ele>
        <time>2023-07-19T12:25:54.073Z</time>
      </trkpt>
      <trkpt lat="48.863846" lon="2.331805">
        <ele>44.098902</ele>
        <time>2023-07-19T12:25:54.373Z</time>
      </trkpt>
      <trkpt lat="48.863905" lon="2.331624">
        <ele>44.012525</ele>
        <time>2023-07-19T12:25:56.063Z</time>
      </trkpt>
      <trkpt lat="48.863996" lon="2.331343">
        <ele>43.878597</ele>
        <time>2023-07-19T12:25:58.682Z</time>
      </trkpt>
      <trkpt lat="48.864025" lon="2.331242">
        <ele>43.831474</ele>
        <time>2023-07-19T12:25:59.567Z</time>
      </trkpt>
      <trkpt lat="48.864349" lon="2.330231">
        <ele>43.350595</ele>
        <time>2023-07-19T12:26:09.395Z</time>
      </trkpt>
      <trkpt lat="48.864391" lon="2.330108">
        <ele>43.303763</ele>
        <time>2023-07-19T12:26:10.704Z</time>
      </trkpt>
      <trkpt lat="48.864653" lon="2.329295">
        <ele>43.316910</ele>
        <time>2023-07-19T12:26:20.469Z</time>
      </trkpt>
      <trkpt lat="48.865242" lon="2.327466">
        <ele>43.175989</ele>
        <time>2023-07-19T12:26:40.715Z</time>
      </trkpt>
      <trkpt lat="48.865305" lon="2.327265">
        <ele>43.018129</ele>
        <time>2023-07-19T12:26:42.669Z</time>
      </trkpt>
      <trkpt lat="48.865714" lon="2.326002">
        <ele>42.020036</ele>
        <time>2023-07-19T12:26:54.090Z</time>
      </trkpt>
      <trkpt lat="48.865999" lon="2.325117">
        <ele>41.282262</ele>
        <time>2023-07-19T12:27:01.243Z</time>
      </trkpt>
      <trkpt lat="48.866030" lon="2.325021">
        <ele>41.170700</ele>
        <time>2023-07-19T12:27:02.003Z</time>
      </trkpt>
      <trkpt lat="48.866311" lon="2.324162">
        <ele>40.169921</ele>
        <time>2023-07-19T12:27:09.035Z</time>
      </trkpt>
      <trkpt lat="48.866381" lon="2.323720">
        <ele>39.695661</ele>
        <time>2023-07-19T12:27:12.596Z</time>
      </trkpt>
      <trkpt lat="48.866387" lon="2.323471">
        <ele>39.435735</ele>
        <time>2023-07-19T12:27:14.685Z</time>
      </trkpt>
      <trkpt lat="48.866387" lon="2.323452">
        <ele>39.415915</ele>
        <time>2023-07-19T12:27:14.838Z</time>
      </trkpt>
      <trkpt lat="48.866387" lon="2.323396">
        <ele>39.357497</ele>
        <time>2023-07-19T12:27:15.290Z</time>
      </trkpt>
      <trkpt lat="48.866348" lon="2.322830">
        <ele>38.763827</ele>
        <time>2023-07-19T12:27:27.689Z</time>
      </trkpt>
      <trkpt lat="48.866534" lon="2.322232">
        <ele>38.058912</ele>
        <time>2023-07-19T12:27:41.431Z</time>
      </trkpt>
      <trkpt lat="48.866615" lon="2.321972">
        <ele>37.749476</ele>
        <time>2023-07-19T12:27:47.322Z</time>
      </trkpt>
      <trkpt lat="48.866826" lon="2.321297">
        <ele>36.945635</ele>
        <time>2023-07-19T12:28:02.636Z</time>
      </trkpt>
      <trkpt lat="48.866851" lon="2.321045">
        <ele>36.671518</ele>
        <time>2023-07-19T12:28:07.886Z</time>
      </trkpt>
      <trkpt lat="48.866840" lon="2.320846">
        <ele>36.456718</ele>
        <time>2023-07-19T12:28:12.178Z</time>
      </trkpt>
      <trkpt lat="48.866798" lon="2.320697">
        <ele>36.282358</ele>
        <time>2023-07-19T12:28:15.595Z</time>
      </trkpt>
      <trkpt lat="48.866749" lon="2.320600">
        <ele>36.150810</ele>
        <time>2023-07-19T12:28:18.175Z</time>
      </trkpt>
      <trkpt lat="48.866722" lon="2.320545">
        <ele>36.076994</ele>
        <time>2023-07-19T12:28:19.695Z</time>
      </trkpt>
      <trkpt lat="48.866140" lon="2.320114">
        <ele>35.720629</ele>
        <time>2023-07-19T12:28:41.870Z</time>
      </trkpt>
      <trkpt lat="48.866053" lon="2.320052">
        <ele>35.749645</ele>
        <time>2023-07-19T12:28:45.319Z</time>
      </trkpt>
      <trkpt lat="48.866025" lon="2.320030">
        <ele>35.759163</ele>
        <time>2023-07-19T12:28:46.485Z</time>
      </trkpt>
      <trkpt lat="48.866071" lon="2.319884">
        <ele>35.791321</ele>
        <time>2023-07-19T12:28:50.354Z</time>
      </trkpt>
      <trkpt lat="48.866008" lon="2.319838">
        <ele>35.812427</ele>
        <time>2023-07-19T12:28:52.812Z</time>
      </trkpt>
      <trkpt lat="48.866036" lon="2.319746">
        <ele>35.832564</ele>
        <time>2023-07-19T12:28:55.085Z</time>
      </trkpt>
      <trkpt lat="48.866247" lon="2.319079">
        <ele>35.979589</ele>
        <time>2023-07-19T12:29:13.653Z</time>
      </trkpt>
      <trkpt lat="48.867092" lon="2.316410">
        <ele>37.652734</ele>
        <time>2023-07-19T12:30:38.564Z</time>
      </trkpt>
      <trkpt lat="48.867528" lon="2.315047">
        <ele>37.646277</ele>
        <time>2023-07-19T12:31:15.020Z</time>
      </trkpt>
      <trkpt lat="48.867555" lon="2.314964">
        <ele>37.595304</ele>
        <time>2023-07-19T12:31:17.135Z</time>
      </trkpt>
      <trkpt lat="48.867860" lon="2.313985">
        <ele>36.998985</ele>
        <time>2023-07-19T12:31:40.076Z</time>
      </trkpt>
      <trkpt lat="48.868032" lon="2.313474">
        <ele>36.682997</ele>
        <time>2023-07-19T12:31:52.339Z</time>
      </trkpt>
      <trkpt lat="48.868418" lon="2.312265">
        <ele>37.209573</ele>
        <time>2023-07-19T12:32:24.072Z</time>
      </trkpt>
      <trkpt lat="48.868810" lon="2.311055">
        <ele>37.863499</ele>
        <time>2023-07-19T12:33:02.575Z</time>
      </trkpt>
      <trkpt lat="48.868954" lon="2.310594">
        <ele>38.653030</ele>
        <time>2023-07-19T12:33:18.037Z</time>
      </trkpt>
      <trkpt lat="48.868971" lon="2.310544">
        <ele>38.768014</ele>
        <time>2023-07-19T12:33:19.742Z</time>
      </trkpt>
      <trkpt lat="48.869124" lon="2.310409">
        <ele>39.317430</ele>
        <time>2023-07-19T12:33:28.227Z</time>
      </trkpt>
      <trkpt lat="48.869179" lon="2.310339">
        <ele>39.540204</ele>
        <time>2023-07-19T12:33:31.688Z</time>
      </trkpt>
      <trkpt lat="48.869228" lon="2.310205">
        <ele>39.853410</ele>
        <time>2023-07-19T12:33:36.541Z</time>
      </trkpt>
      <trkpt lat="48.869227" lon="2.310120">
        <ele>40.027085</ele>
        <time>2023-07-19T12:33:39.359Z</time>
      </trkpt>
      <trkpt lat="48.869226" lon="2.310069">
        <ele>40.131319</ele>
        <time>2023-07-19T12:33:41.030Z</time>
      </trkpt>
      <trkpt lat="48.869201" lon="2.309830">
        <ele>40.625708</ele>
        <time>2023-07-19T12:33:48.904Z</time>
      </trkpt>
      <trkpt lat="48.869215" lon="2.309783">
        <ele>40.731110</ele>
        <time>2023-07-19T12:33:50.645Z</time>
      </trkpt>
      <trkpt lat="48.869384" lon="2.309263">
        <ele>41.916010</ele>
        <time>2023-07-19T12:34:09.927Z</time>
      </trkpt>
      <trkpt lat="48.869415" lon="2.309163">
        <ele>42.141850</ele>
        <time>2023-07-19T12:34:13.641Z</time>
      </trkpt>
      <trkpt lat="48.869722" lon="2.308192">
        <ele>44.320370</ele>
        <time>2023-07-19T12:34:52.126Z</time>
      </trkpt>
      <trkpt lat="48.870035" lon="2.307202">
        <ele>46.502653</ele>
        <time>2023-07-19T12:35:26.139Z</time>
      </trkpt>
      <trkpt lat="48.870113" lon="2.306963">
        <ele>47.032716</ele>
        <time>2023-07-19T12:35:34.410Z</time>
      </trkpt>
      <trkpt lat="48.870182" lon="2.306757">
        <ele>47.491991</ele>
        <time>2023-07-19T12:35:41.724Z</time>
      </trkpt>
      <trkpt lat="48.870316" lon="2.306330">
        <ele>48.431927</ele>
        <time>2023-07-19T12:35:56.914Z</time>
      </trkpt>
      <trkpt lat="48.870525" lon="2.305670">
        <ele>49.663791</ele>
        <time>2023-07-19T12:36:20.774Z</time>
      </trkpt>
      <trkpt lat="48.870599" lon="2.305431">
        <ele>50.061998</ele>
        <time>2023-07-19T12:36:29.235Z</time>
      </trkpt>
      <trkpt lat="48.870717" lon="2.305067">
        <ele>50.673741</ele>
        <time>2023-07-19T12:36:42.287Z</time>
      </trkpt>
      <trkpt lat="48.871129" lon="2.303773">
        <ele>52.840916</ele>
        <time>2023-07-19T12:37:23.868Z</time>
      </trkpt>
      <trkpt lat="48.871432" lon="2.302820">
        <ele>54.426142</ele>
        <time>2023-07-19T12:37:55.348Z</time>
      </trkpt>
      <trkpt lat="48.871533" lon="2.302503">
        <ele>54.953030</ele>
        <time>2023-07-19T12:38:06.008Z</time>
      </trkpt>
      <trkpt lat="48.871630" lon="2.302201">
        <ele>55.455761</ele>
        <time>2023-07-19T12:38:16.151Z</time>
      </trkpt>
      <trkpt lat="48.871895" lon="2.301370">
        <ele>56.837197</ele>
        <time>2023-07-19T12:38:44.272Z</time>
      </trkpt>
      <trkpt lat="48.871949" lon="2.301203">
        <ele>57.115557</ele>
        <time>2023-07-19T12:38:49.899Z</time>
      </trkpt>
      <trkpt lat="48.872195" lon="2.300410">
        <ele>58.900691</ele>
        <time>2023-07-19T12:39:17.778Z</time>
      </trkpt>
      <trkpt lat="48.872456" lon="2.299591">
        <ele>60.776398</ele>
        <time>2023-07-19T12:39:49.153Z</time>
      </trkpt>
      <trkpt lat="48.872538" lon="2.299326">
        <ele>61.380001</ele>
        <time>2023-07-19T12:39:59.433Z</time>
      </trkpt>
      <trkpt lat="48.872736" lon="2.298682">
        <ele>62.821979</ele>
        <time>2023-07-19T12:40:23.140Z</time>
      </trkpt>
      <trkpt lat="48.873119" lon="2.297501">
        <ele>63.755181</ele>
        <time>2023-07-19T12:41:01.936Z</time>
      </trkpt>
      <trkpt lat="48.873171" lon="2.297336">
        <ele>63.884849</ele>
        <time>2023-07-19T12:41:06.872Z</time>
      </trkpt>
      <trkpt lat="48.873225" lon="2.297150">
        <ele>64.028940</ele>
        <time>2023-07-19T12:41:12.249Z</time>
      </trkpt>
      <trkpt lat="48.873235" lon="2.297112">
        <ele>64.057946</ele>
        <time>2023-07-19T12:41:13.275Z</time>
      </trkpt>
      <trkpt lat="48.873372" lon="2.297193">
        <ele>64.216335</ele>
        <time>2023-07-19T12:41:15.479Z</time>
      </trkpt>
      <trkpt lat="48.873675" lon="2.297270">
        <ele>64.547350</ele>
        <time>2023-07-19T12:41:19.867Z</time>
      </trkpt>
      <trkpt lat="48.873948" lon="2.297250">
        <ele>64.651069</ele>
        <time>2023-07-19T12:41:23.450Z</time>
      </trkpt>
      <trkpt lat="48.873972" lon="2.297244">
        <ele>64.624066</ele>
        <time>2023-07-19T12:41:23.747Z</time>
      </trkpt>
      <trkpt lat="48.874230" lon="2.297181">
        <ele>64.333956</ele>
        <time>2023-07-19T12:41:26.902Z</time>
      </trkpt>
      <trkpt lat="48.874564" lon="2.296933">
        <ele>63.921284</ele>
        <time>2023-07-19T12:41:31.135Z</time>
      </trkpt>
      <trkpt lat="48.874649" lon="2.296832">
        <ele>63.801514</ele>
        <time>2023-07-19T12:41:32.326Z</time>
      </trkpt>
      <trkpt lat="48.874844" lon="2.296601">
        <ele>63.527066</ele>
        <time>2023-07-19T12:41:35.171Z</time>
      </trkpt>
      <trkpt lat="48.875042" lon="2.296220">
        <ele>63.172493</ele>
        <time>2023-07-19T12:41:39.036Z</time>
      </trkpt>
      <trkpt lat="48.875108" lon="2.296002">
        <ele>62.997254</ele>
        <time>2023-07-19T12:41:41.004Z</time>
      </trkpt>
      <trkpt lat="48.875223" lon="2.295510">
        <ele>62.762376</ele>
        <time>2023-07-19T12:41:45.175Z</time>
      </trkpt>
      <trkpt lat="48.875254" lon="2.295156">
        <ele>62.784380</ele>
        <time>2023-07-19T12:41:47.884Z</time>
      </trkpt>
      <trkpt lat="48.875248" lon="2.294798">
        <ele>62.806444</ele>
        <time>2023-07-19T12:41:50.868Z</time>
      </trkpt>
      <trkpt lat="48.875166" lon="2.294269">
        <ele>62.839931</ele>
        <time>2023-07-19T12:41:55.981Z</time>
      </trkpt>
      <trkpt lat="48.875047" lon="2.293882">
        <ele>62.866253</ele>
        <time>2023-07-19T12:42:00.872Z</time>
      </trkpt>
      <trkpt lat="48.874853" lon="2.293497">
        <ele>62.896136</ele>
        <time>2023-07-19T12:42:06.972Z</time>
      </trkpt>
      <trkpt lat="48.874651" lon="2.293231">
        <ele>62.939354</ele>
        <time>2023-07-19T12:42:12.183Z</time>
      </trkpt>
      <trkpt lat="48.874420" lon="2.293017">
        <ele>63.237665</ele>
        <time>2023-07-19T12:42:17.848Z</time>
      </trkpt>
      <trkpt lat="48.874134" lon="2.292858">
        <ele>63.573490</ele>
        <time>2023-07-19T12:42:23.911Z</time>
      </trkpt>
      <trkpt lat="48.874019" lon="2.292826">
        <ele>63.702419</ele>
        <time>2023-07-19T12:42:25.974Z</time>
      </trkpt>
      <trkpt lat="48.873779" lon="2.292797">
        <ele>63.967927</ele>
        <time>2023-07-19T12:42:30.583Z</time>
      </trkpt>
      <trkpt lat="48.873590" lon="2.292822">
        <ele>64.177144</ele>
        <time>2023-07-19T12:42:34.062Z</time>
      </trkpt>
      <trkpt lat="48.873484" lon="2.292846">
        <ele>64.295330</ele>
        <time>2023-07-19T12:42:36.189Z</time>
      </trkpt>
      <trkpt lat="48.873307" lon="2.292918">
        <ele>64.497392</ele>
        <time>2023-07-19T12:42:39.669Z</time>
      </trkpt>
      <trkpt lat="48.873059" lon="2.293092">
        <ele>64.798604</ele>
        <time>2023-07-19T12:42:45.248Z</time>
      </trkpt>
      <trkpt lat="48.872983" lon="2.293162">
        <ele>64.896598</ele>
        <time>2023-07-19T12:42:46.986Z</time>
      </trkpt>
      <trkpt lat="48.872705" lon="2.293503">
        <ele>65.152914</ele>
        <time>2023-07-19T12:42:53.677Z</time>
      </trkpt>
      <trkpt lat="48.872557" lon="2.293787">
        <ele>65.322404</ele>
        <time>2023-07-19T12:42:57.844Z</time>
      </trkpt>
      <trkpt lat="48.872448" lon="2.294073">
        <ele>65.477023</ele>
        <time>2023-07-19T12:43:01.490Z</time>
      </trkpt>
      <trkpt lat="48.872329" lon="2.294622">
        <ele>65.747415</ele>
        <time>2023-07-19T12:43:08.001Z</time>
      </trkpt>
      <trkpt lat="48.872303" lon="2.294984">
        <ele>65.917756</ele>
        <time>2023-07-19T12:43:12.377Z</time>
      </trkpt>
      <trkpt lat="48.872311" lon="2.295266">
        <ele>66.049790</ele>
        <time>2023-07-19T12:43:15.517Z</time>
      </trkpt>
      <trkpt lat="48.872368" lon="2.295703">
        <ele>66.129230</ele>
        <time>2023-07-19T12:43:20.742Z</time>
      </trkpt>
      <trkpt lat="48.872430" lon="2.295915">
        <ele>66.053583</ele>
        <time>2023-07-19T12:43:23.407Z</time>
      </trkpt>
      <trkpt lat="48.872512" lon="2.296198">
        <ele>65.952756</ele>
        <time>2023-07-19T12:43:26.680Z</time>
      </trkpt>
      <trkpt lat="48.872726" lon="2.296615">
        <ele>65.780307</ele>
        <time>2023-07-19T12:43:31.994Z</time>
      </trkpt>
      <trkpt lat="48.872959" lon="2.296902">
        <ele>65.631658</ele>
        <time>2023-07-19T12:43:36.207Z</time>
      </trkpt>
      <trkpt lat="48.873050" lon="2.296973">
        <ele>65.580956</ele>
        <time>2023-07-19T12:43:37.413Z</time>
      </trkpt>
      <trkpt lat="48.873038" lon="2.297012">
        <ele>65.566918</ele>
        <time>2023-07-19T12:43:38.475Z</time>
      </trkpt>
      <trkpt lat="48.872923" lon="2.297361">
        <ele>65.439648</ele>
        <time>2023-07-19T12:43:47.360Z</time>
      </trkpt>
      <trkpt lat="48.872809" lon="2.297718">
        <ele>65.310257</ele>
        <time>2023-07-19T12:43:55.843Z</time>
      </trkpt>
      <trkpt lat="48.872545" lon="2.298548">
        <ele>63.308756</ele>
        <time>2023-07-19T12:44:14.210Z</time>
      </trkpt>
      <trkpt lat="48.872338" lon="2.299179">
        <ele>61.686915</ele>
        <time>2023-07-19T12:44:27.324Z</time>
      </trkpt>
      <trkpt lat="48.872272" lon="2.299389">
        <ele>61.151592</ele>
        <time>2023-07-19T12:44:31.599Z</time>
      </trkpt>
      <trkpt lat="48.871994" lon="2.300260">
        <ele>58.939945</ele>
        <time>2023-07-19T12:44:49.386Z</time>
      </trkpt>
      <trkpt lat="48.871957" lon="2.300387">
        <ele>58.684036</ele>
        <time>2023-07-19T12:44:52.036Z</time>
      </trkpt>
      <trkpt lat="48.871809" lon="2.300856">
        <ele>57.725655</ele>
        <time>2023-07-19T12:45:02.072Z</time>
      </trkpt>
      <trkpt lat="48.871689" lon="2.301227">
        <ele>56.963951</ele>
        <time>2023-07-19T12:45:10.209Z</time>
      </trkpt>
      <trkpt lat="48.871504" lon="2.301811">
        <ele>55.769705</ele>
        <time>2023-07-19T12:45:23.400Z</time>
      </trkpt>
      <trkpt lat="48.871426" lon="2.302057">
        <ele>55.266561</ele>
        <time>2023-07-19T12:45:28.974Z</time>
      </trkpt>
      <trkpt lat="48.871285" lon="2.302496">
        <ele>54.366465</ele>
        <time>2023-07-19T12:45:38.922Z</time>
      </trkpt>
      <trkpt lat="48.871232" lon="2.302675">
        <ele>54.004799</ele>
        <time>2023-07-19T12:45:42.927Z</time>
      </trkpt>
      <trkpt lat="48.870984" lon="2.303430">
        <ele>52.884281</ele>
        <time>2023-07-19T12:46:00.181Z</time>
      </trkpt>
      <trkpt lat="48.870923" lon="2.303627">
        <ele>52.598290</ele>
        <time>2023-07-19T12:46:04.838Z</time>
      </trkpt>
      <trkpt lat="48.870515" lon="2.304920">
        <ele>50.714660</ele>
        <time>2023-07-19T12:46:35.509Z</time>
      </trkpt>
      <trkpt lat="48.870443" lon="2.305140">
        <ele>50.391903</ele>
        <time>2023-07-19T12:46:40.443Z</time>
      </trkpt>
      <trkpt lat="48.870321" lon="2.305524">
        <ele>49.510933</ele>
        <time>2023-07-19T12:46:48.802Z</time>
      </trkpt>
      <trkpt lat="48.870109" lon="2.306190">
        <ele>47.960923</ele>
        <time>2023-07-19T12:47:03.123Z</time>
      </trkpt>
      <trkpt lat="48.870058" lon="2.306343">
        <ele>47.601591</ele>
        <time>2023-07-19T12:47:06.443Z</time>
      </trkpt>
      <trkpt lat="48.869966" lon="2.306635">
        <ele>46.923316</ele>
        <time>2023-07-19T12:47:12.764Z</time>
      </trkpt>
      <trkpt lat="48.869911" lon="2.306819">
        <ele>46.499913</ele>
        <time>2023-07-19T12:47:16.743Z</time>
      </trkpt>
      <trkpt lat="48.869209" lon="2.309016">
        <ele>41.259317</ele>
        <time>2023-07-19T12:48:03.107Z</time>
      </trkpt>
      <trkpt lat="48.869181" lon="2.309111">
        <ele>41.032954</ele>
        <time>2023-07-19T12:48:05.086Z</time>
      </trkpt>
      <trkpt lat="48.869014" lon="2.309633">
        <ele>39.770751</ele>
        <time>2023-07-19T12:48:16.250Z</time>
      </trkpt>
      <trkpt lat="48.868996" lon="2.309687">
        <ele>39.639114</ele>
        <time>2023-07-19T12:48:17.413Z</time>
      </trkpt>
      <trkpt lat="48.868955" lon="2.309756">
        <ele>39.436922</ele>
        <time>2023-07-19T12:48:19.247Z</time>
      </trkpt>
      <trkpt lat="48.868858" lon="2.309753">
        <ele>39.116198</ele>
        <time>2023-07-19T12:48:22.178Z</time>
      </trkpt>
      <trkpt lat="48.868819" lon="2.309800">
        <ele>38.951679</ele>
        <time>2023-07-19T12:48:23.689Z</time>
      </trkpt>
      <trkpt lat="48.868773" lon="2.309855">
        <ele>38.758219</ele>
        <time>2023-07-19T12:48:25.464Z</time>
      </trkpt>
      <trkpt lat="48.868787" lon="2.309936">
        <ele>38.653456</ele>
        <time>2023-07-19T12:48:27.135Z</time>
      </trkpt>
      <trkpt lat="48.868769" lon="2.310007">
        <ele>38.594140</ele>
        <time>2023-07-19T12:48:28.650Z</time>
      </trkpt>
      <trkpt lat="48.868728" lon="2.310049">
        <ele>38.535549</ele>
        <time>2023-07-19T12:48:30.162Z</time>
      </trkpt>
      <trkpt lat="48.868730" lon="2.310131">
        <ele>38.471582</ele>
        <time>2023-07-19T12:48:31.855Z</time>
      </trkpt>
      <trkpt lat="48.868734" lon="2.310239">
        <ele>38.387258</ele>
        <time>2023-07-19T12:48:34.104Z</time>
      </trkpt>
      <trkpt lat="48.868774" lon="2.310322">
        <ele>38.307049</ele>
        <time>2023-07-19T12:48:36.291Z</time>
      </trkpt>
      <trkpt lat="48.868774" lon="2.310392">
        <ele>38.252481</ele>
        <time>2023-07-19T12:48:37.711Z</time>
      </trkpt>
      <trkpt lat="48.868757" lon="2.310447">
        <ele>38.205109</ele>
        <time>2023-07-19T12:48:38.924Z</time>
      </trkpt>
      <trkpt lat="48.868228" lon="2.312126">
        <ele>36.753855</ele>
        <time>2023-07-19T12:49:19.663Z</time>
      </trkpt>
      <trkpt lat="48.868173" lon="2.312291">
        <ele>36.609657</ele>
        <time>2023-07-19T12:49:24.475Z</time>
      </trkpt>
      <trkpt lat="48.867844" lon="2.313343">
        <ele>37.321653</ele>
        <time>2023-07-19T12:49:56.424Z</time>
      </trkpt>
      <trkpt lat="48.867639" lon="2.313977">
        <ele>37.804157</ele>
        <time>2023-07-19T12:50:16.797Z</time>
      </trkpt>
      <trkpt lat="48.867477" lon="2.314491">
        <ele>38.193433</ele>
        <time>2023-07-19T12:50:33.255Z</time>
      </trkpt>
      <trkpt lat="48.867368" lon="2.314840">
        <ele>38.419751</ele>
        <time>2023-07-19T12:50:43.814Z</time>
      </trkpt>
      <trkpt lat="48.866999" lon="2.316010">
        <ele>37.956638</ele>
        <time>2023-07-19T12:51:16.030Z</time>
      </trkpt>
      <trkpt lat="48.866913" lon="2.316281">
        <ele>37.849245</ele>
        <time>2023-07-19T12:51:23.314Z</time>
      </trkpt>
      <trkpt lat="48.866999" lon="2.316343">
        <ele>37.797601</ele>
        <time>2023-07-19T12:51:29.941Z</time>
      </trkpt>
      <trkpt lat="48.866313" lon="2.318505">
        <ele>35.188360</ele>
        <time>2023-07-19T12:52:19.322Z</time>
      </trkpt>
      <trkpt lat="48.866153" lon="2.319008">
        <ele>34.311455</ele>
        <time>2023-07-19T12:52:30.176Z</time>
      </trkpt>
      <trkpt lat="48.866131" lon="2.319076">
        <ele>34.192520</ele>
        <time>2023-07-19T12:52:31.664Z</time>
      </trkpt>
      <trkpt lat="48.865999" lon="2.319485">
        <ele>33.477503</ele>
        <time>2023-07-19T12:52:40.577Z</time>
      </trkpt>
      <trkpt lat="48.865937" lon="2.319677">
        <ele>33.151158</ele>
        <time>2023-07-19T12:52:44.858Z</time>
      </trkpt>
      <trkpt lat="48.865909" lon="2.319765">
        <ele>33.058696</ele>
        <time>2023-07-19T12:52:46.868Z</time>
      </trkpt>
      <trkpt lat="48.865755" lon="2.319653">
        <ele>32.813224</ele>
        <time>2023-07-19T12:52:52.135Z</time>
      </trkpt>
      <trkpt lat="48.865696" lon="2.319793">
        <ele>32.655958</ele>
        <time>2023-07-19T12:52:53.914Z</time>
      </trkpt>
      <trkpt lat="48.865671" lon="2.319775">
        <ele>32.616182</ele>
        <time>2023-07-19T12:52:54.784Z</time>
      </trkpt>
      <trkpt lat="48.865377" lon="2.319571">
        <ele>32.151487</ele>
        <time>2023-07-19T12:53:05.255Z</time>
      </trkpt>
      <trkpt lat="48.865143" lon="2.319409">
        <ele>31.781772</ele>
        <time>2023-07-19T12:53:13.596Z</time>
      </trkpt>
      <trkpt lat="48.864965" lon="2.319334">
        <ele>31.516179</ele>
        <time>2023-07-19T12:53:19.717Z</time>
      </trkpt>
      <trkpt lat="48.864657" lon="2.319377">
        <ele>31.071446</ele>
        <time>2023-07-19T12:53:30.135Z</time>
      </trkpt>
      <trkpt lat="48.864468" lon="2.320064">
        <ele>30.558000</ele>
        <time>2023-07-19T12:53:47.179Z</time>
      </trkpt>
      <trkpt lat="48.864429" lon="2.320182">
        <ele>30.545573</ele>
        <time>2023-07-19T12:53:50.367Z</time>
      </trkpt>
      <trkpt lat="48.864234" lon="2.320046">
        <ele>30.514881</ele>
        <time>2023-07-19T12:53:57.928Z</time>
      </trkpt>
      <trkpt lat="48.864177" lon="2.320066">
        <ele>30.506513</ele>
        <time>2023-07-19T12:54:00.158Z</time>
      </trkpt>
      <trkpt lat="48.864069" lon="2.320106">
        <ele>30.490611</ele>
        <time>2023-07-19T12:54:04.212Z</time>
      </trkpt>
      <trkpt lat="48.863991" lon="2.320364">
        <ele>30.463889</ele>
        <time>2023-07-19T12:54:06.801Z</time>
      </trkpt>
      <trkpt lat="48.863689" lon="2.321309">
        <ele>30.365018</ele>
        <time>2023-07-19T12:54:17.605Z</time>
      </trkpt>
      <trkpt lat="48.863546" lon="2.321886">
        <ele>30.351004</ele>
        <time>2023-07-19T12:54:23.390Z</time>
      </trkpt>
      <trkpt lat="48.863284" lon="2.322673">
        <ele>30.514887</ele>
        <time>2023-07-19T12:54:32.084Z</time>
      </trkpt>
      <trkpt lat="48.862507" lon="2.325013">
        <ele>31.751782</ele>
        <time>2023-07-19T12:55:00.749Z</time>
      </trkpt>
      <trkpt lat="48.862488" lon="2.325069">
        <ele>31.814493</ele>
        <time>2023-07-19T12:55:02.498Z</time>
      </trkpt>
      <trkpt lat="48.862423" lon="2.325261">
        <ele>32.029406</ele>
        <time>2023-07-19T12:55:08.467Z</time>
      </trkpt>
      <trkpt lat="48.862383" lon="2.325382">
        <ele>32.164184</ele>
        <time>2023-07-19T12:55:12.238Z</time>
      </trkpt>
      <trkpt lat="48.861641" lon="2.327713">
        <ele>35.183498</ele>
        <time>2023-07-19T12:55:53.524Z</time>
      </trkpt>
      <trkpt lat="48.861179" lon="2.329164">
        <ele>37.336431</ele>
        <time>2023-07-19T12:56:17.566Z</time>
      </trkpt>
      <trkpt lat="48.860944" lon="2.329935">
        <ele>37.956744</ele>
        <time>2023-07-19T12:56:29.248Z</time>
      </trkpt>
      <trkpt lat="48.860897" lon="2.330072">
        <ele>38.069537</ele>
        <time>2023-07-19T12:56:31.000Z</time>
      </trkpt>
      <trkpt lat="48.860897" lon="2.330072">
        <ele>38.069537</ele>
        <time>2023-07-19T12:56:31.032Z</time>
      </trkpt>
      <trkpt lat="48.860897" lon="2.330072">
        <ele>38.069537</ele>
        <time>2023-07-19T12:56:31.032Z</time>
      </trkpt>
      <trkpt lat="48.861410" lon="2.330415">
        <ele>38.691416</ele>
        <time>2023-07-19T12:56:41.419Z</time>
      </trkpt>
      <trkpt lat="48.861924" lon="2.330758">
        <ele>39.312986</ele>
        <time>2023-07-19T12:56:51.823Z</time>
      </trkpt>
      <trkpt lat="48.862144" lon="2.330910">
        <ele>39.571333</ele>
        <time>2023-07-19T12:57:08.623Z</time>
      </trkpt>
      <trkpt lat="48.863005" lon="2.331542">
        <ele>40.593488</ele>
        <time>2023-07-19T12:58:15.073Z</time>
      </trkpt>
      <trkpt lat="48.863635" lon="2.332000">
        <ele>41.336829</ele>
        <time>2023-07-19T12:59:03.628Z</time>
      </trkpt>
      <trkpt lat="48.863706" lon="2.332055">
        <ele>41.420046</ele>
        <time>2023-07-19T12:59:09.161Z</time>
      </trkpt>
      <trkpt lat="48.863754" lon="2.332091">
        <ele>41.475941</ele>
        <time>2023-07-19T12:59:10.417Z</time>
      </trkpt>
      <trkpt lat="48.863836" lon="2.331837">
        <ele>41.670314</ele>
        <time>2023-07-19T12:59:13.989Z</time>
      </trkpt>
      <trkpt lat="48.863846" lon="2.331805">
        <ele>41.694652</ele>
        <time>2023-07-19T12:59:14.452Z</time>
      </trkpt>
      <trkpt lat="48.863905" lon="2.331624">
        <ele>41.833424</ele>
        <time>2023-07-19T12:59:17.341Z</time>
      </trkpt>
      <trkpt lat="48.863996" lon="2.331343">
        <ele>42.048589</ele>
        <time>2023-07-19T12:59:21.193Z</time>
      </trkpt>
      <trkpt lat="48.864025" lon="2.331242">
        <ele>42.124296</ele>
        <time>2023-07-19T12:59:22.579Z</time>
      </trkpt>
      <trkpt lat="48.864349" lon="2.330231">
        <ele>42.896864</ele>
        <time>2023-07-19T12:59:36.327Z</time>
      </trkpt>
      <trkpt lat="48.864391" lon="2.330108">
        <ele>42.992067</ele>
        <time>2023-07-19T12:59:37.978Z</time>
      </trkpt>
      <trkpt lat="48.864653" lon="2.329295">
        <ele>43.143763</ele>
        <time>2023-07-19T12:59:47.743Z</time>
      </trkpt>
      <trkpt lat="48.865242" lon="2.327466">
        <ele>43.248288</ele>
        <time>2023-07-19T13:00:07.988Z</time>
      </trkpt>
      <trkpt lat="48.865305" lon="2.327265">
        <ele>43.089261</ele>
        <time>2023-07-19T13:00:09.943Z</time>
      </trkpt>
      <trkpt lat="48.865714" lon="2.326002">
        <ele>42.083788</ele>
        <time>2023-07-19T13:00:21.364Z</time>
      </trkpt>
      <trkpt lat="48.865999" lon="2.325117">
        <ele>41.380006</ele>
        <time>2023-07-19T13:00:28.587Z</time>
      </trkpt>
      <trkpt lat="48.866030" lon="2.325021">
        <ele>41.310394</ele>
        <time>2023-07-19T13:00:29.368Z</time>
      </trkpt>
      <trkpt lat="48.866311" lon="2.324162">
        <ele>40.719158</ele>
        <time>2023-07-19T13:00:36.738Z</time>
      </trkpt>
      <trkpt lat="48.866381" lon="2.323720">
        <ele>40.438977</ele>
        <time>2023-07-19T13:00:40.500Z</time>
      </trkpt>
      <trkpt lat="48.866387" lon="2.323471">
        <ele>40.285419</ele>
        <time>2023-07-19T13:00:42.691Z</time>
      </trkpt>
      <trkpt lat="48.866387" lon="2.323452">
        <ele>40.273710</ele>
        <time>2023-07-19T13:00:42.848Z</time>
      </trkpt>
      <trkpt lat="48.866387" lon="2.323396">
        <ele>40.239198</ele>
        <time>2023-07-19T13:00:43.312Z</time>
      </trkpt>
      <trkpt lat="48.866703" lon="2.322351">
        <ele>39.623359</ele>
        <time>2023-07-19T13:01:09.530Z</time>
      </trkpt>
      <trkpt lat="48.866788" lon="2.322091">
        <ele>39.565389</ele>
        <time>2023-07-19T13:01:16.379Z</time>
      </trkpt>
      <trkpt lat="48.867225" lon="2.320752">
        <ele>39.266946</ele>
        <time>2023-07-19T13:01:53.295Z</time>
      </trkpt>
      <trkpt lat="48.867094" lon="2.320654">
        <ele>39.222630</ele>
        <time>2023-07-19T13:01:55.824Z</time>
      </trkpt>
      <trkpt lat="48.867061" lon="2.320458">
        <ele>39.182235</ele>
        <time>2023-07-19T13:01:57.590Z</time>
      </trkpt>
      <trkpt lat="48.867097" lon="2.320349">
        <ele>39.157883</ele>
        <time>2023-07-19T13:01:59.062Z</time>
      </trkpt>
      <trkpt lat="48.867430" lon="2.319381">
        <ele>38.687953</ele>
        <time>2023-07-19T13:02:07.940Z</time>
      </trkpt>
      <trkpt lat="48.867471" lon="2.319256">
        <ele>38.621520</ele>
        <time>2023-07-19T13:02:08.930Z</time>
      </trkpt>
      <trkpt lat="48.867776" lon="2.318297">
        <ele>38.114890</ele>
        <time>2023-07-19T13:02:17.695Z</time>
      </trkpt>
      <trkpt lat="48.868107" lon="2.317271">
        <ele>37.834921</ele>
        <time>2023-07-19T13:02:27.960Z</time>
      </trkpt>
      <trkpt lat="48.868204" lon="2.316972">
        <ele>37.843438</ele>
        <time>2023-07-19T13:02:30.874Z</time>
      </trkpt>
      <trkpt lat="48.868352" lon="2.316464">
        <ele>37.857631</ele>
        <time>2023-07-19T13:02:35.949Z</time>
      </trkpt>
      <trkpt lat="48.868328" lon="2.316115">
        <ele>37.866595</ele>
        <time>2023-07-19T13:02:39.698Z</time>
      </trkpt>
      <trkpt lat="48.868324" lon="2.315876">
        <ele>37.872702</ele>
        <time>2023-07-19T13:02:42.022Z</time>
      </trkpt>
      <trkpt lat="48.868321" lon="2.315514">
        <ele>37.881951</ele>
        <time>2023-07-19T13:02:46.207Z</time>
      </trkpt>
      <trkpt lat="48.868376" lon="2.315177">
        <ele>37.890821</ele>
        <time>2023-07-19T13:02:50.159Z</time>
      </trkpt>
      <trkpt lat="48.868501" lon="2.314925">
        <ele>38.046839</ele>
        <time>2023-07-19T13:02:53.942Z</time>
      </trkpt>
      <trkpt lat="48.868695" lon="2.314742">
        <ele>38.229596</ele>
        <time>2023-07-19T13:02:58.320Z</time>
      </trkpt>
      <trkpt lat="48.868834" lon="2.314619">
        <ele>38.358337</ele>
        <time>2023-07-19T13:03:00.782Z</time>
      </trkpt>
      <trkpt lat="48.868929" lon="2.314681">
        <ele>38.441093</ele>
        <time>2023-07-19T13:03:03.097Z</time>
      </trkpt>
      <trkpt lat="48.869040" lon="2.314754">
        <ele>38.537903</ele>
        <time>2023-07-19T13:03:05.661Z</time>
      </trkpt>
      <trkpt lat="48.869073" lon="2.314648">
        <ele>38.599651</ele>
        <time>2023-07-19T13:03:07.011Z</time>
      </trkpt>
      <trkpt lat="48.869464" lon="2.313396">
        <ele>39.329396</ele>
        <time>2023-07-19T13:03:28.071Z</time>
      </trkpt>
      <trkpt lat="48.869485" lon="2.313330">
        <ele>39.427478</ele>
        <time>2023-07-19T13:03:29.457Z</time>
      </trkpt>
      <trkpt lat="48.869713" lon="2.312635">
        <ele>40.495540</ele>
        <time>2023-07-19T13:03:44.293Z</time>
      </trkpt>
      <trkpt lat="48.869870" lon="2.312129">
        <ele>41.264937</ele>
        <time>2023-07-19T13:03:55.881Z</time>
      </trkpt>
      <trkpt lat="48.869929" lon="2.311932">
        <ele>41.562617</ele>
        <time>2023-07-19T13:04:00.353Z</time>
      </trkpt>
      <trkpt lat="48.869978" lon="2.311770">
        <ele>41.807828</ele>
        <time>2023-07-19T13:04:03.746Z</time>
      </trkpt>
      <trkpt lat="48.870190" lon="2.311115">
        <ele>42.811740</ele>
        <time>2023-07-19T13:04:16.982Z</time>
      </trkpt>
      <trkpt lat="48.870213" lon="2.311042">
        <ele>42.923053</ele>
        <time>2023-07-19T13:04:18.459Z</time>
      </trkpt>
      <trkpt lat="48.870234" lon="2.310980">
        <ele>43.018957</ele>
        <time>2023-07-19T13:04:19.716Z</time>
      </trkpt>
      <trkpt lat="48.870496" lon="2.310189">
        <ele>44.094383</ele>
        <time>2023-07-19T13:04:36.491Z</time>
      </trkpt>
      <trkpt lat="48.870529" lon="2.310090">
        <ele>44.228022</ele>
        <time>2023-07-19T13:04:38.770Z</time>
      </trkpt>
      <trkpt lat="48.870553" lon="2.310018">
        <ele>44.325214</ele>
        <time>2023-07-19T13:04:40.430Z</time>
      </trkpt>
      <trkpt lat="48.870577" lon="2.309941">
        <ele>44.427812</ele>
        <time>2023-07-19T13:04:42.156Z</time>
      </trkpt>
      <trkpt lat="48.870668" lon="2.309653">
        <ele>44.812529</ele>
        <time>2023-07-19T13:04:48.779Z</time>
      </trkpt>
      <trkpt lat="48.870903" lon="2.308940">
        <ele>45.772799</ele>
        <time>2023-07-19T13:05:02.970Z</time>
      </trkpt>
      <trkpt lat="48.870939" lon="2.308832">
        <ele>45.918587</ele>
        <time>2023-07-19T13:05:04.885Z</time>
      </trkpt>
      <trkpt lat="48.870962" lon="2.308756">
        <ele>46.019319</ele>
        <time>2023-07-19T13:05:05.896Z</time>
      </trkpt>
      <trkpt lat="48.871374" lon="2.307433">
        <ele>47.574270</ele>
        <time>2023-07-19T13:05:23.297Z</time>
      </trkpt>
      <trkpt lat="48.871413" lon="2.307308">
        <ele>47.716114</ele>
        <time>2023-07-19T13:05:24.692Z</time>
      </trkpt>
      <trkpt lat="48.871377" lon="2.307224">
        <ele>47.818904</ele>
        <time>2023-07-19T13:05:25.771Z</time>
      </trkpt>
      <trkpt lat="48.870837" lon="2.305967">
        <ele>49.420774</ele>
        <time>2023-07-19T13:05:49.509Z</time>
      </trkpt>
      <trkpt lat="48.870713" lon="2.305653">
        <ele>49.934200</ele>
        <time>2023-07-19T13:05:55.810Z</time>
      </trkpt>
      <trkpt lat="48.870677" lon="2.305577">
        <ele>50.065494</ele>
        <time>2023-07-19T13:05:57.376Z</time>
      </trkpt>
      <trkpt lat="48.870626" lon="2.305480">
        <ele>50.239578</ele>
        <time>2023-07-19T13:05:59.185Z</time>
      </trkpt>
      <trkpt lat="48.870599" lon="2.305431">
        <ele>50.329188</ele>
        <time>2023-07-19T13:06:00.950Z</time>
      </trkpt>
      <trkpt lat="48.870717" lon="2.305067">
        <ele>50.898076</ele>
        <time>2023-07-19T13:06:13.808Z</time>
      </trkpt>
      <trkpt lat="48.871129" lon="2.303773">
        <ele>52.913432</ele>
        <time>2023-07-19T13:06:55.675Z</time>
      </trkpt>
      <trkpt lat="48.871432" lon="2.302820">
        <ele>54.448087</ele>
        <time>2023-07-19T13:07:26.962Z</time>
      </trkpt>
      <trkpt lat="48.871533" lon="2.302503">
        <ele>54.960091</ele>
        <time>2023-07-19T13:07:37.623Z</time>
      </trkpt>
      <trkpt lat="48.871630" lon="2.302201">
        <ele>55.448619</ele>
        <time>2023-07-19T13:07:47.765Z</time>
      </trkpt>
      <trkpt lat="48.871895" lon="2.301370">
        <ele>56.791030</ele>
        <time>2023-07-19T13:08:15.887Z</time>
      </trkpt>
      <trkpt lat="48.871949" lon="2.301203">
        <ele>57.090376</ele>
        <time>2023-07-19T13:08:21.513Z</time>
      </trkpt>
      <trkpt lat="48.872195" lon="2.300410">
        <ele>58.926700</ele>
        <time>2023-07-19T13:08:49.366Z</time>
      </trkpt>
      <trkpt lat="48.872456" lon="2.299591">
        <ele>60.832748</ele>
        <time>2023-07-19T13:09:20.556Z</time>
      </trkpt>
      <trkpt lat="48.872538" lon="2.299326">
        <ele>61.446115</ele>
        <time>2023-07-19T13:09:30.720Z</time>
      </trkpt>
      <trkpt lat="48.872736" lon="2.298682">
        <ele>62.812123</ele>
        <time>2023-07-19T13:09:54.763Z</time>
      </trkpt>
      <trkpt lat="48.872940" lon="2.298316">
        <ele>63.233420</ele>
        <time>2023-07-19T13:10:02.935Z</time>
      </trkpt>
      <trkpt lat="48.873183" lon="2.297554">
        <ele>63.977089</ele>
        <time>2023-07-19T13:10:15.257Z</time>
      </trkpt>
      <trkpt lat="48.873244" lon="2.297395">
        <ele>64.138734</ele>
        <time>2023-07-19T13:10:17.450Z</time>
      </trkpt>
      <trkpt lat="48.873637" lon="2.296224">
        <ele>65.044081</ele>
        <time>2023-07-19T13:10:30.851Z</time>
      </trkpt>
      <trkpt lat="48.874021" lon="2.295405">
        <ele>64.620153</ele>
        <time>2023-07-19T13:10:38.781Z</time>
      </trkpt>
      <trkpt lat="48.874112" lon="2.295083">
        <ele>64.472437</ele>
        <time>2023-07-19T13:10:41.383Z</time>
      </trkpt>
      <trkpt lat="48.874322" lon="2.294018">
        <ele>64.003820</ele>
        <time>2023-07-19T13:10:50.790Z</time>
      </trkpt>
      <trkpt lat="48.874655" lon="2.292935">
        <ele>64.360591</ele>
        <time>2023-07-19T13:11:03.956Z</time>
      </trkpt>
      <trkpt lat="48.874950" lon="2.291959">
        <ele>64.732825</ele>
        <time>2023-07-19T13:11:17.445Z</time>
      </trkpt>
      <trkpt lat="48.875016" lon="2.291459">
        <ele>64.909552</ele>
        <time>2023-07-19T13:11:23.728Z</time>
      </trkpt>
      <trkpt lat="48.875002" lon="2.291345">
        <ele>64.830727</ele>
        <time>2023-07-19T13:11:24.900Z</time>
      </trkpt>
      <trkpt lat="48.874988" lon="2.291231">
        <ele>64.710343</ele>
        <time>2023-07-19T13:11:26.051Z</time>
      </trkpt>
      <trkpt lat="48.875011" lon="2.291158">
        <ele>64.626319</ele>
        <time>2023-07-19T13:11:27.181Z</time>
      </trkpt>
      <trkpt lat="48.875061" lon="2.291001">
        <ele>64.445244</ele>
        <time>2023-07-19T13:11:29.621Z</time>
      </trkpt>
      <trkpt lat="48.875230" lon="2.290469">
        <ele>63.831959</ele>
        <time>2023-07-19T13:11:37.088Z</time>
      </trkpt>
      <trkpt lat="48.875269" lon="2.290346">
        <ele>63.690216</ele>
        <time>2023-07-19T13:11:38.613Z</time>
      </trkpt>
      <trkpt lat="48.875557" lon="2.289443">
        <ele>62.648463</ele>
        <time>2023-07-19T13:11:48.888Z</time>
      </trkpt>
      <trkpt lat="48.875578" lon="2.289377">
        <ele>62.572356</ele>
        <time>2023-07-19T13:11:49.576Z</time>
      </trkpt>
      <trkpt lat="48.875630" lon="2.289211">
        <ele>62.381495</ele>
        <time>2023-07-19T13:11:51.283Z</time>
      </trkpt>
      <trkpt lat="48.875698" lon="2.288992">
        <ele>62.130103</ele>
        <time>2023-07-19T13:11:53.598Z</time>
      </trkpt>
      <trkpt lat="48.875797" lon="2.288684">
        <ele>61.345586</ele>
        <time>2023-07-19T13:11:56.776Z</time>
      </trkpt>
      <trkpt lat="48.876197" lon="2.287434">
        <ele>57.887193</ele>
        <time>2023-07-19T13:12:09.625Z</time>
      </trkpt>
      <trkpt lat="48.876264" lon="2.287222">
        <ele>57.302034</ele>
        <time>2023-07-19T13:12:11.763Z</time>
      </trkpt>
      <trkpt lat="48.876325" lon="2.287033">
        <ele>56.778264</ele>
        <time>2023-07-19T13:12:13.695Z</time>
      </trkpt>
      <trkpt lat="48.876444" lon="2.286657">
        <ele>55.740161</ele>
        <time>2023-07-19T13:12:17.596Z</time>
      </trkpt>
      <trkpt lat="48.876602" lon="2.286162">
        <ele>54.322408</ele>
        <time>2023-07-19T13:12:22.773Z</time>
      </trkpt>
      <trkpt lat="48.876757" lon="2.285676">
        <ele>52.906134</ele>
        <time>2023-07-19T13:12:27.826Z</time>
      </trkpt>
      <trkpt lat="48.876888" lon="2.285261">
        <ele>51.699116</ele>
        <time>2023-07-19T13:12:32.114Z</time>
      </trkpt>
      <trkpt lat="48.877131" lon="2.284488">
        <ele>49.452606</ele>
        <time>2023-07-19T13:12:40.047Z</time>
      </trkpt>
      <trkpt lat="48.877164" lon="2.284483">
        <ele>49.320387</ele>
        <time>2023-07-19T13:12:40.374Z</time>
      </trkpt>
      <trkpt lat="48.877211" lon="2.284475">
        <ele>49.131833</ele>
        <time>2023-07-19T13:12:40.829Z</time>
      </trkpt>
      <trkpt lat="48.877267" lon="2.284393">
        <ele>48.821870</ele>
        <time>2023-07-19T13:12:41.580Z</time>
      </trkpt>
      <trkpt lat="48.877423" lon="2.284078">
        <ele>47.805189</ele>
        <time>2023-07-19T13:12:44.046Z</time>
      </trkpt>
      <trkpt lat="48.877563" lon="2.283684">
        <ele>46.694574</ele>
        <time>2023-07-19T13:12:46.819Z</time>
      </trkpt>
      <trkpt lat="48.877545" lon="2.283629">
        <ele>46.542220</ele>
        <time>2023-07-19T13:12:47.197Z</time>
      </trkpt>
      <trkpt lat="48.878345" lon="2.281213">
        <ele>41.387131</ele>
        <time>2023-07-19T13:13:04.817Z</time>
      </trkpt>
      <trkpt lat="48.878606" lon="2.280322">
        <ele>41.489730</ele>
        <time>2023-07-19T13:13:15.195Z</time>
      </trkpt>
      <trkpt lat="48.878355" lon="2.280144">
        <ele>41.534028</ele>
        <time>2023-07-19T13:13:21.556Z</time>
      </trkpt>
      <trkpt lat="48.878276" lon="2.280100">
        <ele>41.547484</ele>
        <time>2023-07-19T13:13:23.533Z</time>
      </trkpt>
      <trkpt lat="48.878335" lon="2.279908">
        <ele>41.569776</ele>
        <time>2023-07-19T13:13:27.040Z</time>
      </trkpt>
      <trkpt lat="48.878367" lon="2.279795">
        <ele>41.582718</ele>
        <time>2023-07-19T13:13:29.021Z</time>
      </trkpt>
      <trkpt lat="48.878395" lon="2.279700">
        <ele>41.593668</ele>
        <time>2023-07-19T13:13:30.704Z</time>
      </trkpt>
      <trkpt lat="48.878438" lon="2.279560">
        <ele>41.609922</ele>
        <time>2023-07-19T13:13:33.258Z</time>
      </trkpt>
      <trkpt lat="48.878451" lon="2.279513">
        <ele>41.656258</ele>
        <time>2023-07-19T13:13:34.208Z</time>
      </trkpt>
      <trkpt lat="48.878927" lon="2.278027">
        <ele>43.772289</ele>
        <time>2023-07-19T13:14:01.892Z</time>
      </trkpt>
      <trkpt lat="48.879086" lon="2.277553">
        <ele>44.453475</ele>
        <time>2023-07-19T13:14:09.878Z</time>
      </trkpt>
      <trkpt lat="48.879171" lon="2.277479">
        <ele>44.644137</ele>
        <time>2023-07-19T13:14:11.720Z</time>
      </trkpt>
      <trkpt lat="48.879197" lon="2.277398">
        <ele>44.759525</ele>
        <time>2023-07-19T13:14:12.803Z</time>
      </trkpt>
      <trkpt lat="48.879646" lon="2.275982">
        <ele>44.900056</ele>
        <time>2023-07-19T13:14:28.013Z</time>
      </trkpt>
      <trkpt lat="48.879893" lon="2.275200">
        <ele>44.757601</ele>
        <time>2023-07-19T13:14:34.960Z</time>
      </trkpt>
      <trkpt lat="48.880083" lon="2.274600">
        <ele>44.660257</ele>
        <time>2023-07-19T13:14:40.890Z</time>
      </trkpt>
      <trkpt lat="48.880358" lon="2.273726">
        <ele>44.624334</ele>
        <time>2023-07-19T13:14:49.722Z</time>
      </trkpt>
      <trkpt lat="48.880375" lon="2.273473">
        <ele>44.614905</ele>
        <time>2023-07-19T13:14:52.069Z</time>
      </trkpt>
      <trkpt lat="48.880825" lon="2.272010">
        <ele>44.607201</ele>
        <time>2023-07-19T13:15:08.178Z</time>
      </trkpt>
      <trkpt lat="48.880985" lon="2.272102">
        <ele>44.666189</ele>
        <time>2023-07-19T13:15:11.056Z</time>
      </trkpt>
      <trkpt lat="48.881108" lon="2.272174">
        <ele>44.711640</ele>
        <time>2023-07-19T13:15:13.546Z</time>
      </trkpt>
      <trkpt lat="48.881208" lon="2.272231">
        <ele>44.748468</ele>
        <time>2023-07-19T13:15:15.538Z</time>
      </trkpt>
      <trkpt lat="48.881274" lon="2.272269">
        <ele>44.772805</ele>
        <time>2023-07-19T13:15:16.849Z</time>
      </trkpt>
      <trkpt lat="48.882914" lon="2.273228">
        <ele>44.919172</ele>
        <time>2023-07-19T13:15:44.962Z</time>
      </trkpt>
      <trkpt lat="48.883356" lon="2.273490">
        <ele>44.699416</ele>
        <time>2023-07-19T13:15:51.504Z</time>
      </trkpt>
      <trkpt lat="48.883408" lon="2.273518">
        <ele>44.673863</ele>
        <time>2023-07-19T13:15:52.202Z</time>
      </trkpt>
      <trkpt lat="48.883627" lon="2.272531">
        <ele>44.356548</ele>
        <time>2023-07-19T13:16:00.702Z</time>
      </trkpt>
      <trkpt lat="48.883664" lon="2.272372">
        <ele>44.349418</ele>
        <time>2023-07-19T13:16:01.983Z</time>
      </trkpt>
      <trkpt lat="48.883819" lon="2.271701">
        <ele>44.349418</ele>
        <time>2023-07-19T13:16:07.133Z</time>
      </trkpt>
      <trkpt lat="48.883832" lon="2.271648">
        <ele>44.349418</ele>
        <time>2023-07-19T13:16:07.555Z</time>
      </trkpt>
      <trkpt lat="48.883902" lon="2.271346">
        <ele>44.349418</ele>
        <time>2023-07-19T13:16:09.955Z</time>
      </trkpt>
      <trkpt lat="48.883968" lon="2.271294">
        <ele>44.349418</ele>
        <time>2023-07-19T13:16:10.809Z</time>
      </trkpt>
      <trkpt lat="48.884180" lon="2.270387">
        <ele>44.349418</ele>
        <time>2023-07-19T13:16:18.162Z</time>
      </trkpt>
      <trkpt lat="48.884296" lon="2.269881">
        <ele>44.349418</ele>
        <time>2023-07-19T13:16:22.262Z</time>
      </trkpt>
      <trkpt lat="48.884266" lon="2.269802">
        <ele>44.349418</ele>
        <time>2023-07-19T13:16:22.971Z</time>
      </trkpt>
      <trkpt lat="48.884289" lon="2.269697">
        <ele>44.349418</ele>
        <time>2023-07-19T13:16:23.797Z</time>
      </trkpt>
      <trkpt lat="48.884369" lon="2.269340">
        <ele>44.349418</ele>
        <time>2023-07-19T13:16:26.807Z</time>
      </trkpt>
    </trkseg>
  </trk>
</gpx>